<?xml version="1.0" encoding="UTF-8" standalone="no" ?>
<gpx xmlns="http://www.topografix.com/GPX/1/1" xmlns:xsi="http://www.w3.org/2001/XMLSchema-instance" xsi:schemaLocation="http://www.topografix.com/GPX/1/1 http://www.topografix.com/GPX/1/1/gpx.xsd" version="1.1" creator="VisuGPX - https://www.visugpx.com">
  <metadata>
    <name>Pico de Puerto viejo - Pico Barrosa - Punta Roya - Bajada por Barrosa</name>
  </metadata>
  <trk>
    <name><![CDATA[Pico de Puerto viejo - Pico Barrosa - Punta Roya - Bajada por Barrosa]]></name>
    <trkseg>
      <trkpt lat="42.70043" lon="0.20148">
        <ele>1367.6</ele>
        <time>2012-10-04T07:48:01Z</time>
      </trkpt>
      <trkpt lat="42.7004" lon="0.2015">
        <ele>1367.6</ele>
        <time>2012-10-04T07:48:10Z</time>
      </trkpt>
      <trkpt lat="42.70039" lon="0.20152">
        <ele>1367.6</ele>
        <time>2012-10-04T07:48:11Z</time>
      </trkpt>
      <trkpt lat="42.70039" lon="0.20159">
        <ele>1367.6</ele>
        <time>2012-10-04T07:48:14Z</time>
      </trkpt>
      <trkpt lat="42.70041" lon="0.20161">
        <ele>1367.6</ele>
        <time>2012-10-04T07:48:15Z</time>
      </trkpt>
      <trkpt lat="42.70043" lon="0.20161">
        <ele>1367.6</ele>
        <time>2012-10-04T07:48:16Z</time>
      </trkpt>
      <trkpt lat="42.70052" lon="0.20155">
        <ele>1369.5</ele>
        <time>2012-10-04T07:48:24Z</time>
      </trkpt>
      <trkpt lat="42.70062" lon="0.2015">
        <ele>1371</ele>
        <time>2012-10-04T07:48:31Z</time>
      </trkpt>
      <trkpt lat="42.70074" lon="0.20145">
        <ele>1372.4</ele>
        <time>2012-10-04T07:48:40Z</time>
      </trkpt>
      <trkpt lat="42.70085" lon="0.20139">
        <ele>1373.9</ele>
        <time>2012-10-04T07:48:48Z</time>
      </trkpt>
      <trkpt lat="42.70098" lon="0.20134">
        <ele>1375.3</ele>
        <time>2012-10-04T07:48:58Z</time>
      </trkpt>
      <trkpt lat="42.70112" lon="0.20129">
        <ele>1376.8</ele>
        <time>2012-10-04T07:49:07Z</time>
      </trkpt>
      <trkpt lat="42.70134" lon="0.2012">
        <ele>1379.2</ele>
        <time>2012-10-04T07:49:20Z</time>
      </trkpt>
      <trkpt lat="42.70154" lon="0.20113">
        <ele>1382</ele>
        <time>2012-10-04T07:49:33Z</time>
      </trkpt>
      <trkpt lat="42.70171" lon="0.20107">
        <ele>1384</ele>
        <time>2012-10-04T07:49:44Z</time>
      </trkpt>
      <trkpt lat="42.70185" lon="0.20101">
        <ele>1385.4</ele>
        <time>2012-10-04T07:49:53Z</time>
      </trkpt>
      <trkpt lat="42.70201" lon="0.20094">
        <ele>1387.3</ele>
        <time>2012-10-04T07:50:03Z</time>
      </trkpt>
      <trkpt lat="42.70218" lon="0.20086">
        <ele>1389.2</ele>
        <time>2012-10-04T07:50:13Z</time>
      </trkpt>
      <trkpt lat="42.70237" lon="0.20073">
        <ele>1391.7</ele>
        <time>2012-10-04T07:50:25Z</time>
      </trkpt>
      <trkpt lat="42.70251" lon="0.20062">
        <ele>1393.1</ele>
        <time>2012-10-04T07:50:35Z</time>
      </trkpt>
      <trkpt lat="42.70267" lon="0.20048">
        <ele>1395.5</ele>
        <time>2012-10-04T07:50:46Z</time>
      </trkpt>
      <trkpt lat="42.70282" lon="0.20034">
        <ele>1397.4</ele>
        <time>2012-10-04T07:50:57Z</time>
      </trkpt>
      <trkpt lat="42.70296" lon="0.2002">
        <ele>1398.9</ele>
        <time>2012-10-04T07:51:07Z</time>
      </trkpt>
      <trkpt lat="42.70311" lon="0.20004">
        <ele>1400.8</ele>
        <time>2012-10-04T07:51:18Z</time>
      </trkpt>
      <trkpt lat="42.70325" lon="0.1999">
        <ele>1402.2</ele>
        <time>2012-10-04T07:51:28Z</time>
      </trkpt>
      <trkpt lat="42.70343" lon="0.19977">
        <ele>1404.1</ele>
        <time>2012-10-04T07:51:39Z</time>
      </trkpt>
      <trkpt lat="42.70359" lon="0.19971">
        <ele>1405.1</ele>
        <time>2012-10-04T07:51:48Z</time>
      </trkpt>
      <trkpt lat="42.7037" lon="0.1997">
        <ele>1406.1</ele>
        <time>2012-10-04T07:51:54Z</time>
      </trkpt>
      <trkpt lat="42.70385" lon="0.19976">
        <ele>1407</ele>
        <time>2012-10-04T07:52:02Z</time>
      </trkpt>
      <trkpt lat="42.70402" lon="0.19992">
        <ele>1408.9</ele>
        <time>2012-10-04T07:52:13Z</time>
      </trkpt>
      <trkpt lat="42.70409" lon="0.20017">
        <ele>1410.9</ele>
        <time>2012-10-04T07:52:24Z</time>
      </trkpt>
      <trkpt lat="42.70407" lon="0.20039">
        <ele>1412.3</ele>
        <time>2012-10-04T07:52:33Z</time>
      </trkpt>
      <trkpt lat="42.70395" lon="0.20065">
        <ele>1414.2</ele>
        <time>2012-10-04T07:52:44Z</time>
      </trkpt>
      <trkpt lat="42.70377" lon="0.20081">
        <ele>1416.2</ele>
        <time>2012-10-04T07:52:55Z</time>
      </trkpt>
      <trkpt lat="42.70355" lon="0.20091">
        <ele>1418.1</ele>
        <time>2012-10-04T07:53:07Z</time>
      </trkpt>
      <trkpt lat="42.70337" lon="0.201">
        <ele>1420</ele>
        <time>2012-10-04T07:53:17Z</time>
      </trkpt>
      <trkpt lat="42.70319" lon="0.20115">
        <ele>1421.4</ele>
        <time>2012-10-04T07:53:27Z</time>
      </trkpt>
      <trkpt lat="42.70309" lon="0.20133">
        <ele>1422.9</ele>
        <time>2012-10-04T07:53:35Z</time>
      </trkpt>
      <trkpt lat="42.70306" lon="0.20159">
        <ele>1424.3</ele>
        <time>2012-10-04T07:53:44Z</time>
      </trkpt>
      <trkpt lat="42.70312" lon="0.20178">
        <ele>1425.8</ele>
        <time>2012-10-04T07:53:52Z</time>
      </trkpt>
      <trkpt lat="42.70324" lon="0.20192">
        <ele>1426.7</ele>
        <time>2012-10-04T07:54:00Z</time>
      </trkpt>
      <trkpt lat="42.70339" lon="0.20199">
        <ele>1428.2</ele>
        <time>2012-10-04T07:54:09Z</time>
      </trkpt>
      <trkpt lat="42.70357" lon="0.20197">
        <ele>1430.1</ele>
        <time>2012-10-04T07:54:19Z</time>
      </trkpt>
      <trkpt lat="42.70371" lon="0.20194">
        <ele>1431.5</ele>
        <time>2012-10-04T07:54:27Z</time>
      </trkpt>
      <trkpt lat="42.70385" lon="0.20189">
        <ele>1433</ele>
        <time>2012-10-04T07:54:35Z</time>
      </trkpt>
      <trkpt lat="42.70403" lon="0.20182">
        <ele>1434.9</ele>
        <time>2012-10-04T07:54:46Z</time>
      </trkpt>
      <trkpt lat="42.70421" lon="0.20177">
        <ele>1437.3</ele>
        <time>2012-10-04T07:54:57Z</time>
      </trkpt>
      <trkpt lat="42.70442" lon="0.20171">
        <ele>1439.7</ele>
        <time>2012-10-04T07:55:09Z</time>
      </trkpt>
      <trkpt lat="42.70458" lon="0.20168">
        <ele>1441.2</ele>
        <time>2012-10-04T07:55:18Z</time>
      </trkpt>
      <trkpt lat="42.7048" lon="0.20164">
        <ele>1443.6</ele>
        <time>2012-10-04T07:55:30Z</time>
      </trkpt>
      <trkpt lat="42.70497" lon="0.20162">
        <ele>1446</ele>
        <time>2012-10-04T07:55:40Z</time>
      </trkpt>
      <trkpt lat="42.70517" lon="0.2016">
        <ele>1447.9</ele>
        <time>2012-10-04T07:55:52Z</time>
      </trkpt>
      <trkpt lat="42.70536" lon="0.20158">
        <ele>1450.3</ele>
        <time>2012-10-04T07:56:03Z</time>
      </trkpt>
      <trkpt lat="42.70554" lon="0.20156">
        <ele>1452.7</ele>
        <time>2012-10-04T07:56:13Z</time>
      </trkpt>
      <trkpt lat="42.70574" lon="0.20153">
        <ele>1454.6</ele>
        <time>2012-10-04T07:56:25Z</time>
      </trkpt>
      <trkpt lat="42.70592" lon="0.2015">
        <ele>1456.5</ele>
        <time>2012-10-04T07:56:35Z</time>
      </trkpt>
      <trkpt lat="42.70608" lon="0.20149">
        <ele>1458.5</ele>
        <time>2012-10-04T07:56:44Z</time>
      </trkpt>
      <trkpt lat="42.70627" lon="0.20151">
        <ele>1460.4</ele>
        <time>2012-10-04T07:56:55Z</time>
      </trkpt>
      <trkpt lat="42.70641" lon="0.20153">
        <ele>1461.8</ele>
        <time>2012-10-04T07:57:03Z</time>
      </trkpt>
      <trkpt lat="42.70658" lon="0.20155">
        <ele>1464.2</ele>
        <time>2012-10-04T07:57:13Z</time>
      </trkpt>
      <trkpt lat="42.7068" lon="0.20159">
        <ele>1466.6</ele>
        <time>2012-10-04T07:57:25Z</time>
      </trkpt>
      <trkpt lat="42.70692" lon="0.20162">
        <ele>1468.1</ele>
        <time>2012-10-04T07:57:32Z</time>
      </trkpt>
      <trkpt lat="42.70711" lon="0.20166">
        <ele>1470</ele>
        <time>2012-10-04T07:57:43Z</time>
      </trkpt>
      <trkpt lat="42.70729" lon="0.20171">
        <ele>1472.4</ele>
        <time>2012-10-04T07:57:53Z</time>
      </trkpt>
      <trkpt lat="42.70747" lon="0.20177">
        <ele>1474.3</ele>
        <time>2012-10-04T07:58:03Z</time>
      </trkpt>
      <trkpt lat="42.70766" lon="0.20182">
        <ele>1476.7</ele>
        <time>2012-10-04T07:58:14Z</time>
      </trkpt>
      <trkpt lat="42.70786" lon="0.20192">
        <ele>1479.1</ele>
        <time>2012-10-04T07:58:26Z</time>
      </trkpt>
      <trkpt lat="42.70804" lon="0.20201">
        <ele>1481.5</ele>
        <time>2012-10-04T07:58:36Z</time>
      </trkpt>
      <trkpt lat="42.70824" lon="0.20212">
        <ele>1483.9</ele>
        <time>2012-10-04T07:58:47Z</time>
      </trkpt>
      <trkpt lat="42.70843" lon="0.20221">
        <ele>1486.3</ele>
        <time>2012-10-04T07:58:58Z</time>
      </trkpt>
      <trkpt lat="42.7086" lon="0.20229">
        <ele>1488.3</ele>
        <time>2012-10-04T07:59:08Z</time>
      </trkpt>
      <trkpt lat="42.70885" lon="0.2024">
        <ele>1491.1</ele>
        <time>2012-10-04T07:59:22Z</time>
      </trkpt>
      <trkpt lat="42.70905" lon="0.20249">
        <ele>1493.6</ele>
        <time>2012-10-04T07:59:34Z</time>
      </trkpt>
      <trkpt lat="42.70931" lon="0.20261">
        <ele>1496.9</ele>
        <time>2012-10-04T07:59:49Z</time>
      </trkpt>
      <trkpt lat="42.70955" lon="0.20272">
        <ele>1499.3</ele>
        <time>2012-10-04T08:00:02Z</time>
      </trkpt>
      <trkpt lat="42.70976" lon="0.20282">
        <ele>1501.7</ele>
        <time>2012-10-04T08:00:14Z</time>
      </trkpt>
      <trkpt lat="42.70992" lon="0.2029">
        <ele>1503.6</ele>
        <time>2012-10-04T08:00:23Z</time>
      </trkpt>
      <trkpt lat="42.7101" lon="0.20299">
        <ele>1506</ele>
        <time>2012-10-04T08:00:33Z</time>
      </trkpt>
      <trkpt lat="42.71029" lon="0.20307">
        <ele>1508</ele>
        <time>2012-10-04T08:00:43Z</time>
      </trkpt>
      <trkpt lat="42.71043" lon="0.20313">
        <ele>1509.4</ele>
        <time>2012-10-04T08:00:51Z</time>
      </trkpt>
      <trkpt lat="42.71062" lon="0.20322">
        <ele>1511.8</ele>
        <time>2012-10-04T08:01:02Z</time>
      </trkpt>
      <trkpt lat="42.7108" lon="0.20335">
        <ele>1514.2</ele>
        <time>2012-10-04T08:01:13Z</time>
      </trkpt>
      <trkpt lat="42.71098" lon="0.20349">
        <ele>1516.6</ele>
        <time>2012-10-04T08:01:24Z</time>
      </trkpt>
      <trkpt lat="42.7111" lon="0.20359">
        <ele>1518.1</ele>
        <time>2012-10-04T08:01:32Z</time>
      </trkpt>
      <trkpt lat="42.71123" lon="0.20369">
        <ele>1520</ele>
        <time>2012-10-04T08:01:40Z</time>
      </trkpt>
      <trkpt lat="42.71135" lon="0.20379">
        <ele>1521.9</ele>
        <time>2012-10-04T08:01:48Z</time>
      </trkpt>
      <trkpt lat="42.7115" lon="0.2039">
        <ele>1523.3</ele>
        <time>2012-10-04T08:01:57Z</time>
      </trkpt>
      <trkpt lat="42.7116" lon="0.20397">
        <ele>1524.8</ele>
        <time>2012-10-04T08:02:03Z</time>
      </trkpt>
      <trkpt lat="42.71176" lon="0.20409">
        <ele>1526.7</ele>
        <time>2012-10-04T08:02:13Z</time>
      </trkpt>
      <trkpt lat="42.71192" lon="0.2042">
        <ele>1529.1</ele>
        <time>2012-10-04T08:02:24Z</time>
      </trkpt>
      <trkpt lat="42.71213" lon="0.20429">
        <ele>1531.5</ele>
        <time>2012-10-04T08:02:37Z</time>
      </trkpt>
      <trkpt lat="42.71218" lon="0.20437">
        <ele>1533</ele>
        <time>2012-10-04T08:02:46Z</time>
      </trkpt>
      <trkpt lat="42.71218" lon="0.2044">
        <ele>1533.4</ele>
        <time>2012-10-04T08:02:48Z</time>
      </trkpt>
      <trkpt lat="42.71212" lon="0.20468">
        <ele>1536.8</ele>
        <time>2012-10-04T08:03:03Z</time>
      </trkpt>
      <trkpt lat="42.71239" lon="0.20471">
        <ele>1537.8</ele>
        <time>2012-10-04T08:03:08Z</time>
      </trkpt>
      <trkpt lat="42.71257" lon="0.20473">
        <ele>1537.8</ele>
        <time>2012-10-04T08:03:09Z</time>
      </trkpt>
      <trkpt lat="42.71266" lon="0.2047">
        <ele>1538.2</ele>
        <time>2012-10-04T08:03:10Z</time>
      </trkpt>
      <trkpt lat="42.71268" lon="0.2047">
        <ele>1538.2</ele>
        <time>2012-10-04T08:03:11Z</time>
      </trkpt>
      <trkpt lat="42.71271" lon="0.20471">
        <ele>1538.7</ele>
        <time>2012-10-04T08:03:12Z</time>
      </trkpt>
      <trkpt lat="42.71288" lon="0.20481">
        <ele>1540.7</ele>
        <time>2012-10-04T08:03:22Z</time>
      </trkpt>
      <trkpt lat="42.71306" lon="0.20486">
        <ele>1542.6</ele>
        <time>2012-10-04T08:03:33Z</time>
      </trkpt>
      <trkpt lat="42.71321" lon="0.20482">
        <ele>1544.5</ele>
        <time>2012-10-04T08:03:42Z</time>
      </trkpt>
      <trkpt lat="42.71322" lon="0.20482">
        <ele>1544.5</ele>
        <time>2012-10-04T08:03:43Z</time>
      </trkpt>
      <trkpt lat="42.71323" lon="0.20481">
        <ele>1544.5</ele>
        <time>2012-10-04T08:03:44Z</time>
      </trkpt>
      <trkpt lat="42.71334" lon="0.2048">
        <ele>1545.9</ele>
        <time>2012-10-04T08:03:53Z</time>
      </trkpt>
      <trkpt lat="42.71336" lon="0.20475">
        <ele>1546.4</ele>
        <time>2012-10-04T08:03:57Z</time>
      </trkpt>
      <trkpt lat="42.71336" lon="0.20472">
        <ele>1546.9</ele>
        <time>2012-10-04T08:03:58Z</time>
      </trkpt>
      <trkpt lat="42.71351" lon="0.20427">
        <ele>1548.8</ele>
        <time>2012-10-04T08:04:09Z</time>
      </trkpt>
      <trkpt lat="42.71364" lon="0.20447">
        <ele>1549.8</ele>
        <time>2012-10-04T08:04:16Z</time>
      </trkpt>
      <trkpt lat="42.71375" lon="0.20435">
        <ele>1550.7</ele>
        <time>2012-10-04T08:04:24Z</time>
      </trkpt>
      <trkpt lat="42.7139" lon="0.2042">
        <ele>1552.7</ele>
        <time>2012-10-04T08:04:35Z</time>
      </trkpt>
      <trkpt lat="42.71404" lon="0.20404">
        <ele>1554.6</ele>
        <time>2012-10-04T08:04:46Z</time>
      </trkpt>
      <trkpt lat="42.71415" lon="0.20394">
        <ele>1556</ele>
        <time>2012-10-04T08:04:54Z</time>
      </trkpt>
      <trkpt lat="42.71424" lon="0.20381">
        <ele>1557.5</ele>
        <time>2012-10-04T08:05:02Z</time>
      </trkpt>
      <trkpt lat="42.71432" lon="0.20367">
        <ele>1558.9</ele>
        <time>2012-10-04T08:05:10Z</time>
      </trkpt>
      <trkpt lat="42.71433" lon="0.20365">
        <ele>1559.4</ele>
        <time>2012-10-04T08:05:11Z</time>
      </trkpt>
      <trkpt lat="42.71437" lon="0.20345">
        <ele>1560.4</ele>
        <time>2012-10-04T08:05:20Z</time>
      </trkpt>
      <trkpt lat="42.71442" lon="0.20326">
        <ele>1561.8</ele>
        <time>2012-10-04T08:05:29Z</time>
      </trkpt>
      <trkpt lat="42.71448" lon="0.20299">
        <ele>1564.2</ele>
        <time>2012-10-04T08:05:41Z</time>
      </trkpt>
      <trkpt lat="42.71461" lon="0.20275">
        <ele>1566.6</ele>
        <time>2012-10-04T08:05:54Z</time>
      </trkpt>
      <trkpt lat="42.71478" lon="0.20259">
        <ele>1569</ele>
        <time>2012-10-04T08:06:06Z</time>
      </trkpt>
      <trkpt lat="42.71489" lon="0.20251">
        <ele>1570.4</ele>
        <time>2012-10-04T08:06:13Z</time>
      </trkpt>
      <trkpt lat="42.71505" lon="0.20242">
        <ele>1572.4</ele>
        <time>2012-10-04T08:06:23Z</time>
      </trkpt>
      <trkpt lat="42.71519" lon="0.20234">
        <ele>1573.8</ele>
        <time>2012-10-04T08:06:31Z</time>
      </trkpt>
      <trkpt lat="42.71532" lon="0.20228">
        <ele>1575.3</ele>
        <time>2012-10-04T08:06:39Z</time>
      </trkpt>
      <trkpt lat="42.71549" lon="0.20219">
        <ele>1577.2</ele>
        <time>2012-10-04T08:06:50Z</time>
      </trkpt>
      <trkpt lat="42.71567" lon="0.2021">
        <ele>1579.1</ele>
        <time>2012-10-04T08:07:01Z</time>
      </trkpt>
      <trkpt lat="42.71585" lon="0.202">
        <ele>1581.5</ele>
        <time>2012-10-04T08:07:12Z</time>
      </trkpt>
      <trkpt lat="42.71599" lon="0.20192">
        <ele>1582.9</ele>
        <time>2012-10-04T08:07:21Z</time>
      </trkpt>
      <trkpt lat="42.71616" lon="0.20182">
        <ele>1584.9</ele>
        <time>2012-10-04T08:07:32Z</time>
      </trkpt>
      <trkpt lat="42.71637" lon="0.2017">
        <ele>1587.3</ele>
        <time>2012-10-04T08:07:44Z</time>
      </trkpt>
      <trkpt lat="42.71651" lon="0.20162">
        <ele>1589.7</ele>
        <time>2012-10-04T08:07:54Z</time>
      </trkpt>
      <trkpt lat="42.71671" lon="0.2015">
        <ele>1592.1</ele>
        <time>2012-10-04T08:08:08Z</time>
      </trkpt>
      <trkpt lat="42.71684" lon="0.20136">
        <ele>1594</ele>
        <time>2012-10-04T08:08:18Z</time>
      </trkpt>
      <trkpt lat="42.71696" lon="0.20123">
        <ele>1595.9</ele>
        <time>2012-10-04T08:08:28Z</time>
      </trkpt>
      <trkpt lat="42.71706" lon="0.2011">
        <ele>1597.4</ele>
        <time>2012-10-04T08:08:37Z</time>
      </trkpt>
      <trkpt lat="42.71715" lon="0.20098">
        <ele>1598.8</ele>
        <time>2012-10-04T08:08:45Z</time>
      </trkpt>
      <trkpt lat="42.71725" lon="0.20083">
        <ele>1600.7</ele>
        <time>2012-10-04T08:08:54Z</time>
      </trkpt>
      <trkpt lat="42.71735" lon="0.20069">
        <ele>1602.7</ele>
        <time>2012-10-04T08:09:03Z</time>
      </trkpt>
      <trkpt lat="42.71748" lon="0.20054">
        <ele>1604.6</ele>
        <time>2012-10-04T08:09:13Z</time>
      </trkpt>
      <trkpt lat="42.7176" lon="0.20038">
        <ele>1606.5</ele>
        <time>2012-10-04T08:09:23Z</time>
      </trkpt>
      <trkpt lat="42.71768" lon="0.2003">
        <ele>1607.5</ele>
        <time>2012-10-04T08:09:29Z</time>
      </trkpt>
      <trkpt lat="42.71773" lon="0.20022">
        <ele>1608.4</ele>
        <time>2012-10-04T08:09:34Z</time>
      </trkpt>
      <trkpt lat="42.71774" lon="0.20021">
        <ele>1608.4</ele>
        <time>2012-10-04T08:09:35Z</time>
      </trkpt>
      <trkpt lat="42.71775" lon="0.2002">
        <ele>1608.9</ele>
        <time>2012-10-04T08:09:36Z</time>
      </trkpt>
      <trkpt lat="42.71777" lon="0.20018">
        <ele>1608.9</ele>
        <time>2012-10-04T08:09:37Z</time>
      </trkpt>
      <trkpt lat="42.71778" lon="0.20017">
        <ele>1608.9</ele>
        <time>2012-10-04T08:09:38Z</time>
      </trkpt>
      <trkpt lat="42.71779" lon="0.20015">
        <ele>1609.4</ele>
        <time>2012-10-04T08:09:39Z</time>
      </trkpt>
      <trkpt lat="42.71781" lon="0.20014">
        <ele>1609.4</ele>
        <time>2012-10-04T08:09:40Z</time>
      </trkpt>
      <trkpt lat="42.71782" lon="0.20012">
        <ele>1609.9</ele>
        <time>2012-10-04T08:09:41Z</time>
      </trkpt>
      <trkpt lat="42.71783" lon="0.20011">
        <ele>1609.9</ele>
        <time>2012-10-04T08:09:42Z</time>
      </trkpt>
      <trkpt lat="42.71784" lon="0.2001">
        <ele>1610.3</ele>
        <time>2012-10-04T08:09:43Z</time>
      </trkpt>
      <trkpt lat="42.71785" lon="0.20009">
        <ele>1610.3</ele>
        <time>2012-10-04T08:09:44Z</time>
      </trkpt>
      <trkpt lat="42.71795" lon="0.19998">
        <ele>1611.8</ele>
        <time>2012-10-04T08:09:53Z</time>
      </trkpt>
      <trkpt lat="42.71804" lon="0.19989">
        <ele>1613.2</ele>
        <time>2012-10-04T08:10:00Z</time>
      </trkpt>
      <trkpt lat="42.71812" lon="0.19979">
        <ele>1614.2</ele>
        <time>2012-10-04T08:10:07Z</time>
      </trkpt>
      <trkpt lat="42.71822" lon="0.19969">
        <ele>1616.1</ele>
        <time>2012-10-04T08:10:15Z</time>
      </trkpt>
      <trkpt lat="42.71834" lon="0.19956">
        <ele>1617.6</ele>
        <time>2012-10-04T08:10:24Z</time>
      </trkpt>
      <trkpt lat="42.71845" lon="0.19945">
        <ele>1619</ele>
        <time>2012-10-04T08:10:32Z</time>
      </trkpt>
      <trkpt lat="42.71846" lon="0.19944">
        <ele>1619.5</ele>
        <time>2012-10-04T08:10:33Z</time>
      </trkpt>
      <trkpt lat="42.71848" lon="0.19943">
        <ele>1619.5</ele>
        <time>2012-10-04T08:10:34Z</time>
      </trkpt>
      <trkpt lat="42.71849" lon="0.19942">
        <ele>1619.5</ele>
        <time>2012-10-04T08:10:35Z</time>
      </trkpt>
      <trkpt lat="42.71861" lon="0.19934">
        <ele>1621.4</ele>
        <time>2012-10-04T08:10:43Z</time>
      </trkpt>
      <trkpt lat="42.71873" lon="0.19927">
        <ele>1622.8</ele>
        <time>2012-10-04T08:10:51Z</time>
      </trkpt>
      <trkpt lat="42.71885" lon="0.19923">
        <ele>1624.3</ele>
        <time>2012-10-04T08:10:59Z</time>
      </trkpt>
      <trkpt lat="42.71897" lon="0.19922">
        <ele>1625.7</ele>
        <time>2012-10-04T08:11:06Z</time>
      </trkpt>
      <trkpt lat="42.71906" lon="0.19922">
        <ele>1627.2</ele>
        <time>2012-10-04T08:11:12Z</time>
      </trkpt>
      <trkpt lat="42.71922" lon="0.19911">
        <ele>1629.1</ele>
        <time>2012-10-04T08:11:21Z</time>
      </trkpt>
      <trkpt lat="42.71924" lon="0.19908">
        <ele>1629.1</ele>
        <time>2012-10-04T08:11:23Z</time>
      </trkpt>
      <trkpt lat="42.71926" lon="0.19906">
        <ele>1629.1</ele>
        <time>2012-10-04T08:11:24Z</time>
      </trkpt>
      <trkpt lat="42.71927" lon="0.19906">
        <ele>1629.6</ele>
        <time>2012-10-04T08:11:25Z</time>
      </trkpt>
      <trkpt lat="42.71929" lon="0.19905">
        <ele>1629.6</ele>
        <time>2012-10-04T08:11:26Z</time>
      </trkpt>
      <trkpt lat="42.71931" lon="0.19905">
        <ele>1630.1</ele>
        <time>2012-10-04T08:11:27Z</time>
      </trkpt>
      <trkpt lat="42.71933" lon="0.19904">
        <ele>1630.1</ele>
        <time>2012-10-04T08:11:28Z</time>
      </trkpt>
      <trkpt lat="42.71934" lon="0.19903">
        <ele>1630.1</ele>
        <time>2012-10-04T08:11:29Z</time>
      </trkpt>
      <trkpt lat="42.7194" lon="0.19901">
        <ele>1631.5</ele>
        <time>2012-10-04T08:11:34Z</time>
      </trkpt>
      <trkpt lat="42.71942" lon="0.199">
        <ele>1631.5</ele>
        <time>2012-10-04T08:11:35Z</time>
      </trkpt>
      <trkpt lat="42.71944" lon="0.19898">
        <ele>1631.5</ele>
        <time>2012-10-04T08:11:36Z</time>
      </trkpt>
      <trkpt lat="42.7195" lon="0.19893">
        <ele>1632.5</ele>
        <time>2012-10-04T08:11:39Z</time>
      </trkpt>
      <trkpt lat="42.71966" lon="0.19884">
        <ele>1634.4</ele>
        <time>2012-10-04T08:11:48Z</time>
      </trkpt>
      <trkpt lat="42.71981" lon="0.19867">
        <ele>1636.8</ele>
        <time>2012-10-04T08:11:58Z</time>
      </trkpt>
      <trkpt lat="42.71993" lon="0.19852">
        <ele>1638.2</ele>
        <time>2012-10-04T08:12:06Z</time>
      </trkpt>
      <trkpt lat="42.72004" lon="0.19835">
        <ele>1640.2</ele>
        <time>2012-10-04T08:12:15Z</time>
      </trkpt>
      <trkpt lat="42.72016" lon="0.1982">
        <ele>1642.1</ele>
        <time>2012-10-04T08:12:24Z</time>
      </trkpt>
      <trkpt lat="42.72025" lon="0.19807">
        <ele>1644</ele>
        <time>2012-10-04T08:12:31Z</time>
      </trkpt>
      <trkpt lat="42.7204" lon="0.19788">
        <ele>1645.9</ele>
        <time>2012-10-04T08:12:41Z</time>
      </trkpt>
      <trkpt lat="42.72051" lon="0.19774">
        <ele>1647.4</ele>
        <time>2012-10-04T08:12:49Z</time>
      </trkpt>
      <trkpt lat="42.72066" lon="0.19763">
        <ele>1649.3</ele>
        <time>2012-10-04T08:12:58Z</time>
      </trkpt>
      <trkpt lat="42.72066" lon="0.19763">
        <ele>1649.3</ele>
        <time>2012-10-04T08:12:58Z</time>
      </trkpt>
      <trkpt lat="42.72072" lon="0.19771">
        <ele>1649.8</ele>
        <time>2012-10-04T08:13:02Z</time>
      </trkpt>
      <trkpt lat="42.72077" lon="0.19791">
        <ele>1651.2</ele>
        <time>2012-10-04T08:13:11Z</time>
      </trkpt>
      <trkpt lat="42.72079" lon="0.19791">
        <ele>1651.2</ele>
        <time>2012-10-04T08:13:16Z</time>
      </trkpt>
      <trkpt lat="42.72079" lon="0.19792">
        <ele>1651.2</ele>
        <time>2012-10-04T08:13:26Z</time>
      </trkpt>
      <trkpt lat="42.72082" lon="0.19789">
        <ele>1651.2</ele>
        <time>2012-10-04T08:13:49Z</time>
      </trkpt>
      <trkpt lat="42.72085" lon="0.19788">
        <ele>1651.2</ele>
        <time>2012-10-04T08:14:05Z</time>
      </trkpt>
      <trkpt lat="42.7208" lon="0.19786">
        <ele>1652.2</ele>
        <time>2012-10-04T08:14:16Z</time>
      </trkpt>
      <trkpt lat="42.72079" lon="0.19788">
        <ele>1651.7</ele>
        <time>2012-10-04T08:14:28Z</time>
      </trkpt>
      <trkpt lat="42.72081" lon="0.1979">
        <ele>1651.7</ele>
        <time>2012-10-04T08:14:38Z</time>
      </trkpt>
      <trkpt lat="42.72082" lon="0.19792">
        <ele>1651.7</ele>
        <time>2012-10-04T08:14:53Z</time>
      </trkpt>
      <trkpt lat="42.72083" lon="0.19792">
        <ele>1651.7</ele>
        <time>2012-10-04T08:15:11Z</time>
      </trkpt>
      <trkpt lat="42.7208" lon="0.1979">
        <ele>1652.2</ele>
        <time>2012-10-04T08:15:29Z</time>
      </trkpt>
      <trkpt lat="42.7208" lon="0.1979">
        <ele>1652.2</ele>
        <time>2012-10-04T08:15:40Z</time>
      </trkpt>
      <trkpt lat="42.72079" lon="0.19787">
        <ele>1652.2</ele>
        <time>2012-10-04T08:15:56Z</time>
      </trkpt>
      <trkpt lat="42.72081" lon="0.19787">
        <ele>1652.2</ele>
        <time>2012-10-04T08:16:09Z</time>
      </trkpt>
      <trkpt lat="42.72079" lon="0.19789">
        <ele>1653.1</ele>
        <time>2012-10-04T08:16:17Z</time>
      </trkpt>
      <trkpt lat="42.72078" lon="0.19789">
        <ele>1653.1</ele>
        <time>2012-10-04T08:16:25Z</time>
      </trkpt>
      <trkpt lat="42.7208" lon="0.19789">
        <ele>1652.6</ele>
        <time>2012-10-04T08:16:38Z</time>
      </trkpt>
      <trkpt lat="42.7208" lon="0.19792">
        <ele>1652.6</ele>
        <time>2012-10-04T08:16:58Z</time>
      </trkpt>
      <trkpt lat="42.7208" lon="0.1979">
        <ele>1653.1</ele>
        <time>2012-10-04T08:17:16Z</time>
      </trkpt>
      <trkpt lat="42.72082" lon="0.19789">
        <ele>1653.1</ele>
        <time>2012-10-04T08:17:41Z</time>
      </trkpt>
      <trkpt lat="42.72083" lon="0.19788">
        <ele>1653.6</ele>
        <time>2012-10-04T08:18:07Z</time>
      </trkpt>
      <trkpt lat="42.72081" lon="0.19787">
        <ele>1654.6</ele>
        <time>2012-10-04T08:18:13Z</time>
      </trkpt>
      <trkpt lat="42.72081" lon="0.19784">
        <ele>1654.6</ele>
        <time>2012-10-04T08:18:30Z</time>
      </trkpt>
      <trkpt lat="42.72079" lon="0.19785">
        <ele>1654.6</ele>
        <time>2012-10-04T08:18:46Z</time>
      </trkpt>
      <trkpt lat="42.72078" lon="0.19788">
        <ele>1655.1</ele>
        <time>2012-10-04T08:19:06Z</time>
      </trkpt>
      <trkpt lat="42.72077" lon="0.19786">
        <ele>1655.1</ele>
        <time>2012-10-04T08:19:14Z</time>
      </trkpt>
      <trkpt lat="42.72078" lon="0.19786">
        <ele>1655.1</ele>
        <time>2012-10-04T08:19:21Z</time>
      </trkpt>
      <trkpt lat="42.72078" lon="0.19785">
        <ele>1655.1</ele>
        <time>2012-10-04T08:19:32Z</time>
      </trkpt>
      <trkpt lat="42.72081" lon="0.19789">
        <ele>1655.5</ele>
        <time>2012-10-04T08:19:40Z</time>
      </trkpt>
      <trkpt lat="42.7208" lon="0.1979">
        <ele>1655.5</ele>
        <time>2012-10-04T08:19:51Z</time>
      </trkpt>
      <trkpt lat="42.72087" lon="0.19799">
        <ele>1656</ele>
        <time>2012-10-04T08:19:58Z</time>
      </trkpt>
      <trkpt lat="42.72089" lon="0.19803">
        <ele>1656</ele>
        <time>2012-10-04T08:20:00Z</time>
      </trkpt>
      <trkpt lat="42.72091" lon="0.19823">
        <ele>1656</ele>
        <time>2012-10-04T08:20:08Z</time>
      </trkpt>
      <trkpt lat="42.72091" lon="0.1983">
        <ele>1656.5</ele>
        <time>2012-10-04T08:20:14Z</time>
      </trkpt>
      <trkpt lat="42.72089" lon="0.19843">
        <ele>1656.5</ele>
        <time>2012-10-04T08:20:21Z</time>
      </trkpt>
      <trkpt lat="42.72088" lon="0.19851">
        <ele>1656.5</ele>
        <time>2012-10-04T08:20:25Z</time>
      </trkpt>
      <trkpt lat="42.72083" lon="0.19858">
        <ele>1656.5</ele>
        <time>2012-10-04T08:20:30Z</time>
      </trkpt>
      <trkpt lat="42.72092" lon="0.19857">
        <ele>1657.9</ele>
        <time>2012-10-04T08:20:35Z</time>
      </trkpt>
      <trkpt lat="42.72095" lon="0.19857">
        <ele>1658.4</ele>
        <time>2012-10-04T08:20:36Z</time>
      </trkpt>
      <trkpt lat="42.72096" lon="0.19857">
        <ele>1657.9</ele>
        <time>2012-10-04T08:20:37Z</time>
      </trkpt>
      <trkpt lat="42.7209" lon="0.19853">
        <ele>1658.4</ele>
        <time>2012-10-04T08:20:42Z</time>
      </trkpt>
      <trkpt lat="42.72091" lon="0.19851">
        <ele>1658.4</ele>
        <time>2012-10-04T08:20:44Z</time>
      </trkpt>
      <trkpt lat="42.72093" lon="0.19844">
        <ele>1659.8</ele>
        <time>2012-10-04T08:20:49Z</time>
      </trkpt>
      <trkpt lat="42.72096" lon="0.19832">
        <ele>1661.8</ele>
        <time>2012-10-04T08:20:56Z</time>
      </trkpt>
      <trkpt lat="42.72098" lon="0.19821">
        <ele>1663.7</ele>
        <time>2012-10-04T08:21:03Z</time>
      </trkpt>
      <trkpt lat="42.72099" lon="0.19808">
        <ele>1665.6</ele>
        <time>2012-10-04T08:21:10Z</time>
      </trkpt>
      <trkpt lat="42.721" lon="0.19804">
        <ele>1666.6</ele>
        <time>2012-10-04T08:21:15Z</time>
      </trkpt>
      <trkpt lat="42.72101" lon="0.19801">
        <ele>1667.1</ele>
        <time>2012-10-04T08:21:22Z</time>
      </trkpt>
      <trkpt lat="42.72101" lon="0.19798">
        <ele>1667.5</ele>
        <time>2012-10-04T08:21:25Z</time>
      </trkpt>
      <trkpt lat="42.72102" lon="0.19795">
        <ele>1668</ele>
        <time>2012-10-04T08:21:27Z</time>
      </trkpt>
      <trkpt lat="42.72104" lon="0.19784">
        <ele>1669.5</ele>
        <time>2012-10-04T08:21:35Z</time>
      </trkpt>
      <trkpt lat="42.72106" lon="0.19778">
        <ele>1670.4</ele>
        <time>2012-10-04T08:21:40Z</time>
      </trkpt>
      <trkpt lat="42.72107" lon="0.19776">
        <ele>1670.4</ele>
        <time>2012-10-04T08:21:42Z</time>
      </trkpt>
      <trkpt lat="42.7211" lon="0.1978">
        <ele>1670.9</ele>
        <time>2012-10-04T08:21:46Z</time>
      </trkpt>
      <trkpt lat="42.7211" lon="0.19792">
        <ele>1672.8</ele>
        <time>2012-10-04T08:21:55Z</time>
      </trkpt>
      <trkpt lat="42.72111" lon="0.19803">
        <ele>1674.3</ele>
        <time>2012-10-04T08:22:03Z</time>
      </trkpt>
      <trkpt lat="42.72113" lon="0.19815">
        <ele>1676.2</ele>
        <time>2012-10-04T08:22:11Z</time>
      </trkpt>
      <trkpt lat="42.72114" lon="0.19818">
        <ele>1676.7</ele>
        <time>2012-10-04T08:22:13Z</time>
      </trkpt>
      <trkpt lat="42.72115" lon="0.19821">
        <ele>1677.6</ele>
        <time>2012-10-04T08:22:16Z</time>
      </trkpt>
      <trkpt lat="42.72117" lon="0.19837">
        <ele>1679.6</ele>
        <time>2012-10-04T08:22:26Z</time>
      </trkpt>
      <trkpt lat="42.72119" lon="0.19853">
        <ele>1681</ele>
        <time>2012-10-04T08:22:35Z</time>
      </trkpt>
      <trkpt lat="42.7212" lon="0.19864">
        <ele>1682.4</ele>
        <time>2012-10-04T08:22:40Z</time>
      </trkpt>
      <trkpt lat="42.7212" lon="0.19877">
        <ele>1683.9</ele>
        <time>2012-10-04T08:22:47Z</time>
      </trkpt>
      <trkpt lat="42.7212" lon="0.19882">
        <ele>1685.3</ele>
        <time>2012-10-04T08:22:50Z</time>
      </trkpt>
      <trkpt lat="42.7212" lon="0.19889">
        <ele>1687.2</ele>
        <time>2012-10-04T08:22:55Z</time>
      </trkpt>
      <trkpt lat="42.72121" lon="0.19898">
        <ele>1688.7</ele>
        <time>2012-10-04T08:23:02Z</time>
      </trkpt>
      <trkpt lat="42.72123" lon="0.19897">
        <ele>1689.2</ele>
        <time>2012-10-04T08:23:04Z</time>
      </trkpt>
      <trkpt lat="42.72124" lon="0.19895">
        <ele>1689.7</ele>
        <time>2012-10-04T08:23:07Z</time>
      </trkpt>
      <trkpt lat="42.72128" lon="0.19884">
        <ele>1691.1</ele>
        <time>2012-10-04T08:23:15Z</time>
      </trkpt>
      <trkpt lat="42.72132" lon="0.19875">
        <ele>1692.5</ele>
        <time>2012-10-04T08:23:21Z</time>
      </trkpt>
      <trkpt lat="42.72136" lon="0.19868">
        <ele>1693.5</ele>
        <time>2012-10-04T08:23:28Z</time>
      </trkpt>
      <trkpt lat="42.72138" lon="0.19863">
        <ele>1694.5</ele>
        <time>2012-10-04T08:23:35Z</time>
      </trkpt>
      <trkpt lat="42.72141" lon="0.19858">
        <ele>1695.4</ele>
        <time>2012-10-04T08:23:42Z</time>
      </trkpt>
      <trkpt lat="42.72145" lon="0.19851">
        <ele>1697.3</ele>
        <time>2012-10-04T08:23:51Z</time>
      </trkpt>
      <trkpt lat="42.72148" lon="0.19845">
        <ele>1698.3</ele>
        <time>2012-10-04T08:23:59Z</time>
      </trkpt>
      <trkpt lat="42.72149" lon="0.19839">
        <ele>1700.2</ele>
        <time>2012-10-04T08:24:07Z</time>
      </trkpt>
      <trkpt lat="42.72149" lon="0.19834">
        <ele>1700.7</ele>
        <time>2012-10-04T08:24:14Z</time>
      </trkpt>
      <trkpt lat="42.72154" lon="0.19828">
        <ele>1702.6</ele>
        <time>2012-10-04T08:24:22Z</time>
      </trkpt>
      <trkpt lat="42.72155" lon="0.19825">
        <ele>1702.2</ele>
        <time>2012-10-04T08:24:31Z</time>
      </trkpt>
      <trkpt lat="42.72155" lon="0.19824">
        <ele>1702.6</ele>
        <time>2012-10-04T08:24:33Z</time>
      </trkpt>
      <trkpt lat="42.72156" lon="0.19818">
        <ele>1703.1</ele>
        <time>2012-10-04T08:24:37Z</time>
      </trkpt>
      <trkpt lat="42.72161" lon="0.1981">
        <ele>1704.1</ele>
        <time>2012-10-04T08:24:42Z</time>
      </trkpt>
      <trkpt lat="42.72165" lon="0.19805">
        <ele>1706</ele>
        <time>2012-10-04T08:24:46Z</time>
      </trkpt>
      <trkpt lat="42.72176" lon="0.19794">
        <ele>1708.4</ele>
        <time>2012-10-04T08:24:55Z</time>
      </trkpt>
      <trkpt lat="42.72183" lon="0.1979">
        <ele>1710.3</ele>
        <time>2012-10-04T08:25:02Z</time>
      </trkpt>
      <trkpt lat="42.72186" lon="0.19786">
        <ele>1711.3</ele>
        <time>2012-10-04T08:25:06Z</time>
      </trkpt>
      <trkpt lat="42.72196" lon="0.19777">
        <ele>1712.7</ele>
        <time>2012-10-04T08:25:15Z</time>
      </trkpt>
      <trkpt lat="42.72197" lon="0.19776">
        <ele>1713.2</ele>
        <time>2012-10-04T08:25:16Z</time>
      </trkpt>
      <trkpt lat="42.72199" lon="0.19772">
        <ele>1714.2</ele>
        <time>2012-10-04T08:25:19Z</time>
      </trkpt>
      <trkpt lat="42.72198" lon="0.19755">
        <ele>1716.1</ele>
        <time>2012-10-04T08:25:28Z</time>
      </trkpt>
      <trkpt lat="42.72195" lon="0.19746">
        <ele>1717.5</ele>
        <time>2012-10-04T08:25:36Z</time>
      </trkpt>
      <trkpt lat="42.72195" lon="0.19732">
        <ele>1719.5</ele>
        <time>2012-10-04T08:25:45Z</time>
      </trkpt>
      <trkpt lat="42.72196" lon="0.19721">
        <ele>1720.9</ele>
        <time>2012-10-04T08:25:53Z</time>
      </trkpt>
      <trkpt lat="42.72197" lon="0.19712">
        <ele>1721.9</ele>
        <time>2012-10-04T08:26:00Z</time>
      </trkpt>
      <trkpt lat="42.722" lon="0.19701">
        <ele>1723.3</ele>
        <time>2012-10-04T08:26:08Z</time>
      </trkpt>
      <trkpt lat="42.72201" lon="0.197">
        <ele>1723.8</ele>
        <time>2012-10-04T08:26:15Z</time>
      </trkpt>
      <trkpt lat="42.72202" lon="0.19698">
        <ele>1723.8</ele>
        <time>2012-10-04T08:26:30Z</time>
      </trkpt>
      <trkpt lat="42.72202" lon="0.19697">
        <ele>1724.3</ele>
        <time>2012-10-04T08:26:41Z</time>
      </trkpt>
      <trkpt lat="42.72202" lon="0.19698">
        <ele>1723.8</ele>
        <time>2012-10-04T08:26:57Z</time>
      </trkpt>
      <trkpt lat="42.72201" lon="0.19697">
        <ele>1724.3</ele>
        <time>2012-10-04T08:27:10Z</time>
      </trkpt>
      <trkpt lat="42.72201" lon="0.19696">
        <ele>1723.8</ele>
        <time>2012-10-04T08:27:24Z</time>
      </trkpt>
      <trkpt lat="42.722" lon="0.19696">
        <ele>1724.3</ele>
        <time>2012-10-04T08:27:36Z</time>
      </trkpt>
      <trkpt lat="42.72201" lon="0.19698">
        <ele>1724.3</ele>
        <time>2012-10-04T08:27:49Z</time>
      </trkpt>
      <trkpt lat="42.72202" lon="0.197">
        <ele>1724.3</ele>
        <time>2012-10-04T08:28:05Z</time>
      </trkpt>
      <trkpt lat="42.72201" lon="0.197">
        <ele>1724.3</ele>
        <time>2012-10-04T08:28:19Z</time>
      </trkpt>
      <trkpt lat="42.72201" lon="0.19699">
        <ele>1724.7</ele>
        <time>2012-10-04T08:28:29Z</time>
      </trkpt>
      <trkpt lat="42.72202" lon="0.19701">
        <ele>1724.7</ele>
        <time>2012-10-04T08:28:38Z</time>
      </trkpt>
      <trkpt lat="42.72207" lon="0.197">
        <ele>1724.7</ele>
        <time>2012-10-04T08:28:55Z</time>
      </trkpt>
      <trkpt lat="42.72205" lon="0.197">
        <ele>1724.7</ele>
        <time>2012-10-04T08:29:08Z</time>
      </trkpt>
      <trkpt lat="42.72203" lon="0.19701">
        <ele>1724.7</ele>
        <time>2012-10-04T08:29:21Z</time>
      </trkpt>
      <trkpt lat="42.72203" lon="0.19701">
        <ele>1725.2</ele>
        <time>2012-10-04T08:29:42Z</time>
      </trkpt>
      <trkpt lat="42.72201" lon="0.19701">
        <ele>1725.2</ele>
        <time>2012-10-04T08:30:00Z</time>
      </trkpt>
      <trkpt lat="42.72201" lon="0.19701">
        <ele>1725.2</ele>
        <time>2012-10-04T08:30:12Z</time>
      </trkpt>
      <trkpt lat="42.72203" lon="0.19698">
        <ele>1725.2</ele>
        <time>2012-10-04T08:30:28Z</time>
      </trkpt>
      <trkpt lat="42.72204" lon="0.19697">
        <ele>1725.7</ele>
        <time>2012-10-04T08:30:43Z</time>
      </trkpt>
      <trkpt lat="42.72203" lon="0.19696">
        <ele>1725.7</ele>
        <time>2012-10-04T08:30:59Z</time>
      </trkpt>
      <trkpt lat="42.72203" lon="0.19696">
        <ele>1725.7</ele>
        <time>2012-10-04T08:31:15Z</time>
      </trkpt>
      <trkpt lat="42.72205" lon="0.19695">
        <ele>1725.7</ele>
        <time>2012-10-04T08:31:33Z</time>
      </trkpt>
      <trkpt lat="42.72202" lon="0.197">
        <ele>1726.2</ele>
        <time>2012-10-04T08:31:46Z</time>
      </trkpt>
      <trkpt lat="42.72201" lon="0.197">
        <ele>1726.2</ele>
        <time>2012-10-04T08:31:57Z</time>
      </trkpt>
      <trkpt lat="42.72203" lon="0.197">
        <ele>1726.2</ele>
        <time>2012-10-04T08:32:14Z</time>
      </trkpt>
      <trkpt lat="42.72202" lon="0.19704">
        <ele>1726.2</ele>
        <time>2012-10-04T08:32:28Z</time>
      </trkpt>
      <trkpt lat="42.722" lon="0.19702">
        <ele>1726.7</ele>
        <time>2012-10-04T08:32:47Z</time>
      </trkpt>
      <trkpt lat="42.722" lon="0.19704">
        <ele>1726.7</ele>
        <time>2012-10-04T08:33:00Z</time>
      </trkpt>
      <trkpt lat="42.72201" lon="0.19704">
        <ele>1726.7</ele>
        <time>2012-10-04T08:33:19Z</time>
      </trkpt>
      <trkpt lat="42.722" lon="0.19704">
        <ele>1726.7</ele>
        <time>2012-10-04T08:33:32Z</time>
      </trkpt>
      <trkpt lat="42.722" lon="0.19706">
        <ele>1727.2</ele>
        <time>2012-10-04T08:33:46Z</time>
      </trkpt>
      <trkpt lat="42.72202" lon="0.19703">
        <ele>1727.2</ele>
        <time>2012-10-04T08:34:01Z</time>
      </trkpt>
      <trkpt lat="42.72203" lon="0.19702">
        <ele>1727.2</ele>
        <time>2012-10-04T08:34:15Z</time>
      </trkpt>
      <trkpt lat="42.72203" lon="0.19702">
        <ele>1727.6</ele>
        <time>2012-10-04T08:34:30Z</time>
      </trkpt>
      <trkpt lat="42.72202" lon="0.19704">
        <ele>1727.6</ele>
        <time>2012-10-04T08:34:52Z</time>
      </trkpt>
      <trkpt lat="42.722" lon="0.19705">
        <ele>1727.6</ele>
        <time>2012-10-04T08:35:05Z</time>
      </trkpt>
      <trkpt lat="42.72202" lon="0.19704">
        <ele>1727.6</ele>
        <time>2012-10-04T08:35:17Z</time>
      </trkpt>
      <trkpt lat="42.72204" lon="0.19701">
        <ele>1727.6</ele>
        <time>2012-10-04T08:35:36Z</time>
      </trkpt>
      <trkpt lat="42.72203" lon="0.197">
        <ele>1727.6</ele>
        <time>2012-10-04T08:35:46Z</time>
      </trkpt>
      <trkpt lat="42.72203" lon="0.19699">
        <ele>1727.6</ele>
        <time>2012-10-04T08:35:59Z</time>
      </trkpt>
      <trkpt lat="42.72204" lon="0.19696">
        <ele>1728.1</ele>
        <time>2012-10-04T08:36:14Z</time>
      </trkpt>
      <trkpt lat="42.72205" lon="0.19697">
        <ele>1728.1</ele>
        <time>2012-10-04T08:36:27Z</time>
      </trkpt>
      <trkpt lat="42.72204" lon="0.19697">
        <ele>1728.1</ele>
        <time>2012-10-04T08:36:42Z</time>
      </trkpt>
      <trkpt lat="42.72206" lon="0.19695">
        <ele>1728.1</ele>
        <time>2012-10-04T08:36:55Z</time>
      </trkpt>
      <trkpt lat="42.72207" lon="0.19691">
        <ele>1728.1</ele>
        <time>2012-10-04T08:37:11Z</time>
      </trkpt>
      <trkpt lat="42.72206" lon="0.19691">
        <ele>1728.1</ele>
        <time>2012-10-04T08:37:27Z</time>
      </trkpt>
      <trkpt lat="42.72205" lon="0.19694">
        <ele>1728.1</ele>
        <time>2012-10-04T08:37:48Z</time>
      </trkpt>
      <trkpt lat="42.72202" lon="0.19698">
        <ele>1728.1</ele>
        <time>2012-10-04T08:38:05Z</time>
      </trkpt>
      <trkpt lat="42.72203" lon="0.19698">
        <ele>1728.1</ele>
        <time>2012-10-04T08:38:23Z</time>
      </trkpt>
      <trkpt lat="42.72203" lon="0.19696">
        <ele>1728.1</ele>
        <time>2012-10-04T08:38:36Z</time>
      </trkpt>
      <trkpt lat="42.72205" lon="0.19698">
        <ele>1728.1</ele>
        <time>2012-10-04T08:38:55Z</time>
      </trkpt>
      <trkpt lat="42.72202" lon="0.197">
        <ele>1727.6</ele>
        <time>2012-10-04T08:39:13Z</time>
      </trkpt>
      <trkpt lat="42.72199" lon="0.19704">
        <ele>1728.1</ele>
        <time>2012-10-04T08:39:38Z</time>
      </trkpt>
      <trkpt lat="42.722" lon="0.19704">
        <ele>1728.1</ele>
        <time>2012-10-04T08:39:50Z</time>
      </trkpt>
      <trkpt lat="42.72201" lon="0.19702">
        <ele>1728.1</ele>
        <time>2012-10-04T08:40:05Z</time>
      </trkpt>
      <trkpt lat="42.72202" lon="0.197">
        <ele>1728.1</ele>
        <time>2012-10-04T08:40:25Z</time>
      </trkpt>
      <trkpt lat="42.72202" lon="0.19699">
        <ele>1728.1</ele>
        <time>2012-10-04T08:40:40Z</time>
      </trkpt>
      <trkpt lat="42.72201" lon="0.19701">
        <ele>1728.1</ele>
        <time>2012-10-04T08:41:02Z</time>
      </trkpt>
      <trkpt lat="42.72201" lon="0.19701">
        <ele>1728.6</ele>
        <time>2012-10-04T08:41:24Z</time>
      </trkpt>
      <trkpt lat="42.722" lon="0.197">
        <ele>1728.6</ele>
        <time>2012-10-04T08:41:44Z</time>
      </trkpt>
      <trkpt lat="42.72201" lon="0.19699">
        <ele>1728.6</ele>
        <time>2012-10-04T08:42:04Z</time>
      </trkpt>
      <trkpt lat="42.72201" lon="0.19698">
        <ele>1728.6</ele>
        <time>2012-10-04T08:42:15Z</time>
      </trkpt>
      <trkpt lat="42.72203" lon="0.19694">
        <ele>1729.1</ele>
        <time>2012-10-04T08:42:21Z</time>
      </trkpt>
      <trkpt lat="42.72206" lon="0.19688">
        <ele>1730.5</ele>
        <time>2012-10-04T08:42:30Z</time>
      </trkpt>
      <trkpt lat="42.72208" lon="0.19681">
        <ele>1732.4</ele>
        <time>2012-10-04T08:42:39Z</time>
      </trkpt>
      <trkpt lat="42.72211" lon="0.19674">
        <ele>1733.9</ele>
        <time>2012-10-04T08:42:48Z</time>
      </trkpt>
      <trkpt lat="42.72213" lon="0.19666">
        <ele>1735.8</ele>
        <time>2012-10-04T08:42:57Z</time>
      </trkpt>
      <trkpt lat="42.72217" lon="0.19663">
        <ele>1737.2</ele>
        <time>2012-10-04T08:43:05Z</time>
      </trkpt>
      <trkpt lat="42.72217" lon="0.19668">
        <ele>1738.2</ele>
        <time>2012-10-04T08:43:11Z</time>
      </trkpt>
      <trkpt lat="42.72218" lon="0.19676">
        <ele>1739.2</ele>
        <time>2012-10-04T08:43:20Z</time>
      </trkpt>
      <trkpt lat="42.72217" lon="0.19677">
        <ele>1739.2</ele>
        <time>2012-10-04T08:43:23Z</time>
      </trkpt>
      <trkpt lat="42.72223" lon="0.19689">
        <ele>1741.1</ele>
        <time>2012-10-04T08:43:32Z</time>
      </trkpt>
      <trkpt lat="42.72228" lon="0.19704">
        <ele>1743.5</ele>
        <time>2012-10-04T08:43:41Z</time>
      </trkpt>
      <trkpt lat="42.72229" lon="0.19705">
        <ele>1744</ele>
        <time>2012-10-04T08:43:42Z</time>
      </trkpt>
      <trkpt lat="42.72232" lon="0.1971">
        <ele>1744.9</ele>
        <time>2012-10-04T08:43:45Z</time>
      </trkpt>
      <trkpt lat="42.7224" lon="0.19724">
        <ele>1747.8</ele>
        <time>2012-10-04T08:43:54Z</time>
      </trkpt>
      <trkpt lat="42.72244" lon="0.19725">
        <ele>1748.8</ele>
        <time>2012-10-04T08:43:59Z</time>
      </trkpt>
      <trkpt lat="42.72245" lon="0.19722">
        <ele>1749.3</ele>
        <time>2012-10-04T08:44:03Z</time>
      </trkpt>
      <trkpt lat="42.72244" lon="0.19719">
        <ele>1750.7</ele>
        <time>2012-10-04T08:44:10Z</time>
      </trkpt>
      <trkpt lat="42.72246" lon="0.19713">
        <ele>1752.1</ele>
        <time>2012-10-04T08:44:18Z</time>
      </trkpt>
      <trkpt lat="42.72247" lon="0.19707">
        <ele>1754.1</ele>
        <time>2012-10-04T08:44:26Z</time>
      </trkpt>
      <trkpt lat="42.72247" lon="0.19699">
        <ele>1755.5</ele>
        <time>2012-10-04T08:44:34Z</time>
      </trkpt>
      <trkpt lat="42.7225" lon="0.19692">
        <ele>1756.9</ele>
        <time>2012-10-04T08:44:41Z</time>
      </trkpt>
      <trkpt lat="42.72253" lon="0.19683">
        <ele>1758.4</ele>
        <time>2012-10-04T08:44:50Z</time>
      </trkpt>
      <trkpt lat="42.72255" lon="0.19676">
        <ele>1759.8</ele>
        <time>2012-10-04T08:44:58Z</time>
      </trkpt>
      <trkpt lat="42.72257" lon="0.19671">
        <ele>1761.3</ele>
        <time>2012-10-04T08:45:05Z</time>
      </trkpt>
      <trkpt lat="42.7226" lon="0.19668">
        <ele>1762.7</ele>
        <time>2012-10-04T08:45:14Z</time>
      </trkpt>
      <trkpt lat="42.72262" lon="0.19664">
        <ele>1763.7</ele>
        <time>2012-10-04T08:45:21Z</time>
      </trkpt>
      <trkpt lat="42.72266" lon="0.19663">
        <ele>1765.1</ele>
        <time>2012-10-04T08:45:27Z</time>
      </trkpt>
      <trkpt lat="42.72269" lon="0.19659">
        <ele>1766.1</ele>
        <time>2012-10-04T08:45:33Z</time>
      </trkpt>
      <trkpt lat="42.72276" lon="0.19653">
        <ele>1767</ele>
        <time>2012-10-04T08:45:41Z</time>
      </trkpt>
      <trkpt lat="42.72281" lon="0.19647">
        <ele>1768</ele>
        <time>2012-10-04T08:45:50Z</time>
      </trkpt>
      <trkpt lat="42.72281" lon="0.19645">
        <ele>1768</ele>
        <time>2012-10-04T08:45:52Z</time>
      </trkpt>
      <trkpt lat="42.7228" lon="0.19639">
        <ele>1769.4</ele>
        <time>2012-10-04T08:45:59Z</time>
      </trkpt>
      <trkpt lat="42.72279" lon="0.19635">
        <ele>1770.4</ele>
        <time>2012-10-04T08:46:05Z</time>
      </trkpt>
      <trkpt lat="42.72278" lon="0.19628">
        <ele>1771.8</ele>
        <time>2012-10-04T08:46:14Z</time>
      </trkpt>
      <trkpt lat="42.72276" lon="0.19621">
        <ele>1773.3</ele>
        <time>2012-10-04T08:46:23Z</time>
      </trkpt>
      <trkpt lat="42.72275" lon="0.19611">
        <ele>1774.7</ele>
        <time>2012-10-04T08:46:32Z</time>
      </trkpt>
      <trkpt lat="42.72275" lon="0.19604">
        <ele>1776.2</ele>
        <time>2012-10-04T08:46:40Z</time>
      </trkpt>
      <trkpt lat="42.72274" lon="0.19598">
        <ele>1777.6</ele>
        <time>2012-10-04T08:46:48Z</time>
      </trkpt>
      <trkpt lat="42.72272" lon="0.19592">
        <ele>1779.1</ele>
        <time>2012-10-04T08:46:56Z</time>
      </trkpt>
      <trkpt lat="42.72274" lon="0.19583">
        <ele>1780.5</ele>
        <time>2012-10-04T08:47:04Z</time>
      </trkpt>
      <trkpt lat="42.72274" lon="0.19577">
        <ele>1781.5</ele>
        <time>2012-10-04T08:47:11Z</time>
      </trkpt>
      <trkpt lat="42.72273" lon="0.19574">
        <ele>1782.9</ele>
        <time>2012-10-04T08:47:18Z</time>
      </trkpt>
      <trkpt lat="42.72274" lon="0.1957">
        <ele>1783.4</ele>
        <time>2012-10-04T08:47:24Z</time>
      </trkpt>
      <trkpt lat="42.72274" lon="0.19563">
        <ele>1785.3</ele>
        <time>2012-10-04T08:47:33Z</time>
      </trkpt>
      <trkpt lat="42.72277" lon="0.19557">
        <ele>1786.3</ele>
        <time>2012-10-04T08:47:39Z</time>
      </trkpt>
      <trkpt lat="42.72278" lon="0.19552">
        <ele>1787.2</ele>
        <time>2012-10-04T08:47:46Z</time>
      </trkpt>
      <trkpt lat="42.72276" lon="0.19546">
        <ele>1788.2</ele>
        <time>2012-10-04T08:47:53Z</time>
      </trkpt>
      <trkpt lat="42.72276" lon="0.19541">
        <ele>1789.2</ele>
        <time>2012-10-04T08:48:00Z</time>
      </trkpt>
      <trkpt lat="42.72277" lon="0.19531">
        <ele>1790.6</ele>
        <time>2012-10-04T08:48:10Z</time>
      </trkpt>
      <trkpt lat="42.72279" lon="0.19524">
        <ele>1791.6</ele>
        <time>2012-10-04T08:48:16Z</time>
      </trkpt>
      <trkpt lat="42.72279" lon="0.19517">
        <ele>1792.5</ele>
        <time>2012-10-04T08:48:23Z</time>
      </trkpt>
      <trkpt lat="42.72278" lon="0.19512">
        <ele>1793.5</ele>
        <time>2012-10-04T08:48:30Z</time>
      </trkpt>
      <trkpt lat="42.72279" lon="0.19508">
        <ele>1794</ele>
        <time>2012-10-04T08:48:37Z</time>
      </trkpt>
      <trkpt lat="42.72278" lon="0.19504">
        <ele>1794.4</ele>
        <time>2012-10-04T08:48:42Z</time>
      </trkpt>
      <trkpt lat="42.72278" lon="0.19499">
        <ele>1795.4</ele>
        <time>2012-10-04T08:48:50Z</time>
      </trkpt>
      <trkpt lat="42.72275" lon="0.19493">
        <ele>1796.4</ele>
        <time>2012-10-04T08:48:57Z</time>
      </trkpt>
      <trkpt lat="42.72272" lon="0.19487">
        <ele>1797.8</ele>
        <time>2012-10-04T08:49:04Z</time>
      </trkpt>
      <trkpt lat="42.72266" lon="0.19481">
        <ele>1798.8</ele>
        <time>2012-10-04T08:49:12Z</time>
      </trkpt>
      <trkpt lat="42.72265" lon="0.1948">
        <ele>1799.2</ele>
        <time>2012-10-04T08:49:14Z</time>
      </trkpt>
      <trkpt lat="42.72258" lon="0.19478">
        <ele>1801.2</ele>
        <time>2012-10-04T08:49:23Z</time>
      </trkpt>
      <trkpt lat="42.72256" lon="0.19474">
        <ele>1802.1</ele>
        <time>2012-10-04T08:49:30Z</time>
      </trkpt>
      <trkpt lat="42.72257" lon="0.19471">
        <ele>1802.6</ele>
        <time>2012-10-04T08:49:37Z</time>
      </trkpt>
      <trkpt lat="42.72257" lon="0.1947">
        <ele>1802.6</ele>
        <time>2012-10-04T08:49:46Z</time>
      </trkpt>
      <trkpt lat="42.72258" lon="0.19471">
        <ele>1802.6</ele>
        <time>2012-10-04T08:49:51Z</time>
      </trkpt>
      <trkpt lat="42.72269" lon="0.19472">
        <ele>1804.1</ele>
        <time>2012-10-04T08:49:59Z</time>
      </trkpt>
      <trkpt lat="42.72272" lon="0.19472">
        <ele>1804.5</ele>
        <time>2012-10-04T08:50:02Z</time>
      </trkpt>
      <trkpt lat="42.7228" lon="0.19474">
        <ele>1806.4</ele>
        <time>2012-10-04T08:50:10Z</time>
      </trkpt>
      <trkpt lat="42.72284" lon="0.19477">
        <ele>1807.9</ele>
        <time>2012-10-04T08:50:19Z</time>
      </trkpt>
      <trkpt lat="42.72287" lon="0.19477">
        <ele>1809.3</ele>
        <time>2012-10-04T08:50:27Z</time>
      </trkpt>
      <trkpt lat="42.72287" lon="0.19477">
        <ele>1809.8</ele>
        <time>2012-10-04T08:50:32Z</time>
      </trkpt>
      <trkpt lat="42.72286" lon="0.19472">
        <ele>1810.8</ele>
        <time>2012-10-04T08:50:41Z</time>
      </trkpt>
      <trkpt lat="42.72285" lon="0.19465">
        <ele>1812.7</ele>
        <time>2012-10-04T08:50:49Z</time>
      </trkpt>
      <trkpt lat="42.72283" lon="0.19459">
        <ele>1813.7</ele>
        <time>2012-10-04T08:50:56Z</time>
      </trkpt>
      <trkpt lat="42.72281" lon="0.1945">
        <ele>1815.6</ele>
        <time>2012-10-04T08:51:05Z</time>
      </trkpt>
      <trkpt lat="42.72279" lon="0.19445">
        <ele>1816.6</ele>
        <time>2012-10-04T08:51:12Z</time>
      </trkpt>
      <trkpt lat="42.7228" lon="0.19446">
        <ele>1816.6</ele>
        <time>2012-10-04T08:51:17Z</time>
      </trkpt>
      <trkpt lat="42.72277" lon="0.19443">
        <ele>1817.5</ele>
        <time>2012-10-04T08:51:21Z</time>
      </trkpt>
      <trkpt lat="42.72274" lon="0.19437">
        <ele>1818.5</ele>
        <time>2012-10-04T08:51:26Z</time>
      </trkpt>
      <trkpt lat="42.72268" lon="0.19427">
        <ele>1819.9</ele>
        <time>2012-10-04T08:51:36Z</time>
      </trkpt>
      <trkpt lat="42.72265" lon="0.1942">
        <ele>1821.3</ele>
        <time>2012-10-04T08:51:44Z</time>
      </trkpt>
      <trkpt lat="42.72262" lon="0.19414">
        <ele>1822.8</ele>
        <time>2012-10-04T08:51:50Z</time>
      </trkpt>
      <trkpt lat="42.72259" lon="0.19412">
        <ele>1823.8</ele>
        <time>2012-10-04T08:51:56Z</time>
      </trkpt>
      <trkpt lat="42.72259" lon="0.19413">
        <ele>1822.8</ele>
        <time>2012-10-04T08:52:03Z</time>
      </trkpt>
      <trkpt lat="42.72257" lon="0.1941">
        <ele>1822.8</ele>
        <time>2012-10-04T08:52:16Z</time>
      </trkpt>
      <trkpt lat="42.72258" lon="0.19408">
        <ele>1822.8</ele>
        <time>2012-10-04T08:52:27Z</time>
      </trkpt>
      <trkpt lat="42.72258" lon="0.19409">
        <ele>1822.8</ele>
        <time>2012-10-04T08:52:38Z</time>
      </trkpt>
      <trkpt lat="42.72258" lon="0.19412">
        <ele>1822.8</ele>
        <time>2012-10-04T08:52:51Z</time>
      </trkpt>
      <trkpt lat="42.7226" lon="0.19415">
        <ele>1822.8</ele>
        <time>2012-10-04T08:53:00Z</time>
      </trkpt>
      <trkpt lat="42.72261" lon="0.19414">
        <ele>1822.8</ele>
        <time>2012-10-04T08:53:12Z</time>
      </trkpt>
      <trkpt lat="42.72262" lon="0.19415">
        <ele>1823.3</ele>
        <time>2012-10-04T08:53:22Z</time>
      </trkpt>
      <trkpt lat="42.72263" lon="0.19413">
        <ele>1823.3</ele>
        <time>2012-10-04T08:53:36Z</time>
      </trkpt>
      <trkpt lat="42.72264" lon="0.19412">
        <ele>1823.3</ele>
        <time>2012-10-04T08:53:49Z</time>
      </trkpt>
      <trkpt lat="42.72265" lon="0.19413">
        <ele>1823.3</ele>
        <time>2012-10-04T08:54:06Z</time>
      </trkpt>
      <trkpt lat="42.72266" lon="0.19415">
        <ele>1823.3</ele>
        <time>2012-10-04T08:54:18Z</time>
      </trkpt>
      <trkpt lat="42.72267" lon="0.19417">
        <ele>1823.3</ele>
        <time>2012-10-04T08:54:28Z</time>
      </trkpt>
      <trkpt lat="42.72265" lon="0.19417">
        <ele>1823.3</ele>
        <time>2012-10-04T08:54:41Z</time>
      </trkpt>
      <trkpt lat="42.72266" lon="0.19417">
        <ele>1823.3</ele>
        <time>2012-10-04T08:54:51Z</time>
      </trkpt>
      <trkpt lat="42.72267" lon="0.19419">
        <ele>1823.3</ele>
        <time>2012-10-04T08:55:05Z</time>
      </trkpt>
      <trkpt lat="42.72266" lon="0.19417">
        <ele>1823.3</ele>
        <time>2012-10-04T08:55:17Z</time>
      </trkpt>
      <trkpt lat="42.72269" lon="0.19418">
        <ele>1823.3</ele>
        <time>2012-10-04T08:55:32Z</time>
      </trkpt>
      <trkpt lat="42.72268" lon="0.19418">
        <ele>1824.2</ele>
        <time>2012-10-04T08:55:39Z</time>
      </trkpt>
      <trkpt lat="42.72264" lon="0.19414">
        <ele>1824.2</ele>
        <time>2012-10-04T08:55:48Z</time>
      </trkpt>
      <trkpt lat="42.72262" lon="0.19409">
        <ele>1825.2</ele>
        <time>2012-10-04T08:55:54Z</time>
      </trkpt>
      <trkpt lat="42.72261" lon="0.19403">
        <ele>1825.7</ele>
        <time>2012-10-04T08:56:01Z</time>
      </trkpt>
      <trkpt lat="42.7226" lon="0.19398">
        <ele>1826.2</ele>
        <time>2012-10-04T08:56:09Z</time>
      </trkpt>
      <trkpt lat="42.7226" lon="0.19392">
        <ele>1826.6</ele>
        <time>2012-10-04T08:56:16Z</time>
      </trkpt>
      <trkpt lat="42.7226" lon="0.1939">
        <ele>1827.1</ele>
        <time>2012-10-04T08:56:22Z</time>
      </trkpt>
      <trkpt lat="42.72256" lon="0.1939">
        <ele>1827.1</ele>
        <time>2012-10-04T08:56:36Z</time>
      </trkpt>
      <trkpt lat="42.72254" lon="0.1939">
        <ele>1827.1</ele>
        <time>2012-10-04T08:56:48Z</time>
      </trkpt>
      <trkpt lat="42.72253" lon="0.19387">
        <ele>1827.1</ele>
        <time>2012-10-04T08:57:04Z</time>
      </trkpt>
      <trkpt lat="42.72252" lon="0.19388">
        <ele>1827.1</ele>
        <time>2012-10-04T08:57:06Z</time>
      </trkpt>
      <trkpt lat="42.72259" lon="0.19378">
        <ele>1826.6</ele>
        <time>2012-10-04T08:57:11Z</time>
      </trkpt>
      <trkpt lat="42.7226" lon="0.19375">
        <ele>1826.2</ele>
        <time>2012-10-04T08:57:12Z</time>
      </trkpt>
      <trkpt lat="42.72261" lon="0.19371">
        <ele>1826.2</ele>
        <time>2012-10-04T08:57:13Z</time>
      </trkpt>
      <trkpt lat="42.72261" lon="0.19367">
        <ele>1826.2</ele>
        <time>2012-10-04T08:57:14Z</time>
      </trkpt>
      <trkpt lat="42.72262" lon="0.19363">
        <ele>1825.7</ele>
        <time>2012-10-04T08:57:15Z</time>
      </trkpt>
      <trkpt lat="42.72263" lon="0.1936">
        <ele>1826.2</ele>
        <time>2012-10-04T08:57:16Z</time>
      </trkpt>
      <trkpt lat="42.72264" lon="0.19358">
        <ele>1826.2</ele>
        <time>2012-10-04T08:57:17Z</time>
      </trkpt>
      <trkpt lat="42.72266" lon="0.19343">
        <ele>1827.6</ele>
        <time>2012-10-04T08:57:25Z</time>
      </trkpt>
      <trkpt lat="42.72265" lon="0.19334">
        <ele>1829.1</ele>
        <time>2012-10-04T08:57:31Z</time>
      </trkpt>
      <trkpt lat="42.72266" lon="0.19332">
        <ele>1829.1</ele>
        <time>2012-10-04T08:57:32Z</time>
      </trkpt>
      <trkpt lat="42.72266" lon="0.1933">
        <ele>1829.1</ele>
        <time>2012-10-04T08:57:33Z</time>
      </trkpt>
      <trkpt lat="42.72267" lon="0.19328">
        <ele>1829.5</ele>
        <time>2012-10-04T08:57:34Z</time>
      </trkpt>
      <trkpt lat="42.72267" lon="0.19326">
        <ele>1830</ele>
        <time>2012-10-04T08:57:35Z</time>
      </trkpt>
      <trkpt lat="42.7227" lon="0.19317">
        <ele>1830.5</ele>
        <time>2012-10-04T08:57:41Z</time>
      </trkpt>
      <trkpt lat="42.72271" lon="0.19314">
        <ele>1831</ele>
        <time>2012-10-04T08:57:43Z</time>
      </trkpt>
      <trkpt lat="42.72272" lon="0.19311">
        <ele>1831</ele>
        <time>2012-10-04T08:57:44Z</time>
      </trkpt>
      <trkpt lat="42.72272" lon="0.19309">
        <ele>1831</ele>
        <time>2012-10-04T08:57:45Z</time>
      </trkpt>
      <trkpt lat="42.72272" lon="0.19307">
        <ele>1831.4</ele>
        <time>2012-10-04T08:57:46Z</time>
      </trkpt>
      <trkpt lat="42.72272" lon="0.19305">
        <ele>1831</ele>
        <time>2012-10-04T08:57:47Z</time>
      </trkpt>
      <trkpt lat="42.72273" lon="0.19303">
        <ele>1831.4</ele>
        <time>2012-10-04T08:57:48Z</time>
      </trkpt>
      <trkpt lat="42.72273" lon="0.19301">
        <ele>1831.4</ele>
        <time>2012-10-04T08:57:49Z</time>
      </trkpt>
      <trkpt lat="42.72274" lon="0.19299">
        <ele>1831.9</ele>
        <time>2012-10-04T08:57:50Z</time>
      </trkpt>
      <trkpt lat="42.72274" lon="0.19297">
        <ele>1831.9</ele>
        <time>2012-10-04T08:57:51Z</time>
      </trkpt>
      <trkpt lat="42.72275" lon="0.19295">
        <ele>1832.4</ele>
        <time>2012-10-04T08:57:52Z</time>
      </trkpt>
      <trkpt lat="42.72275" lon="0.19281">
        <ele>1833.8</ele>
        <time>2012-10-04T08:57:59Z</time>
      </trkpt>
      <trkpt lat="42.72275" lon="0.19279">
        <ele>1833.8</ele>
        <time>2012-10-04T08:58:00Z</time>
      </trkpt>
      <trkpt lat="42.72277" lon="0.19265">
        <ele>1834.3</ele>
        <time>2012-10-04T08:58:07Z</time>
      </trkpt>
      <trkpt lat="42.72278" lon="0.19264">
        <ele>1834.8</ele>
        <time>2012-10-04T08:58:08Z</time>
      </trkpt>
      <trkpt lat="42.72279" lon="0.19262">
        <ele>1835.3</ele>
        <time>2012-10-04T08:58:09Z</time>
      </trkpt>
      <trkpt lat="42.72279" lon="0.19261">
        <ele>1835.3</ele>
        <time>2012-10-04T08:58:10Z</time>
      </trkpt>
      <trkpt lat="42.72279" lon="0.1926">
        <ele>1835.3</ele>
        <time>2012-10-04T08:58:11Z</time>
      </trkpt>
      <trkpt lat="42.7228" lon="0.19259">
        <ele>1835.8</ele>
        <time>2012-10-04T08:58:12Z</time>
      </trkpt>
      <trkpt lat="42.72281" lon="0.19257">
        <ele>1835.8</ele>
        <time>2012-10-04T08:58:13Z</time>
      </trkpt>
      <trkpt lat="42.72281" lon="0.19256">
        <ele>1836.3</ele>
        <time>2012-10-04T08:58:14Z</time>
      </trkpt>
      <trkpt lat="42.72282" lon="0.19255">
        <ele>1836.7</ele>
        <time>2012-10-04T08:58:15Z</time>
      </trkpt>
      <trkpt lat="42.72283" lon="0.19254">
        <ele>1836.7</ele>
        <time>2012-10-04T08:58:16Z</time>
      </trkpt>
      <trkpt lat="42.72284" lon="0.19253">
        <ele>1837.2</ele>
        <time>2012-10-04T08:58:17Z</time>
      </trkpt>
      <trkpt lat="42.72285" lon="0.19252">
        <ele>1837.2</ele>
        <time>2012-10-04T08:58:18Z</time>
      </trkpt>
      <trkpt lat="42.72286" lon="0.19249">
        <ele>1837.7</ele>
        <time>2012-10-04T08:58:20Z</time>
      </trkpt>
      <trkpt lat="42.72287" lon="0.19249">
        <ele>1837.7</ele>
        <time>2012-10-04T08:58:21Z</time>
      </trkpt>
      <trkpt lat="42.72289" lon="0.1924">
        <ele>1839.1</ele>
        <time>2012-10-04T08:58:27Z</time>
      </trkpt>
      <trkpt lat="42.7229" lon="0.19239">
        <ele>1839.6</ele>
        <time>2012-10-04T08:58:28Z</time>
      </trkpt>
      <trkpt lat="42.72294" lon="0.19236">
        <ele>1840.6</ele>
        <time>2012-10-04T08:58:34Z</time>
      </trkpt>
      <trkpt lat="42.72298" lon="0.19228">
        <ele>1842.5</ele>
        <time>2012-10-04T08:58:42Z</time>
      </trkpt>
      <trkpt lat="42.72302" lon="0.19221">
        <ele>1843.9</ele>
        <time>2012-10-04T08:58:50Z</time>
      </trkpt>
      <trkpt lat="42.72304" lon="0.19215">
        <ele>1845.4</ele>
        <time>2012-10-04T08:58:57Z</time>
      </trkpt>
      <trkpt lat="42.72308" lon="0.19211">
        <ele>1846.3</ele>
        <time>2012-10-04T08:59:04Z</time>
      </trkpt>
      <trkpt lat="42.72312" lon="0.19213">
        <ele>1848.3</ele>
        <time>2012-10-04T08:59:12Z</time>
      </trkpt>
      <trkpt lat="42.72313" lon="0.19208">
        <ele>1849.2</ele>
        <time>2012-10-04T08:59:19Z</time>
      </trkpt>
      <trkpt lat="42.72312" lon="0.19201">
        <ele>1850.2</ele>
        <time>2012-10-04T08:59:25Z</time>
      </trkpt>
      <trkpt lat="42.72312" lon="0.19199">
        <ele>1850.7</ele>
        <time>2012-10-04T08:59:33Z</time>
      </trkpt>
      <trkpt lat="42.72313" lon="0.19198">
        <ele>1850.7</ele>
        <time>2012-10-04T08:59:43Z</time>
      </trkpt>
      <trkpt lat="42.72317" lon="0.19189">
        <ele>1852.6</ele>
        <time>2012-10-04T08:59:51Z</time>
      </trkpt>
      <trkpt lat="42.7232" lon="0.19182">
        <ele>1854.5</ele>
        <time>2012-10-04T08:59:59Z</time>
      </trkpt>
      <trkpt lat="42.72324" lon="0.19177">
        <ele>1856.4</ele>
        <time>2012-10-04T09:00:07Z</time>
      </trkpt>
      <trkpt lat="42.72328" lon="0.19171">
        <ele>1857.4</ele>
        <time>2012-10-04T09:00:13Z</time>
      </trkpt>
      <trkpt lat="42.72329" lon="0.19169">
        <ele>1857.9</ele>
        <time>2012-10-04T09:00:22Z</time>
      </trkpt>
      <trkpt lat="42.72334" lon="0.19164">
        <ele>1858.8</ele>
        <time>2012-10-04T09:00:33Z</time>
      </trkpt>
      <trkpt lat="42.72337" lon="0.19161">
        <ele>1859.8</ele>
        <time>2012-10-04T09:00:40Z</time>
      </trkpt>
      <trkpt lat="42.72335" lon="0.19159">
        <ele>1859.8</ele>
        <time>2012-10-04T09:00:46Z</time>
      </trkpt>
      <trkpt lat="42.72335" lon="0.19159">
        <ele>1859.8</ele>
        <time>2012-10-04T09:00:50Z</time>
      </trkpt>
      <trkpt lat="42.72336" lon="0.19165">
        <ele>1860.3</ele>
        <time>2012-10-04T09:00:57Z</time>
      </trkpt>
      <trkpt lat="42.7234" lon="0.1917">
        <ele>1861.7</ele>
        <time>2012-10-04T09:01:07Z</time>
      </trkpt>
      <trkpt lat="42.72341" lon="0.19179">
        <ele>1863.2</ele>
        <time>2012-10-04T09:01:15Z</time>
      </trkpt>
      <trkpt lat="42.72342" lon="0.19187">
        <ele>1864.1</ele>
        <time>2012-10-04T09:01:22Z</time>
      </trkpt>
      <trkpt lat="42.72343" lon="0.19195">
        <ele>1865.6</ele>
        <time>2012-10-04T09:01:30Z</time>
      </trkpt>
      <trkpt lat="42.72345" lon="0.19202">
        <ele>1866.5</ele>
        <time>2012-10-04T09:01:38Z</time>
      </trkpt>
      <trkpt lat="42.72346" lon="0.19209">
        <ele>1867</ele>
        <time>2012-10-04T09:01:44Z</time>
      </trkpt>
      <trkpt lat="42.72347" lon="0.19218">
        <ele>1868</ele>
        <time>2012-10-04T09:01:52Z</time>
      </trkpt>
      <trkpt lat="42.72347" lon="0.19222">
        <ele>1868.5</ele>
        <time>2012-10-04T09:01:57Z</time>
      </trkpt>
      <trkpt lat="42.72347" lon="0.19224">
        <ele>1868.5</ele>
        <time>2012-10-04T09:02:00Z</time>
      </trkpt>
      <trkpt lat="42.72349" lon="0.19235">
        <ele>1868.9</ele>
        <time>2012-10-04T09:02:06Z</time>
      </trkpt>
      <trkpt lat="42.72347" lon="0.19246">
        <ele>1871.3</ele>
        <time>2012-10-04T09:02:13Z</time>
      </trkpt>
      <trkpt lat="42.72346" lon="0.19258">
        <ele>1873.3</ele>
        <time>2012-10-04T09:02:19Z</time>
      </trkpt>
      <trkpt lat="42.72349" lon="0.1927">
        <ele>1875.2</ele>
        <time>2012-10-04T09:02:27Z</time>
      </trkpt>
      <trkpt lat="42.7235" lon="0.19283">
        <ele>1876.6</ele>
        <time>2012-10-04T09:02:34Z</time>
      </trkpt>
      <trkpt lat="42.72349" lon="0.19295">
        <ele>1878.1</ele>
        <time>2012-10-04T09:02:41Z</time>
      </trkpt>
      <trkpt lat="42.72347" lon="0.19301">
        <ele>1879.5</ele>
        <time>2012-10-04T09:02:47Z</time>
      </trkpt>
      <trkpt lat="42.72348" lon="0.19309">
        <ele>1880.5</ele>
        <time>2012-10-04T09:02:56Z</time>
      </trkpt>
      <trkpt lat="42.72349" lon="0.19317">
        <ele>1881</ele>
        <time>2012-10-04T09:03:02Z</time>
      </trkpt>
      <trkpt lat="42.72349" lon="0.19319">
        <ele>1881.4</ele>
        <time>2012-10-04T09:03:03Z</time>
      </trkpt>
      <trkpt lat="42.72349" lon="0.19329">
        <ele>1883.4</ele>
        <time>2012-10-04T09:03:09Z</time>
      </trkpt>
      <trkpt lat="42.7235" lon="0.19332">
        <ele>1883.8</ele>
        <time>2012-10-04T09:03:11Z</time>
      </trkpt>
      <trkpt lat="42.7235" lon="0.19335">
        <ele>1884.3</ele>
        <time>2012-10-04T09:03:13Z</time>
      </trkpt>
      <trkpt lat="42.72354" lon="0.19348">
        <ele>1885.8</ele>
        <time>2012-10-04T09:03:22Z</time>
      </trkpt>
      <trkpt lat="42.72359" lon="0.19359">
        <ele>1888.7</ele>
        <time>2012-10-04T09:03:29Z</time>
      </trkpt>
      <trkpt lat="42.7236" lon="0.19364">
        <ele>1889.1</ele>
        <time>2012-10-04T09:03:33Z</time>
      </trkpt>
      <trkpt lat="42.72361" lon="0.19367">
        <ele>1889.6</ele>
        <time>2012-10-04T09:03:35Z</time>
      </trkpt>
      <trkpt lat="42.72365" lon="0.19369">
        <ele>1890.6</ele>
        <time>2012-10-04T09:03:41Z</time>
      </trkpt>
      <trkpt lat="42.72368" lon="0.19374">
        <ele>1891.5</ele>
        <time>2012-10-04T09:03:49Z</time>
      </trkpt>
      <trkpt lat="42.7237" lon="0.19371">
        <ele>1892.5</ele>
        <time>2012-10-04T09:03:55Z</time>
      </trkpt>
      <trkpt lat="42.7237" lon="0.19367">
        <ele>1893</ele>
        <time>2012-10-04T09:03:59Z</time>
      </trkpt>
      <trkpt lat="42.7237" lon="0.19359">
        <ele>1894.4</ele>
        <time>2012-10-04T09:04:08Z</time>
      </trkpt>
      <trkpt lat="42.72369" lon="0.19354">
        <ele>1894.9</ele>
        <time>2012-10-04T09:04:16Z</time>
      </trkpt>
      <trkpt lat="42.72366" lon="0.19341">
        <ele>1895.9</ele>
        <time>2012-10-04T09:04:23Z</time>
      </trkpt>
      <trkpt lat="42.72366" lon="0.19336">
        <ele>1895.9</ele>
        <time>2012-10-04T09:04:25Z</time>
      </trkpt>
      <trkpt lat="42.72367" lon="0.19325">
        <ele>1897.8</ele>
        <time>2012-10-04T09:04:31Z</time>
      </trkpt>
      <trkpt lat="42.7237" lon="0.19314">
        <ele>1899.2</ele>
        <time>2012-10-04T09:04:37Z</time>
      </trkpt>
      <trkpt lat="42.7237" lon="0.19309">
        <ele>1900.2</ele>
        <time>2012-10-04T09:04:40Z</time>
      </trkpt>
      <trkpt lat="42.72372" lon="0.19295">
        <ele>1902.1</ele>
        <time>2012-10-04T09:04:46Z</time>
      </trkpt>
      <trkpt lat="42.72375" lon="0.1929">
        <ele>1903.1</ele>
        <time>2012-10-04T09:04:51Z</time>
      </trkpt>
      <trkpt lat="42.72376" lon="0.19285">
        <ele>1904</ele>
        <time>2012-10-04T09:04:58Z</time>
      </trkpt>
      <trkpt lat="42.72377" lon="0.19282">
        <ele>1904</ele>
        <time>2012-10-04T09:05:08Z</time>
      </trkpt>
      <trkpt lat="42.72378" lon="0.19283">
        <ele>1904</ele>
        <time>2012-10-04T09:05:16Z</time>
      </trkpt>
      <trkpt lat="42.72378" lon="0.19284">
        <ele>1904</ele>
        <time>2012-10-04T09:05:24Z</time>
      </trkpt>
      <trkpt lat="42.72378" lon="0.19281">
        <ele>1904</ele>
        <time>2012-10-04T09:05:30Z</time>
      </trkpt>
      <trkpt lat="42.72378" lon="0.19281">
        <ele>1904.5</ele>
        <time>2012-10-04T09:05:37Z</time>
      </trkpt>
      <trkpt lat="42.72379" lon="0.19279">
        <ele>1904.5</ele>
        <time>2012-10-04T09:05:41Z</time>
      </trkpt>
      <trkpt lat="42.72383" lon="0.19263">
        <ele>1906.4</ele>
        <time>2012-10-04T09:05:50Z</time>
      </trkpt>
      <trkpt lat="42.72384" lon="0.19256">
        <ele>1907.9</ele>
        <time>2012-10-04T09:05:53Z</time>
      </trkpt>
      <trkpt lat="42.72384" lon="0.19254">
        <ele>1908.3</ele>
        <time>2012-10-04T09:05:54Z</time>
      </trkpt>
      <trkpt lat="42.72389" lon="0.19245">
        <ele>1910.3</ele>
        <time>2012-10-04T09:06:00Z</time>
      </trkpt>
      <trkpt lat="42.72394" lon="0.19235">
        <ele>1910.8</ele>
        <time>2012-10-04T09:06:06Z</time>
      </trkpt>
      <trkpt lat="42.72398" lon="0.19229">
        <ele>1911.2</ele>
        <time>2012-10-04T09:06:11Z</time>
      </trkpt>
      <trkpt lat="42.72406" lon="0.19217">
        <ele>1912.2</ele>
        <time>2012-10-04T09:06:19Z</time>
      </trkpt>
      <trkpt lat="42.72407" lon="0.19216">
        <ele>1912.2</ele>
        <time>2012-10-04T09:06:20Z</time>
      </trkpt>
      <trkpt lat="42.72407" lon="0.19212">
        <ele>1912.2</ele>
        <time>2012-10-04T09:06:22Z</time>
      </trkpt>
      <trkpt lat="42.72409" lon="0.19196">
        <ele>1914.1</ele>
        <time>2012-10-04T09:06:31Z</time>
      </trkpt>
      <trkpt lat="42.72411" lon="0.19183">
        <ele>1915.6</ele>
        <time>2012-10-04T09:06:39Z</time>
      </trkpt>
      <trkpt lat="42.72411" lon="0.19182">
        <ele>1916</ele>
        <time>2012-10-04T09:06:40Z</time>
      </trkpt>
      <trkpt lat="42.72415" lon="0.19171">
        <ele>1918</ele>
        <time>2012-10-04T09:06:48Z</time>
      </trkpt>
      <trkpt lat="42.72417" lon="0.19161">
        <ele>1918.9</ele>
        <time>2012-10-04T09:06:54Z</time>
      </trkpt>
      <trkpt lat="42.72417" lon="0.19152">
        <ele>1919.4</ele>
        <time>2012-10-04T09:07:00Z</time>
      </trkpt>
      <trkpt lat="42.7242" lon="0.1914">
        <ele>1920.4</ele>
        <time>2012-10-04T09:07:07Z</time>
      </trkpt>
      <trkpt lat="42.72423" lon="0.19137">
        <ele>1920.4</ele>
        <time>2012-10-04T09:07:10Z</time>
      </trkpt>
      <trkpt lat="42.72425" lon="0.19132">
        <ele>1921.3</ele>
        <time>2012-10-04T09:07:13Z</time>
      </trkpt>
      <trkpt lat="42.72425" lon="0.19126">
        <ele>1921.8</ele>
        <time>2012-10-04T09:07:20Z</time>
      </trkpt>
      <trkpt lat="42.72426" lon="0.19125">
        <ele>1921.8</ele>
        <time>2012-10-04T09:07:26Z</time>
      </trkpt>
      <trkpt lat="42.72428" lon="0.19114">
        <ele>1922.8</ele>
        <time>2012-10-04T09:07:35Z</time>
      </trkpt>
      <trkpt lat="42.72431" lon="0.19106">
        <ele>1924.2</ele>
        <time>2012-10-04T09:07:44Z</time>
      </trkpt>
      <trkpt lat="42.72432" lon="0.19105">
        <ele>1924.7</ele>
        <time>2012-10-04T09:07:46Z</time>
      </trkpt>
      <trkpt lat="42.72433" lon="0.19098">
        <ele>1926.1</ele>
        <time>2012-10-04T09:07:53Z</time>
      </trkpt>
      <trkpt lat="42.72436" lon="0.19093">
        <ele>1927.6</ele>
        <time>2012-10-04T09:08:00Z</time>
      </trkpt>
      <trkpt lat="42.72436" lon="0.19093">
        <ele>1927.6</ele>
        <time>2012-10-04T09:08:01Z</time>
      </trkpt>
      <trkpt lat="42.72441" lon="0.191">
        <ele>1929</ele>
        <time>2012-10-04T09:08:09Z</time>
      </trkpt>
      <trkpt lat="42.72443" lon="0.19094">
        <ele>1930.5</ele>
        <time>2012-10-04T09:08:15Z</time>
      </trkpt>
      <trkpt lat="42.72444" lon="0.19087">
        <ele>1931.4</ele>
        <time>2012-10-04T09:08:23Z</time>
      </trkpt>
      <trkpt lat="42.72446" lon="0.19078">
        <ele>1933.3</ele>
        <time>2012-10-04T09:08:32Z</time>
      </trkpt>
      <trkpt lat="42.72443" lon="0.19071">
        <ele>1934.3</ele>
        <time>2012-10-04T09:08:39Z</time>
      </trkpt>
      <trkpt lat="42.72442" lon="0.19069">
        <ele>1934.8</ele>
        <time>2012-10-04T09:08:42Z</time>
      </trkpt>
      <trkpt lat="42.72443" lon="0.19065">
        <ele>1936.2</ele>
        <time>2012-10-04T09:08:49Z</time>
      </trkpt>
      <trkpt lat="42.72443" lon="0.19065">
        <ele>1936.2</ele>
        <time>2012-10-04T09:08:50Z</time>
      </trkpt>
      <trkpt lat="42.72441" lon="0.19059">
        <ele>1937.7</ele>
        <time>2012-10-04T09:08:57Z</time>
      </trkpt>
      <trkpt lat="42.72441" lon="0.19052">
        <ele>1938.2</ele>
        <time>2012-10-04T09:09:03Z</time>
      </trkpt>
      <trkpt lat="42.72441" lon="0.19047">
        <ele>1939.1</ele>
        <time>2012-10-04T09:09:09Z</time>
      </trkpt>
      <trkpt lat="42.7244" lon="0.19043">
        <ele>1940.1</ele>
        <time>2012-10-04T09:09:15Z</time>
      </trkpt>
      <trkpt lat="42.72439" lon="0.1904">
        <ele>1940.6</ele>
        <time>2012-10-04T09:09:20Z</time>
      </trkpt>
      <trkpt lat="42.72438" lon="0.19036">
        <ele>1941.5</ele>
        <time>2012-10-04T09:09:27Z</time>
      </trkpt>
      <trkpt lat="42.72437" lon="0.1903">
        <ele>1942</ele>
        <time>2012-10-04T09:09:34Z</time>
      </trkpt>
      <trkpt lat="42.72435" lon="0.19027">
        <ele>1942.5</ele>
        <time>2012-10-04T09:09:42Z</time>
      </trkpt>
      <trkpt lat="42.72435" lon="0.19026">
        <ele>1942.5</ele>
        <time>2012-10-04T09:09:50Z</time>
      </trkpt>
      <trkpt lat="42.72434" lon="0.19017">
        <ele>1943.9</ele>
        <time>2012-10-04T09:09:58Z</time>
      </trkpt>
      <trkpt lat="42.72432" lon="0.19011">
        <ele>1945.4</ele>
        <time>2012-10-04T09:10:05Z</time>
      </trkpt>
      <trkpt lat="42.72429" lon="0.19004">
        <ele>1947.3</ele>
        <time>2012-10-04T09:10:14Z</time>
      </trkpt>
      <trkpt lat="42.72428" lon="0.18998">
        <ele>1948.7</ele>
        <time>2012-10-04T09:10:22Z</time>
      </trkpt>
      <trkpt lat="42.72428" lon="0.18997">
        <ele>1949.2</ele>
        <time>2012-10-04T09:10:24Z</time>
      </trkpt>
      <trkpt lat="42.72426" lon="0.18991">
        <ele>1949.7</ele>
        <time>2012-10-04T09:10:31Z</time>
      </trkpt>
      <trkpt lat="42.72424" lon="0.18987">
        <ele>1950.2</ele>
        <time>2012-10-04T09:10:38Z</time>
      </trkpt>
      <trkpt lat="42.72425" lon="0.18988">
        <ele>1950.2</ele>
        <time>2012-10-04T09:10:47Z</time>
      </trkpt>
      <trkpt lat="42.72424" lon="0.18989">
        <ele>1949.7</ele>
        <time>2012-10-04T09:10:57Z</time>
      </trkpt>
      <trkpt lat="42.72422" lon="0.18989">
        <ele>1950.2</ele>
        <time>2012-10-04T09:11:12Z</time>
      </trkpt>
      <trkpt lat="42.72422" lon="0.18987">
        <ele>1950.2</ele>
        <time>2012-10-04T09:11:29Z</time>
      </trkpt>
      <trkpt lat="42.72423" lon="0.18985">
        <ele>1950.2</ele>
        <time>2012-10-04T09:11:39Z</time>
      </trkpt>
      <trkpt lat="42.72423" lon="0.18984">
        <ele>1950.2</ele>
        <time>2012-10-04T09:11:53Z</time>
      </trkpt>
      <trkpt lat="42.72423" lon="0.18983">
        <ele>1950.2</ele>
        <time>2012-10-04T09:11:58Z</time>
      </trkpt>
      <trkpt lat="42.72422" lon="0.18984">
        <ele>1950.2</ele>
        <time>2012-10-04T09:12:04Z</time>
      </trkpt>
      <trkpt lat="42.72422" lon="0.18984">
        <ele>1950.2</ele>
        <time>2012-10-04T09:12:12Z</time>
      </trkpt>
      <trkpt lat="42.72422" lon="0.18986">
        <ele>1950.2</ele>
        <time>2012-10-04T09:12:21Z</time>
      </trkpt>
      <trkpt lat="42.72422" lon="0.18985">
        <ele>1950.7</ele>
        <time>2012-10-04T09:12:36Z</time>
      </trkpt>
      <trkpt lat="42.72423" lon="0.18985">
        <ele>1950.7</ele>
        <time>2012-10-04T09:12:45Z</time>
      </trkpt>
      <trkpt lat="42.72423" lon="0.18984">
        <ele>1950.7</ele>
        <time>2012-10-04T09:12:53Z</time>
      </trkpt>
      <trkpt lat="42.72423" lon="0.18986">
        <ele>1950.7</ele>
        <time>2012-10-04T09:13:11Z</time>
      </trkpt>
      <trkpt lat="42.72424" lon="0.18986">
        <ele>1951.6</ele>
        <time>2012-10-04T09:13:21Z</time>
      </trkpt>
      <trkpt lat="42.72424" lon="0.18981">
        <ele>1951.1</ele>
        <time>2012-10-04T09:13:28Z</time>
      </trkpt>
      <trkpt lat="42.72424" lon="0.18972">
        <ele>1951.6</ele>
        <time>2012-10-04T09:13:36Z</time>
      </trkpt>
      <trkpt lat="42.72424" lon="0.18965">
        <ele>1953.1</ele>
        <time>2012-10-04T09:13:44Z</time>
      </trkpt>
      <trkpt lat="42.72423" lon="0.18958">
        <ele>1953.5</ele>
        <time>2012-10-04T09:13:52Z</time>
      </trkpt>
      <trkpt lat="42.72423" lon="0.18954">
        <ele>1954</ele>
        <time>2012-10-04T09:13:59Z</time>
      </trkpt>
      <trkpt lat="42.72422" lon="0.1895">
        <ele>1954.5</ele>
        <time>2012-10-04T09:14:02Z</time>
      </trkpt>
      <trkpt lat="42.72422" lon="0.18941">
        <ele>1955</ele>
        <time>2012-10-04T09:14:10Z</time>
      </trkpt>
      <trkpt lat="42.72424" lon="0.18932">
        <ele>1956.4</ele>
        <time>2012-10-04T09:14:19Z</time>
      </trkpt>
      <trkpt lat="42.72426" lon="0.18922">
        <ele>1957.9</ele>
        <time>2012-10-04T09:14:28Z</time>
      </trkpt>
      <trkpt lat="42.72427" lon="0.18914">
        <ele>1958.8</ele>
        <time>2012-10-04T09:14:35Z</time>
      </trkpt>
      <trkpt lat="42.72429" lon="0.18906">
        <ele>1960.3</ele>
        <time>2012-10-04T09:14:44Z</time>
      </trkpt>
      <trkpt lat="42.72431" lon="0.189">
        <ele>1961.2</ele>
        <time>2012-10-04T09:14:51Z</time>
      </trkpt>
      <trkpt lat="42.72431" lon="0.18893">
        <ele>1961.7</ele>
        <time>2012-10-04T09:14:57Z</time>
      </trkpt>
      <trkpt lat="42.72432" lon="0.18887">
        <ele>1962.7</ele>
        <time>2012-10-04T09:15:04Z</time>
      </trkpt>
      <trkpt lat="42.72429" lon="0.18884">
        <ele>1964.1</ele>
        <time>2012-10-04T09:15:11Z</time>
      </trkpt>
      <trkpt lat="42.72428" lon="0.1888">
        <ele>1965.1</ele>
        <time>2012-10-04T09:15:17Z</time>
      </trkpt>
      <trkpt lat="42.72426" lon="0.18876">
        <ele>1966</ele>
        <time>2012-10-04T09:15:23Z</time>
      </trkpt>
      <trkpt lat="42.72423" lon="0.18866">
        <ele>1968</ele>
        <time>2012-10-04T09:15:33Z</time>
      </trkpt>
      <trkpt lat="42.72424" lon="0.18862">
        <ele>1968.4</ele>
        <time>2012-10-04T09:15:40Z</time>
      </trkpt>
      <trkpt lat="42.72424" lon="0.18862">
        <ele>1968.9</ele>
        <time>2012-10-04T09:15:43Z</time>
      </trkpt>
      <trkpt lat="42.72428" lon="0.18863">
        <ele>1969.9</ele>
        <time>2012-10-04T09:15:49Z</time>
      </trkpt>
      <trkpt lat="42.72434" lon="0.18864">
        <ele>1970.8</ele>
        <time>2012-10-04T09:15:56Z</time>
      </trkpt>
      <trkpt lat="42.72436" lon="0.18867">
        <ele>1972.3</ele>
        <time>2012-10-04T09:16:03Z</time>
      </trkpt>
      <trkpt lat="42.7244" lon="0.18871">
        <ele>1972.8</ele>
        <time>2012-10-04T09:16:09Z</time>
      </trkpt>
      <trkpt lat="42.72444" lon="0.18874">
        <ele>1973.7</ele>
        <time>2012-10-04T09:16:15Z</time>
      </trkpt>
      <trkpt lat="42.72441" lon="0.18867">
        <ele>1974.7</ele>
        <time>2012-10-04T09:16:23Z</time>
      </trkpt>
      <trkpt lat="42.7244" lon="0.18861">
        <ele>1975.7</ele>
        <time>2012-10-04T09:16:32Z</time>
      </trkpt>
      <trkpt lat="42.72439" lon="0.18854">
        <ele>1976.6</ele>
        <time>2012-10-04T09:16:39Z</time>
      </trkpt>
      <trkpt lat="42.7244" lon="0.18848">
        <ele>1977.6</ele>
        <time>2012-10-04T09:16:46Z</time>
      </trkpt>
      <trkpt lat="42.72443" lon="0.18839">
        <ele>1979</ele>
        <time>2012-10-04T09:16:54Z</time>
      </trkpt>
      <trkpt lat="42.72444" lon="0.18837">
        <ele>1979.5</ele>
        <time>2012-10-04T09:16:56Z</time>
      </trkpt>
      <trkpt lat="42.72441" lon="0.18827">
        <ele>1980.9</ele>
        <time>2012-10-04T09:17:04Z</time>
      </trkpt>
      <trkpt lat="42.72443" lon="0.18817">
        <ele>1982.4</ele>
        <time>2012-10-04T09:17:14Z</time>
      </trkpt>
      <trkpt lat="42.72445" lon="0.18812">
        <ele>1983.3</ele>
        <time>2012-10-04T09:17:18Z</time>
      </trkpt>
      <trkpt lat="42.72448" lon="0.18805">
        <ele>1983.8</ele>
        <time>2012-10-04T09:17:24Z</time>
      </trkpt>
      <trkpt lat="42.7245" lon="0.18798">
        <ele>1984.8</ele>
        <time>2012-10-04T09:17:30Z</time>
      </trkpt>
      <trkpt lat="42.72457" lon="0.18794">
        <ele>1985.7</ele>
        <time>2012-10-04T09:17:40Z</time>
      </trkpt>
      <trkpt lat="42.72458" lon="0.18796">
        <ele>1986.7</ele>
        <time>2012-10-04T09:17:42Z</time>
      </trkpt>
      <trkpt lat="42.72459" lon="0.18801">
        <ele>1987.2</ele>
        <time>2012-10-04T09:17:46Z</time>
      </trkpt>
      <trkpt lat="42.72461" lon="0.18806">
        <ele>1987.7</ele>
        <time>2012-10-04T09:17:52Z</time>
      </trkpt>
      <trkpt lat="42.72462" lon="0.18807">
        <ele>1988.6</ele>
        <time>2012-10-04T09:17:54Z</time>
      </trkpt>
      <trkpt lat="42.72465" lon="0.18813">
        <ele>1990.1</ele>
        <time>2012-10-04T09:18:00Z</time>
      </trkpt>
      <trkpt lat="42.72465" lon="0.1882">
        <ele>1991</ele>
        <time>2012-10-04T09:18:07Z</time>
      </trkpt>
      <trkpt lat="42.72469" lon="0.18827">
        <ele>1993.4</ele>
        <time>2012-10-04T09:18:15Z</time>
      </trkpt>
      <trkpt lat="42.72469" lon="0.18827">
        <ele>1992.9</ele>
        <time>2012-10-04T09:18:16Z</time>
      </trkpt>
      <trkpt lat="42.72474" lon="0.18836">
        <ele>1994.9</ele>
        <time>2012-10-04T09:18:25Z</time>
      </trkpt>
      <trkpt lat="42.72475" lon="0.18837">
        <ele>1994.4</ele>
        <time>2012-10-04T09:18:31Z</time>
      </trkpt>
      <trkpt lat="42.72478" lon="0.18845">
        <ele>1994.9</ele>
        <time>2012-10-04T09:18:38Z</time>
      </trkpt>
      <trkpt lat="42.72479" lon="0.18848">
        <ele>1994.9</ele>
        <time>2012-10-04T09:18:40Z</time>
      </trkpt>
      <trkpt lat="42.72481" lon="0.1886">
        <ele>1996.8</ele>
        <time>2012-10-04T09:18:48Z</time>
      </trkpt>
      <trkpt lat="42.72479" lon="0.1887">
        <ele>1998.2</ele>
        <time>2012-10-04T09:18:55Z</time>
      </trkpt>
      <trkpt lat="42.72478" lon="0.18881">
        <ele>1999.7</ele>
        <time>2012-10-04T09:19:02Z</time>
      </trkpt>
      <trkpt lat="42.72482" lon="0.18889">
        <ele>2000.6</ele>
        <time>2012-10-04T09:19:08Z</time>
      </trkpt>
      <trkpt lat="42.72485" lon="0.18887">
        <ele>2002.1</ele>
        <time>2012-10-04T09:19:12Z</time>
      </trkpt>
      <trkpt lat="42.72486" lon="0.18884">
        <ele>2002.6</ele>
        <time>2012-10-04T09:19:14Z</time>
      </trkpt>
      <trkpt lat="42.72491" lon="0.18874">
        <ele>2004</ele>
        <time>2012-10-04T09:19:23Z</time>
      </trkpt>
      <trkpt lat="42.72496" lon="0.18865">
        <ele>2005.9</ele>
        <time>2012-10-04T09:19:32Z</time>
      </trkpt>
      <trkpt lat="42.725" lon="0.18859">
        <ele>2007.4</ele>
        <time>2012-10-04T09:19:38Z</time>
      </trkpt>
      <trkpt lat="42.72504" lon="0.18851">
        <ele>2008.8</ele>
        <time>2012-10-04T09:19:45Z</time>
      </trkpt>
      <trkpt lat="42.72509" lon="0.18844">
        <ele>2010.7</ele>
        <time>2012-10-04T09:19:53Z</time>
      </trkpt>
      <trkpt lat="42.72514" lon="0.18833">
        <ele>2012.7</ele>
        <time>2012-10-04T09:20:02Z</time>
      </trkpt>
      <trkpt lat="42.72517" lon="0.18827">
        <ele>2014.1</ele>
        <time>2012-10-04T09:20:08Z</time>
      </trkpt>
      <trkpt lat="42.72523" lon="0.18818">
        <ele>2016</ele>
        <time>2012-10-04T09:20:18Z</time>
      </trkpt>
      <trkpt lat="42.72526" lon="0.1881">
        <ele>2017.5</ele>
        <time>2012-10-04T09:20:25Z</time>
      </trkpt>
      <trkpt lat="42.72529" lon="0.18805">
        <ele>2018.4</ele>
        <time>2012-10-04T09:20:30Z</time>
      </trkpt>
      <trkpt lat="42.72531" lon="0.18804">
        <ele>2018.9</ele>
        <time>2012-10-04T09:20:36Z</time>
      </trkpt>
      <trkpt lat="42.72532" lon="0.18806">
        <ele>2017.9</ele>
        <time>2012-10-04T09:20:42Z</time>
      </trkpt>
      <trkpt lat="42.72527" lon="0.18808">
        <ele>2017.9</ele>
        <time>2012-10-04T09:20:56Z</time>
      </trkpt>
      <trkpt lat="42.72525" lon="0.18806">
        <ele>2017.9</ele>
        <time>2012-10-04T09:21:09Z</time>
      </trkpt>
      <trkpt lat="42.72527" lon="0.18804">
        <ele>2018.9</ele>
        <time>2012-10-04T09:21:21Z</time>
      </trkpt>
      <trkpt lat="42.72531" lon="0.18808">
        <ele>2019.9</ele>
        <time>2012-10-04T09:21:29Z</time>
      </trkpt>
      <trkpt lat="42.72534" lon="0.18816">
        <ele>2021.8</ele>
        <time>2012-10-04T09:21:39Z</time>
      </trkpt>
      <trkpt lat="42.72539" lon="0.18821">
        <ele>2023.2</ele>
        <time>2012-10-04T09:21:47Z</time>
      </trkpt>
      <trkpt lat="42.72542" lon="0.18824">
        <ele>2024.2</ele>
        <time>2012-10-04T09:21:53Z</time>
      </trkpt>
      <trkpt lat="42.72545" lon="0.18825">
        <ele>2023.7</ele>
        <time>2012-10-04T09:21:55Z</time>
      </trkpt>
      <trkpt lat="42.72544" lon="0.1883">
        <ele>2023.7</ele>
        <time>2012-10-04T09:21:59Z</time>
      </trkpt>
      <trkpt lat="42.72544" lon="0.18827">
        <ele>2023.7</ele>
        <time>2012-10-04T09:22:19Z</time>
      </trkpt>
      <trkpt lat="42.72543" lon="0.18824">
        <ele>2023.7</ele>
        <time>2012-10-04T09:22:36Z</time>
      </trkpt>
      <trkpt lat="42.72543" lon="0.18822">
        <ele>2024.2</ele>
        <time>2012-10-04T09:22:48Z</time>
      </trkpt>
      <trkpt lat="42.72541" lon="0.18821">
        <ele>2024.2</ele>
        <time>2012-10-04T09:22:59Z</time>
      </trkpt>
      <trkpt lat="42.72541" lon="0.18819">
        <ele>2024.2</ele>
        <time>2012-10-04T09:23:12Z</time>
      </trkpt>
      <trkpt lat="42.72541" lon="0.1882">
        <ele>2024.2</ele>
        <time>2012-10-04T09:23:27Z</time>
      </trkpt>
      <trkpt lat="42.7254" lon="0.18819">
        <ele>2024.2</ele>
        <time>2012-10-04T09:23:48Z</time>
      </trkpt>
      <trkpt lat="42.7254" lon="0.18819">
        <ele>2024.7</ele>
        <time>2012-10-04T09:24:03Z</time>
      </trkpt>
      <trkpt lat="42.72541" lon="0.1882">
        <ele>2024.7</ele>
        <time>2012-10-04T09:24:21Z</time>
      </trkpt>
      <trkpt lat="42.72541" lon="0.18821">
        <ele>2024.2</ele>
        <time>2012-10-04T09:24:36Z</time>
      </trkpt>
      <trkpt lat="42.72541" lon="0.18821">
        <ele>2024.7</ele>
        <time>2012-10-04T09:24:55Z</time>
      </trkpt>
      <trkpt lat="42.72541" lon="0.1882">
        <ele>2024.7</ele>
        <time>2012-10-04T09:25:19Z</time>
      </trkpt>
      <trkpt lat="42.7254" lon="0.1882">
        <ele>2024.7</ele>
        <time>2012-10-04T09:25:41Z</time>
      </trkpt>
      <trkpt lat="42.7254" lon="0.18821">
        <ele>2024.7</ele>
        <time>2012-10-04T09:25:57Z</time>
      </trkpt>
      <trkpt lat="42.7254" lon="0.1882">
        <ele>2025.2</ele>
        <time>2012-10-04T09:26:17Z</time>
      </trkpt>
      <trkpt lat="42.7254" lon="0.1882">
        <ele>2025.2</ele>
        <time>2012-10-04T09:26:32Z</time>
      </trkpt>
      <trkpt lat="42.7254" lon="0.1882">
        <ele>2025.6</ele>
        <time>2012-10-04T09:26:53Z</time>
      </trkpt>
      <trkpt lat="42.7254" lon="0.1882">
        <ele>2025.6</ele>
        <time>2012-10-04T09:27:16Z</time>
      </trkpt>
      <trkpt lat="42.72541" lon="0.1882">
        <ele>2026.1</ele>
        <time>2012-10-04T09:27:33Z</time>
      </trkpt>
      <trkpt lat="42.72541" lon="0.18819">
        <ele>2026.1</ele>
        <time>2012-10-04T09:27:54Z</time>
      </trkpt>
      <trkpt lat="42.7254" lon="0.18819">
        <ele>2026.1</ele>
        <time>2012-10-04T09:28:17Z</time>
      </trkpt>
      <trkpt lat="42.72539" lon="0.18819">
        <ele>2026.1</ele>
        <time>2012-10-04T09:28:37Z</time>
      </trkpt>
      <trkpt lat="42.72539" lon="0.18819">
        <ele>2026.1</ele>
        <time>2012-10-04T09:28:59Z</time>
      </trkpt>
      <trkpt lat="42.72539" lon="0.18819">
        <ele>2026.6</ele>
        <time>2012-10-04T09:29:23Z</time>
      </trkpt>
      <trkpt lat="42.72539" lon="0.18818">
        <ele>2026.6</ele>
        <time>2012-10-04T09:29:40Z</time>
      </trkpt>
      <trkpt lat="42.7254" lon="0.18819">
        <ele>2026.6</ele>
        <time>2012-10-04T09:29:58Z</time>
      </trkpt>
      <trkpt lat="42.72539" lon="0.18819">
        <ele>2027.1</ele>
        <time>2012-10-04T09:30:15Z</time>
      </trkpt>
      <trkpt lat="42.72538" lon="0.18818">
        <ele>2027.1</ele>
        <time>2012-10-04T09:30:35Z</time>
      </trkpt>
      <trkpt lat="42.72538" lon="0.18818">
        <ele>2027.1</ele>
        <time>2012-10-04T09:30:52Z</time>
      </trkpt>
      <trkpt lat="42.72538" lon="0.18819">
        <ele>2027.6</ele>
        <time>2012-10-04T09:31:09Z</time>
      </trkpt>
      <trkpt lat="42.72538" lon="0.18819">
        <ele>2027.6</ele>
        <time>2012-10-04T09:31:27Z</time>
      </trkpt>
      <trkpt lat="42.72539" lon="0.18819">
        <ele>2027.6</ele>
        <time>2012-10-04T09:31:46Z</time>
      </trkpt>
      <trkpt lat="42.7254" lon="0.18821">
        <ele>2027.6</ele>
        <time>2012-10-04T09:31:59Z</time>
      </trkpt>
      <trkpt lat="42.7254" lon="0.18821">
        <ele>2027.6</ele>
        <time>2012-10-04T09:32:20Z</time>
      </trkpt>
      <trkpt lat="42.72541" lon="0.18821">
        <ele>2028</ele>
        <time>2012-10-04T09:32:35Z</time>
      </trkpt>
      <trkpt lat="42.7254" lon="0.18822">
        <ele>2028</ele>
        <time>2012-10-04T09:32:56Z</time>
      </trkpt>
      <trkpt lat="42.7254" lon="0.18821">
        <ele>2028</ele>
        <time>2012-10-04T09:33:06Z</time>
      </trkpt>
      <trkpt lat="42.72541" lon="0.18823">
        <ele>2028</ele>
        <time>2012-10-04T09:33:22Z</time>
      </trkpt>
      <trkpt lat="42.72541" lon="0.18823">
        <ele>2028</ele>
        <time>2012-10-04T09:33:35Z</time>
      </trkpt>
      <trkpt lat="42.72541" lon="0.18823">
        <ele>2028.5</ele>
        <time>2012-10-04T09:33:49Z</time>
      </trkpt>
      <trkpt lat="42.72541" lon="0.18824">
        <ele>2028.5</ele>
        <time>2012-10-04T09:34:02Z</time>
      </trkpt>
      <trkpt lat="42.72541" lon="0.18823">
        <ele>2028</ele>
        <time>2012-10-04T09:34:15Z</time>
      </trkpt>
      <trkpt lat="42.72541" lon="0.18823">
        <ele>2028.5</ele>
        <time>2012-10-04T09:34:30Z</time>
      </trkpt>
      <trkpt lat="42.72541" lon="0.18822">
        <ele>2028.5</ele>
        <time>2012-10-04T09:34:47Z</time>
      </trkpt>
      <trkpt lat="42.7254" lon="0.18822">
        <ele>2028.5</ele>
        <time>2012-10-04T09:35:07Z</time>
      </trkpt>
      <trkpt lat="42.72541" lon="0.18822">
        <ele>2029</ele>
        <time>2012-10-04T09:35:27Z</time>
      </trkpt>
      <trkpt lat="42.72541" lon="0.18822">
        <ele>2029</ele>
        <time>2012-10-04T09:35:44Z</time>
      </trkpt>
      <trkpt lat="42.72542" lon="0.18823">
        <ele>2029</ele>
        <time>2012-10-04T09:35:59Z</time>
      </trkpt>
      <trkpt lat="42.72541" lon="0.18822">
        <ele>2029</ele>
        <time>2012-10-04T09:36:13Z</time>
      </trkpt>
      <trkpt lat="42.72541" lon="0.18822">
        <ele>2029</ele>
        <time>2012-10-04T09:36:30Z</time>
      </trkpt>
      <trkpt lat="42.72542" lon="0.18822">
        <ele>2029</ele>
        <time>2012-10-04T09:36:47Z</time>
      </trkpt>
      <trkpt lat="42.72541" lon="0.18823">
        <ele>2029</ele>
        <time>2012-10-04T09:37:06Z</time>
      </trkpt>
      <trkpt lat="42.7254" lon="0.18822">
        <ele>2029.5</ele>
        <time>2012-10-04T09:37:14Z</time>
      </trkpt>
      <trkpt lat="42.72543" lon="0.18821">
        <ele>2030</ele>
        <time>2012-10-04T09:37:31Z</time>
      </trkpt>
      <trkpt lat="42.72544" lon="0.18819">
        <ele>2030.4</ele>
        <time>2012-10-04T09:37:37Z</time>
      </trkpt>
      <trkpt lat="42.72547" lon="0.18816">
        <ele>2030.9</ele>
        <time>2012-10-04T09:37:51Z</time>
      </trkpt>
      <trkpt lat="42.7255" lon="0.18813">
        <ele>2031.4</ele>
        <time>2012-10-04T09:37:58Z</time>
      </trkpt>
      <trkpt lat="42.72554" lon="0.18808">
        <ele>2032.4</ele>
        <time>2012-10-04T09:38:09Z</time>
      </trkpt>
      <trkpt lat="42.72557" lon="0.18803">
        <ele>2033.8</ele>
        <time>2012-10-04T09:38:18Z</time>
      </trkpt>
      <trkpt lat="42.72561" lon="0.188">
        <ele>2034.8</ele>
        <time>2012-10-04T09:38:26Z</time>
      </trkpt>
      <trkpt lat="42.72565" lon="0.18795">
        <ele>2036.2</ele>
        <time>2012-10-04T09:38:34Z</time>
      </trkpt>
      <trkpt lat="42.72569" lon="0.18791">
        <ele>2037.7</ele>
        <time>2012-10-04T09:38:42Z</time>
      </trkpt>
      <trkpt lat="42.72572" lon="0.18787">
        <ele>2039.1</ele>
        <time>2012-10-04T09:38:50Z</time>
      </trkpt>
      <trkpt lat="42.72573" lon="0.18787">
        <ele>2039.1</ele>
        <time>2012-10-04T09:38:51Z</time>
      </trkpt>
      <trkpt lat="42.72576" lon="0.18784">
        <ele>2040.1</ele>
        <time>2012-10-04T09:38:55Z</time>
      </trkpt>
      <trkpt lat="42.72576" lon="0.1878">
        <ele>2041</ele>
        <time>2012-10-04T09:39:01Z</time>
      </trkpt>
      <trkpt lat="42.72579" lon="0.18777">
        <ele>2042</ele>
        <time>2012-10-04T09:39:07Z</time>
      </trkpt>
      <trkpt lat="42.72582" lon="0.18773">
        <ele>2042.9</ele>
        <time>2012-10-04T09:39:15Z</time>
      </trkpt>
      <trkpt lat="42.72584" lon="0.18769">
        <ele>2043.4</ele>
        <time>2012-10-04T09:39:21Z</time>
      </trkpt>
      <trkpt lat="42.72585" lon="0.18767">
        <ele>2043.9</ele>
        <time>2012-10-04T09:39:25Z</time>
      </trkpt>
      <trkpt lat="42.72591" lon="0.18762">
        <ele>2044.9</ele>
        <time>2012-10-04T09:39:32Z</time>
      </trkpt>
      <trkpt lat="42.72591" lon="0.18762">
        <ele>2044.9</ele>
        <time>2012-10-04T09:39:32Z</time>
      </trkpt>
      <trkpt lat="42.72594" lon="0.1876">
        <ele>2046.3</ele>
        <time>2012-10-04T09:39:38Z</time>
      </trkpt>
      <trkpt lat="42.72599" lon="0.18757">
        <ele>2046.8</ele>
        <time>2012-10-04T09:39:44Z</time>
      </trkpt>
      <trkpt lat="42.726" lon="0.18756">
        <ele>2047.8</ele>
        <time>2012-10-04T09:39:50Z</time>
      </trkpt>
      <trkpt lat="42.72604" lon="0.18753">
        <ele>2048.7</ele>
        <time>2012-10-04T09:39:57Z</time>
      </trkpt>
      <trkpt lat="42.72606" lon="0.18748">
        <ele>2049.7</ele>
        <time>2012-10-04T09:40:04Z</time>
      </trkpt>
      <trkpt lat="42.72608" lon="0.18745">
        <ele>2049.7</ele>
        <time>2012-10-04T09:40:11Z</time>
      </trkpt>
      <trkpt lat="42.72608" lon="0.18743">
        <ele>2049.7</ele>
        <time>2012-10-04T09:40:13Z</time>
      </trkpt>
      <trkpt lat="42.7261" lon="0.18739">
        <ele>2050.1</ele>
        <time>2012-10-04T09:40:16Z</time>
      </trkpt>
      <trkpt lat="42.72611" lon="0.18738">
        <ele>2050.1</ele>
        <time>2012-10-04T09:40:17Z</time>
      </trkpt>
      <trkpt lat="42.72612" lon="0.18737">
        <ele>2050.6</ele>
        <time>2012-10-04T09:40:18Z</time>
      </trkpt>
      <trkpt lat="42.72615" lon="0.18727">
        <ele>2051.6</ele>
        <time>2012-10-04T09:40:25Z</time>
      </trkpt>
      <trkpt lat="42.72616" lon="0.18726">
        <ele>2051.6</ele>
        <time>2012-10-04T09:40:26Z</time>
      </trkpt>
      <trkpt lat="42.72616" lon="0.18725">
        <ele>2052.1</ele>
        <time>2012-10-04T09:40:27Z</time>
      </trkpt>
      <trkpt lat="42.72617" lon="0.18724">
        <ele>2052.1</ele>
        <time>2012-10-04T09:40:28Z</time>
      </trkpt>
      <trkpt lat="42.72617" lon="0.18723">
        <ele>2052.1</ele>
        <time>2012-10-04T09:40:29Z</time>
      </trkpt>
      <trkpt lat="42.7262" lon="0.18716">
        <ele>2053</ele>
        <time>2012-10-04T09:40:35Z</time>
      </trkpt>
      <trkpt lat="42.72624" lon="0.18707">
        <ele>2054.5</ele>
        <time>2012-10-04T09:40:43Z</time>
      </trkpt>
      <trkpt lat="42.72627" lon="0.18701">
        <ele>2055.4</ele>
        <time>2012-10-04T09:40:50Z</time>
      </trkpt>
      <trkpt lat="42.72627" lon="0.18698">
        <ele>2055.9</ele>
        <time>2012-10-04T09:40:52Z</time>
      </trkpt>
      <trkpt lat="42.7263" lon="0.18692">
        <ele>2057.4</ele>
        <time>2012-10-04T09:40:57Z</time>
      </trkpt>
      <trkpt lat="42.7263" lon="0.18691">
        <ele>2057.4</ele>
        <time>2012-10-04T09:40:58Z</time>
      </trkpt>
      <trkpt lat="42.72631" lon="0.18689">
        <ele>2057.4</ele>
        <time>2012-10-04T09:40:59Z</time>
      </trkpt>
      <trkpt lat="42.72634" lon="0.18681">
        <ele>2058.3</ele>
        <time>2012-10-04T09:41:05Z</time>
      </trkpt>
      <trkpt lat="42.72635" lon="0.1868">
        <ele>2058.8</ele>
        <time>2012-10-04T09:41:06Z</time>
      </trkpt>
      <trkpt lat="42.72636" lon="0.18679">
        <ele>2058.8</ele>
        <time>2012-10-04T09:41:07Z</time>
      </trkpt>
      <trkpt lat="42.72638" lon="0.18676">
        <ele>2059.8</ele>
        <time>2012-10-04T09:41:10Z</time>
      </trkpt>
      <trkpt lat="42.72641" lon="0.18672">
        <ele>2060.2</ele>
        <time>2012-10-04T09:41:14Z</time>
      </trkpt>
      <trkpt lat="42.72642" lon="0.18669">
        <ele>2060.2</ele>
        <time>2012-10-04T09:41:16Z</time>
      </trkpt>
      <trkpt lat="42.72646" lon="0.18663">
        <ele>2061.2</ele>
        <time>2012-10-04T09:41:22Z</time>
      </trkpt>
      <trkpt lat="42.72647" lon="0.18661">
        <ele>2061.7</ele>
        <time>2012-10-04T09:41:23Z</time>
      </trkpt>
      <trkpt lat="42.72647" lon="0.1866">
        <ele>2061.7</ele>
        <time>2012-10-04T09:41:24Z</time>
      </trkpt>
      <trkpt lat="42.72648" lon="0.18658">
        <ele>2061.7</ele>
        <time>2012-10-04T09:41:25Z</time>
      </trkpt>
      <trkpt lat="42.72649" lon="0.18657">
        <ele>2062.2</ele>
        <time>2012-10-04T09:41:26Z</time>
      </trkpt>
      <trkpt lat="42.7265" lon="0.18656">
        <ele>2062.2</ele>
        <time>2012-10-04T09:41:27Z</time>
      </trkpt>
      <trkpt lat="42.72654" lon="0.1865">
        <ele>2062.6</ele>
        <time>2012-10-04T09:41:32Z</time>
      </trkpt>
      <trkpt lat="42.72655" lon="0.18649">
        <ele>2062.6</ele>
        <time>2012-10-04T09:41:33Z</time>
      </trkpt>
      <trkpt lat="42.72663" lon="0.18639">
        <ele>2064.1</ele>
        <time>2012-10-04T09:41:43Z</time>
      </trkpt>
      <trkpt lat="42.72673" lon="0.18629">
        <ele>2065.1</ele>
        <time>2012-10-04T09:41:53Z</time>
      </trkpt>
      <trkpt lat="42.72683" lon="0.1862">
        <ele>2066.5</ele>
        <time>2012-10-04T09:42:02Z</time>
      </trkpt>
      <trkpt lat="42.72689" lon="0.18606">
        <ele>2067.9</ele>
        <time>2012-10-04T09:42:12Z</time>
      </trkpt>
      <trkpt lat="42.72692" lon="0.18592">
        <ele>2069.4</ele>
        <time>2012-10-04T09:42:21Z</time>
      </trkpt>
      <trkpt lat="42.72696" lon="0.18577">
        <ele>2070.3</ele>
        <time>2012-10-04T09:42:30Z</time>
      </trkpt>
      <trkpt lat="42.72698" lon="0.18567">
        <ele>2071.8</ele>
        <time>2012-10-04T09:42:36Z</time>
      </trkpt>
      <trkpt lat="42.72698" lon="0.18565">
        <ele>2071.8</ele>
        <time>2012-10-04T09:42:37Z</time>
      </trkpt>
      <trkpt lat="42.72698" lon="0.18564">
        <ele>2072.3</ele>
        <time>2012-10-04T09:42:38Z</time>
      </trkpt>
      <trkpt lat="42.72699" lon="0.18562">
        <ele>2072.7</ele>
        <time>2012-10-04T09:42:39Z</time>
      </trkpt>
      <trkpt lat="42.72699" lon="0.1856">
        <ele>2072.3</ele>
        <time>2012-10-04T09:42:40Z</time>
      </trkpt>
      <trkpt lat="42.72699" lon="0.18558">
        <ele>2072.7</ele>
        <time>2012-10-04T09:42:41Z</time>
      </trkpt>
      <trkpt lat="42.72699" lon="0.18557">
        <ele>2072.7</ele>
        <time>2012-10-04T09:42:42Z</time>
      </trkpt>
      <trkpt lat="42.727" lon="0.18555">
        <ele>2073.2</ele>
        <time>2012-10-04T09:42:43Z</time>
      </trkpt>
      <trkpt lat="42.727" lon="0.18553">
        <ele>2072.7</ele>
        <time>2012-10-04T09:42:44Z</time>
      </trkpt>
      <trkpt lat="42.72701" lon="0.18552">
        <ele>2073.2</ele>
        <time>2012-10-04T09:42:45Z</time>
      </trkpt>
      <trkpt lat="42.72701" lon="0.1855">
        <ele>2073.2</ele>
        <time>2012-10-04T09:42:46Z</time>
      </trkpt>
      <trkpt lat="42.72702" lon="0.18549">
        <ele>2073.2</ele>
        <time>2012-10-04T09:42:47Z</time>
      </trkpt>
      <trkpt lat="42.72702" lon="0.18547">
        <ele>2073.7</ele>
        <time>2012-10-04T09:42:48Z</time>
      </trkpt>
      <trkpt lat="42.7271" lon="0.1853">
        <ele>2075.6</ele>
        <time>2012-10-04T09:42:59Z</time>
      </trkpt>
      <trkpt lat="42.72716" lon="0.18518">
        <ele>2077.6</ele>
        <time>2012-10-04T09:43:07Z</time>
      </trkpt>
      <trkpt lat="42.72718" lon="0.18515">
        <ele>2078.5</ele>
        <time>2012-10-04T09:43:10Z</time>
      </trkpt>
      <trkpt lat="42.72718" lon="0.18514">
        <ele>2078.5</ele>
        <time>2012-10-04T09:43:11Z</time>
      </trkpt>
      <trkpt lat="42.72719" lon="0.18512">
        <ele>2078.5</ele>
        <time>2012-10-04T09:43:12Z</time>
      </trkpt>
      <trkpt lat="42.7272" lon="0.18511">
        <ele>2078.5</ele>
        <time>2012-10-04T09:43:13Z</time>
      </trkpt>
      <trkpt lat="42.7272" lon="0.1851">
        <ele>2078.5</ele>
        <time>2012-10-04T09:43:14Z</time>
      </trkpt>
      <trkpt lat="42.72726" lon="0.18498">
        <ele>2079</ele>
        <time>2012-10-04T09:43:23Z</time>
      </trkpt>
      <trkpt lat="42.72731" lon="0.18487">
        <ele>2080.4</ele>
        <time>2012-10-04T09:43:32Z</time>
      </trkpt>
      <trkpt lat="42.72738" lon="0.18474">
        <ele>2082.4</ele>
        <time>2012-10-04T09:43:41Z</time>
      </trkpt>
      <trkpt lat="42.72742" lon="0.1846">
        <ele>2084.3</ele>
        <time>2012-10-04T09:43:50Z</time>
      </trkpt>
      <trkpt lat="42.72743" lon="0.18458">
        <ele>2084.3</ele>
        <time>2012-10-04T09:43:51Z</time>
      </trkpt>
      <trkpt lat="42.72744" lon="0.18457">
        <ele>2084.8</ele>
        <time>2012-10-04T09:43:52Z</time>
      </trkpt>
      <trkpt lat="42.7275" lon="0.18449">
        <ele>2086.2</ele>
        <time>2012-10-04T09:44:00Z</time>
      </trkpt>
      <trkpt lat="42.72756" lon="0.18441">
        <ele>2087.2</ele>
        <time>2012-10-04T09:44:07Z</time>
      </trkpt>
      <trkpt lat="42.72758" lon="0.18436">
        <ele>2087.6</ele>
        <time>2012-10-04T09:44:11Z</time>
      </trkpt>
      <trkpt lat="42.7276" lon="0.18434">
        <ele>2088.1</ele>
        <time>2012-10-04T09:44:13Z</time>
      </trkpt>
      <trkpt lat="42.72761" lon="0.18433">
        <ele>2088.1</ele>
        <time>2012-10-04T09:44:14Z</time>
      </trkpt>
      <trkpt lat="42.72765" lon="0.18427">
        <ele>2089.1</ele>
        <time>2012-10-04T09:44:21Z</time>
      </trkpt>
      <trkpt lat="42.72771" lon="0.18422">
        <ele>2090</ele>
        <time>2012-10-04T09:44:27Z</time>
      </trkpt>
      <trkpt lat="42.72772" lon="0.1842">
        <ele>2090</ele>
        <time>2012-10-04T09:44:28Z</time>
      </trkpt>
      <trkpt lat="42.72772" lon="0.18419">
        <ele>2090</ele>
        <time>2012-10-04T09:44:29Z</time>
      </trkpt>
      <trkpt lat="42.72772" lon="0.18417">
        <ele>2090</ele>
        <time>2012-10-04T09:44:30Z</time>
      </trkpt>
      <trkpt lat="42.72774" lon="0.18408">
        <ele>2091</ele>
        <time>2012-10-04T09:44:36Z</time>
      </trkpt>
      <trkpt lat="42.72775" lon="0.18407">
        <ele>2091.5</ele>
        <time>2012-10-04T09:44:37Z</time>
      </trkpt>
      <trkpt lat="42.72778" lon="0.184">
        <ele>2092</ele>
        <time>2012-10-04T09:44:41Z</time>
      </trkpt>
      <trkpt lat="42.72778" lon="0.18398">
        <ele>2092.4</ele>
        <time>2012-10-04T09:44:42Z</time>
      </trkpt>
      <trkpt lat="42.72778" lon="0.18397">
        <ele>2092.4</ele>
        <time>2012-10-04T09:44:43Z</time>
      </trkpt>
      <trkpt lat="42.72779" lon="0.18396">
        <ele>2092.4</ele>
        <time>2012-10-04T09:44:44Z</time>
      </trkpt>
      <trkpt lat="42.72779" lon="0.18394">
        <ele>2092.4</ele>
        <time>2012-10-04T09:44:45Z</time>
      </trkpt>
      <trkpt lat="42.72781" lon="0.18385">
        <ele>2093.4</ele>
        <time>2012-10-04T09:44:51Z</time>
      </trkpt>
      <trkpt lat="42.72784" lon="0.18374">
        <ele>2094.4</ele>
        <time>2012-10-04T09:44:59Z</time>
      </trkpt>
      <trkpt lat="42.72786" lon="0.18369">
        <ele>2094.9</ele>
        <time>2012-10-04T09:45:02Z</time>
      </trkpt>
      <trkpt lat="42.72785" lon="0.18368">
        <ele>2095.3</ele>
        <time>2012-10-04T09:45:03Z</time>
      </trkpt>
      <trkpt lat="42.72786" lon="0.18366">
        <ele>2095.3</ele>
        <time>2012-10-04T09:45:04Z</time>
      </trkpt>
      <trkpt lat="42.72786" lon="0.18365">
        <ele>2095.8</ele>
        <time>2012-10-04T09:45:05Z</time>
      </trkpt>
      <trkpt lat="42.72786" lon="0.18363">
        <ele>2096.3</ele>
        <time>2012-10-04T09:45:06Z</time>
      </trkpt>
      <trkpt lat="42.72787" lon="0.18362">
        <ele>2096.3</ele>
        <time>2012-10-04T09:45:07Z</time>
      </trkpt>
      <trkpt lat="42.72789" lon="0.18351">
        <ele>2097.7</ele>
        <time>2012-10-04T09:45:15Z</time>
      </trkpt>
      <trkpt lat="42.72788" lon="0.18347">
        <ele>2099.2</ele>
        <time>2012-10-04T09:45:22Z</time>
      </trkpt>
      <trkpt lat="42.72788" lon="0.18346">
        <ele>2099.2</ele>
        <time>2012-10-04T09:45:34Z</time>
      </trkpt>
      <trkpt lat="42.72789" lon="0.18339">
        <ele>2100.1</ele>
        <time>2012-10-04T09:45:41Z</time>
      </trkpt>
      <trkpt lat="42.72789" lon="0.18338">
        <ele>2100.1</ele>
        <time>2012-10-04T09:45:42Z</time>
      </trkpt>
      <trkpt lat="42.72794" lon="0.18332">
        <ele>2101.1</ele>
        <time>2012-10-04T09:45:49Z</time>
      </trkpt>
      <trkpt lat="42.72796" lon="0.18326">
        <ele>2102.1</ele>
        <time>2012-10-04T09:45:55Z</time>
      </trkpt>
      <trkpt lat="42.72794" lon="0.18327">
        <ele>2102.5</ele>
        <time>2012-10-04T09:46:09Z</time>
      </trkpt>
      <trkpt lat="42.72795" lon="0.18325">
        <ele>2102.1</ele>
        <time>2012-10-04T09:46:19Z</time>
      </trkpt>
      <trkpt lat="42.72794" lon="0.18325">
        <ele>2102.5</ele>
        <time>2012-10-04T09:46:28Z</time>
      </trkpt>
      <trkpt lat="42.72795" lon="0.18324">
        <ele>2102.5</ele>
        <time>2012-10-04T09:46:42Z</time>
      </trkpt>
      <trkpt lat="42.72798" lon="0.1832">
        <ele>2103</ele>
        <time>2012-10-04T09:46:49Z</time>
      </trkpt>
      <trkpt lat="42.728" lon="0.18316">
        <ele>2104</ele>
        <time>2012-10-04T09:46:52Z</time>
      </trkpt>
      <trkpt lat="42.728" lon="0.18315">
        <ele>2104</ele>
        <time>2012-10-04T09:46:53Z</time>
      </trkpt>
      <trkpt lat="42.72801" lon="0.18313">
        <ele>2104.5</ele>
        <time>2012-10-04T09:46:54Z</time>
      </trkpt>
      <trkpt lat="42.72801" lon="0.18311">
        <ele>2104.9</ele>
        <time>2012-10-04T09:46:55Z</time>
      </trkpt>
      <trkpt lat="42.72802" lon="0.1831">
        <ele>2104.5</ele>
        <time>2012-10-04T09:46:56Z</time>
      </trkpt>
      <trkpt lat="42.72803" lon="0.18307">
        <ele>2104.9</ele>
        <time>2012-10-04T09:46:57Z</time>
      </trkpt>
      <trkpt lat="42.72803" lon="0.18305">
        <ele>2104.9</ele>
        <time>2012-10-04T09:46:58Z</time>
      </trkpt>
      <trkpt lat="42.72805" lon="0.18304">
        <ele>2104.9</ele>
        <time>2012-10-04T09:46:59Z</time>
      </trkpt>
      <trkpt lat="42.72808" lon="0.18299">
        <ele>2106.4</ele>
        <time>2012-10-04T09:47:03Z</time>
      </trkpt>
      <trkpt lat="42.7281" lon="0.18298">
        <ele>2106.9</ele>
        <time>2012-10-04T09:47:05Z</time>
      </trkpt>
      <trkpt lat="42.7281" lon="0.18293">
        <ele>2106.9</ele>
        <time>2012-10-04T09:47:08Z</time>
      </trkpt>
      <trkpt lat="42.72811" lon="0.18292">
        <ele>2106.9</ele>
        <time>2012-10-04T09:47:09Z</time>
      </trkpt>
      <trkpt lat="42.72812" lon="0.1829">
        <ele>2107.8</ele>
        <time>2012-10-04T09:47:10Z</time>
      </trkpt>
      <trkpt lat="42.72812" lon="0.1829">
        <ele>2107.8</ele>
        <time>2012-10-04T09:47:11Z</time>
      </trkpt>
      <trkpt lat="42.72814" lon="0.18288">
        <ele>2108.3</ele>
        <time>2012-10-04T09:47:12Z</time>
      </trkpt>
      <trkpt lat="42.72818" lon="0.18282">
        <ele>2109.3</ele>
        <time>2012-10-04T09:47:18Z</time>
      </trkpt>
      <trkpt lat="42.72825" lon="0.18278">
        <ele>2110.7</ele>
        <time>2012-10-04T09:47:26Z</time>
      </trkpt>
      <trkpt lat="42.72827" lon="0.18278">
        <ele>2110.7</ele>
        <time>2012-10-04T09:47:28Z</time>
      </trkpt>
      <trkpt lat="42.72833" lon="0.18276">
        <ele>2112.1</ele>
        <time>2012-10-04T09:47:35Z</time>
      </trkpt>
      <trkpt lat="42.72841" lon="0.18274">
        <ele>2113.6</ele>
        <time>2012-10-04T09:47:43Z</time>
      </trkpt>
      <trkpt lat="42.72852" lon="0.18271">
        <ele>2115.5</ele>
        <time>2012-10-04T09:47:51Z</time>
      </trkpt>
      <trkpt lat="42.7286" lon="0.18269">
        <ele>2117</ele>
        <time>2012-10-04T09:47:59Z</time>
      </trkpt>
      <trkpt lat="42.72868" lon="0.18267">
        <ele>2118.4</ele>
        <time>2012-10-04T09:48:06Z</time>
      </trkpt>
      <trkpt lat="42.72877" lon="0.18265">
        <ele>2119.8</ele>
        <time>2012-10-04T09:48:14Z</time>
      </trkpt>
      <trkpt lat="42.72878" lon="0.18262">
        <ele>2120.3</ele>
        <time>2012-10-04T09:48:17Z</time>
      </trkpt>
      <trkpt lat="42.72879" lon="0.18261">
        <ele>2120.3</ele>
        <time>2012-10-04T09:48:18Z</time>
      </trkpt>
      <trkpt lat="42.7288" lon="0.1826">
        <ele>2120.8</ele>
        <time>2012-10-04T09:48:19Z</time>
      </trkpt>
      <trkpt lat="42.72881" lon="0.18259">
        <ele>2120.8</ele>
        <time>2012-10-04T09:48:20Z</time>
      </trkpt>
      <trkpt lat="42.72882" lon="0.18258">
        <ele>2121.3</ele>
        <time>2012-10-04T09:48:21Z</time>
      </trkpt>
      <trkpt lat="42.72883" lon="0.18257">
        <ele>2121.3</ele>
        <time>2012-10-04T09:48:22Z</time>
      </trkpt>
      <trkpt lat="42.72884" lon="0.18255">
        <ele>2121.8</ele>
        <time>2012-10-04T09:48:23Z</time>
      </trkpt>
      <trkpt lat="42.72884" lon="0.18254">
        <ele>2122.2</ele>
        <time>2012-10-04T09:48:24Z</time>
      </trkpt>
      <trkpt lat="42.72885" lon="0.1825">
        <ele>2122.7</ele>
        <time>2012-10-04T09:48:30Z</time>
      </trkpt>
      <trkpt lat="42.72885" lon="0.18248">
        <ele>2122.7</ele>
        <time>2012-10-04T09:48:39Z</time>
      </trkpt>
      <trkpt lat="42.72887" lon="0.18247">
        <ele>2123.2</ele>
        <time>2012-10-04T09:48:53Z</time>
      </trkpt>
      <trkpt lat="42.72891" lon="0.18241">
        <ele>2123.7</ele>
        <time>2012-10-04T09:49:00Z</time>
      </trkpt>
      <trkpt lat="42.72894" lon="0.18234">
        <ele>2124.6</ele>
        <time>2012-10-04T09:49:07Z</time>
      </trkpt>
      <trkpt lat="42.72894" lon="0.18227">
        <ele>2125.6</ele>
        <time>2012-10-04T09:49:16Z</time>
      </trkpt>
      <trkpt lat="42.72894" lon="0.18223">
        <ele>2126.1</ele>
        <time>2012-10-04T09:49:30Z</time>
      </trkpt>
      <trkpt lat="42.72896" lon="0.18215">
        <ele>2127.1</ele>
        <time>2012-10-04T09:49:37Z</time>
      </trkpt>
      <trkpt lat="42.72896" lon="0.18203">
        <ele>2129</ele>
        <time>2012-10-04T09:49:46Z</time>
      </trkpt>
      <trkpt lat="42.72896" lon="0.18198">
        <ele>2129.5</ele>
        <time>2012-10-04T09:49:54Z</time>
      </trkpt>
      <trkpt lat="42.729" lon="0.18195">
        <ele>2130.4</ele>
        <time>2012-10-04T09:50:00Z</time>
      </trkpt>
      <trkpt lat="42.729" lon="0.1819">
        <ele>2130.9</ele>
        <time>2012-10-04T09:50:05Z</time>
      </trkpt>
      <trkpt lat="42.729" lon="0.18183">
        <ele>2132.3</ele>
        <time>2012-10-04T09:50:13Z</time>
      </trkpt>
      <trkpt lat="42.72901" lon="0.18177">
        <ele>2133.3</ele>
        <time>2012-10-04T09:50:19Z</time>
      </trkpt>
      <trkpt lat="42.72901" lon="0.18167">
        <ele>2134.7</ele>
        <time>2012-10-04T09:50:28Z</time>
      </trkpt>
      <trkpt lat="42.72902" lon="0.18154">
        <ele>2136.2</ele>
        <time>2012-10-04T09:50:39Z</time>
      </trkpt>
      <trkpt lat="42.72901" lon="0.18143">
        <ele>2138.1</ele>
        <time>2012-10-04T09:50:48Z</time>
      </trkpt>
      <trkpt lat="42.72902" lon="0.18137">
        <ele>2139.1</ele>
        <time>2012-10-04T09:50:54Z</time>
      </trkpt>
      <trkpt lat="42.72903" lon="0.18132">
        <ele>2140</ele>
        <time>2012-10-04T09:51:01Z</time>
      </trkpt>
      <trkpt lat="42.72904" lon="0.18129">
        <ele>2140.5</ele>
        <time>2012-10-04T09:51:08Z</time>
      </trkpt>
      <trkpt lat="42.72908" lon="0.18133">
        <ele>2141.5</ele>
        <time>2012-10-04T09:51:16Z</time>
      </trkpt>
      <trkpt lat="42.7291" lon="0.18136">
        <ele>2141.9</ele>
        <time>2012-10-04T09:51:23Z</time>
      </trkpt>
      <trkpt lat="42.7291" lon="0.18137">
        <ele>2141.9</ele>
        <time>2012-10-04T09:51:26Z</time>
      </trkpt>
      <trkpt lat="42.72914" lon="0.18142">
        <ele>2142.9</ele>
        <time>2012-10-04T09:51:32Z</time>
      </trkpt>
      <trkpt lat="42.72915" lon="0.18143">
        <ele>2142.9</ele>
        <time>2012-10-04T09:51:33Z</time>
      </trkpt>
      <trkpt lat="42.72916" lon="0.18144">
        <ele>2142.9</ele>
        <time>2012-10-04T09:51:34Z</time>
      </trkpt>
      <trkpt lat="42.72916" lon="0.18146">
        <ele>2142.9</ele>
        <time>2012-10-04T09:51:35Z</time>
      </trkpt>
      <trkpt lat="42.72917" lon="0.18147">
        <ele>2143.4</ele>
        <time>2012-10-04T09:51:36Z</time>
      </trkpt>
      <trkpt lat="42.72918" lon="0.18148">
        <ele>2143.4</ele>
        <time>2012-10-04T09:51:37Z</time>
      </trkpt>
      <trkpt lat="42.72919" lon="0.18149">
        <ele>2143.9</ele>
        <time>2012-10-04T09:51:38Z</time>
      </trkpt>
      <trkpt lat="42.7292" lon="0.18151">
        <ele>2144.4</ele>
        <time>2012-10-04T09:51:39Z</time>
      </trkpt>
      <trkpt lat="42.72926" lon="0.18161">
        <ele>2145.3</ele>
        <time>2012-10-04T09:51:46Z</time>
      </trkpt>
      <trkpt lat="42.72933" lon="0.1817">
        <ele>2146.8</ele>
        <time>2012-10-04T09:51:53Z</time>
      </trkpt>
      <trkpt lat="42.72933" lon="0.18171">
        <ele>2146.8</ele>
        <time>2012-10-04T09:51:54Z</time>
      </trkpt>
      <trkpt lat="42.72934" lon="0.18173">
        <ele>2146.8</ele>
        <time>2012-10-04T09:51:55Z</time>
      </trkpt>
      <trkpt lat="42.72934" lon="0.18174">
        <ele>2147.2</ele>
        <time>2012-10-04T09:51:56Z</time>
      </trkpt>
      <trkpt lat="42.72937" lon="0.18179">
        <ele>2148.2</ele>
        <time>2012-10-04T09:52:00Z</time>
      </trkpt>
      <trkpt lat="42.72939" lon="0.18188">
        <ele>2149.2</ele>
        <time>2012-10-04T09:52:06Z</time>
      </trkpt>
      <trkpt lat="42.7294" lon="0.1819">
        <ele>2149.2</ele>
        <time>2012-10-04T09:52:07Z</time>
      </trkpt>
      <trkpt lat="42.72942" lon="0.1819">
        <ele>2149.6</ele>
        <time>2012-10-04T09:52:08Z</time>
      </trkpt>
      <trkpt lat="42.72944" lon="0.1819">
        <ele>2150.1</ele>
        <time>2012-10-04T09:52:10Z</time>
      </trkpt>
      <trkpt lat="42.72945" lon="0.18188">
        <ele>2150.6</ele>
        <time>2012-10-04T09:52:11Z</time>
      </trkpt>
      <trkpt lat="42.72946" lon="0.18186">
        <ele>2150.6</ele>
        <time>2012-10-04T09:52:12Z</time>
      </trkpt>
      <trkpt lat="42.72946" lon="0.18184">
        <ele>2151.1</ele>
        <time>2012-10-04T09:52:13Z</time>
      </trkpt>
      <trkpt lat="42.72952" lon="0.18173">
        <ele>2153</ele>
        <time>2012-10-04T09:52:21Z</time>
      </trkpt>
      <trkpt lat="42.72955" lon="0.18161">
        <ele>2154.9</ele>
        <time>2012-10-04T09:52:30Z</time>
      </trkpt>
      <trkpt lat="42.72957" lon="0.18156">
        <ele>2155.4</ele>
        <time>2012-10-04T09:52:36Z</time>
      </trkpt>
      <trkpt lat="42.72956" lon="0.18156">
        <ele>2155.9</ele>
        <time>2012-10-04T09:52:43Z</time>
      </trkpt>
      <trkpt lat="42.72956" lon="0.18152">
        <ele>2156.4</ele>
        <time>2012-10-04T09:52:51Z</time>
      </trkpt>
      <trkpt lat="42.72959" lon="0.18147">
        <ele>2156.9</ele>
        <time>2012-10-04T09:53:00Z</time>
      </trkpt>
      <trkpt lat="42.72961" lon="0.18146">
        <ele>2156.9</ele>
        <time>2012-10-04T09:53:13Z</time>
      </trkpt>
      <trkpt lat="42.72962" lon="0.18145">
        <ele>2156.9</ele>
        <time>2012-10-04T09:53:14Z</time>
      </trkpt>
      <trkpt lat="42.72966" lon="0.18134">
        <ele>2158.8</ele>
        <time>2012-10-04T09:53:22Z</time>
      </trkpt>
      <trkpt lat="42.72968" lon="0.1813">
        <ele>2159.3</ele>
        <time>2012-10-04T09:53:25Z</time>
      </trkpt>
      <trkpt lat="42.7297" lon="0.18124">
        <ele>2159.3</ele>
        <time>2012-10-04T09:53:29Z</time>
      </trkpt>
      <trkpt lat="42.72971" lon="0.18123">
        <ele>2159.7</ele>
        <time>2012-10-04T09:53:30Z</time>
      </trkpt>
      <trkpt lat="42.72975" lon="0.18114">
        <ele>2160.7</ele>
        <time>2012-10-04T09:53:38Z</time>
      </trkpt>
      <trkpt lat="42.72975" lon="0.18111">
        <ele>2160.7</ele>
        <time>2012-10-04T09:53:46Z</time>
      </trkpt>
      <trkpt lat="42.72977" lon="0.18106">
        <ele>2161.2</ele>
        <time>2012-10-04T09:53:59Z</time>
      </trkpt>
      <trkpt lat="42.72978" lon="0.18099">
        <ele>2161.7</ele>
        <time>2012-10-04T09:54:04Z</time>
      </trkpt>
      <trkpt lat="42.72979" lon="0.18098">
        <ele>2161.7</ele>
        <time>2012-10-04T09:54:05Z</time>
      </trkpt>
      <trkpt lat="42.72979" lon="0.18096">
        <ele>2162.1</ele>
        <time>2012-10-04T09:54:06Z</time>
      </trkpt>
      <trkpt lat="42.72979" lon="0.18095">
        <ele>2162.1</ele>
        <time>2012-10-04T09:54:07Z</time>
      </trkpt>
      <trkpt lat="42.72979" lon="0.18094">
        <ele>2162.1</ele>
        <time>2012-10-04T09:54:08Z</time>
      </trkpt>
      <trkpt lat="42.72979" lon="0.18092">
        <ele>2162.1</ele>
        <time>2012-10-04T09:54:09Z</time>
      </trkpt>
      <trkpt lat="42.72979" lon="0.1809">
        <ele>2162.6</ele>
        <time>2012-10-04T09:54:10Z</time>
      </trkpt>
      <trkpt lat="42.72979" lon="0.18089">
        <ele>2162.6</ele>
        <time>2012-10-04T09:54:11Z</time>
      </trkpt>
      <trkpt lat="42.72978" lon="0.18087">
        <ele>2163.1</ele>
        <time>2012-10-04T09:54:12Z</time>
      </trkpt>
      <trkpt lat="42.72978" lon="0.18085">
        <ele>2163.6</ele>
        <time>2012-10-04T09:54:13Z</time>
      </trkpt>
      <trkpt lat="42.72978" lon="0.18083">
        <ele>2163.6</ele>
        <time>2012-10-04T09:54:14Z</time>
      </trkpt>
      <trkpt lat="42.72978" lon="0.18082">
        <ele>2164.1</ele>
        <time>2012-10-04T09:54:15Z</time>
      </trkpt>
      <trkpt lat="42.72978" lon="0.1808">
        <ele>2164.1</ele>
        <time>2012-10-04T09:54:16Z</time>
      </trkpt>
      <trkpt lat="42.72979" lon="0.18079">
        <ele>2164.6</ele>
        <time>2012-10-04T09:54:17Z</time>
      </trkpt>
      <trkpt lat="42.72979" lon="0.18077">
        <ele>2165</ele>
        <time>2012-10-04T09:54:18Z</time>
      </trkpt>
      <trkpt lat="42.72979" lon="0.18075">
        <ele>2165</ele>
        <time>2012-10-04T09:54:19Z</time>
      </trkpt>
      <trkpt lat="42.72981" lon="0.18072">
        <ele>2166</ele>
        <time>2012-10-04T09:54:22Z</time>
      </trkpt>
      <trkpt lat="42.72981" lon="0.18071">
        <ele>2166.5</ele>
        <time>2012-10-04T09:54:23Z</time>
      </trkpt>
      <trkpt lat="42.72981" lon="0.18069">
        <ele>2166.9</ele>
        <time>2012-10-04T09:54:24Z</time>
      </trkpt>
      <trkpt lat="42.72983" lon="0.18064">
        <ele>2167.9</ele>
        <time>2012-10-04T09:54:28Z</time>
      </trkpt>
      <trkpt lat="42.72989" lon="0.18053">
        <ele>2169.4</ele>
        <time>2012-10-04T09:54:37Z</time>
      </trkpt>
      <trkpt lat="42.72992" lon="0.18049">
        <ele>2168.9</ele>
        <time>2012-10-04T09:54:40Z</time>
      </trkpt>
      <trkpt lat="42.72993" lon="0.18048">
        <ele>2168.9</ele>
        <time>2012-10-04T09:54:41Z</time>
      </trkpt>
      <trkpt lat="42.72994" lon="0.18047">
        <ele>2168.9</ele>
        <time>2012-10-04T09:54:42Z</time>
      </trkpt>
      <trkpt lat="42.72995" lon="0.18046">
        <ele>2169.4</ele>
        <time>2012-10-04T09:54:43Z</time>
      </trkpt>
      <trkpt lat="42.72996" lon="0.18044">
        <ele>2169.4</ele>
        <time>2012-10-04T09:54:44Z</time>
      </trkpt>
      <trkpt lat="42.72995" lon="0.18041">
        <ele>2169.8</ele>
        <time>2012-10-04T09:54:45Z</time>
      </trkpt>
      <trkpt lat="42.72994" lon="0.1804">
        <ele>2170.3</ele>
        <time>2012-10-04T09:54:46Z</time>
      </trkpt>
      <trkpt lat="42.72994" lon="0.18038">
        <ele>2170.8</ele>
        <time>2012-10-04T09:54:47Z</time>
      </trkpt>
      <trkpt lat="42.72993" lon="0.18036">
        <ele>2171.3</ele>
        <time>2012-10-04T09:54:48Z</time>
      </trkpt>
      <trkpt lat="42.7299" lon="0.1803">
        <ele>2172.7</ele>
        <time>2012-10-04T09:54:52Z</time>
      </trkpt>
      <trkpt lat="42.72996" lon="0.1802">
        <ele>2174.2</ele>
        <time>2012-10-04T09:54:59Z</time>
      </trkpt>
      <trkpt lat="42.73004" lon="0.18009">
        <ele>2175.1</ele>
        <time>2012-10-04T09:55:07Z</time>
      </trkpt>
      <trkpt lat="42.73009" lon="0.17994">
        <ele>2177</ele>
        <time>2012-10-04T09:55:17Z</time>
      </trkpt>
      <trkpt lat="42.73011" lon="0.17988">
        <ele>2177.5</ele>
        <time>2012-10-04T09:55:21Z</time>
      </trkpt>
      <trkpt lat="42.73012" lon="0.17981">
        <ele>2178</ele>
        <time>2012-10-04T09:55:26Z</time>
      </trkpt>
      <trkpt lat="42.73015" lon="0.17967">
        <ele>2179.4</ele>
        <time>2012-10-04T09:55:34Z</time>
      </trkpt>
      <trkpt lat="42.73022" lon="0.17949">
        <ele>2181.4</ele>
        <time>2012-10-04T09:55:45Z</time>
      </trkpt>
      <trkpt lat="42.73025" lon="0.17942">
        <ele>2182.3</ele>
        <time>2012-10-04T09:55:51Z</time>
      </trkpt>
      <trkpt lat="42.73027" lon="0.1794">
        <ele>2182.3</ele>
        <time>2012-10-04T09:55:53Z</time>
      </trkpt>
      <trkpt lat="42.73029" lon="0.17933">
        <ele>2183.8</ele>
        <time>2012-10-04T09:55:58Z</time>
      </trkpt>
      <trkpt lat="42.73038" lon="0.17923">
        <ele>2184.7</ele>
        <time>2012-10-04T09:56:07Z</time>
      </trkpt>
      <trkpt lat="42.73039" lon="0.17922">
        <ele>2184.7</ele>
        <time>2012-10-04T09:56:08Z</time>
      </trkpt>
      <trkpt lat="42.73046" lon="0.17914">
        <ele>2185.7</ele>
        <time>2012-10-04T09:56:16Z</time>
      </trkpt>
      <trkpt lat="42.73052" lon="0.17908">
        <ele>2186.7</ele>
        <time>2012-10-04T09:56:23Z</time>
      </trkpt>
      <trkpt lat="42.73053" lon="0.17905">
        <ele>2187.1</ele>
        <time>2012-10-04T09:56:26Z</time>
      </trkpt>
      <trkpt lat="42.7306" lon="0.17891">
        <ele>2189.1</ele>
        <time>2012-10-04T09:56:36Z</time>
      </trkpt>
      <trkpt lat="42.73064" lon="0.17882">
        <ele>2191</ele>
        <time>2012-10-04T09:56:44Z</time>
      </trkpt>
      <trkpt lat="42.73069" lon="0.17873">
        <ele>2192.9</ele>
        <time>2012-10-04T09:56:52Z</time>
      </trkpt>
      <trkpt lat="42.73073" lon="0.17864">
        <ele>2194.4</ele>
        <time>2012-10-04T09:56:59Z</time>
      </trkpt>
      <trkpt lat="42.73074" lon="0.17863">
        <ele>2194.4</ele>
        <time>2012-10-04T09:57:00Z</time>
      </trkpt>
      <trkpt lat="42.73077" lon="0.17859">
        <ele>2195.8</ele>
        <time>2012-10-04T09:57:04Z</time>
      </trkpt>
      <trkpt lat="42.7308" lon="0.17854">
        <ele>2196.3</ele>
        <time>2012-10-04T09:57:08Z</time>
      </trkpt>
      <trkpt lat="42.73085" lon="0.17841">
        <ele>2198.7</ele>
        <time>2012-10-04T09:57:19Z</time>
      </trkpt>
      <trkpt lat="42.73089" lon="0.17835">
        <ele>2199.6</ele>
        <time>2012-10-04T09:57:25Z</time>
      </trkpt>
      <trkpt lat="42.73091" lon="0.17831">
        <ele>2200.6</ele>
        <time>2012-10-04T09:57:30Z</time>
      </trkpt>
      <trkpt lat="42.73095" lon="0.17825">
        <ele>2201.6</ele>
        <time>2012-10-04T09:57:37Z</time>
      </trkpt>
      <trkpt lat="42.73099" lon="0.17816">
        <ele>2203</ele>
        <time>2012-10-04T09:57:45Z</time>
      </trkpt>
      <trkpt lat="42.73106" lon="0.17805">
        <ele>2204.4</ele>
        <time>2012-10-04T09:57:54Z</time>
      </trkpt>
      <trkpt lat="42.73107" lon="0.17804">
        <ele>2204.4</ele>
        <time>2012-10-04T09:57:56Z</time>
      </trkpt>
      <trkpt lat="42.73109" lon="0.178">
        <ele>2205.4</ele>
        <time>2012-10-04T09:58:00Z</time>
      </trkpt>
      <trkpt lat="42.73112" lon="0.17797">
        <ele>2205.9</ele>
        <time>2012-10-04T09:58:04Z</time>
      </trkpt>
      <trkpt lat="42.73113" lon="0.17794">
        <ele>2205.9</ele>
        <time>2012-10-04T09:58:06Z</time>
      </trkpt>
      <trkpt lat="42.73118" lon="0.17783">
        <ele>2207.8</ele>
        <time>2012-10-04T09:58:15Z</time>
      </trkpt>
      <trkpt lat="42.73119" lon="0.1778">
        <ele>2209.2</ele>
        <time>2012-10-04T09:58:17Z</time>
      </trkpt>
      <trkpt lat="42.73121" lon="0.17779">
        <ele>2210.2</ele>
        <time>2012-10-04T09:58:20Z</time>
      </trkpt>
      <trkpt lat="42.73127" lon="0.17772">
        <ele>2210.7</ele>
        <time>2012-10-04T09:58:29Z</time>
      </trkpt>
      <trkpt lat="42.73126" lon="0.17771">
        <ele>2210.7</ele>
        <time>2012-10-04T09:58:42Z</time>
      </trkpt>
      <trkpt lat="42.7313" lon="0.17766">
        <ele>2211.6</ele>
        <time>2012-10-04T09:58:53Z</time>
      </trkpt>
      <trkpt lat="42.73135" lon="0.17758">
        <ele>2213.6</ele>
        <time>2012-10-04T09:59:04Z</time>
      </trkpt>
      <trkpt lat="42.73139" lon="0.17752">
        <ele>2215.5</ele>
        <time>2012-10-04T09:59:13Z</time>
      </trkpt>
      <trkpt lat="42.73144" lon="0.17745">
        <ele>2216.9</ele>
        <time>2012-10-04T09:59:22Z</time>
      </trkpt>
      <trkpt lat="42.73151" lon="0.17744">
        <ele>2218.4</ele>
        <time>2012-10-04T09:59:30Z</time>
      </trkpt>
      <trkpt lat="42.73152" lon="0.17744">
        <ele>2218.4</ele>
        <time>2012-10-04T09:59:32Z</time>
      </trkpt>
      <trkpt lat="42.73159" lon="0.17743">
        <ele>2219.8</ele>
        <time>2012-10-04T09:59:41Z</time>
      </trkpt>
      <trkpt lat="42.73166" lon="0.17745">
        <ele>2221.3</ele>
        <time>2012-10-04T09:59:50Z</time>
      </trkpt>
      <trkpt lat="42.73173" lon="0.17743">
        <ele>2222.7</ele>
        <time>2012-10-04T09:59:59Z</time>
      </trkpt>
      <trkpt lat="42.73177" lon="0.17741">
        <ele>2223.7</ele>
        <time>2012-10-04T10:00:06Z</time>
      </trkpt>
      <trkpt lat="42.7318" lon="0.17735">
        <ele>2224.6</ele>
        <time>2012-10-04T10:00:13Z</time>
      </trkpt>
      <trkpt lat="42.73182" lon="0.17732">
        <ele>2225.1</ele>
        <time>2012-10-04T10:00:21Z</time>
      </trkpt>
      <trkpt lat="42.73182" lon="0.17732">
        <ele>2225.1</ele>
        <time>2012-10-04T10:00:31Z</time>
      </trkpt>
      <trkpt lat="42.73182" lon="0.17732">
        <ele>2225.6</ele>
        <time>2012-10-04T10:00:38Z</time>
      </trkpt>
      <trkpt lat="42.73183" lon="0.17729">
        <ele>2226.6</ele>
        <time>2012-10-04T10:00:45Z</time>
      </trkpt>
      <trkpt lat="42.73184" lon="0.17725">
        <ele>2227.5</ele>
        <time>2012-10-04T10:00:52Z</time>
      </trkpt>
      <trkpt lat="42.73186" lon="0.17718">
        <ele>2228.9</ele>
        <time>2012-10-04T10:01:01Z</time>
      </trkpt>
      <trkpt lat="42.73186" lon="0.1771">
        <ele>2230.4</ele>
        <time>2012-10-04T10:01:08Z</time>
      </trkpt>
      <trkpt lat="42.73188" lon="0.17704">
        <ele>2231.4</ele>
        <time>2012-10-04T10:01:15Z</time>
      </trkpt>
      <trkpt lat="42.73188" lon="0.17697">
        <ele>2232.8</ele>
        <time>2012-10-04T10:01:23Z</time>
      </trkpt>
      <trkpt lat="42.73189" lon="0.17691">
        <ele>2233.8</ele>
        <time>2012-10-04T10:01:29Z</time>
      </trkpt>
      <trkpt lat="42.73189" lon="0.17685">
        <ele>2234.7</ele>
        <time>2012-10-04T10:01:36Z</time>
      </trkpt>
      <trkpt lat="42.73189" lon="0.17677">
        <ele>2236.2</ele>
        <time>2012-10-04T10:01:43Z</time>
      </trkpt>
      <trkpt lat="42.7319" lon="0.17669">
        <ele>2237.6</ele>
        <time>2012-10-04T10:01:51Z</time>
      </trkpt>
      <trkpt lat="42.73194" lon="0.17663">
        <ele>2239.1</ele>
        <time>2012-10-04T10:01:59Z</time>
      </trkpt>
      <trkpt lat="42.73195" lon="0.17657">
        <ele>2239.5</ele>
        <time>2012-10-04T10:02:06Z</time>
      </trkpt>
      <trkpt lat="42.73197" lon="0.17652">
        <ele>2241</ele>
        <time>2012-10-04T10:02:13Z</time>
      </trkpt>
      <trkpt lat="42.73198" lon="0.17646">
        <ele>2241.9</ele>
        <time>2012-10-04T10:02:20Z</time>
      </trkpt>
      <trkpt lat="42.732" lon="0.17639">
        <ele>2243.9</ele>
        <time>2012-10-04T10:02:30Z</time>
      </trkpt>
      <trkpt lat="42.73201" lon="0.17633">
        <ele>2245.3</ele>
        <time>2012-10-04T10:02:38Z</time>
      </trkpt>
      <trkpt lat="42.73202" lon="0.1763">
        <ele>2245.8</ele>
        <time>2012-10-04T10:02:43Z</time>
      </trkpt>
      <trkpt lat="42.73203" lon="0.17626">
        <ele>2246.7</ele>
        <time>2012-10-04T10:02:49Z</time>
      </trkpt>
      <trkpt lat="42.73203" lon="0.17621">
        <ele>2248.2</ele>
        <time>2012-10-04T10:02:56Z</time>
      </trkpt>
      <trkpt lat="42.73207" lon="0.17617">
        <ele>2249.1</ele>
        <time>2012-10-04T10:03:04Z</time>
      </trkpt>
      <trkpt lat="42.73209" lon="0.17612">
        <ele>2250.6</ele>
        <time>2012-10-04T10:03:13Z</time>
      </trkpt>
      <trkpt lat="42.73212" lon="0.17611">
        <ele>2251.5</ele>
        <time>2012-10-04T10:03:20Z</time>
      </trkpt>
      <trkpt lat="42.73213" lon="0.17605">
        <ele>2253</ele>
        <time>2012-10-04T10:03:26Z</time>
      </trkpt>
      <trkpt lat="42.73216" lon="0.176">
        <ele>2253.9</ele>
        <time>2012-10-04T10:03:34Z</time>
      </trkpt>
      <trkpt lat="42.73218" lon="0.17595">
        <ele>2254.9</ele>
        <time>2012-10-04T10:03:41Z</time>
      </trkpt>
      <trkpt lat="42.73219" lon="0.1759">
        <ele>2255.4</ele>
        <time>2012-10-04T10:03:47Z</time>
      </trkpt>
      <trkpt lat="42.7322" lon="0.17584">
        <ele>2256.8</ele>
        <time>2012-10-04T10:03:55Z</time>
      </trkpt>
      <trkpt lat="42.73221" lon="0.1758">
        <ele>2257.8</ele>
        <time>2012-10-04T10:04:01Z</time>
      </trkpt>
      <trkpt lat="42.73221" lon="0.17572">
        <ele>2259.2</ele>
        <time>2012-10-04T10:04:09Z</time>
      </trkpt>
      <trkpt lat="42.73224" lon="0.17566">
        <ele>2260.7</ele>
        <time>2012-10-04T10:04:17Z</time>
      </trkpt>
      <trkpt lat="42.73227" lon="0.1756">
        <ele>2261.6</ele>
        <time>2012-10-04T10:04:25Z</time>
      </trkpt>
      <trkpt lat="42.73229" lon="0.17555">
        <ele>2262.1</ele>
        <time>2012-10-04T10:04:31Z</time>
      </trkpt>
      <trkpt lat="42.73232" lon="0.17547">
        <ele>2263.6</ele>
        <time>2012-10-04T10:04:40Z</time>
      </trkpt>
      <trkpt lat="42.73234" lon="0.17541">
        <ele>2264.5</ele>
        <time>2012-10-04T10:04:46Z</time>
      </trkpt>
      <trkpt lat="42.73234" lon="0.17535">
        <ele>2265.5</ele>
        <time>2012-10-04T10:04:53Z</time>
      </trkpt>
      <trkpt lat="42.73236" lon="0.17531">
        <ele>2266</ele>
        <time>2012-10-04T10:05:00Z</time>
      </trkpt>
      <trkpt lat="42.73237" lon="0.17525">
        <ele>2266</ele>
        <time>2012-10-04T10:05:10Z</time>
      </trkpt>
      <trkpt lat="42.73238" lon="0.17515">
        <ele>2267.4</ele>
        <time>2012-10-04T10:05:19Z</time>
      </trkpt>
      <trkpt lat="42.73239" lon="0.17513">
        <ele>2267.9</ele>
        <time>2012-10-04T10:05:22Z</time>
      </trkpt>
      <trkpt lat="42.73241" lon="0.1751">
        <ele>2268.4</ele>
        <time>2012-10-04T10:05:24Z</time>
      </trkpt>
      <trkpt lat="42.7324" lon="0.17497">
        <ele>2269.8</ele>
        <time>2012-10-04T10:05:34Z</time>
      </trkpt>
      <trkpt lat="42.7324" lon="0.17489">
        <ele>2271.2</ele>
        <time>2012-10-04T10:05:41Z</time>
      </trkpt>
      <trkpt lat="42.73239" lon="0.17481">
        <ele>2272.7</ele>
        <time>2012-10-04T10:05:48Z</time>
      </trkpt>
      <trkpt lat="42.73237" lon="0.17478">
        <ele>2273.7</ele>
        <time>2012-10-04T10:05:52Z</time>
      </trkpt>
      <trkpt lat="42.7324" lon="0.17471">
        <ele>2275.1</ele>
        <time>2012-10-04T10:06:01Z</time>
      </trkpt>
      <trkpt lat="42.73244" lon="0.17474">
        <ele>2276.5</ele>
        <time>2012-10-04T10:06:08Z</time>
      </trkpt>
      <trkpt lat="42.73244" lon="0.17473">
        <ele>2277</ele>
        <time>2012-10-04T10:06:15Z</time>
      </trkpt>
      <trkpt lat="42.73243" lon="0.17472">
        <ele>2277</ele>
        <time>2012-10-04T10:06:25Z</time>
      </trkpt>
      <trkpt lat="42.73244" lon="0.17471">
        <ele>2277</ele>
        <time>2012-10-04T10:06:34Z</time>
      </trkpt>
      <trkpt lat="42.73244" lon="0.1747">
        <ele>2277</ele>
        <time>2012-10-04T10:06:42Z</time>
      </trkpt>
      <trkpt lat="42.73243" lon="0.17472">
        <ele>2277</ele>
        <time>2012-10-04T10:06:55Z</time>
      </trkpt>
      <trkpt lat="42.73246" lon="0.17472">
        <ele>2277.5</ele>
        <time>2012-10-04T10:07:03Z</time>
      </trkpt>
      <trkpt lat="42.73248" lon="0.17473">
        <ele>2277.5</ele>
        <time>2012-10-04T10:07:10Z</time>
      </trkpt>
      <trkpt lat="42.73249" lon="0.1747">
        <ele>2278</ele>
        <time>2012-10-04T10:07:29Z</time>
      </trkpt>
      <trkpt lat="42.73247" lon="0.1747">
        <ele>2278</ele>
        <time>2012-10-04T10:07:50Z</time>
      </trkpt>
      <trkpt lat="42.73246" lon="0.17469">
        <ele>2278</ele>
        <time>2012-10-04T10:08:08Z</time>
      </trkpt>
      <trkpt lat="42.73247" lon="0.17468">
        <ele>2278</ele>
        <time>2012-10-04T10:08:27Z</time>
      </trkpt>
      <trkpt lat="42.73248" lon="0.17469">
        <ele>2278</ele>
        <time>2012-10-04T10:08:37Z</time>
      </trkpt>
      <trkpt lat="42.73246" lon="0.17471">
        <ele>2278</ele>
        <time>2012-10-04T10:08:52Z</time>
      </trkpt>
      <trkpt lat="42.73247" lon="0.1747">
        <ele>2278</ele>
        <time>2012-10-04T10:09:09Z</time>
      </trkpt>
      <trkpt lat="42.73248" lon="0.17472">
        <ele>2278.5</ele>
        <time>2012-10-04T10:09:25Z</time>
      </trkpt>
      <trkpt lat="42.73248" lon="0.17472">
        <ele>2278.5</ele>
        <time>2012-10-04T10:09:48Z</time>
      </trkpt>
      <trkpt lat="42.73247" lon="0.17471">
        <ele>2278.9</ele>
        <time>2012-10-04T10:10:06Z</time>
      </trkpt>
      <trkpt lat="42.73248" lon="0.17472">
        <ele>2278.9</ele>
        <time>2012-10-04T10:10:24Z</time>
      </trkpt>
      <trkpt lat="42.73247" lon="0.1747">
        <ele>2278.9</ele>
        <time>2012-10-04T10:10:37Z</time>
      </trkpt>
      <trkpt lat="42.73247" lon="0.17471">
        <ele>2278.9</ele>
        <time>2012-10-04T10:10:56Z</time>
      </trkpt>
      <trkpt lat="42.73247" lon="0.17472">
        <ele>2278.9</ele>
        <time>2012-10-04T10:11:15Z</time>
      </trkpt>
      <trkpt lat="42.73247" lon="0.17472">
        <ele>2279.4</ele>
        <time>2012-10-04T10:11:33Z</time>
      </trkpt>
      <trkpt lat="42.73245" lon="0.1747">
        <ele>2279.4</ele>
        <time>2012-10-04T10:11:50Z</time>
      </trkpt>
      <trkpt lat="42.73246" lon="0.1747">
        <ele>2279.4</ele>
        <time>2012-10-04T10:12:01Z</time>
      </trkpt>
      <trkpt lat="42.73249" lon="0.17472">
        <ele>2279.4</ele>
        <time>2012-10-04T10:12:14Z</time>
      </trkpt>
      <trkpt lat="42.73251" lon="0.17472">
        <ele>2279.4</ele>
        <time>2012-10-04T10:12:16Z</time>
      </trkpt>
      <trkpt lat="42.73259" lon="0.17478">
        <ele>2280.9</ele>
        <time>2012-10-04T10:12:27Z</time>
      </trkpt>
      <trkpt lat="42.73263" lon="0.17481">
        <ele>2281.4</ele>
        <time>2012-10-04T10:12:31Z</time>
      </trkpt>
      <trkpt lat="42.7327" lon="0.17494">
        <ele>2282.8</ele>
        <time>2012-10-04T10:12:42Z</time>
      </trkpt>
      <trkpt lat="42.73276" lon="0.17504">
        <ele>2284.2</ele>
        <time>2012-10-04T10:12:51Z</time>
      </trkpt>
      <trkpt lat="42.73279" lon="0.17508">
        <ele>2284.7</ele>
        <time>2012-10-04T10:12:55Z</time>
      </trkpt>
      <trkpt lat="42.73282" lon="0.17519">
        <ele>2285.7</ele>
        <time>2012-10-04T10:13:03Z</time>
      </trkpt>
      <trkpt lat="42.73285" lon="0.1753">
        <ele>2288.1</ele>
        <time>2012-10-04T10:13:13Z</time>
      </trkpt>
      <trkpt lat="42.73289" lon="0.17541">
        <ele>2289</ele>
        <time>2012-10-04T10:13:22Z</time>
      </trkpt>
      <trkpt lat="42.73289" lon="0.17542">
        <ele>2289</ele>
        <time>2012-10-04T10:13:23Z</time>
      </trkpt>
      <trkpt lat="42.73289" lon="0.17547">
        <ele>2289.5</ele>
        <time>2012-10-04T10:13:27Z</time>
      </trkpt>
      <trkpt lat="42.73289" lon="0.17556">
        <ele>2291</ele>
        <time>2012-10-04T10:13:35Z</time>
      </trkpt>
      <trkpt lat="42.7329" lon="0.17562">
        <ele>2291.4</ele>
        <time>2012-10-04T10:13:40Z</time>
      </trkpt>
      <trkpt lat="42.73293" lon="0.17574">
        <ele>2293.8</ele>
        <time>2012-10-04T10:13:51Z</time>
      </trkpt>
      <trkpt lat="42.73298" lon="0.17581">
        <ele>2294.8</ele>
        <time>2012-10-04T10:13:59Z</time>
      </trkpt>
      <trkpt lat="42.73301" lon="0.17579">
        <ele>2296.2</ele>
        <time>2012-10-04T10:14:07Z</time>
      </trkpt>
      <trkpt lat="42.73301" lon="0.1757">
        <ele>2298.2</ele>
        <time>2012-10-04T10:14:16Z</time>
      </trkpt>
      <trkpt lat="42.73303" lon="0.17563">
        <ele>2299.6</ele>
        <time>2012-10-04T10:14:26Z</time>
      </trkpt>
      <trkpt lat="42.73307" lon="0.17556">
        <ele>2301.5</ele>
        <time>2012-10-04T10:14:35Z</time>
      </trkpt>
      <trkpt lat="42.73309" lon="0.17546">
        <ele>2303</ele>
        <time>2012-10-04T10:14:45Z</time>
      </trkpt>
      <trkpt lat="42.73311" lon="0.17538">
        <ele>2304.4</ele>
        <time>2012-10-04T10:14:53Z</time>
      </trkpt>
      <trkpt lat="42.73312" lon="0.1753">
        <ele>2305.4</ele>
        <time>2012-10-04T10:15:00Z</time>
      </trkpt>
      <trkpt lat="42.73313" lon="0.17522">
        <ele>2305.9</ele>
        <time>2012-10-04T10:15:07Z</time>
      </trkpt>
      <trkpt lat="42.73314" lon="0.17521">
        <ele>2306.3</ele>
        <time>2012-10-04T10:15:14Z</time>
      </trkpt>
      <trkpt lat="42.73314" lon="0.17518">
        <ele>2307.3</ele>
        <time>2012-10-04T10:15:21Z</time>
      </trkpt>
      <trkpt lat="42.73314" lon="0.17513">
        <ele>2308.7</ele>
        <time>2012-10-04T10:15:29Z</time>
      </trkpt>
      <trkpt lat="42.73316" lon="0.17504">
        <ele>2310.7</ele>
        <time>2012-10-04T10:15:40Z</time>
      </trkpt>
      <trkpt lat="42.73317" lon="0.17496">
        <ele>2312.1</ele>
        <time>2012-10-04T10:15:48Z</time>
      </trkpt>
      <trkpt lat="42.73319" lon="0.17489">
        <ele>2313.6</ele>
        <time>2012-10-04T10:15:55Z</time>
      </trkpt>
      <trkpt lat="42.7332" lon="0.17483">
        <ele>2314.5</ele>
        <time>2012-10-04T10:16:02Z</time>
      </trkpt>
      <trkpt lat="42.73321" lon="0.17475">
        <ele>2315.9</ele>
        <time>2012-10-04T10:16:10Z</time>
      </trkpt>
      <trkpt lat="42.73322" lon="0.17467">
        <ele>2316.9</ele>
        <time>2012-10-04T10:16:19Z</time>
      </trkpt>
      <trkpt lat="42.73321" lon="0.17461">
        <ele>2317.9</ele>
        <time>2012-10-04T10:16:27Z</time>
      </trkpt>
      <trkpt lat="42.7332" lon="0.17452">
        <ele>2319.8</ele>
        <time>2012-10-04T10:16:37Z</time>
      </trkpt>
      <trkpt lat="42.7332" lon="0.17448">
        <ele>2321.2</ele>
        <time>2012-10-04T10:16:43Z</time>
      </trkpt>
      <trkpt lat="42.7332" lon="0.17445">
        <ele>2322.2</ele>
        <time>2012-10-04T10:16:50Z</time>
      </trkpt>
      <trkpt lat="42.73321" lon="0.17446">
        <ele>2323.2</ele>
        <time>2012-10-04T10:16:58Z</time>
      </trkpt>
      <trkpt lat="42.73324" lon="0.1745">
        <ele>2324.6</ele>
        <time>2012-10-04T10:17:06Z</time>
      </trkpt>
      <trkpt lat="42.73328" lon="0.17456">
        <ele>2325.6</ele>
        <time>2012-10-04T10:17:14Z</time>
      </trkpt>
      <trkpt lat="42.73333" lon="0.17462">
        <ele>2327.5</ele>
        <time>2012-10-04T10:17:24Z</time>
      </trkpt>
      <trkpt lat="42.73337" lon="0.17469">
        <ele>2328.4</ele>
        <time>2012-10-04T10:17:33Z</time>
      </trkpt>
      <trkpt lat="42.7334" lon="0.17476">
        <ele>2329.4</ele>
        <time>2012-10-04T10:17:41Z</time>
      </trkpt>
      <trkpt lat="42.73344" lon="0.17486">
        <ele>2331.3</ele>
        <time>2012-10-04T10:17:52Z</time>
      </trkpt>
      <trkpt lat="42.73347" lon="0.17492">
        <ele>2332.8</ele>
        <time>2012-10-04T10:18:01Z</time>
      </trkpt>
      <trkpt lat="42.73348" lon="0.175">
        <ele>2334.2</ele>
        <time>2012-10-04T10:18:09Z</time>
      </trkpt>
      <trkpt lat="42.73352" lon="0.17507">
        <ele>2335.7</ele>
        <time>2012-10-04T10:18:19Z</time>
      </trkpt>
      <trkpt lat="42.73355" lon="0.17513">
        <ele>2336.6</ele>
        <time>2012-10-04T10:18:27Z</time>
      </trkpt>
      <trkpt lat="42.73358" lon="0.17512">
        <ele>2337.6</ele>
        <time>2012-10-04T10:18:33Z</time>
      </trkpt>
      <trkpt lat="42.7336" lon="0.17507">
        <ele>2339.5</ele>
        <time>2012-10-04T10:18:42Z</time>
      </trkpt>
      <trkpt lat="42.73362" lon="0.17499">
        <ele>2341.4</ele>
        <time>2012-10-04T10:18:52Z</time>
      </trkpt>
      <trkpt lat="42.73364" lon="0.17492">
        <ele>2342.4</ele>
        <time>2012-10-04T10:18:59Z</time>
      </trkpt>
      <trkpt lat="42.73365" lon="0.17484">
        <ele>2343.8</ele>
        <time>2012-10-04T10:19:08Z</time>
      </trkpt>
      <trkpt lat="42.73365" lon="0.17477">
        <ele>2345.3</ele>
        <time>2012-10-04T10:19:15Z</time>
      </trkpt>
      <trkpt lat="42.73364" lon="0.17468">
        <ele>2346.7</ele>
        <time>2012-10-04T10:19:24Z</time>
      </trkpt>
      <trkpt lat="42.73364" lon="0.17461">
        <ele>2347.7</ele>
        <time>2012-10-04T10:19:31Z</time>
      </trkpt>
      <trkpt lat="42.73363" lon="0.17452">
        <ele>2347.7</ele>
        <time>2012-10-04T10:19:38Z</time>
      </trkpt>
      <trkpt lat="42.7336" lon="0.17435">
        <ele>2349.1</ele>
        <time>2012-10-04T10:19:50Z</time>
      </trkpt>
      <trkpt lat="42.73358" lon="0.17418">
        <ele>2350.6</ele>
        <time>2012-10-04T10:20:01Z</time>
      </trkpt>
      <trkpt lat="42.73356" lon="0.17408">
        <ele>2351.5</ele>
        <time>2012-10-04T10:20:09Z</time>
      </trkpt>
      <trkpt lat="42.73354" lon="0.17396">
        <ele>2353</ele>
        <time>2012-10-04T10:20:18Z</time>
      </trkpt>
      <trkpt lat="42.7335" lon="0.17384">
        <ele>2355.4</ele>
        <time>2012-10-04T10:20:29Z</time>
      </trkpt>
      <trkpt lat="42.73348" lon="0.17375">
        <ele>2356.3</ele>
        <time>2012-10-04T10:20:36Z</time>
      </trkpt>
      <trkpt lat="42.73344" lon="0.17361">
        <ele>2358.2</ele>
        <time>2012-10-04T10:20:48Z</time>
      </trkpt>
      <trkpt lat="42.73342" lon="0.17349">
        <ele>2359.2</ele>
        <time>2012-10-04T10:20:58Z</time>
      </trkpt>
      <trkpt lat="42.73339" lon="0.17339">
        <ele>2360.6</ele>
        <time>2012-10-04T10:21:07Z</time>
      </trkpt>
      <trkpt lat="42.73339" lon="0.17337">
        <ele>2361.1</ele>
        <time>2012-10-04T10:21:09Z</time>
      </trkpt>
      <trkpt lat="42.73334" lon="0.17326">
        <ele>2362.6</ele>
        <time>2012-10-04T10:21:19Z</time>
      </trkpt>
      <trkpt lat="42.73332" lon="0.17318">
        <ele>2364.5</ele>
        <time>2012-10-04T10:21:28Z</time>
      </trkpt>
      <trkpt lat="42.7333" lon="0.17312">
        <ele>2365.9</ele>
        <time>2012-10-04T10:21:37Z</time>
      </trkpt>
      <trkpt lat="42.73329" lon="0.17305">
        <ele>2367.9</ele>
        <time>2012-10-04T10:21:46Z</time>
      </trkpt>
      <trkpt lat="42.73327" lon="0.17298">
        <ele>2369.3</ele>
        <time>2012-10-04T10:21:53Z</time>
      </trkpt>
      <trkpt lat="42.73324" lon="0.1729">
        <ele>2371.2</ele>
        <time>2012-10-04T10:22:02Z</time>
      </trkpt>
      <trkpt lat="42.73324" lon="0.17286">
        <ele>2372.2</ele>
        <time>2012-10-04T10:22:12Z</time>
      </trkpt>
      <trkpt lat="42.73326" lon="0.17289">
        <ele>2372.7</ele>
        <time>2012-10-04T10:22:19Z</time>
      </trkpt>
      <trkpt lat="42.73326" lon="0.17289">
        <ele>2372.7</ele>
        <time>2012-10-04T10:22:23Z</time>
      </trkpt>
      <trkpt lat="42.73336" lon="0.17299">
        <ele>2374.1</ele>
        <time>2012-10-04T10:22:32Z</time>
      </trkpt>
      <trkpt lat="42.73345" lon="0.1731">
        <ele>2375.6</ele>
        <time>2012-10-04T10:22:40Z</time>
      </trkpt>
      <trkpt lat="42.73358" lon="0.17325">
        <ele>2377.5</ele>
        <time>2012-10-04T10:22:50Z</time>
      </trkpt>
      <trkpt lat="42.73371" lon="0.17344">
        <ele>2378.4</ele>
        <time>2012-10-04T10:22:59Z</time>
      </trkpt>
      <trkpt lat="42.73383" lon="0.17357">
        <ele>2380.4</ele>
        <time>2012-10-04T10:23:06Z</time>
      </trkpt>
      <trkpt lat="42.7339" lon="0.17365">
        <ele>2379.4</ele>
        <time>2012-10-04T10:23:12Z</time>
      </trkpt>
      <trkpt lat="42.7339" lon="0.17364">
        <ele>2378.9</ele>
        <time>2012-10-04T10:23:28Z</time>
      </trkpt>
      <trkpt lat="42.73391" lon="0.17364">
        <ele>2378.9</ele>
        <time>2012-10-04T10:23:46Z</time>
      </trkpt>
      <trkpt lat="42.73391" lon="0.17363">
        <ele>2378.9</ele>
        <time>2012-10-04T10:24:12Z</time>
      </trkpt>
      <trkpt lat="42.73391" lon="0.17364">
        <ele>2379.4</ele>
        <time>2012-10-04T10:24:28Z</time>
      </trkpt>
      <trkpt lat="42.73391" lon="0.17364">
        <ele>2378.9</ele>
        <time>2012-10-04T10:24:49Z</time>
      </trkpt>
      <trkpt lat="42.73391" lon="0.17364">
        <ele>2379.4</ele>
        <time>2012-10-04T10:25:15Z</time>
      </trkpt>
      <trkpt lat="42.7339" lon="0.17364">
        <ele>2378.9</ele>
        <time>2012-10-04T10:25:45Z</time>
      </trkpt>
      <trkpt lat="42.7339" lon="0.17363">
        <ele>2378.9</ele>
        <time>2012-10-04T10:26:15Z</time>
      </trkpt>
      <trkpt lat="42.7339" lon="0.17363">
        <ele>2378.9</ele>
        <time>2012-10-04T10:26:15Z</time>
      </trkpt>
      <trkpt lat="42.7339" lon="0.17363">
        <ele>2378.4</ele>
        <time>2012-10-04T10:26:38Z</time>
      </trkpt>
      <trkpt lat="42.73391" lon="0.17364">
        <ele>2378.9</ele>
        <time>2012-10-04T10:26:59Z</time>
      </trkpt>
      <trkpt lat="42.7339" lon="0.17363">
        <ele>2378.9</ele>
        <time>2012-10-04T10:27:29Z</time>
      </trkpt>
      <trkpt lat="42.73391" lon="0.17364">
        <ele>2378.9</ele>
        <time>2012-10-04T10:27:56Z</time>
      </trkpt>
      <trkpt lat="42.7339" lon="0.17363">
        <ele>2378.9</ele>
        <time>2012-10-04T10:28:16Z</time>
      </trkpt>
      <trkpt lat="42.73391" lon="0.17364">
        <ele>2378.9</ele>
        <time>2012-10-04T10:28:40Z</time>
      </trkpt>
      <trkpt lat="42.7339" lon="0.17364">
        <ele>2378.9</ele>
        <time>2012-10-04T10:29:05Z</time>
      </trkpt>
      <trkpt lat="42.7339" lon="0.17364">
        <ele>2378.9</ele>
        <time>2012-10-04T10:29:27Z</time>
      </trkpt>
      <trkpt lat="42.7339" lon="0.17364">
        <ele>2379.4</ele>
        <time>2012-10-04T10:29:52Z</time>
      </trkpt>
      <trkpt lat="42.7339" lon="0.17364">
        <ele>2379.4</ele>
        <time>2012-10-04T10:30:14Z</time>
      </trkpt>
      <trkpt lat="42.7339" lon="0.17364">
        <ele>2379.4</ele>
        <time>2012-10-04T10:30:39Z</time>
      </trkpt>
      <trkpt lat="42.73389" lon="0.17366">
        <ele>2378.9</ele>
        <time>2012-10-04T10:31:07Z</time>
      </trkpt>
      <trkpt lat="42.73389" lon="0.17365">
        <ele>2379.4</ele>
        <time>2012-10-04T10:31:38Z</time>
      </trkpt>
      <trkpt lat="42.73389" lon="0.17365">
        <ele>2379.4</ele>
        <time>2012-10-04T10:32:08Z</time>
      </trkpt>
      <trkpt lat="42.7339" lon="0.17364">
        <ele>2379.9</ele>
        <time>2012-10-04T10:32:23Z</time>
      </trkpt>
      <trkpt lat="42.73387" lon="0.17363">
        <ele>2380.4</ele>
        <time>2012-10-04T10:32:30Z</time>
      </trkpt>
      <trkpt lat="42.73387" lon="0.1736">
        <ele>2380.8</ele>
        <time>2012-10-04T10:32:36Z</time>
      </trkpt>
      <trkpt lat="42.73387" lon="0.1736">
        <ele>2381.3</ele>
        <time>2012-10-04T10:32:44Z</time>
      </trkpt>
      <trkpt lat="42.73386" lon="0.17355">
        <ele>2381.8</ele>
        <time>2012-10-04T10:32:50Z</time>
      </trkpt>
      <trkpt lat="42.73385" lon="0.17349">
        <ele>2383.2</ele>
        <time>2012-10-04T10:32:59Z</time>
      </trkpt>
      <trkpt lat="42.73385" lon="0.17344">
        <ele>2384.7</ele>
        <time>2012-10-04T10:33:07Z</time>
      </trkpt>
      <trkpt lat="42.73383" lon="0.17338">
        <ele>2386.1</ele>
        <time>2012-10-04T10:33:15Z</time>
      </trkpt>
      <trkpt lat="42.7338" lon="0.17332">
        <ele>2387.1</ele>
        <time>2012-10-04T10:33:22Z</time>
      </trkpt>
      <trkpt lat="42.73378" lon="0.17325">
        <ele>2388.1</ele>
        <time>2012-10-04T10:33:30Z</time>
      </trkpt>
      <trkpt lat="42.73375" lon="0.17319">
        <ele>2388.5</ele>
        <time>2012-10-04T10:33:37Z</time>
      </trkpt>
      <trkpt lat="42.73373" lon="0.17312">
        <ele>2389.5</ele>
        <time>2012-10-04T10:33:45Z</time>
      </trkpt>
      <trkpt lat="42.73368" lon="0.17303">
        <ele>2390.5</ele>
        <time>2012-10-04T10:33:55Z</time>
      </trkpt>
      <trkpt lat="42.73366" lon="0.17298">
        <ele>2391.9</ele>
        <time>2012-10-04T10:34:02Z</time>
      </trkpt>
      <trkpt lat="42.73361" lon="0.17289">
        <ele>2393.3</ele>
        <time>2012-10-04T10:34:12Z</time>
      </trkpt>
      <trkpt lat="42.73357" lon="0.17284">
        <ele>2393.8</ele>
        <time>2012-10-04T10:34:18Z</time>
      </trkpt>
      <trkpt lat="42.73352" lon="0.17274">
        <ele>2394.3</ele>
        <time>2012-10-04T10:34:27Z</time>
      </trkpt>
      <trkpt lat="42.73345" lon="0.17263">
        <ele>2394.8</ele>
        <time>2012-10-04T10:34:37Z</time>
      </trkpt>
      <trkpt lat="42.73341" lon="0.17256">
        <ele>2396.2</ele>
        <time>2012-10-04T10:34:45Z</time>
      </trkpt>
      <trkpt lat="42.73336" lon="0.17249">
        <ele>2398.1</ele>
        <time>2012-10-04T10:34:54Z</time>
      </trkpt>
      <trkpt lat="42.73333" lon="0.17243">
        <ele>2398.6</ele>
        <time>2012-10-04T10:35:02Z</time>
      </trkpt>
      <trkpt lat="42.73332" lon="0.17239">
        <ele>2399.1</ele>
        <time>2012-10-04T10:35:09Z</time>
      </trkpt>
      <trkpt lat="42.7333" lon="0.17233">
        <ele>2401</ele>
        <time>2012-10-04T10:35:17Z</time>
      </trkpt>
      <trkpt lat="42.73329" lon="0.17227">
        <ele>2402</ele>
        <time>2012-10-04T10:35:24Z</time>
      </trkpt>
      <trkpt lat="42.73327" lon="0.17222">
        <ele>2402.9</ele>
        <time>2012-10-04T10:35:32Z</time>
      </trkpt>
      <trkpt lat="42.73323" lon="0.17213">
        <ele>2403.4</ele>
        <time>2012-10-04T10:35:40Z</time>
      </trkpt>
      <trkpt lat="42.73319" lon="0.17204">
        <ele>2404.4</ele>
        <time>2012-10-04T10:35:48Z</time>
      </trkpt>
      <trkpt lat="42.73317" lon="0.172">
        <ele>2405.4</ele>
        <time>2012-10-04T10:35:56Z</time>
      </trkpt>
      <trkpt lat="42.73314" lon="0.17194">
        <ele>2406.3</ele>
        <time>2012-10-04T10:36:03Z</time>
      </trkpt>
      <trkpt lat="42.73309" lon="0.17183">
        <ele>2407.8</ele>
        <time>2012-10-04T10:36:13Z</time>
      </trkpt>
      <trkpt lat="42.73305" lon="0.17174">
        <ele>2409.2</ele>
        <time>2012-10-04T10:36:22Z</time>
      </trkpt>
      <trkpt lat="42.733" lon="0.17164">
        <ele>2410.2</ele>
        <time>2012-10-04T10:36:32Z</time>
      </trkpt>
      <trkpt lat="42.73294" lon="0.17155">
        <ele>2411.6</ele>
        <time>2012-10-04T10:36:41Z</time>
      </trkpt>
      <trkpt lat="42.73291" lon="0.17149">
        <ele>2412.6</ele>
        <time>2012-10-04T10:36:48Z</time>
      </trkpt>
      <trkpt lat="42.73287" lon="0.17142">
        <ele>2413.5</ele>
        <time>2012-10-04T10:36:56Z</time>
      </trkpt>
      <trkpt lat="42.73283" lon="0.17135">
        <ele>2414.5</ele>
        <time>2012-10-04T10:37:04Z</time>
      </trkpt>
      <trkpt lat="42.7328" lon="0.17128">
        <ele>2415.4</ele>
        <time>2012-10-04T10:37:12Z</time>
      </trkpt>
      <trkpt lat="42.73276" lon="0.1712">
        <ele>2416.4</ele>
        <time>2012-10-04T10:37:20Z</time>
      </trkpt>
      <trkpt lat="42.7327" lon="0.17114">
        <ele>2417.4</ele>
        <time>2012-10-04T10:37:28Z</time>
      </trkpt>
      <trkpt lat="42.73265" lon="0.17106">
        <ele>2419.3</ele>
        <time>2012-10-04T10:37:36Z</time>
      </trkpt>
      <trkpt lat="42.7326" lon="0.17099">
        <ele>2419.8</ele>
        <time>2012-10-04T10:37:44Z</time>
      </trkpt>
      <trkpt lat="42.73254" lon="0.17092">
        <ele>2421.2</ele>
        <time>2012-10-04T10:37:54Z</time>
      </trkpt>
      <trkpt lat="42.73254" lon="0.17091">
        <ele>2421.7</ele>
        <time>2012-10-04T10:38:01Z</time>
      </trkpt>
      <trkpt lat="42.73251" lon="0.17086">
        <ele>2423.1</ele>
        <time>2012-10-04T10:38:10Z</time>
      </trkpt>
      <trkpt lat="42.73249" lon="0.17082">
        <ele>2424.6</ele>
        <time>2012-10-04T10:38:17Z</time>
      </trkpt>
      <trkpt lat="42.73247" lon="0.17077">
        <ele>2426</ele>
        <time>2012-10-04T10:38:25Z</time>
      </trkpt>
      <trkpt lat="42.73243" lon="0.17072">
        <ele>2427</ele>
        <time>2012-10-04T10:38:34Z</time>
      </trkpt>
      <trkpt lat="42.73239" lon="0.17067">
        <ele>2428.4</ele>
        <time>2012-10-04T10:38:44Z</time>
      </trkpt>
      <trkpt lat="42.73238" lon="0.17063">
        <ele>2429.9</ele>
        <time>2012-10-04T10:38:52Z</time>
      </trkpt>
      <trkpt lat="42.73235" lon="0.17059">
        <ele>2430.8</ele>
        <time>2012-10-04T10:38:59Z</time>
      </trkpt>
      <trkpt lat="42.73233" lon="0.17054">
        <ele>2432.8</ele>
        <time>2012-10-04T10:39:07Z</time>
      </trkpt>
      <trkpt lat="42.7323" lon="0.17049">
        <ele>2434.7</ele>
        <time>2012-10-04T10:39:17Z</time>
      </trkpt>
      <trkpt lat="42.73229" lon="0.17045">
        <ele>2435.6</ele>
        <time>2012-10-04T10:39:25Z</time>
      </trkpt>
      <trkpt lat="42.73227" lon="0.17041">
        <ele>2437.1</ele>
        <time>2012-10-04T10:39:32Z</time>
      </trkpt>
      <trkpt lat="42.73225" lon="0.17036">
        <ele>2438.5</ele>
        <time>2012-10-04T10:39:42Z</time>
      </trkpt>
      <trkpt lat="42.73224" lon="0.17033">
        <ele>2440</ele>
        <time>2012-10-04T10:39:49Z</time>
      </trkpt>
      <trkpt lat="42.73222" lon="0.1703">
        <ele>2441.9</ele>
        <time>2012-10-04T10:39:57Z</time>
      </trkpt>
      <trkpt lat="42.73221" lon="0.17024">
        <ele>2443.3</ele>
        <time>2012-10-04T10:40:06Z</time>
      </trkpt>
      <trkpt lat="42.7322" lon="0.17021">
        <ele>2444.3</ele>
        <time>2012-10-04T10:40:13Z</time>
      </trkpt>
      <trkpt lat="42.73218" lon="0.17018">
        <ele>2445.2</ele>
        <time>2012-10-04T10:40:20Z</time>
      </trkpt>
      <trkpt lat="42.73216" lon="0.17014">
        <ele>2446.7</ele>
        <time>2012-10-04T10:40:28Z</time>
      </trkpt>
      <trkpt lat="42.73214" lon="0.17009">
        <ele>2448.6</ele>
        <time>2012-10-04T10:40:37Z</time>
      </trkpt>
      <trkpt lat="42.73212" lon="0.17004">
        <ele>2450.1</ele>
        <time>2012-10-04T10:40:45Z</time>
      </trkpt>
      <trkpt lat="42.7321" lon="0.17">
        <ele>2451</ele>
        <time>2012-10-04T10:40:52Z</time>
      </trkpt>
      <trkpt lat="42.73209" lon="0.16997">
        <ele>2452.5</ele>
        <time>2012-10-04T10:40:58Z</time>
      </trkpt>
      <trkpt lat="42.73206" lon="0.16992">
        <ele>2452.9</ele>
        <time>2012-10-04T10:41:06Z</time>
      </trkpt>
      <trkpt lat="42.73203" lon="0.16987">
        <ele>2454.4</ele>
        <time>2012-10-04T10:41:15Z</time>
      </trkpt>
      <trkpt lat="42.732" lon="0.16981">
        <ele>2455.8</ele>
        <time>2012-10-04T10:41:24Z</time>
      </trkpt>
      <trkpt lat="42.73199" lon="0.16981">
        <ele>2455.8</ele>
        <time>2012-10-04T10:41:31Z</time>
      </trkpt>
      <trkpt lat="42.73195" lon="0.16974">
        <ele>2457.3</ele>
        <time>2012-10-04T10:41:37Z</time>
      </trkpt>
      <trkpt lat="42.7319" lon="0.16967">
        <ele>2458.7</ele>
        <time>2012-10-04T10:41:46Z</time>
      </trkpt>
      <trkpt lat="42.73185" lon="0.16959">
        <ele>2461.1</ele>
        <time>2012-10-04T10:41:56Z</time>
      </trkpt>
      <trkpt lat="42.73179" lon="0.16951">
        <ele>2462.1</ele>
        <time>2012-10-04T10:42:05Z</time>
      </trkpt>
      <trkpt lat="42.73173" lon="0.16944">
        <ele>2463</ele>
        <time>2012-10-04T10:42:13Z</time>
      </trkpt>
      <trkpt lat="42.73166" lon="0.16935">
        <ele>2464.5</ele>
        <time>2012-10-04T10:42:23Z</time>
      </trkpt>
      <trkpt lat="42.73161" lon="0.16926">
        <ele>2465.9</ele>
        <time>2012-10-04T10:42:33Z</time>
      </trkpt>
      <trkpt lat="42.73156" lon="0.16919">
        <ele>2466.9</ele>
        <time>2012-10-04T10:42:41Z</time>
      </trkpt>
      <trkpt lat="42.73148" lon="0.16908">
        <ele>2467.8</ele>
        <time>2012-10-04T10:42:51Z</time>
      </trkpt>
      <trkpt lat="42.73144" lon="0.169">
        <ele>2469.3</ele>
        <time>2012-10-04T10:43:00Z</time>
      </trkpt>
      <trkpt lat="42.73141" lon="0.16894">
        <ele>2471.2</ele>
        <time>2012-10-04T10:43:08Z</time>
      </trkpt>
      <trkpt lat="42.73138" lon="0.1689">
        <ele>2471.7</ele>
        <time>2012-10-04T10:43:16Z</time>
      </trkpt>
      <trkpt lat="42.73137" lon="0.1689">
        <ele>2472.6</ele>
        <time>2012-10-04T10:43:23Z</time>
      </trkpt>
      <trkpt lat="42.73135" lon="0.16884">
        <ele>2474.1</ele>
        <time>2012-10-04T10:43:30Z</time>
      </trkpt>
      <trkpt lat="42.73131" lon="0.16879">
        <ele>2475.1</ele>
        <time>2012-10-04T10:43:37Z</time>
      </trkpt>
      <trkpt lat="42.73127" lon="0.16872">
        <ele>2476</ele>
        <time>2012-10-04T10:43:47Z</time>
      </trkpt>
      <trkpt lat="42.73122" lon="0.16865">
        <ele>2477.4</ele>
        <time>2012-10-04T10:43:56Z</time>
      </trkpt>
      <trkpt lat="42.73118" lon="0.16857">
        <ele>2478.9</ele>
        <time>2012-10-04T10:44:05Z</time>
      </trkpt>
      <trkpt lat="42.73113" lon="0.1685">
        <ele>2478.4</ele>
        <time>2012-10-04T10:44:13Z</time>
      </trkpt>
      <trkpt lat="42.73112" lon="0.16849">
        <ele>2478.4</ele>
        <time>2012-10-04T10:44:14Z</time>
      </trkpt>
      <trkpt lat="42.73108" lon="0.1684">
        <ele>2477.9</ele>
        <time>2012-10-04T10:44:22Z</time>
      </trkpt>
      <trkpt lat="42.73107" lon="0.16834">
        <ele>2478.4</ele>
        <time>2012-10-04T10:44:28Z</time>
      </trkpt>
      <trkpt lat="42.73105" lon="0.16827">
        <ele>2478.9</ele>
        <time>2012-10-04T10:44:36Z</time>
      </trkpt>
      <trkpt lat="42.73102" lon="0.16821">
        <ele>2478.4</ele>
        <time>2012-10-04T10:44:44Z</time>
      </trkpt>
      <trkpt lat="42.731" lon="0.16817">
        <ele>2477.4</ele>
        <time>2012-10-04T10:44:51Z</time>
      </trkpt>
      <trkpt lat="42.73098" lon="0.16812">
        <ele>2477</ele>
        <time>2012-10-04T10:44:58Z</time>
      </trkpt>
      <trkpt lat="42.73094" lon="0.16807">
        <ele>2477</ele>
        <time>2012-10-04T10:45:07Z</time>
      </trkpt>
      <trkpt lat="42.73091" lon="0.16802">
        <ele>2476</ele>
        <time>2012-10-04T10:45:14Z</time>
      </trkpt>
      <trkpt lat="42.73091" lon="0.168">
        <ele>2475.5</ele>
        <time>2012-10-04T10:45:16Z</time>
      </trkpt>
      <trkpt lat="42.73087" lon="0.1679">
        <ele>2475.5</ele>
        <time>2012-10-04T10:45:25Z</time>
      </trkpt>
      <trkpt lat="42.73084" lon="0.1678">
        <ele>2476</ele>
        <time>2012-10-04T10:45:33Z</time>
      </trkpt>
      <trkpt lat="42.73081" lon="0.16773">
        <ele>2477.9</ele>
        <time>2012-10-04T10:45:42Z</time>
      </trkpt>
      <trkpt lat="42.7308" lon="0.16772">
        <ele>2477.9</ele>
        <time>2012-10-04T10:45:43Z</time>
      </trkpt>
      <trkpt lat="42.73073" lon="0.16767">
        <ele>2479.9</ele>
        <time>2012-10-04T10:45:52Z</time>
      </trkpt>
      <trkpt lat="42.73069" lon="0.16762">
        <ele>2480.8</ele>
        <time>2012-10-04T10:46:00Z</time>
      </trkpt>
      <trkpt lat="42.73067" lon="0.16757">
        <ele>2482.3</ele>
        <time>2012-10-04T10:46:08Z</time>
      </trkpt>
      <trkpt lat="42.73063" lon="0.16753">
        <ele>2482.7</ele>
        <time>2012-10-04T10:46:16Z</time>
      </trkpt>
      <trkpt lat="42.73057" lon="0.16747">
        <ele>2483.2</ele>
        <time>2012-10-04T10:46:24Z</time>
      </trkpt>
      <trkpt lat="42.73049" lon="0.16742">
        <ele>2483.7</ele>
        <time>2012-10-04T10:46:32Z</time>
      </trkpt>
      <trkpt lat="42.73042" lon="0.16737">
        <ele>2485.1</ele>
        <time>2012-10-04T10:46:41Z</time>
      </trkpt>
      <trkpt lat="42.73037" lon="0.16735">
        <ele>2486.1</ele>
        <time>2012-10-04T10:46:48Z</time>
      </trkpt>
      <trkpt lat="42.73036" lon="0.16735">
        <ele>2485.6</ele>
        <time>2012-10-04T10:47:02Z</time>
      </trkpt>
      <trkpt lat="42.73036" lon="0.16733">
        <ele>2485.6</ele>
        <time>2012-10-04T10:47:15Z</time>
      </trkpt>
      <trkpt lat="42.73035" lon="0.16733">
        <ele>2485.6</ele>
        <time>2012-10-04T10:47:28Z</time>
      </trkpt>
      <trkpt lat="42.73035" lon="0.16733">
        <ele>2485.6</ele>
        <time>2012-10-04T10:47:42Z</time>
      </trkpt>
      <trkpt lat="42.73036" lon="0.16734">
        <ele>2486.1</ele>
        <time>2012-10-04T10:47:48Z</time>
      </trkpt>
      <trkpt lat="42.73034" lon="0.16735">
        <ele>2486.6</ele>
        <time>2012-10-04T10:47:54Z</time>
      </trkpt>
      <trkpt lat="42.73031" lon="0.16735">
        <ele>2487.1</ele>
        <time>2012-10-04T10:47:57Z</time>
      </trkpt>
      <trkpt lat="42.73023" lon="0.16733">
        <ele>2488</ele>
        <time>2012-10-04T10:48:06Z</time>
      </trkpt>
      <trkpt lat="42.73017" lon="0.16729">
        <ele>2489.5</ele>
        <time>2012-10-04T10:48:15Z</time>
      </trkpt>
      <trkpt lat="42.73016" lon="0.16728">
        <ele>2489.5</ele>
        <time>2012-10-04T10:48:17Z</time>
      </trkpt>
      <trkpt lat="42.73008" lon="0.16722">
        <ele>2490.9</ele>
        <time>2012-10-04T10:48:27Z</time>
      </trkpt>
      <trkpt lat="42.72998" lon="0.16717">
        <ele>2490.4</ele>
        <time>2012-10-04T10:48:37Z</time>
      </trkpt>
      <trkpt lat="42.72989" lon="0.16712">
        <ele>2489.5</ele>
        <time>2012-10-04T10:48:45Z</time>
      </trkpt>
      <trkpt lat="42.72986" lon="0.16709">
        <ele>2489.9</ele>
        <time>2012-10-04T10:48:51Z</time>
      </trkpt>
      <trkpt lat="42.72983" lon="0.16703">
        <ele>2489.9</ele>
        <time>2012-10-04T10:48:58Z</time>
      </trkpt>
      <trkpt lat="42.72978" lon="0.16697">
        <ele>2489.5</ele>
        <time>2012-10-04T10:49:05Z</time>
      </trkpt>
      <trkpt lat="42.72978" lon="0.16695">
        <ele>2489</ele>
        <time>2012-10-04T10:49:12Z</time>
      </trkpt>
      <trkpt lat="42.72978" lon="0.16694">
        <ele>2489.5</ele>
        <time>2012-10-04T10:49:30Z</time>
      </trkpt>
      <trkpt lat="42.72977" lon="0.16695">
        <ele>2489.5</ele>
        <time>2012-10-04T10:49:44Z</time>
      </trkpt>
      <trkpt lat="42.72979" lon="0.16697">
        <ele>2489.5</ele>
        <time>2012-10-04T10:49:52Z</time>
      </trkpt>
      <trkpt lat="42.7298" lon="0.16698">
        <ele>2489</ele>
        <time>2012-10-04T10:50:10Z</time>
      </trkpt>
      <trkpt lat="42.72978" lon="0.16697">
        <ele>2489.5</ele>
        <time>2012-10-04T10:50:34Z</time>
      </trkpt>
      <trkpt lat="42.72978" lon="0.16695">
        <ele>2489.5</ele>
        <time>2012-10-04T10:50:51Z</time>
      </trkpt>
      <trkpt lat="42.72978" lon="0.16696">
        <ele>2489.5</ele>
        <time>2012-10-04T10:51:16Z</time>
      </trkpt>
      <trkpt lat="42.72977" lon="0.16695">
        <ele>2489.5</ele>
        <time>2012-10-04T10:51:26Z</time>
      </trkpt>
      <trkpt lat="42.7297" lon="0.16684">
        <ele>2489.9</ele>
        <time>2012-10-04T10:51:35Z</time>
      </trkpt>
      <trkpt lat="42.72966" lon="0.16674">
        <ele>2489.9</ele>
        <time>2012-10-04T10:51:44Z</time>
      </trkpt>
      <trkpt lat="42.72962" lon="0.16668">
        <ele>2490.4</ele>
        <time>2012-10-04T10:51:51Z</time>
      </trkpt>
      <trkpt lat="42.72961" lon="0.16667">
        <ele>2490.9</ele>
        <time>2012-10-04T10:51:52Z</time>
      </trkpt>
      <trkpt lat="42.72956" lon="0.16659">
        <ele>2491.4</ele>
        <time>2012-10-04T10:52:01Z</time>
      </trkpt>
      <trkpt lat="42.72952" lon="0.16654">
        <ele>2491.9</ele>
        <time>2012-10-04T10:52:09Z</time>
      </trkpt>
      <trkpt lat="42.72954" lon="0.16654">
        <ele>2491.4</ele>
        <time>2012-10-04T10:52:19Z</time>
      </trkpt>
      <trkpt lat="42.72955" lon="0.16653">
        <ele>2491.9</ele>
        <time>2012-10-04T10:52:36Z</time>
      </trkpt>
      <trkpt lat="42.72953" lon="0.16654">
        <ele>2491.4</ele>
        <time>2012-10-04T10:52:52Z</time>
      </trkpt>
      <trkpt lat="42.72952" lon="0.16655">
        <ele>2491.4</ele>
        <time>2012-10-04T10:53:06Z</time>
      </trkpt>
      <trkpt lat="42.72956" lon="0.16654">
        <ele>2491.4</ele>
        <time>2012-10-04T10:53:29Z</time>
      </trkpt>
      <trkpt lat="42.72955" lon="0.16652">
        <ele>2491.4</ele>
        <time>2012-10-04T10:53:43Z</time>
      </trkpt>
      <trkpt lat="42.72951" lon="0.16652">
        <ele>2491.9</ele>
        <time>2012-10-04T10:54:05Z</time>
      </trkpt>
      <trkpt lat="42.72949" lon="0.16652">
        <ele>2491.4</ele>
        <time>2012-10-04T10:54:07Z</time>
      </trkpt>
      <trkpt lat="42.72948" lon="0.1665">
        <ele>2491.9</ele>
        <time>2012-10-04T10:54:14Z</time>
      </trkpt>
      <trkpt lat="42.72945" lon="0.16647">
        <ele>2491.9</ele>
        <time>2012-10-04T10:54:24Z</time>
      </trkpt>
      <trkpt lat="42.72937" lon="0.16638">
        <ele>2493.8</ele>
        <time>2012-10-04T10:54:34Z</time>
      </trkpt>
      <trkpt lat="42.72936" lon="0.16637">
        <ele>2494.3</ele>
        <time>2012-10-04T10:54:42Z</time>
      </trkpt>
      <trkpt lat="42.72935" lon="0.16637">
        <ele>2494.8</ele>
        <time>2012-10-04T10:54:54Z</time>
      </trkpt>
      <trkpt lat="42.72931" lon="0.16637">
        <ele>2494.8</ele>
        <time>2012-10-04T10:54:59Z</time>
      </trkpt>
      <trkpt lat="42.72928" lon="0.16635">
        <ele>2495.2</ele>
        <time>2012-10-04T10:55:03Z</time>
      </trkpt>
      <trkpt lat="42.72928" lon="0.16636">
        <ele>2495.2</ele>
        <time>2012-10-04T10:55:09Z</time>
      </trkpt>
      <trkpt lat="42.72922" lon="0.16633">
        <ele>2496.2</ele>
        <time>2012-10-04T10:55:16Z</time>
      </trkpt>
      <trkpt lat="42.72914" lon="0.16631">
        <ele>2497.6</ele>
        <time>2012-10-04T10:55:25Z</time>
      </trkpt>
      <trkpt lat="42.72904" lon="0.16627">
        <ele>2499.6</ele>
        <time>2012-10-04T10:55:36Z</time>
      </trkpt>
      <trkpt lat="42.72898" lon="0.16626">
        <ele>2500.5</ele>
        <time>2012-10-04T10:55:43Z</time>
      </trkpt>
      <trkpt lat="42.72893" lon="0.1663">
        <ele>2502.9</ele>
        <time>2012-10-04T10:55:52Z</time>
      </trkpt>
      <trkpt lat="42.7289" lon="0.16634">
        <ele>2503.9</ele>
        <time>2012-10-04T10:55:59Z</time>
      </trkpt>
      <trkpt lat="42.72886" lon="0.16634">
        <ele>2505.3</ele>
        <time>2012-10-04T10:56:07Z</time>
      </trkpt>
      <trkpt lat="42.72884" lon="0.16635">
        <ele>2505.8</ele>
        <time>2012-10-04T10:56:12Z</time>
      </trkpt>
      <trkpt lat="42.7288" lon="0.16638">
        <ele>2507.3</ele>
        <time>2012-10-04T10:56:22Z</time>
      </trkpt>
      <trkpt lat="42.72878" lon="0.16637">
        <ele>2508.2</ele>
        <time>2012-10-04T10:56:29Z</time>
      </trkpt>
      <trkpt lat="42.72878" lon="0.16639">
        <ele>2507.7</ele>
        <time>2012-10-04T10:56:52Z</time>
      </trkpt>
      <trkpt lat="42.72877" lon="0.16638">
        <ele>2508.2</ele>
        <time>2012-10-04T10:57:00Z</time>
      </trkpt>
      <trkpt lat="42.72876" lon="0.16633">
        <ele>2509.2</ele>
        <time>2012-10-04T10:57:08Z</time>
      </trkpt>
      <trkpt lat="42.72876" lon="0.16627">
        <ele>2510.6</ele>
        <time>2012-10-04T10:57:17Z</time>
      </trkpt>
      <trkpt lat="42.72875" lon="0.16624">
        <ele>2512.1</ele>
        <time>2012-10-04T10:57:23Z</time>
      </trkpt>
      <trkpt lat="42.72874" lon="0.1662">
        <ele>2513</ele>
        <time>2012-10-04T10:57:31Z</time>
      </trkpt>
      <trkpt lat="42.72871" lon="0.16618">
        <ele>2514.5</ele>
        <time>2012-10-04T10:57:39Z</time>
      </trkpt>
      <trkpt lat="42.72869" lon="0.16619">
        <ele>2515.4</ele>
        <time>2012-10-04T10:57:45Z</time>
      </trkpt>
      <trkpt lat="42.72867" lon="0.16618">
        <ele>2516.9</ele>
        <time>2012-10-04T10:57:52Z</time>
      </trkpt>
      <trkpt lat="42.72866" lon="0.16616">
        <ele>2517.8</ele>
        <time>2012-10-04T10:57:59Z</time>
      </trkpt>
      <trkpt lat="42.72861" lon="0.16613">
        <ele>2519.3</ele>
        <time>2012-10-04T10:58:07Z</time>
      </trkpt>
      <trkpt lat="42.72854" lon="0.16608">
        <ele>2520.2</ele>
        <time>2012-10-04T10:58:17Z</time>
      </trkpt>
      <trkpt lat="42.7285" lon="0.16606">
        <ele>2521.7</ele>
        <time>2012-10-04T10:58:26Z</time>
      </trkpt>
      <trkpt lat="42.72846" lon="0.16604">
        <ele>2522.6</ele>
        <time>2012-10-04T10:58:33Z</time>
      </trkpt>
      <trkpt lat="42.7284" lon="0.16603">
        <ele>2524.1</ele>
        <time>2012-10-04T10:58:41Z</time>
      </trkpt>
      <trkpt lat="42.72837" lon="0.16599">
        <ele>2526</ele>
        <time>2012-10-04T10:58:51Z</time>
      </trkpt>
      <trkpt lat="42.72832" lon="0.16596">
        <ele>2528.4</ele>
        <time>2012-10-04T10:59:02Z</time>
      </trkpt>
      <trkpt lat="42.72829" lon="0.16594">
        <ele>2529.9</ele>
        <time>2012-10-04T10:59:10Z</time>
      </trkpt>
      <trkpt lat="42.72826" lon="0.16593">
        <ele>2531.3</ele>
        <time>2012-10-04T10:59:20Z</time>
      </trkpt>
      <trkpt lat="42.72822" lon="0.16591">
        <ele>2532.7</ele>
        <time>2012-10-04T10:59:28Z</time>
      </trkpt>
      <trkpt lat="42.72822" lon="0.1659">
        <ele>2533.7</ele>
        <time>2012-10-04T10:59:35Z</time>
      </trkpt>
      <trkpt lat="42.72823" lon="0.16585">
        <ele>2535.1</ele>
        <time>2012-10-04T10:59:44Z</time>
      </trkpt>
      <trkpt lat="42.72825" lon="0.16579">
        <ele>2536.1</ele>
        <time>2012-10-04T10:59:54Z</time>
      </trkpt>
      <trkpt lat="42.72826" lon="0.16574">
        <ele>2538</ele>
        <time>2012-10-04T11:00:03Z</time>
      </trkpt>
      <trkpt lat="42.72827" lon="0.16571">
        <ele>2539</ele>
        <time>2012-10-04T11:00:11Z</time>
      </trkpt>
      <trkpt lat="42.72826" lon="0.16568">
        <ele>2540.4</ele>
        <time>2012-10-04T11:00:19Z</time>
      </trkpt>
      <trkpt lat="42.72827" lon="0.16564">
        <ele>2541.4</ele>
        <time>2012-10-04T11:00:26Z</time>
      </trkpt>
      <trkpt lat="42.72827" lon="0.16562">
        <ele>2543.3</ele>
        <time>2012-10-04T11:00:33Z</time>
      </trkpt>
      <trkpt lat="42.72829" lon="0.16557">
        <ele>2545.2</ele>
        <time>2012-10-04T11:00:44Z</time>
      </trkpt>
      <trkpt lat="42.7283" lon="0.16554">
        <ele>2546.7</ele>
        <time>2012-10-04T11:00:50Z</time>
      </trkpt>
      <trkpt lat="42.72832" lon="0.16551">
        <ele>2547.6</ele>
        <time>2012-10-04T11:00:56Z</time>
      </trkpt>
      <trkpt lat="42.72835" lon="0.16549">
        <ele>2548.1</ele>
        <time>2012-10-04T11:01:03Z</time>
      </trkpt>
      <trkpt lat="42.72836" lon="0.16548">
        <ele>2548.6</ele>
        <time>2012-10-04T11:01:09Z</time>
      </trkpt>
      <trkpt lat="42.72836" lon="0.1655">
        <ele>2547.6</ele>
        <time>2012-10-04T11:01:15Z</time>
      </trkpt>
      <trkpt lat="42.72835" lon="0.1655">
        <ele>2547.6</ele>
        <time>2012-10-04T11:01:34Z</time>
      </trkpt>
      <trkpt lat="42.72835" lon="0.1655">
        <ele>2549.1</ele>
        <time>2012-10-04T11:01:45Z</time>
      </trkpt>
      <trkpt lat="42.72839" lon="0.16543">
        <ele>2550.5</ele>
        <time>2012-10-04T11:01:54Z</time>
      </trkpt>
      <trkpt lat="42.72842" lon="0.16538">
        <ele>2551.5</ele>
        <time>2012-10-04T11:02:04Z</time>
      </trkpt>
      <trkpt lat="42.72844" lon="0.16536">
        <ele>2552.9</ele>
        <time>2012-10-04T11:02:11Z</time>
      </trkpt>
      <trkpt lat="42.72847" lon="0.16532">
        <ele>2554.4</ele>
        <time>2012-10-04T11:02:19Z</time>
      </trkpt>
      <trkpt lat="42.7285" lon="0.1653">
        <ele>2555.3</ele>
        <time>2012-10-04T11:02:26Z</time>
      </trkpt>
      <trkpt lat="42.72852" lon="0.16526">
        <ele>2556.8</ele>
        <time>2012-10-04T11:02:34Z</time>
      </trkpt>
      <trkpt lat="42.72855" lon="0.16523">
        <ele>2558.2</ele>
        <time>2012-10-04T11:02:42Z</time>
      </trkpt>
      <trkpt lat="42.72856" lon="0.16519">
        <ele>2559.2</ele>
        <time>2012-10-04T11:02:49Z</time>
      </trkpt>
      <trkpt lat="42.72853" lon="0.16518">
        <ele>2560.6</ele>
        <time>2012-10-04T11:02:54Z</time>
      </trkpt>
      <trkpt lat="42.72853" lon="0.16516">
        <ele>2561.1</ele>
        <time>2012-10-04T11:03:00Z</time>
      </trkpt>
      <trkpt lat="42.72852" lon="0.16516">
        <ele>2562.1</ele>
        <time>2012-10-04T11:03:06Z</time>
      </trkpt>
      <trkpt lat="42.72851" lon="0.16515">
        <ele>2563</ele>
        <time>2012-10-04T11:03:11Z</time>
      </trkpt>
      <trkpt lat="42.72847" lon="0.16515">
        <ele>2564.4</ele>
        <time>2012-10-04T11:03:20Z</time>
      </trkpt>
      <trkpt lat="42.72845" lon="0.16512">
        <ele>2565.9</ele>
        <time>2012-10-04T11:03:29Z</time>
      </trkpt>
      <trkpt lat="42.72845" lon="0.1651">
        <ele>2566.9</ele>
        <time>2012-10-04T11:03:35Z</time>
      </trkpt>
      <trkpt lat="42.72845" lon="0.16507">
        <ele>2567.8</ele>
        <time>2012-10-04T11:03:43Z</time>
      </trkpt>
      <trkpt lat="42.72846" lon="0.16503">
        <ele>2569.3</ele>
        <time>2012-10-04T11:03:52Z</time>
      </trkpt>
      <trkpt lat="42.72847" lon="0.16498">
        <ele>2570.7</ele>
        <time>2012-10-04T11:04:00Z</time>
      </trkpt>
      <trkpt lat="42.72852" lon="0.16494">
        <ele>2571.7</ele>
        <time>2012-10-04T11:04:08Z</time>
      </trkpt>
      <trkpt lat="42.72856" lon="0.16493">
        <ele>2572.6</ele>
        <time>2012-10-04T11:04:16Z</time>
      </trkpt>
      <trkpt lat="42.72859" lon="0.16489">
        <ele>2573.6</ele>
        <time>2012-10-04T11:04:23Z</time>
      </trkpt>
      <trkpt lat="42.7286" lon="0.16487">
        <ele>2575</ele>
        <time>2012-10-04T11:04:30Z</time>
      </trkpt>
      <trkpt lat="42.72862" lon="0.16483">
        <ele>2576.9</ele>
        <time>2012-10-04T11:04:40Z</time>
      </trkpt>
      <trkpt lat="42.72862" lon="0.16478">
        <ele>2578.9</ele>
        <time>2012-10-04T11:04:50Z</time>
      </trkpt>
      <trkpt lat="42.72861" lon="0.16476">
        <ele>2579.8</ele>
        <time>2012-10-04T11:04:57Z</time>
      </trkpt>
      <trkpt lat="42.72858" lon="0.16474">
        <ele>2581.3</ele>
        <time>2012-10-04T11:05:05Z</time>
      </trkpt>
      <trkpt lat="42.72855" lon="0.16474">
        <ele>2582.7</ele>
        <time>2012-10-04T11:05:11Z</time>
      </trkpt>
      <trkpt lat="42.72852" lon="0.16473">
        <ele>2583.7</ele>
        <time>2012-10-04T11:05:18Z</time>
      </trkpt>
      <trkpt lat="42.72849" lon="0.16473">
        <ele>2585.6</ele>
        <time>2012-10-04T11:05:26Z</time>
      </trkpt>
      <trkpt lat="42.72846" lon="0.16474">
        <ele>2586.1</ele>
        <time>2012-10-04T11:05:34Z</time>
      </trkpt>
      <trkpt lat="42.72843" lon="0.16472">
        <ele>2588</ele>
        <time>2012-10-04T11:05:43Z</time>
      </trkpt>
      <trkpt lat="42.72842" lon="0.16471">
        <ele>2589</ele>
        <time>2012-10-04T11:05:48Z</time>
      </trkpt>
      <trkpt lat="42.72841" lon="0.16468">
        <ele>2590.4</ele>
        <time>2012-10-04T11:05:54Z</time>
      </trkpt>
      <trkpt lat="42.72841" lon="0.16464">
        <ele>2591.9</ele>
        <time>2012-10-04T11:06:03Z</time>
      </trkpt>
      <trkpt lat="42.72843" lon="0.16464">
        <ele>2592.3</ele>
        <time>2012-10-04T11:06:08Z</time>
      </trkpt>
      <trkpt lat="42.72843" lon="0.16465">
        <ele>2592.3</ele>
        <time>2012-10-04T11:06:15Z</time>
      </trkpt>
      <trkpt lat="42.72843" lon="0.16464">
        <ele>2592.3</ele>
        <time>2012-10-04T11:06:29Z</time>
      </trkpt>
      <trkpt lat="42.72842" lon="0.16464">
        <ele>2592.8</ele>
        <time>2012-10-04T11:06:39Z</time>
      </trkpt>
      <trkpt lat="42.72842" lon="0.16462">
        <ele>2592.8</ele>
        <time>2012-10-04T11:06:46Z</time>
      </trkpt>
      <trkpt lat="42.72841" lon="0.16459">
        <ele>2593.8</ele>
        <time>2012-10-04T11:06:52Z</time>
      </trkpt>
      <trkpt lat="42.72839" lon="0.16459">
        <ele>2595.2</ele>
        <time>2012-10-04T11:07:00Z</time>
      </trkpt>
      <trkpt lat="42.72836" lon="0.16458">
        <ele>2596.7</ele>
        <time>2012-10-04T11:07:08Z</time>
      </trkpt>
      <trkpt lat="42.72835" lon="0.16457">
        <ele>2597.1</ele>
        <time>2012-10-04T11:07:15Z</time>
      </trkpt>
      <trkpt lat="42.72834" lon="0.16455">
        <ele>2598.6</ele>
        <time>2012-10-04T11:07:23Z</time>
      </trkpt>
      <trkpt lat="42.72832" lon="0.16451">
        <ele>2600.5</ele>
        <time>2012-10-04T11:07:33Z</time>
      </trkpt>
      <trkpt lat="42.72829" lon="0.16448">
        <ele>2601.5</ele>
        <time>2012-10-04T11:07:42Z</time>
      </trkpt>
      <trkpt lat="42.72827" lon="0.16447">
        <ele>2603.4</ele>
        <time>2012-10-04T11:07:51Z</time>
      </trkpt>
      <trkpt lat="42.72826" lon="0.16443">
        <ele>2604.8</ele>
        <time>2012-10-04T11:08:00Z</time>
      </trkpt>
      <trkpt lat="42.72825" lon="0.1644">
        <ele>2605.8</ele>
        <time>2012-10-04T11:08:07Z</time>
      </trkpt>
      <trkpt lat="42.72822" lon="0.16436">
        <ele>2607.2</ele>
        <time>2012-10-04T11:08:17Z</time>
      </trkpt>
      <trkpt lat="42.7282" lon="0.16433">
        <ele>2608.7</ele>
        <time>2012-10-04T11:08:25Z</time>
      </trkpt>
      <trkpt lat="42.7282" lon="0.1643">
        <ele>2610.1</ele>
        <time>2012-10-04T11:08:33Z</time>
      </trkpt>
      <trkpt lat="42.7282" lon="0.1643">
        <ele>2610.6</ele>
        <time>2012-10-04T11:08:40Z</time>
      </trkpt>
      <trkpt lat="42.72822" lon="0.1643">
        <ele>2611.6</ele>
        <time>2012-10-04T11:08:47Z</time>
      </trkpt>
      <trkpt lat="42.72825" lon="0.16428">
        <ele>2613.5</ele>
        <time>2012-10-04T11:08:56Z</time>
      </trkpt>
      <trkpt lat="42.72829" lon="0.16426">
        <ele>2614.4</ele>
        <time>2012-10-04T11:09:05Z</time>
      </trkpt>
      <trkpt lat="42.7283" lon="0.16423">
        <ele>2615.9</ele>
        <time>2012-10-04T11:09:13Z</time>
      </trkpt>
      <trkpt lat="42.72833" lon="0.16422">
        <ele>2617.3</ele>
        <time>2012-10-04T11:09:20Z</time>
      </trkpt>
      <trkpt lat="42.72836" lon="0.16419">
        <ele>2618.3</ele>
        <time>2012-10-04T11:09:26Z</time>
      </trkpt>
      <trkpt lat="42.72839" lon="0.16417">
        <ele>2619.7</ele>
        <time>2012-10-04T11:09:36Z</time>
      </trkpt>
      <trkpt lat="42.7284" lon="0.16416">
        <ele>2620.2</ele>
        <time>2012-10-04T11:09:42Z</time>
      </trkpt>
      <trkpt lat="42.7284" lon="0.16414">
        <ele>2620.2</ele>
        <time>2012-10-04T11:09:54Z</time>
      </trkpt>
      <trkpt lat="42.72845" lon="0.16411">
        <ele>2621.2</ele>
        <time>2012-10-04T11:10:02Z</time>
      </trkpt>
      <trkpt lat="42.72852" lon="0.16412">
        <ele>2622.1</ele>
        <time>2012-10-04T11:10:11Z</time>
      </trkpt>
      <trkpt lat="42.72858" lon="0.16408">
        <ele>2624.5</ele>
        <time>2012-10-04T11:10:20Z</time>
      </trkpt>
      <trkpt lat="42.72861" lon="0.16405">
        <ele>2625.5</ele>
        <time>2012-10-04T11:10:26Z</time>
      </trkpt>
      <trkpt lat="42.72861" lon="0.16405">
        <ele>2626</ele>
        <time>2012-10-04T11:10:36Z</time>
      </trkpt>
      <trkpt lat="42.72861" lon="0.16406">
        <ele>2625.5</ele>
        <time>2012-10-04T11:10:55Z</time>
      </trkpt>
      <trkpt lat="42.72861" lon="0.16407">
        <ele>2626</ele>
        <time>2012-10-04T11:11:10Z</time>
      </trkpt>
      <trkpt lat="42.72862" lon="0.16406">
        <ele>2626</ele>
        <time>2012-10-04T11:11:21Z</time>
      </trkpt>
      <trkpt lat="42.72861" lon="0.16404">
        <ele>2626</ele>
        <time>2012-10-04T11:11:44Z</time>
      </trkpt>
      <trkpt lat="42.72861" lon="0.16405">
        <ele>2626</ele>
        <time>2012-10-04T11:12:01Z</time>
      </trkpt>
      <trkpt lat="42.72861" lon="0.16405">
        <ele>2626</ele>
        <time>2012-10-04T11:12:15Z</time>
      </trkpt>
      <trkpt lat="42.72861" lon="0.16405">
        <ele>2626</ele>
        <time>2012-10-04T11:12:32Z</time>
      </trkpt>
      <trkpt lat="42.72861" lon="0.16404">
        <ele>2626.5</ele>
        <time>2012-10-04T11:12:47Z</time>
      </trkpt>
      <trkpt lat="42.72862" lon="0.16404">
        <ele>2626.5</ele>
        <time>2012-10-04T11:13:01Z</time>
      </trkpt>
      <trkpt lat="42.72862" lon="0.16407">
        <ele>2626.5</ele>
        <time>2012-10-04T11:13:17Z</time>
      </trkpt>
      <trkpt lat="42.72862" lon="0.16406">
        <ele>2626.5</ele>
        <time>2012-10-04T11:13:33Z</time>
      </trkpt>
      <trkpt lat="42.72862" lon="0.16404">
        <ele>2626.5</ele>
        <time>2012-10-04T11:13:53Z</time>
      </trkpt>
      <trkpt lat="42.72861" lon="0.16403">
        <ele>2626</ele>
        <time>2012-10-04T11:14:08Z</time>
      </trkpt>
      <trkpt lat="42.72862" lon="0.16403">
        <ele>2626</ele>
        <time>2012-10-04T11:14:24Z</time>
      </trkpt>
      <trkpt lat="42.72862" lon="0.16404">
        <ele>2626.5</ele>
        <time>2012-10-04T11:14:40Z</time>
      </trkpt>
      <trkpt lat="42.72862" lon="0.16405">
        <ele>2626</ele>
        <time>2012-10-04T11:14:59Z</time>
      </trkpt>
      <trkpt lat="42.72862" lon="0.16405">
        <ele>2627.4</ele>
        <time>2012-10-04T11:15:09Z</time>
      </trkpt>
      <trkpt lat="42.72862" lon="0.16404">
        <ele>2626.9</ele>
        <time>2012-10-04T11:15:18Z</time>
      </trkpt>
      <trkpt lat="42.72862" lon="0.16404">
        <ele>2626.9</ele>
        <time>2012-10-04T11:15:34Z</time>
      </trkpt>
      <trkpt lat="42.72862" lon="0.16403">
        <ele>2626.9</ele>
        <time>2012-10-04T11:15:49Z</time>
      </trkpt>
      <trkpt lat="42.72863" lon="0.16404">
        <ele>2626.9</ele>
        <time>2012-10-04T11:15:58Z</time>
      </trkpt>
      <trkpt lat="42.72861" lon="0.16404">
        <ele>2626.9</ele>
        <time>2012-10-04T11:16:12Z</time>
      </trkpt>
      <trkpt lat="42.72862" lon="0.16404">
        <ele>2626.9</ele>
        <time>2012-10-04T11:16:28Z</time>
      </trkpt>
      <trkpt lat="42.72864" lon="0.16403">
        <ele>2627.4</ele>
        <time>2012-10-04T11:16:41Z</time>
      </trkpt>
      <trkpt lat="42.72868" lon="0.16402">
        <ele>2627.9</ele>
        <time>2012-10-04T11:16:49Z</time>
      </trkpt>
      <trkpt lat="42.72871" lon="0.164">
        <ele>2629.8</ele>
        <time>2012-10-04T11:16:57Z</time>
      </trkpt>
      <trkpt lat="42.72876" lon="0.16399">
        <ele>2630.8</ele>
        <time>2012-10-04T11:17:05Z</time>
      </trkpt>
      <trkpt lat="42.72877" lon="0.16396">
        <ele>2632.2</ele>
        <time>2012-10-04T11:17:12Z</time>
      </trkpt>
      <trkpt lat="42.72874" lon="0.16394">
        <ele>2633.2</ele>
        <time>2012-10-04T11:17:20Z</time>
      </trkpt>
      <trkpt lat="42.7287" lon="0.16392">
        <ele>2634.6</ele>
        <time>2012-10-04T11:17:27Z</time>
      </trkpt>
      <trkpt lat="42.7287" lon="0.16391">
        <ele>2635.6</ele>
        <time>2012-10-04T11:17:34Z</time>
      </trkpt>
      <trkpt lat="42.72873" lon="0.16391">
        <ele>2635.6</ele>
        <time>2012-10-04T11:17:40Z</time>
      </trkpt>
      <trkpt lat="42.72874" lon="0.16385">
        <ele>2637.5</ele>
        <time>2012-10-04T11:17:51Z</time>
      </trkpt>
      <trkpt lat="42.72871" lon="0.16383">
        <ele>2639</ele>
        <time>2012-10-04T11:17:59Z</time>
      </trkpt>
      <trkpt lat="42.72872" lon="0.16382">
        <ele>2640.4</ele>
        <time>2012-10-04T11:18:06Z</time>
      </trkpt>
      <trkpt lat="42.72871" lon="0.1638">
        <ele>2640.9</ele>
        <time>2012-10-04T11:18:12Z</time>
      </trkpt>
      <trkpt lat="42.7287" lon="0.16378">
        <ele>2642.3</ele>
        <time>2012-10-04T11:18:19Z</time>
      </trkpt>
      <trkpt lat="42.7287" lon="0.16375">
        <ele>2643.8</ele>
        <time>2012-10-04T11:18:28Z</time>
      </trkpt>
      <trkpt lat="42.72868" lon="0.16374">
        <ele>2644.7</ele>
        <time>2012-10-04T11:18:35Z</time>
      </trkpt>
      <trkpt lat="42.72865" lon="0.1637">
        <ele>2646.2</ele>
        <time>2012-10-04T11:18:44Z</time>
      </trkpt>
      <trkpt lat="42.72861" lon="0.16366">
        <ele>2647.1</ele>
        <time>2012-10-04T11:18:53Z</time>
      </trkpt>
      <trkpt lat="42.72858" lon="0.16364">
        <ele>2648.1</ele>
        <time>2012-10-04T11:19:00Z</time>
      </trkpt>
      <trkpt lat="42.72855" lon="0.16362">
        <ele>2649.5</ele>
        <time>2012-10-04T11:19:08Z</time>
      </trkpt>
      <trkpt lat="42.72854" lon="0.1636">
        <ele>2651</ele>
        <time>2012-10-04T11:19:16Z</time>
      </trkpt>
      <trkpt lat="42.72856" lon="0.16357">
        <ele>2652.4</ele>
        <time>2012-10-04T11:19:23Z</time>
      </trkpt>
      <trkpt lat="42.72859" lon="0.16357">
        <ele>2653.4</ele>
        <time>2012-10-04T11:19:30Z</time>
      </trkpt>
      <trkpt lat="42.72861" lon="0.16358">
        <ele>2653.9</ele>
        <time>2012-10-04T11:19:34Z</time>
      </trkpt>
      <trkpt lat="42.72866" lon="0.16358">
        <ele>2654.8</ele>
        <time>2012-10-04T11:19:42Z</time>
      </trkpt>
      <trkpt lat="42.7287" lon="0.16356">
        <ele>2656.3</ele>
        <time>2012-10-04T11:19:50Z</time>
      </trkpt>
      <trkpt lat="42.72874" lon="0.16355">
        <ele>2657.2</ele>
        <time>2012-10-04T11:19:58Z</time>
      </trkpt>
      <trkpt lat="42.72876" lon="0.16355">
        <ele>2658.7</ele>
        <time>2012-10-04T11:20:05Z</time>
      </trkpt>
      <trkpt lat="42.72878" lon="0.16355">
        <ele>2659.6</ele>
        <time>2012-10-04T11:20:11Z</time>
      </trkpt>
      <trkpt lat="42.72882" lon="0.16353">
        <ele>2661.6</ele>
        <time>2012-10-04T11:20:20Z</time>
      </trkpt>
      <trkpt lat="42.72887" lon="0.16351">
        <ele>2663</ele>
        <time>2012-10-04T11:20:30Z</time>
      </trkpt>
      <trkpt lat="42.72891" lon="0.16351">
        <ele>2663.9</ele>
        <time>2012-10-04T11:20:38Z</time>
      </trkpt>
      <trkpt lat="42.72896" lon="0.16349">
        <ele>2665.9</ele>
        <time>2012-10-04T11:20:49Z</time>
      </trkpt>
      <trkpt lat="42.72902" lon="0.16349">
        <ele>2667.8</ele>
        <time>2012-10-04T11:20:59Z</time>
      </trkpt>
      <trkpt lat="42.72907" lon="0.16349">
        <ele>2668.8</ele>
        <time>2012-10-04T11:21:08Z</time>
      </trkpt>
      <trkpt lat="42.72908" lon="0.16347">
        <ele>2670.2</ele>
        <time>2012-10-04T11:21:15Z</time>
      </trkpt>
      <trkpt lat="42.72905" lon="0.16343">
        <ele>2671.2</ele>
        <time>2012-10-04T11:21:24Z</time>
      </trkpt>
      <trkpt lat="42.72901" lon="0.16338">
        <ele>2672.6</ele>
        <time>2012-10-04T11:21:33Z</time>
      </trkpt>
      <trkpt lat="42.72898" lon="0.16334">
        <ele>2674</ele>
        <time>2012-10-04T11:21:42Z</time>
      </trkpt>
      <trkpt lat="42.72895" lon="0.1633">
        <ele>2675.5</ele>
        <time>2012-10-04T11:21:51Z</time>
      </trkpt>
      <trkpt lat="42.72893" lon="0.16324">
        <ele>2676.9</ele>
        <time>2012-10-04T11:22:00Z</time>
      </trkpt>
      <trkpt lat="42.7289" lon="0.16322">
        <ele>2677.9</ele>
        <time>2012-10-04T11:22:06Z</time>
      </trkpt>
      <trkpt lat="42.72887" lon="0.16318">
        <ele>2679.3</ele>
        <time>2012-10-04T11:22:14Z</time>
      </trkpt>
      <trkpt lat="42.72882" lon="0.16314">
        <ele>2680.8</ele>
        <time>2012-10-04T11:22:23Z</time>
      </trkpt>
      <trkpt lat="42.72878" lon="0.1631">
        <ele>2682.2</ele>
        <time>2012-10-04T11:22:32Z</time>
      </trkpt>
      <trkpt lat="42.72874" lon="0.16307">
        <ele>2683.7</ele>
        <time>2012-10-04T11:22:41Z</time>
      </trkpt>
      <trkpt lat="42.7287" lon="0.16304">
        <ele>2684.6</ele>
        <time>2012-10-04T11:22:50Z</time>
      </trkpt>
      <trkpt lat="42.72867" lon="0.16302">
        <ele>2686.1</ele>
        <time>2012-10-04T11:22:58Z</time>
      </trkpt>
      <trkpt lat="42.72867" lon="0.16299">
        <ele>2687.5</ele>
        <time>2012-10-04T11:23:05Z</time>
      </trkpt>
      <trkpt lat="42.72868" lon="0.16297">
        <ele>2688.5</ele>
        <time>2012-10-04T11:23:12Z</time>
      </trkpt>
      <trkpt lat="42.72868" lon="0.16293">
        <ele>2690.4</ele>
        <time>2012-10-04T11:23:21Z</time>
      </trkpt>
      <trkpt lat="42.72867" lon="0.1629">
        <ele>2691.4</ele>
        <time>2012-10-04T11:23:28Z</time>
      </trkpt>
      <trkpt lat="42.72864" lon="0.16287">
        <ele>2693.3</ele>
        <time>2012-10-04T11:23:37Z</time>
      </trkpt>
      <trkpt lat="42.72862" lon="0.16285">
        <ele>2694.2</ele>
        <time>2012-10-04T11:23:44Z</time>
      </trkpt>
      <trkpt lat="42.7286" lon="0.16283">
        <ele>2695.7</ele>
        <time>2012-10-04T11:23:51Z</time>
      </trkpt>
      <trkpt lat="42.72857" lon="0.16282">
        <ele>2697.1</ele>
        <time>2012-10-04T11:24:00Z</time>
      </trkpt>
      <trkpt lat="42.72854" lon="0.1628">
        <ele>2698.6</ele>
        <time>2012-10-04T11:24:10Z</time>
      </trkpt>
      <trkpt lat="42.72856" lon="0.16279">
        <ele>2700</ele>
        <time>2012-10-04T11:24:19Z</time>
      </trkpt>
      <trkpt lat="42.72857" lon="0.16279">
        <ele>2700.5</ele>
        <time>2012-10-04T11:24:26Z</time>
      </trkpt>
      <trkpt lat="42.72857" lon="0.16279">
        <ele>2700.5</ele>
        <time>2012-10-04T11:24:40Z</time>
      </trkpt>
      <trkpt lat="42.72858" lon="0.16274">
        <ele>2701.4</ele>
        <time>2012-10-04T11:24:47Z</time>
      </trkpt>
      <trkpt lat="42.72857" lon="0.16271">
        <ele>2702.9</ele>
        <time>2012-10-04T11:24:54Z</time>
      </trkpt>
      <trkpt lat="42.72853" lon="0.16268">
        <ele>2704.8</ele>
        <time>2012-10-04T11:25:04Z</time>
      </trkpt>
      <trkpt lat="42.72849" lon="0.16264">
        <ele>2706.7</ele>
        <time>2012-10-04T11:25:14Z</time>
      </trkpt>
      <trkpt lat="42.72847" lon="0.16263">
        <ele>2708.6</ele>
        <time>2012-10-04T11:25:24Z</time>
      </trkpt>
      <trkpt lat="42.72844" lon="0.1626">
        <ele>2710.1</ele>
        <time>2012-10-04T11:25:32Z</time>
      </trkpt>
      <trkpt lat="42.72843" lon="0.16258">
        <ele>2711.1</ele>
        <time>2012-10-04T11:25:41Z</time>
      </trkpt>
      <trkpt lat="42.7284" lon="0.16256">
        <ele>2711.5</ele>
        <time>2012-10-04T11:25:50Z</time>
      </trkpt>
      <trkpt lat="42.72835" lon="0.16252">
        <ele>2713</ele>
        <time>2012-10-04T11:25:59Z</time>
      </trkpt>
      <trkpt lat="42.72834" lon="0.16252">
        <ele>2713.5</ele>
        <time>2012-10-04T11:26:00Z</time>
      </trkpt>
      <trkpt lat="42.72832" lon="0.16252">
        <ele>2713</ele>
        <time>2012-10-04T11:26:07Z</time>
      </trkpt>
      <trkpt lat="42.72833" lon="0.16252">
        <ele>2713</ele>
        <time>2012-10-04T11:26:24Z</time>
      </trkpt>
      <trkpt lat="42.72833" lon="0.16252">
        <ele>2713</ele>
        <time>2012-10-04T11:26:41Z</time>
      </trkpt>
      <trkpt lat="42.72833" lon="0.1625">
        <ele>2713</ele>
        <time>2012-10-04T11:27:03Z</time>
      </trkpt>
      <trkpt lat="42.72832" lon="0.1625">
        <ele>2713</ele>
        <time>2012-10-04T11:27:27Z</time>
      </trkpt>
      <trkpt lat="42.72833" lon="0.1625">
        <ele>2713.9</ele>
        <time>2012-10-04T11:27:47Z</time>
      </trkpt>
      <trkpt lat="42.72835" lon="0.1625">
        <ele>2713.9</ele>
        <time>2012-10-04T11:27:52Z</time>
      </trkpt>
      <trkpt lat="42.72834" lon="0.16247">
        <ele>2714.4</ele>
        <time>2012-10-04T11:27:55Z</time>
      </trkpt>
      <trkpt lat="42.72834" lon="0.1623">
        <ele>2714.9</ele>
        <time>2012-10-04T11:28:04Z</time>
      </trkpt>
      <trkpt lat="42.72825" lon="0.16222">
        <ele>2716.3</ele>
        <time>2012-10-04T11:28:11Z</time>
      </trkpt>
      <trkpt lat="42.72825" lon="0.16222">
        <ele>2716.3</ele>
        <time>2012-10-04T11:28:11Z</time>
      </trkpt>
      <trkpt lat="42.72818" lon="0.16221">
        <ele>2717.3</ele>
        <time>2012-10-04T11:28:16Z</time>
      </trkpt>
      <trkpt lat="42.72812" lon="0.16227">
        <ele>2719.2</ele>
        <time>2012-10-04T11:28:21Z</time>
      </trkpt>
      <trkpt lat="42.72804" lon="0.16226">
        <ele>2720.7</ele>
        <time>2012-10-04T11:28:29Z</time>
      </trkpt>
      <trkpt lat="42.72801" lon="0.16228">
        <ele>2720.7</ele>
        <time>2012-10-04T11:28:31Z</time>
      </trkpt>
      <trkpt lat="42.72801" lon="0.1623">
        <ele>2720.2</ele>
        <time>2012-10-04T11:28:39Z</time>
      </trkpt>
      <trkpt lat="42.728" lon="0.1623">
        <ele>2720.7</ele>
        <time>2012-10-04T11:29:02Z</time>
      </trkpt>
      <trkpt lat="42.728" lon="0.1623">
        <ele>2720.2</ele>
        <time>2012-10-04T11:29:34Z</time>
      </trkpt>
      <trkpt lat="42.728" lon="0.1623">
        <ele>2720.7</ele>
        <time>2012-10-04T11:29:57Z</time>
      </trkpt>
      <trkpt lat="42.728" lon="0.1623">
        <ele>2720.2</ele>
        <time>2012-10-04T11:30:16Z</time>
      </trkpt>
      <trkpt lat="42.728" lon="0.1623">
        <ele>2720.2</ele>
        <time>2012-10-04T11:30:39Z</time>
      </trkpt>
      <trkpt lat="42.728" lon="0.1623">
        <ele>2720.2</ele>
        <time>2012-10-04T11:31:04Z</time>
      </trkpt>
      <trkpt lat="42.728" lon="0.16229">
        <ele>2720.7</ele>
        <time>2012-10-04T11:31:32Z</time>
      </trkpt>
      <trkpt lat="42.728" lon="0.16229">
        <ele>2720.7</ele>
        <time>2012-10-04T11:32:02Z</time>
      </trkpt>
      <trkpt lat="42.728" lon="0.1623">
        <ele>2721.1</ele>
        <time>2012-10-04T11:32:26Z</time>
      </trkpt>
      <trkpt lat="42.728" lon="0.1623">
        <ele>2720.7</ele>
        <time>2012-10-04T11:32:50Z</time>
      </trkpt>
      <trkpt lat="42.728" lon="0.1623">
        <ele>2720.7</ele>
        <time>2012-10-04T11:33:10Z</time>
      </trkpt>
      <trkpt lat="42.728" lon="0.1623">
        <ele>2721.1</ele>
        <time>2012-10-04T11:33:34Z</time>
      </trkpt>
      <trkpt lat="42.728" lon="0.16229">
        <ele>2721.1</ele>
        <time>2012-10-04T11:33:53Z</time>
      </trkpt>
      <trkpt lat="42.72799" lon="0.16227">
        <ele>2721.1</ele>
        <time>2012-10-04T11:33:58Z</time>
      </trkpt>
      <trkpt lat="42.728" lon="0.16229">
        <ele>2721.1</ele>
        <time>2012-10-04T11:34:22Z</time>
      </trkpt>
      <trkpt lat="42.728" lon="0.16229">
        <ele>2721.1</ele>
        <time>2012-10-04T11:34:51Z</time>
      </trkpt>
      <trkpt lat="42.728" lon="0.1623">
        <ele>2721.1</ele>
        <time>2012-10-04T11:35:17Z</time>
      </trkpt>
      <trkpt lat="42.728" lon="0.1623">
        <ele>2721.1</ele>
        <time>2012-10-04T11:35:32Z</time>
      </trkpt>
      <trkpt lat="42.728" lon="0.1623">
        <ele>2721.1</ele>
        <time>2012-10-04T11:35:54Z</time>
      </trkpt>
      <trkpt lat="42.728" lon="0.1623">
        <ele>2720.7</ele>
        <time>2012-10-04T11:36:14Z</time>
      </trkpt>
      <trkpt lat="42.728" lon="0.1623">
        <ele>2721.1</ele>
        <time>2012-10-04T11:36:33Z</time>
      </trkpt>
      <trkpt lat="42.728" lon="0.1623">
        <ele>2721.1</ele>
        <time>2012-10-04T11:37:02Z</time>
      </trkpt>
      <trkpt lat="42.728" lon="0.1623">
        <ele>2721.6</ele>
        <time>2012-10-04T11:37:26Z</time>
      </trkpt>
      <trkpt lat="42.728" lon="0.1623">
        <ele>2721.6</ele>
        <time>2012-10-04T11:37:44Z</time>
      </trkpt>
      <trkpt lat="42.728" lon="0.1623">
        <ele>2722.1</ele>
        <time>2012-10-04T11:38:08Z</time>
      </trkpt>
      <trkpt lat="42.728" lon="0.1623">
        <ele>2721.6</ele>
        <time>2012-10-04T11:38:35Z</time>
      </trkpt>
      <trkpt lat="42.728" lon="0.1623">
        <ele>2722.1</ele>
        <time>2012-10-04T11:39:02Z</time>
      </trkpt>
      <trkpt lat="42.728" lon="0.1623">
        <ele>2722.1</ele>
        <time>2012-10-04T11:39:23Z</time>
      </trkpt>
      <trkpt lat="42.728" lon="0.1623">
        <ele>2722.1</ele>
        <time>2012-10-04T11:39:51Z</time>
      </trkpt>
      <trkpt lat="42.728" lon="0.16231">
        <ele>2722.1</ele>
        <time>2012-10-04T11:40:15Z</time>
      </trkpt>
      <trkpt lat="42.72799" lon="0.16229">
        <ele>2722.1</ele>
        <time>2012-10-04T11:40:31Z</time>
      </trkpt>
      <trkpt lat="42.728" lon="0.1623">
        <ele>2723.1</ele>
        <time>2012-10-04T11:41:04Z</time>
      </trkpt>
      <trkpt lat="42.728" lon="0.16231">
        <ele>2723.1</ele>
        <time>2012-10-04T11:41:32Z</time>
      </trkpt>
      <trkpt lat="42.728" lon="0.1623">
        <ele>2723.1</ele>
        <time>2012-10-04T11:41:57Z</time>
      </trkpt>
      <trkpt lat="42.728" lon="0.16231">
        <ele>2722.6</ele>
        <time>2012-10-04T11:42:23Z</time>
      </trkpt>
      <trkpt lat="42.728" lon="0.16231">
        <ele>2723.1</ele>
        <time>2012-10-04T11:42:44Z</time>
      </trkpt>
      <trkpt lat="42.72801" lon="0.1623">
        <ele>2722.6</ele>
        <time>2012-10-04T11:43:09Z</time>
      </trkpt>
      <trkpt lat="42.72801" lon="0.1623">
        <ele>2723.1</ele>
        <time>2012-10-04T11:43:31Z</time>
      </trkpt>
      <trkpt lat="42.728" lon="0.16231">
        <ele>2723.6</ele>
        <time>2012-10-04T11:43:52Z</time>
      </trkpt>
      <trkpt lat="42.728" lon="0.1623">
        <ele>2723.1</ele>
        <time>2012-10-04T11:44:22Z</time>
      </trkpt>
      <trkpt lat="42.728" lon="0.1623">
        <ele>2722.6</ele>
        <time>2012-10-04T11:44:42Z</time>
      </trkpt>
      <trkpt lat="42.728" lon="0.1623">
        <ele>2723.1</ele>
        <time>2012-10-04T11:45:06Z</time>
      </trkpt>
      <trkpt lat="42.728" lon="0.1623">
        <ele>2723.1</ele>
        <time>2012-10-04T11:45:28Z</time>
      </trkpt>
      <trkpt lat="42.728" lon="0.1623">
        <ele>2723.1</ele>
        <time>2012-10-04T11:45:51Z</time>
      </trkpt>
      <trkpt lat="42.728" lon="0.1623">
        <ele>2723.1</ele>
        <time>2012-10-04T11:46:17Z</time>
      </trkpt>
      <trkpt lat="42.728" lon="0.1623">
        <ele>2723.1</ele>
        <time>2012-10-04T11:46:41Z</time>
      </trkpt>
      <trkpt lat="42.728" lon="0.1623">
        <ele>2723.6</ele>
        <time>2012-10-04T11:47:03Z</time>
      </trkpt>
      <trkpt lat="42.728" lon="0.1623">
        <ele>2723.6</ele>
        <time>2012-10-04T11:47:21Z</time>
      </trkpt>
      <trkpt lat="42.728" lon="0.1623">
        <ele>2723.6</ele>
        <time>2012-10-04T11:47:45Z</time>
      </trkpt>
      <trkpt lat="42.72802" lon="0.16229">
        <ele>2723.6</ele>
        <time>2012-10-04T11:48:03Z</time>
      </trkpt>
      <trkpt lat="42.72802" lon="0.16229">
        <ele>2723.6</ele>
        <time>2012-10-04T11:48:25Z</time>
      </trkpt>
      <trkpt lat="42.72802" lon="0.16228">
        <ele>2724</ele>
        <time>2012-10-04T11:48:48Z</time>
      </trkpt>
      <trkpt lat="42.72802" lon="0.16228">
        <ele>2723.6</ele>
        <time>2012-10-04T11:49:06Z</time>
      </trkpt>
      <trkpt lat="42.72802" lon="0.16228">
        <ele>2723.6</ele>
        <time>2012-10-04T11:49:28Z</time>
      </trkpt>
      <trkpt lat="42.72802" lon="0.16228">
        <ele>2724</ele>
        <time>2012-10-04T11:49:52Z</time>
      </trkpt>
      <trkpt lat="42.72802" lon="0.16228">
        <ele>2724</ele>
        <time>2012-10-04T11:50:12Z</time>
      </trkpt>
      <trkpt lat="42.72802" lon="0.16228">
        <ele>2724</ele>
        <time>2012-10-04T11:50:31Z</time>
      </trkpt>
      <trkpt lat="42.72802" lon="0.16228">
        <ele>2723.6</ele>
        <time>2012-10-04T11:50:57Z</time>
      </trkpt>
      <trkpt lat="42.72801" lon="0.16228">
        <ele>2724</ele>
        <time>2012-10-04T11:51:18Z</time>
      </trkpt>
      <trkpt lat="42.72801" lon="0.16229">
        <ele>2724</ele>
        <time>2012-10-04T11:51:39Z</time>
      </trkpt>
      <trkpt lat="42.72801" lon="0.16229">
        <ele>2724</ele>
        <time>2012-10-04T11:52:00Z</time>
      </trkpt>
      <trkpt lat="42.728" lon="0.16229">
        <ele>2724</ele>
        <time>2012-10-04T11:52:25Z</time>
      </trkpt>
      <trkpt lat="42.72801" lon="0.16229">
        <ele>2723.6</ele>
        <time>2012-10-04T11:52:56Z</time>
      </trkpt>
      <trkpt lat="42.728" lon="0.16229">
        <ele>2724</ele>
        <time>2012-10-04T11:53:17Z</time>
      </trkpt>
      <trkpt lat="42.728" lon="0.16229">
        <ele>2724</ele>
        <time>2012-10-04T11:53:41Z</time>
      </trkpt>
      <trkpt lat="42.728" lon="0.16229">
        <ele>2724.5</ele>
        <time>2012-10-04T11:54:12Z</time>
      </trkpt>
      <trkpt lat="42.728" lon="0.16228">
        <ele>2724.5</ele>
        <time>2012-10-04T11:54:38Z</time>
      </trkpt>
      <trkpt lat="42.728" lon="0.16228">
        <ele>2724</ele>
        <time>2012-10-04T11:55:04Z</time>
      </trkpt>
      <trkpt lat="42.728" lon="0.16229">
        <ele>2724.5</ele>
        <time>2012-10-04T11:55:24Z</time>
      </trkpt>
      <trkpt lat="42.728" lon="0.16229">
        <ele>2724.5</ele>
        <time>2012-10-04T11:55:45Z</time>
      </trkpt>
      <trkpt lat="42.728" lon="0.16229">
        <ele>2724.5</ele>
        <time>2012-10-04T11:56:08Z</time>
      </trkpt>
      <trkpt lat="42.728" lon="0.16228">
        <ele>2724.5</ele>
        <time>2012-10-04T11:56:34Z</time>
      </trkpt>
      <trkpt lat="42.728" lon="0.16228">
        <ele>2724.5</ele>
        <time>2012-10-04T11:56:57Z</time>
      </trkpt>
      <trkpt lat="42.728" lon="0.16229">
        <ele>2724.5</ele>
        <time>2012-10-04T11:57:25Z</time>
      </trkpt>
      <trkpt lat="42.728" lon="0.16228">
        <ele>2724.5</ele>
        <time>2012-10-04T11:57:54Z</time>
      </trkpt>
      <trkpt lat="42.72799" lon="0.16228">
        <ele>2724.5</ele>
        <time>2012-10-04T11:58:18Z</time>
      </trkpt>
      <trkpt lat="42.72799" lon="0.16229">
        <ele>2725</ele>
        <time>2012-10-04T11:58:35Z</time>
      </trkpt>
      <trkpt lat="42.72799" lon="0.16229">
        <ele>2725</ele>
        <time>2012-10-04T11:58:55Z</time>
      </trkpt>
      <trkpt lat="42.72799" lon="0.16229">
        <ele>2724.5</ele>
        <time>2012-10-04T11:59:14Z</time>
      </trkpt>
      <trkpt lat="42.72799" lon="0.16229">
        <ele>2725</ele>
        <time>2012-10-04T11:59:37Z</time>
      </trkpt>
      <trkpt lat="42.72799" lon="0.16229">
        <ele>2725</ele>
        <time>2012-10-04T12:00:00Z</time>
      </trkpt>
      <trkpt lat="42.728" lon="0.16229">
        <ele>2724.5</ele>
        <time>2012-10-04T12:00:20Z</time>
      </trkpt>
      <trkpt lat="42.728" lon="0.16229">
        <ele>2725</ele>
        <time>2012-10-04T12:00:38Z</time>
      </trkpt>
      <trkpt lat="42.728" lon="0.16229">
        <ele>2725</ele>
        <time>2012-10-04T12:01:11Z</time>
      </trkpt>
      <trkpt lat="42.728" lon="0.16229">
        <ele>2725</ele>
        <time>2012-10-04T12:01:37Z</time>
      </trkpt>
      <trkpt lat="42.728" lon="0.16229">
        <ele>2725</ele>
        <time>2012-10-04T12:02:12Z</time>
      </trkpt>
      <trkpt lat="42.728" lon="0.16229">
        <ele>2725.5</ele>
        <time>2012-10-04T12:02:42Z</time>
      </trkpt>
      <trkpt lat="42.728" lon="0.16229">
        <ele>2725</ele>
        <time>2012-10-04T12:03:07Z</time>
      </trkpt>
      <trkpt lat="42.728" lon="0.16229">
        <ele>2725</ele>
        <time>2012-10-04T12:03:26Z</time>
      </trkpt>
      <trkpt lat="42.728" lon="0.16229">
        <ele>2725</ele>
        <time>2012-10-04T12:03:41Z</time>
      </trkpt>
      <trkpt lat="42.728" lon="0.16229">
        <ele>2725</ele>
        <time>2012-10-04T12:04:07Z</time>
      </trkpt>
      <trkpt lat="42.728" lon="0.16229">
        <ele>2725</ele>
        <time>2012-10-04T12:04:35Z</time>
      </trkpt>
      <trkpt lat="42.728" lon="0.16229">
        <ele>2725</ele>
        <time>2012-10-04T12:04:58Z</time>
      </trkpt>
      <trkpt lat="42.728" lon="0.16229">
        <ele>2725</ele>
        <time>2012-10-04T12:05:18Z</time>
      </trkpt>
      <trkpt lat="42.728" lon="0.16229">
        <ele>2725.5</ele>
        <time>2012-10-04T12:05:38Z</time>
      </trkpt>
      <trkpt lat="42.72799" lon="0.16229">
        <ele>2725.5</ele>
        <time>2012-10-04T12:06:04Z</time>
      </trkpt>
      <trkpt lat="42.728" lon="0.16229">
        <ele>2725</ele>
        <time>2012-10-04T12:06:26Z</time>
      </trkpt>
      <trkpt lat="42.728" lon="0.16229">
        <ele>2725</ele>
        <time>2012-10-04T12:06:52Z</time>
      </trkpt>
      <trkpt lat="42.72799" lon="0.16228">
        <ele>2726</ele>
        <time>2012-10-04T12:07:09Z</time>
      </trkpt>
      <trkpt lat="42.728" lon="0.16219">
        <ele>2723.6</ele>
        <time>2012-10-04T12:07:18Z</time>
      </trkpt>
      <trkpt lat="42.72799" lon="0.16216">
        <ele>2722.6</ele>
        <time>2012-10-04T12:07:22Z</time>
      </trkpt>
      <trkpt lat="42.72792" lon="0.16216">
        <ele>2720.7</ele>
        <time>2012-10-04T12:07:32Z</time>
      </trkpt>
      <trkpt lat="42.72787" lon="0.16216">
        <ele>2718.8</ele>
        <time>2012-10-04T12:07:41Z</time>
      </trkpt>
      <trkpt lat="42.72777" lon="0.16215">
        <ele>2717.3</ele>
        <time>2012-10-04T12:07:48Z</time>
      </trkpt>
      <trkpt lat="42.72773" lon="0.16215">
        <ele>2716.3</ele>
        <time>2012-10-04T12:07:55Z</time>
      </trkpt>
      <trkpt lat="42.72768" lon="0.16215">
        <ele>2715.9</ele>
        <time>2012-10-04T12:08:02Z</time>
      </trkpt>
      <trkpt lat="42.72762" lon="0.16214">
        <ele>2714.4</ele>
        <time>2012-10-04T12:08:06Z</time>
      </trkpt>
      <trkpt lat="42.72756" lon="0.16212">
        <ele>2712</ele>
        <time>2012-10-04T12:08:09Z</time>
      </trkpt>
      <trkpt lat="42.72752" lon="0.16212">
        <ele>2711.5</ele>
        <time>2012-10-04T12:08:11Z</time>
      </trkpt>
      <trkpt lat="42.72741" lon="0.16211">
        <ele>2711.5</ele>
        <time>2012-10-04T12:08:17Z</time>
      </trkpt>
      <trkpt lat="42.72733" lon="0.16211">
        <ele>2710.1</ele>
        <time>2012-10-04T12:08:22Z</time>
      </trkpt>
      <trkpt lat="42.72731" lon="0.16211">
        <ele>2710.1</ele>
        <time>2012-10-04T12:08:23Z</time>
      </trkpt>
      <trkpt lat="42.72714" lon="0.16208">
        <ele>2707.7</ele>
        <time>2012-10-04T12:08:29Z</time>
      </trkpt>
      <trkpt lat="42.72701" lon="0.16205">
        <ele>2706.7</ele>
        <time>2012-10-04T12:08:33Z</time>
      </trkpt>
      <trkpt lat="42.72687" lon="0.16207">
        <ele>2703.9</ele>
        <time>2012-10-04T12:08:38Z</time>
      </trkpt>
      <trkpt lat="42.72679" lon="0.16213">
        <ele>2702.4</ele>
        <time>2012-10-04T12:08:41Z</time>
      </trkpt>
      <trkpt lat="42.72675" lon="0.16215">
        <ele>2701.9</ele>
        <time>2012-10-04T12:08:43Z</time>
      </trkpt>
      <trkpt lat="42.72669" lon="0.16209">
        <ele>2699</ele>
        <time>2012-10-04T12:08:49Z</time>
      </trkpt>
      <trkpt lat="42.72668" lon="0.16205">
        <ele>2698.1</ele>
        <time>2012-10-04T12:08:52Z</time>
      </trkpt>
      <trkpt lat="42.7266" lon="0.16209">
        <ele>2693.8</ele>
        <time>2012-10-04T12:08:58Z</time>
      </trkpt>
      <trkpt lat="42.7265" lon="0.16209">
        <ele>2689.9</ele>
        <time>2012-10-04T12:09:02Z</time>
      </trkpt>
      <trkpt lat="42.7264" lon="0.16205">
        <ele>2686.5</ele>
        <time>2012-10-04T12:09:06Z</time>
      </trkpt>
      <trkpt lat="42.72636" lon="0.16204">
        <ele>2686.1</ele>
        <time>2012-10-04T12:09:08Z</time>
      </trkpt>
      <trkpt lat="42.72628" lon="0.16207">
        <ele>2684.6</ele>
        <time>2012-10-04T12:09:11Z</time>
      </trkpt>
      <trkpt lat="42.72615" lon="0.16213">
        <ele>2682.7</ele>
        <time>2012-10-04T12:09:16Z</time>
      </trkpt>
      <trkpt lat="42.72607" lon="0.16216">
        <ele>2680.3</ele>
        <time>2012-10-04T12:09:19Z</time>
      </trkpt>
      <trkpt lat="42.72605" lon="0.16219">
        <ele>2679.8</ele>
        <time>2012-10-04T12:09:24Z</time>
      </trkpt>
      <trkpt lat="42.72605" lon="0.1622">
        <ele>2679.8</ele>
        <time>2012-10-04T12:09:39Z</time>
      </trkpt>
      <trkpt lat="42.72605" lon="0.16219">
        <ele>2679.8</ele>
        <time>2012-10-04T12:09:45Z</time>
      </trkpt>
      <trkpt lat="42.72605" lon="0.16222">
        <ele>2679.3</ele>
        <time>2012-10-04T12:09:49Z</time>
      </trkpt>
      <trkpt lat="42.72604" lon="0.16221">
        <ele>2679.8</ele>
        <time>2012-10-04T12:10:09Z</time>
      </trkpt>
      <trkpt lat="42.72603" lon="0.16221">
        <ele>2679.3</ele>
        <time>2012-10-04T12:10:14Z</time>
      </trkpt>
      <trkpt lat="42.72589" lon="0.1623">
        <ele>2676</ele>
        <time>2012-10-04T12:10:19Z</time>
      </trkpt>
      <trkpt lat="42.7258" lon="0.16234">
        <ele>2674</ele>
        <time>2012-10-04T12:10:22Z</time>
      </trkpt>
      <trkpt lat="42.72579" lon="0.16234">
        <ele>2675</ele>
        <time>2012-10-04T12:10:26Z</time>
      </trkpt>
      <trkpt lat="42.72581" lon="0.16233">
        <ele>2674.5</ele>
        <time>2012-10-04T12:10:40Z</time>
      </trkpt>
      <trkpt lat="42.72581" lon="0.16233">
        <ele>2674.5</ele>
        <time>2012-10-04T12:10:42Z</time>
      </trkpt>
      <trkpt lat="42.72582" lon="0.16229">
        <ele>2674</ele>
        <time>2012-10-04T12:10:45Z</time>
      </trkpt>
      <trkpt lat="42.72577" lon="0.16223">
        <ele>2671.2</ele>
        <time>2012-10-04T12:10:50Z</time>
      </trkpt>
      <trkpt lat="42.72568" lon="0.16226">
        <ele>2667.3</ele>
        <time>2012-10-04T12:10:53Z</time>
      </trkpt>
      <trkpt lat="42.72543" lon="0.16233">
        <ele>2662.5</ele>
        <time>2012-10-04T12:10:58Z</time>
      </trkpt>
      <trkpt lat="42.72537" lon="0.16233">
        <ele>2661.6</ele>
        <time>2012-10-04T12:10:59Z</time>
      </trkpt>
      <trkpt lat="42.72525" lon="0.16234">
        <ele>2658.2</ele>
        <time>2012-10-04T12:11:01Z</time>
      </trkpt>
      <trkpt lat="42.72508" lon="0.16237">
        <ele>2655.8</ele>
        <time>2012-10-04T12:11:04Z</time>
      </trkpt>
      <trkpt lat="42.72499" lon="0.16238">
        <ele>2654.8</ele>
        <time>2012-10-04T12:11:06Z</time>
      </trkpt>
      <trkpt lat="42.72494" lon="0.16239">
        <ele>2655.3</ele>
        <time>2012-10-04T12:11:10Z</time>
      </trkpt>
      <trkpt lat="42.72494" lon="0.16239">
        <ele>2655.3</ele>
        <time>2012-10-04T12:11:19Z</time>
      </trkpt>
      <trkpt lat="42.72495" lon="0.16239">
        <ele>2655.3</ele>
        <time>2012-10-04T12:11:35Z</time>
      </trkpt>
      <trkpt lat="42.72495" lon="0.16239">
        <ele>2654.8</ele>
        <time>2012-10-04T12:11:55Z</time>
      </trkpt>
      <trkpt lat="42.72494" lon="0.16239">
        <ele>2655.3</ele>
        <time>2012-10-04T12:12:04Z</time>
      </trkpt>
      <trkpt lat="42.72494" lon="0.16239">
        <ele>2654.8</ele>
        <time>2012-10-04T12:12:22Z</time>
      </trkpt>
      <trkpt lat="42.72493" lon="0.16239">
        <ele>2654.8</ele>
        <time>2012-10-04T12:12:40Z</time>
      </trkpt>
      <trkpt lat="42.72492" lon="0.1624">
        <ele>2655.3</ele>
        <time>2012-10-04T12:12:48Z</time>
      </trkpt>
      <trkpt lat="42.72482" lon="0.16245">
        <ele>2656.7</ele>
        <time>2012-10-04T12:12:56Z</time>
      </trkpt>
      <trkpt lat="42.7247" lon="0.16251">
        <ele>2659.1</ele>
        <time>2012-10-04T12:13:05Z</time>
      </trkpt>
      <trkpt lat="42.7246" lon="0.16254">
        <ele>2660.1</ele>
        <time>2012-10-04T12:13:12Z</time>
      </trkpt>
      <trkpt lat="42.72447" lon="0.16259">
        <ele>2661.6</ele>
        <time>2012-10-04T12:13:22Z</time>
      </trkpt>
      <trkpt lat="42.72439" lon="0.1626">
        <ele>2663</ele>
        <time>2012-10-04T12:13:29Z</time>
      </trkpt>
      <trkpt lat="42.72434" lon="0.1626">
        <ele>2663.5</ele>
        <time>2012-10-04T12:13:33Z</time>
      </trkpt>
      <trkpt lat="42.72423" lon="0.1626">
        <ele>2665.9</ele>
        <time>2012-10-04T12:13:42Z</time>
      </trkpt>
      <trkpt lat="42.72414" lon="0.16259">
        <ele>2666.8</ele>
        <time>2012-10-04T12:13:49Z</time>
      </trkpt>
      <trkpt lat="42.72402" lon="0.16256">
        <ele>2669.2</ele>
        <time>2012-10-04T12:13:58Z</time>
      </trkpt>
      <trkpt lat="42.72389" lon="0.16257">
        <ele>2671.2</ele>
        <time>2012-10-04T12:14:08Z</time>
      </trkpt>
      <trkpt lat="42.72378" lon="0.16254">
        <ele>2672.1</ele>
        <time>2012-10-04T12:14:17Z</time>
      </trkpt>
      <trkpt lat="42.72367" lon="0.16253">
        <ele>2673.1</ele>
        <time>2012-10-04T12:14:25Z</time>
      </trkpt>
      <trkpt lat="42.72354" lon="0.16257">
        <ele>2673.6</ele>
        <time>2012-10-04T12:14:34Z</time>
      </trkpt>
      <trkpt lat="42.7234" lon="0.1626">
        <ele>2673.6</ele>
        <time>2012-10-04T12:14:41Z</time>
      </trkpt>
      <trkpt lat="42.72335" lon="0.16261">
        <ele>2673.6</ele>
        <time>2012-10-04T12:14:47Z</time>
      </trkpt>
      <trkpt lat="42.72335" lon="0.1626">
        <ele>2673.6</ele>
        <time>2012-10-04T12:15:02Z</time>
      </trkpt>
      <trkpt lat="42.72324" lon="0.16254">
        <ele>2674.5</ele>
        <time>2012-10-04T12:15:10Z</time>
      </trkpt>
      <trkpt lat="42.72303" lon="0.16247">
        <ele>2673.6</ele>
        <time>2012-10-04T12:15:19Z</time>
      </trkpt>
      <trkpt lat="42.72286" lon="0.16248">
        <ele>2673.6</ele>
        <time>2012-10-04T12:15:25Z</time>
      </trkpt>
      <trkpt lat="42.72266" lon="0.1625">
        <ele>2673.1</ele>
        <time>2012-10-04T12:15:30Z</time>
      </trkpt>
      <trkpt lat="42.72257" lon="0.16252">
        <ele>2672.6</ele>
        <time>2012-10-04T12:15:32Z</time>
      </trkpt>
      <trkpt lat="42.7223" lon="0.16264">
        <ele>2672.1</ele>
        <time>2012-10-04T12:15:40Z</time>
      </trkpt>
      <trkpt lat="42.72218" lon="0.16272">
        <ele>2673.1</ele>
        <time>2012-10-04T12:15:46Z</time>
      </trkpt>
      <trkpt lat="42.72205" lon="0.1628">
        <ele>2674</ele>
        <time>2012-10-04T12:15:53Z</time>
      </trkpt>
      <trkpt lat="42.72193" lon="0.1629">
        <ele>2675.5</ele>
        <time>2012-10-04T12:16:01Z</time>
      </trkpt>
      <trkpt lat="42.72181" lon="0.16298">
        <ele>2675.5</ele>
        <time>2012-10-04T12:16:08Z</time>
      </trkpt>
      <trkpt lat="42.7217" lon="0.16312">
        <ele>2675.5</ele>
        <time>2012-10-04T12:16:15Z</time>
      </trkpt>
      <trkpt lat="42.72161" lon="0.16328">
        <ele>2676</ele>
        <time>2012-10-04T12:16:23Z</time>
      </trkpt>
      <trkpt lat="42.72154" lon="0.16339">
        <ele>2676.4</ele>
        <time>2012-10-04T12:16:30Z</time>
      </trkpt>
      <trkpt lat="42.72148" lon="0.16353">
        <ele>2677.9</ele>
        <time>2012-10-04T12:16:38Z</time>
      </trkpt>
      <trkpt lat="42.72141" lon="0.16362">
        <ele>2680.3</ele>
        <time>2012-10-04T12:16:45Z</time>
      </trkpt>
      <trkpt lat="42.72136" lon="0.16367">
        <ele>2681.2</ele>
        <time>2012-10-04T12:16:50Z</time>
      </trkpt>
      <trkpt lat="42.72127" lon="0.16376">
        <ele>2683.2</ele>
        <time>2012-10-04T12:16:59Z</time>
      </trkpt>
      <trkpt lat="42.72121" lon="0.16386">
        <ele>2683.7</ele>
        <time>2012-10-04T12:17:07Z</time>
      </trkpt>
      <trkpt lat="42.7211" lon="0.164">
        <ele>2684.6</ele>
        <time>2012-10-04T12:17:17Z</time>
      </trkpt>
      <trkpt lat="42.72107" lon="0.1641">
        <ele>2685.6</ele>
        <time>2012-10-04T12:17:23Z</time>
      </trkpt>
      <trkpt lat="42.72107" lon="0.16412">
        <ele>2685.6</ele>
        <time>2012-10-04T12:17:24Z</time>
      </trkpt>
      <trkpt lat="42.72105" lon="0.16421">
        <ele>2686.5</ele>
        <time>2012-10-04T12:17:31Z</time>
      </trkpt>
      <trkpt lat="42.72097" lon="0.16434">
        <ele>2688.9</ele>
        <time>2012-10-04T12:17:41Z</time>
      </trkpt>
      <trkpt lat="42.72087" lon="0.16438">
        <ele>2690.4</ele>
        <time>2012-10-04T12:17:50Z</time>
      </trkpt>
      <trkpt lat="42.72078" lon="0.16445">
        <ele>2691.8</ele>
        <time>2012-10-04T12:17:58Z</time>
      </trkpt>
      <trkpt lat="42.72076" lon="0.16447">
        <ele>2692.8</ele>
        <time>2012-10-04T12:18:00Z</time>
      </trkpt>
      <trkpt lat="42.72074" lon="0.16449">
        <ele>2692.8</ele>
        <time>2012-10-04T12:18:06Z</time>
      </trkpt>
      <trkpt lat="42.72075" lon="0.16449">
        <ele>2692.8</ele>
        <time>2012-10-04T12:18:17Z</time>
      </trkpt>
      <trkpt lat="42.72074" lon="0.16449">
        <ele>2693.3</ele>
        <time>2012-10-04T12:18:29Z</time>
      </trkpt>
      <trkpt lat="42.72065" lon="0.16453">
        <ele>2693.8</ele>
        <time>2012-10-04T12:18:38Z</time>
      </trkpt>
      <trkpt lat="42.72057" lon="0.16458">
        <ele>2695.2</ele>
        <time>2012-10-04T12:18:47Z</time>
      </trkpt>
      <trkpt lat="42.72052" lon="0.16463">
        <ele>2696.1</ele>
        <time>2012-10-04T12:18:56Z</time>
      </trkpt>
      <trkpt lat="42.72052" lon="0.16461">
        <ele>2696.1</ele>
        <time>2012-10-04T12:19:10Z</time>
      </trkpt>
      <trkpt lat="42.72047" lon="0.16466">
        <ele>2696.6</ele>
        <time>2012-10-04T12:19:19Z</time>
      </trkpt>
      <trkpt lat="42.72039" lon="0.16475">
        <ele>2698.1</ele>
        <time>2012-10-04T12:19:26Z</time>
      </trkpt>
      <trkpt lat="42.72032" lon="0.16486">
        <ele>2700</ele>
        <time>2012-10-04T12:19:35Z</time>
      </trkpt>
      <trkpt lat="42.72031" lon="0.16487">
        <ele>2700</ele>
        <time>2012-10-04T12:19:36Z</time>
      </trkpt>
      <trkpt lat="42.72027" lon="0.16495">
        <ele>2701.9</ele>
        <time>2012-10-04T12:19:41Z</time>
      </trkpt>
      <trkpt lat="42.72025" lon="0.16501">
        <ele>2702.4</ele>
        <time>2012-10-04T12:19:45Z</time>
      </trkpt>
      <trkpt lat="42.72025" lon="0.16504">
        <ele>2702.9</ele>
        <time>2012-10-04T12:19:47Z</time>
      </trkpt>
      <trkpt lat="42.7203" lon="0.1651">
        <ele>2704.3</ele>
        <time>2012-10-04T12:19:54Z</time>
      </trkpt>
      <trkpt lat="42.7203" lon="0.16511">
        <ele>2704.3</ele>
        <time>2012-10-04T12:19:56Z</time>
      </trkpt>
      <trkpt lat="42.72027" lon="0.1652">
        <ele>2706.7</ele>
        <time>2012-10-04T12:20:05Z</time>
      </trkpt>
      <trkpt lat="42.72029" lon="0.1653">
        <ele>2708.2</ele>
        <time>2012-10-04T12:20:14Z</time>
      </trkpt>
      <trkpt lat="42.72026" lon="0.16539">
        <ele>2710.1</ele>
        <time>2012-10-04T12:20:24Z</time>
      </trkpt>
      <trkpt lat="42.72021" lon="0.16547">
        <ele>2710.6</ele>
        <time>2012-10-04T12:20:34Z</time>
      </trkpt>
      <trkpt lat="42.72016" lon="0.16554">
        <ele>2712</ele>
        <time>2012-10-04T12:20:43Z</time>
      </trkpt>
      <trkpt lat="42.7201" lon="0.16563">
        <ele>2713</ele>
        <time>2012-10-04T12:20:53Z</time>
      </trkpt>
      <trkpt lat="42.72006" lon="0.16571">
        <ele>2714.9</ele>
        <time>2012-10-04T12:21:01Z</time>
      </trkpt>
      <trkpt lat="42.72003" lon="0.1658">
        <ele>2716.3</ele>
        <time>2012-10-04T12:21:10Z</time>
      </trkpt>
      <trkpt lat="42.72001" lon="0.16589">
        <ele>2717.8</ele>
        <time>2012-10-04T12:21:18Z</time>
      </trkpt>
      <trkpt lat="42.72002" lon="0.16598">
        <ele>2717.8</ele>
        <time>2012-10-04T12:21:26Z</time>
      </trkpt>
      <trkpt lat="42.72006" lon="0.16598">
        <ele>2718.3</ele>
        <time>2012-10-04T12:21:30Z</time>
      </trkpt>
      <trkpt lat="42.72011" lon="0.16603">
        <ele>2719.2</ele>
        <time>2012-10-04T12:21:38Z</time>
      </trkpt>
      <trkpt lat="42.7201" lon="0.16606">
        <ele>2719.2</ele>
        <time>2012-10-04T12:21:44Z</time>
      </trkpt>
      <trkpt lat="42.7201" lon="0.16605">
        <ele>2719.2</ele>
        <time>2012-10-04T12:21:57Z</time>
      </trkpt>
      <trkpt lat="42.72011" lon="0.16604">
        <ele>2719.7</ele>
        <time>2012-10-04T12:21:59Z</time>
      </trkpt>
      <trkpt lat="42.72022" lon="0.16601">
        <ele>2720.7</ele>
        <time>2012-10-04T12:22:09Z</time>
      </trkpt>
      <trkpt lat="42.72027" lon="0.16608">
        <ele>2722.6</ele>
        <time>2012-10-04T12:22:17Z</time>
      </trkpt>
      <trkpt lat="42.72021" lon="0.1662">
        <ele>2722.6</ele>
        <time>2012-10-04T12:22:27Z</time>
      </trkpt>
      <trkpt lat="42.7202" lon="0.16623">
        <ele>2723.6</ele>
        <time>2012-10-04T12:22:30Z</time>
      </trkpt>
      <trkpt lat="42.72024" lon="0.1663">
        <ele>2726</ele>
        <time>2012-10-04T12:22:37Z</time>
      </trkpt>
      <trkpt lat="42.72025" lon="0.16632">
        <ele>2725.5</ele>
        <time>2012-10-04T12:22:39Z</time>
      </trkpt>
      <trkpt lat="42.72017" lon="0.16644">
        <ele>2726.4</ele>
        <time>2012-10-04T12:22:51Z</time>
      </trkpt>
      <trkpt lat="42.72013" lon="0.16653">
        <ele>2728.4</ele>
        <time>2012-10-04T12:23:00Z</time>
      </trkpt>
      <trkpt lat="42.7201" lon="0.16662">
        <ele>2729.3</ele>
        <time>2012-10-04T12:23:08Z</time>
      </trkpt>
      <trkpt lat="42.72009" lon="0.16664">
        <ele>2729.8</ele>
        <time>2012-10-04T12:23:10Z</time>
      </trkpt>
      <trkpt lat="42.72007" lon="0.16679">
        <ele>2731.2</ele>
        <time>2012-10-04T12:23:21Z</time>
      </trkpt>
      <trkpt lat="42.72005" lon="0.16688">
        <ele>2733.2</ele>
        <time>2012-10-04T12:23:29Z</time>
      </trkpt>
      <trkpt lat="42.72004" lon="0.16698">
        <ele>2734.6</ele>
        <time>2012-10-04T12:23:37Z</time>
      </trkpt>
      <trkpt lat="42.72003" lon="0.16707">
        <ele>2735.6</ele>
        <time>2012-10-04T12:23:45Z</time>
      </trkpt>
      <trkpt lat="42.72002" lon="0.16716">
        <ele>2736.1</ele>
        <time>2012-10-04T12:23:52Z</time>
      </trkpt>
      <trkpt lat="42.72005" lon="0.16725">
        <ele>2737.5</ele>
        <time>2012-10-04T12:24:01Z</time>
      </trkpt>
      <trkpt lat="42.72011" lon="0.16726">
        <ele>2738.4</ele>
        <time>2012-10-04T12:24:09Z</time>
      </trkpt>
      <trkpt lat="42.72017" lon="0.16722">
        <ele>2739.4</ele>
        <time>2012-10-04T12:24:17Z</time>
      </trkpt>
      <trkpt lat="42.72023" lon="0.16724">
        <ele>2741.3</ele>
        <time>2012-10-04T12:24:25Z</time>
      </trkpt>
      <trkpt lat="42.72026" lon="0.1673">
        <ele>2742.8</ele>
        <time>2012-10-04T12:24:33Z</time>
      </trkpt>
      <trkpt lat="42.72028" lon="0.16735">
        <ele>2743.3</ele>
        <time>2012-10-04T12:24:42Z</time>
      </trkpt>
      <trkpt lat="42.72031" lon="0.16737">
        <ele>2742.3</ele>
        <time>2012-10-04T12:24:49Z</time>
      </trkpt>
      <trkpt lat="42.72031" lon="0.16738">
        <ele>2742.8</ele>
        <time>2012-10-04T12:25:06Z</time>
      </trkpt>
      <trkpt lat="42.72031" lon="0.16738">
        <ele>2742.8</ele>
        <time>2012-10-04T12:25:26Z</time>
      </trkpt>
      <trkpt lat="42.72031" lon="0.16738">
        <ele>2742.8</ele>
        <time>2012-10-04T12:25:54Z</time>
      </trkpt>
      <trkpt lat="42.72031" lon="0.16738">
        <ele>2742.8</ele>
        <time>2012-10-04T12:26:14Z</time>
      </trkpt>
      <trkpt lat="42.72031" lon="0.16735">
        <ele>2743.7</ele>
        <time>2012-10-04T12:26:25Z</time>
      </trkpt>
      <trkpt lat="42.7203" lon="0.16737">
        <ele>2743.3</ele>
        <time>2012-10-04T12:26:28Z</time>
      </trkpt>
      <trkpt lat="42.72016" lon="0.16733">
        <ele>2739.4</ele>
        <time>2012-10-04T12:26:34Z</time>
      </trkpt>
      <trkpt lat="42.71991" lon="0.16732">
        <ele>2735.1</ele>
        <time>2012-10-04T12:26:40Z</time>
      </trkpt>
      <trkpt lat="42.71986" lon="0.16732">
        <ele>2734.1</ele>
        <time>2012-10-04T12:26:41Z</time>
      </trkpt>
      <trkpt lat="42.71975" lon="0.16738">
        <ele>2731.7</ele>
        <time>2012-10-04T12:26:44Z</time>
      </trkpt>
      <trkpt lat="42.71966" lon="0.16744">
        <ele>2729.3</ele>
        <time>2012-10-04T12:26:48Z</time>
      </trkpt>
      <trkpt lat="42.71958" lon="0.16753">
        <ele>2729.3</ele>
        <time>2012-10-04T12:26:54Z</time>
      </trkpt>
      <trkpt lat="42.71949" lon="0.16762">
        <ele>2727.9</ele>
        <time>2012-10-04T12:26:57Z</time>
      </trkpt>
      <trkpt lat="42.71926" lon="0.16781">
        <ele>2723.6</ele>
        <time>2012-10-04T12:27:02Z</time>
      </trkpt>
      <trkpt lat="42.71923" lon="0.16785">
        <ele>2723.6</ele>
        <time>2012-10-04T12:27:03Z</time>
      </trkpt>
      <trkpt lat="42.71917" lon="0.16797">
        <ele>2723.6</ele>
        <time>2012-10-04T12:27:07Z</time>
      </trkpt>
      <trkpt lat="42.71912" lon="0.16805">
        <ele>2723.6</ele>
        <time>2012-10-04T12:27:11Z</time>
      </trkpt>
      <trkpt lat="42.71902" lon="0.16824">
        <ele>2723.1</ele>
        <time>2012-10-04T12:27:17Z</time>
      </trkpt>
      <trkpt lat="42.71899" lon="0.1683">
        <ele>2723.1</ele>
        <time>2012-10-04T12:27:22Z</time>
      </trkpt>
      <trkpt lat="42.71898" lon="0.16831">
        <ele>2723.1</ele>
        <time>2012-10-04T12:27:28Z</time>
      </trkpt>
      <trkpt lat="42.71898" lon="0.16831">
        <ele>2723.1</ele>
        <time>2012-10-04T12:27:32Z</time>
      </trkpt>
      <trkpt lat="42.71893" lon="0.16839">
        <ele>2724.5</ele>
        <time>2012-10-04T12:27:42Z</time>
      </trkpt>
      <trkpt lat="42.71889" lon="0.16849">
        <ele>2726</ele>
        <time>2012-10-04T12:27:52Z</time>
      </trkpt>
      <trkpt lat="42.71886" lon="0.16857">
        <ele>2727.9</ele>
        <time>2012-10-04T12:28:02Z</time>
      </trkpt>
      <trkpt lat="42.71882" lon="0.16867">
        <ele>2729.3</ele>
        <time>2012-10-04T12:28:13Z</time>
      </trkpt>
      <trkpt lat="42.71879" lon="0.16874">
        <ele>2731.7</ele>
        <time>2012-10-04T12:28:25Z</time>
      </trkpt>
      <trkpt lat="42.71877" lon="0.16881">
        <ele>2733.6</ele>
        <time>2012-10-04T12:28:36Z</time>
      </trkpt>
      <trkpt lat="42.71875" lon="0.16888">
        <ele>2735.6</ele>
        <time>2012-10-04T12:28:45Z</time>
      </trkpt>
      <trkpt lat="42.71876" lon="0.16892">
        <ele>2737</ele>
        <time>2012-10-04T12:28:55Z</time>
      </trkpt>
      <trkpt lat="42.71874" lon="0.16897">
        <ele>2738.4</ele>
        <time>2012-10-04T12:29:04Z</time>
      </trkpt>
      <trkpt lat="42.71873" lon="0.16901">
        <ele>2739.9</ele>
        <time>2012-10-04T12:29:10Z</time>
      </trkpt>
      <trkpt lat="42.71872" lon="0.16904">
        <ele>2740.4</ele>
        <time>2012-10-04T12:29:17Z</time>
      </trkpt>
      <trkpt lat="42.7187" lon="0.16908">
        <ele>2741.8</ele>
        <time>2012-10-04T12:29:24Z</time>
      </trkpt>
      <trkpt lat="42.71869" lon="0.1691">
        <ele>2742.8</ele>
        <time>2012-10-04T12:29:33Z</time>
      </trkpt>
      <trkpt lat="42.71869" lon="0.16911">
        <ele>2742.3</ele>
        <time>2012-10-04T12:29:34Z</time>
      </trkpt>
      <trkpt lat="42.71866" lon="0.16915">
        <ele>2743.3</ele>
        <time>2012-10-04T12:29:41Z</time>
      </trkpt>
      <trkpt lat="42.71863" lon="0.16922">
        <ele>2745.2</ele>
        <time>2012-10-04T12:29:49Z</time>
      </trkpt>
      <trkpt lat="42.71858" lon="0.16929">
        <ele>2747.1</ele>
        <time>2012-10-04T12:30:00Z</time>
      </trkpt>
      <trkpt lat="42.71854" lon="0.16933">
        <ele>2748.1</ele>
        <time>2012-10-04T12:30:08Z</time>
      </trkpt>
      <trkpt lat="42.7185" lon="0.16941">
        <ele>2750</ele>
        <time>2012-10-04T12:30:18Z</time>
      </trkpt>
      <trkpt lat="42.71846" lon="0.16945">
        <ele>2750.5</ele>
        <time>2012-10-04T12:30:26Z</time>
      </trkpt>
      <trkpt lat="42.71843" lon="0.16948">
        <ele>2751.9</ele>
        <time>2012-10-04T12:30:34Z</time>
      </trkpt>
      <trkpt lat="42.71843" lon="0.16948">
        <ele>2751.4</ele>
        <time>2012-10-04T12:30:48Z</time>
      </trkpt>
      <trkpt lat="42.71835" lon="0.16955">
        <ele>2752.4</ele>
        <time>2012-10-04T12:30:57Z</time>
      </trkpt>
      <trkpt lat="42.71828" lon="0.16961">
        <ele>2753.4</ele>
        <time>2012-10-04T12:31:05Z</time>
      </trkpt>
      <trkpt lat="42.71817" lon="0.16971">
        <ele>2755.3</ele>
        <time>2012-10-04T12:31:17Z</time>
      </trkpt>
      <trkpt lat="42.71813" lon="0.16976">
        <ele>2756.7</ele>
        <time>2012-10-04T12:31:26Z</time>
      </trkpt>
      <trkpt lat="42.71809" lon="0.1698">
        <ele>2758.2</ele>
        <time>2012-10-04T12:31:33Z</time>
      </trkpt>
      <trkpt lat="42.71802" lon="0.16989">
        <ele>2759.1</ele>
        <time>2012-10-04T12:31:41Z</time>
      </trkpt>
      <trkpt lat="42.71795" lon="0.17002">
        <ele>2761.5</ele>
        <time>2012-10-04T12:31:50Z</time>
      </trkpt>
      <trkpt lat="42.71792" lon="0.1701">
        <ele>2763.4</ele>
        <time>2012-10-04T12:31:54Z</time>
      </trkpt>
      <trkpt lat="42.71786" lon="0.17019">
        <ele>2764.9</ele>
        <time>2012-10-04T12:32:01Z</time>
      </trkpt>
      <trkpt lat="42.71784" lon="0.17021">
        <ele>2764.9</ele>
        <time>2012-10-04T12:32:03Z</time>
      </trkpt>
      <trkpt lat="42.71781" lon="0.17026">
        <ele>2764.9</ele>
        <time>2012-10-04T12:32:06Z</time>
      </trkpt>
      <trkpt lat="42.71771" lon="0.1704">
        <ele>2765.4</ele>
        <time>2012-10-04T12:32:16Z</time>
      </trkpt>
      <trkpt lat="42.71767" lon="0.17045">
        <ele>2765.4</ele>
        <time>2012-10-04T12:32:23Z</time>
      </trkpt>
      <trkpt lat="42.71767" lon="0.17047">
        <ele>2764.9</ele>
        <time>2012-10-04T12:32:42Z</time>
      </trkpt>
      <trkpt lat="42.71768" lon="0.17048">
        <ele>2764.4</ele>
        <time>2012-10-04T12:33:05Z</time>
      </trkpt>
      <trkpt lat="42.71768" lon="0.17047">
        <ele>2764.9</ele>
        <time>2012-10-04T12:33:25Z</time>
      </trkpt>
      <trkpt lat="42.71767" lon="0.17048">
        <ele>2764.4</ele>
        <time>2012-10-04T12:33:47Z</time>
      </trkpt>
      <trkpt lat="42.71766" lon="0.17048">
        <ele>2764.4</ele>
        <time>2012-10-04T12:34:08Z</time>
      </trkpt>
      <trkpt lat="42.71766" lon="0.17049">
        <ele>2764.9</ele>
        <time>2012-10-04T12:34:25Z</time>
      </trkpt>
      <trkpt lat="42.71765" lon="0.17053">
        <ele>2764.9</ele>
        <time>2012-10-04T12:34:33Z</time>
      </trkpt>
      <trkpt lat="42.71766" lon="0.17049">
        <ele>2764.9</ele>
        <time>2012-10-04T12:34:52Z</time>
      </trkpt>
      <trkpt lat="42.71767" lon="0.17049">
        <ele>2764.9</ele>
        <time>2012-10-04T12:35:13Z</time>
      </trkpt>
      <trkpt lat="42.71766" lon="0.17046">
        <ele>2764.9</ele>
        <time>2012-10-04T12:35:31Z</time>
      </trkpt>
      <trkpt lat="42.71765" lon="0.17045">
        <ele>2764.4</ele>
        <time>2012-10-04T12:35:49Z</time>
      </trkpt>
      <trkpt lat="42.71766" lon="0.17045">
        <ele>2764.9</ele>
        <time>2012-10-04T12:36:07Z</time>
      </trkpt>
      <trkpt lat="42.71766" lon="0.17046">
        <ele>2764.9</ele>
        <time>2012-10-04T12:36:31Z</time>
      </trkpt>
      <trkpt lat="42.71766" lon="0.17046">
        <ele>2764.9</ele>
        <time>2012-10-04T12:36:52Z</time>
      </trkpt>
      <trkpt lat="42.71766" lon="0.17046">
        <ele>2764.9</ele>
        <time>2012-10-04T12:37:14Z</time>
      </trkpt>
      <trkpt lat="42.71766" lon="0.17046">
        <ele>2764.9</ele>
        <time>2012-10-04T12:37:37Z</time>
      </trkpt>
      <trkpt lat="42.71766" lon="0.17046">
        <ele>2764.4</ele>
        <time>2012-10-04T12:37:57Z</time>
      </trkpt>
      <trkpt lat="42.71766" lon="0.17046">
        <ele>2765.4</ele>
        <time>2012-10-04T12:38:14Z</time>
      </trkpt>
      <trkpt lat="42.71766" lon="0.17046">
        <ele>2764.9</ele>
        <time>2012-10-04T12:38:40Z</time>
      </trkpt>
      <trkpt lat="42.71766" lon="0.17046">
        <ele>2764.9</ele>
        <time>2012-10-04T12:38:59Z</time>
      </trkpt>
      <trkpt lat="42.71766" lon="0.17046">
        <ele>2765.4</ele>
        <time>2012-10-04T12:39:19Z</time>
      </trkpt>
      <trkpt lat="42.71766" lon="0.17046">
        <ele>2765.4</ele>
        <time>2012-10-04T12:39:36Z</time>
      </trkpt>
      <trkpt lat="42.71766" lon="0.17048">
        <ele>2764.9</ele>
        <time>2012-10-04T12:39:48Z</time>
      </trkpt>
      <trkpt lat="42.71766" lon="0.17044">
        <ele>2765.9</ele>
        <time>2012-10-04T12:39:54Z</time>
      </trkpt>
      <trkpt lat="42.71767" lon="0.17042">
        <ele>2766.3</ele>
        <time>2012-10-04T12:40:01Z</time>
      </trkpt>
      <trkpt lat="42.71767" lon="0.17042">
        <ele>2765.9</ele>
        <time>2012-10-04T12:40:14Z</time>
      </trkpt>
      <trkpt lat="42.71766" lon="0.17042">
        <ele>2765.9</ele>
        <time>2012-10-04T12:40:28Z</time>
      </trkpt>
      <trkpt lat="42.71767" lon="0.17041">
        <ele>2765.9</ele>
        <time>2012-10-04T12:40:41Z</time>
      </trkpt>
      <trkpt lat="42.71767" lon="0.17042">
        <ele>2765.9</ele>
        <time>2012-10-04T12:40:58Z</time>
      </trkpt>
      <trkpt lat="42.71766" lon="0.17042">
        <ele>2766.3</ele>
        <time>2012-10-04T12:41:14Z</time>
      </trkpt>
      <trkpt lat="42.71766" lon="0.17042">
        <ele>2766.3</ele>
        <time>2012-10-04T12:41:24Z</time>
      </trkpt>
      <trkpt lat="42.71767" lon="0.17042">
        <ele>2766.3</ele>
        <time>2012-10-04T12:41:28Z</time>
      </trkpt>
      <trkpt lat="42.71774" lon="0.17037">
        <ele>2766.3</ele>
        <time>2012-10-04T12:41:34Z</time>
      </trkpt>
      <trkpt lat="42.71782" lon="0.17022">
        <ele>2764.9</ele>
        <time>2012-10-04T12:41:41Z</time>
      </trkpt>
      <trkpt lat="42.71785" lon="0.1701">
        <ele>2763</ele>
        <time>2012-10-04T12:41:48Z</time>
      </trkpt>
      <trkpt lat="42.71787" lon="0.17007">
        <ele>2762.5</ele>
        <time>2012-10-04T12:41:53Z</time>
      </trkpt>
      <trkpt lat="42.71787" lon="0.17008">
        <ele>2762.5</ele>
        <time>2012-10-04T12:42:04Z</time>
      </trkpt>
      <trkpt lat="42.71795" lon="0.17001">
        <ele>2762</ele>
        <time>2012-10-04T12:42:12Z</time>
      </trkpt>
      <trkpt lat="42.71796" lon="0.17">
        <ele>2762</ele>
        <time>2012-10-04T12:42:19Z</time>
      </trkpt>
      <trkpt lat="42.71803" lon="0.16989">
        <ele>2760.1</ele>
        <time>2012-10-04T12:42:25Z</time>
      </trkpt>
      <trkpt lat="42.71813" lon="0.16976">
        <ele>2757.7</ele>
        <time>2012-10-04T12:42:29Z</time>
      </trkpt>
      <trkpt lat="42.71828" lon="0.16961">
        <ele>2754.8</ele>
        <time>2012-10-04T12:42:33Z</time>
      </trkpt>
      <trkpt lat="42.71837" lon="0.16953">
        <ele>2752.9</ele>
        <time>2012-10-04T12:42:35Z</time>
      </trkpt>
      <trkpt lat="42.71855" lon="0.16934">
        <ele>2748.6</ele>
        <time>2012-10-04T12:42:39Z</time>
      </trkpt>
      <trkpt lat="42.7187" lon="0.16912">
        <ele>2743.7</ele>
        <time>2012-10-04T12:42:44Z</time>
      </trkpt>
      <trkpt lat="42.71874" lon="0.169">
        <ele>2740.4</ele>
        <time>2012-10-04T12:42:47Z</time>
      </trkpt>
      <trkpt lat="42.71876" lon="0.16896">
        <ele>2738.9</ele>
        <time>2012-10-04T12:42:48Z</time>
      </trkpt>
      <trkpt lat="42.71879" lon="0.16878">
        <ele>2734.6</ele>
        <time>2012-10-04T12:42:53Z</time>
      </trkpt>
      <trkpt lat="42.71883" lon="0.16866">
        <ele>2731.2</ele>
        <time>2012-10-04T12:42:55Z</time>
      </trkpt>
      <trkpt lat="42.71887" lon="0.16857">
        <ele>2728.4</ele>
        <time>2012-10-04T12:42:56Z</time>
      </trkpt>
      <trkpt lat="42.71905" lon="0.16817">
        <ele>2722.6</ele>
        <time>2012-10-04T12:43:00Z</time>
      </trkpt>
      <trkpt lat="42.71919" lon="0.16792">
        <ele>2725</ele>
        <time>2012-10-04T12:43:03Z</time>
      </trkpt>
      <trkpt lat="42.71932" lon="0.16773">
        <ele>2726</ele>
        <time>2012-10-04T12:43:07Z</time>
      </trkpt>
      <trkpt lat="42.71935" lon="0.16771">
        <ele>2726.9</ele>
        <time>2012-10-04T12:43:09Z</time>
      </trkpt>
      <trkpt lat="42.71935" lon="0.16769">
        <ele>2726.9</ele>
        <time>2012-10-04T12:43:14Z</time>
      </trkpt>
      <trkpt lat="42.71936" lon="0.16771">
        <ele>2726</ele>
        <time>2012-10-04T12:43:23Z</time>
      </trkpt>
      <trkpt lat="42.71936" lon="0.1677">
        <ele>2726</ele>
        <time>2012-10-04T12:43:45Z</time>
      </trkpt>
      <trkpt lat="42.71936" lon="0.1677">
        <ele>2725.5</ele>
        <time>2012-10-04T12:44:12Z</time>
      </trkpt>
      <trkpt lat="42.71937" lon="0.1677">
        <ele>2726.4</ele>
        <time>2012-10-04T12:44:21Z</time>
      </trkpt>
      <trkpt lat="42.71945" lon="0.16766">
        <ele>2727.9</ele>
        <time>2012-10-04T12:44:29Z</time>
      </trkpt>
      <trkpt lat="42.71953" lon="0.16759">
        <ele>2729.8</ele>
        <time>2012-10-04T12:44:38Z</time>
      </trkpt>
      <trkpt lat="42.71954" lon="0.16759">
        <ele>2729.8</ele>
        <time>2012-10-04T12:44:43Z</time>
      </trkpt>
      <trkpt lat="42.71957" lon="0.16755">
        <ele>2730.3</ele>
        <time>2012-10-04T12:44:54Z</time>
      </trkpt>
      <trkpt lat="42.71965" lon="0.16748">
        <ele>2731.2</ele>
        <time>2012-10-04T12:45:01Z</time>
      </trkpt>
      <trkpt lat="42.71968" lon="0.16733">
        <ele>2730.3</ele>
        <time>2012-10-04T12:45:07Z</time>
      </trkpt>
      <trkpt lat="42.71978" lon="0.1671">
        <ele>2729.8</ele>
        <time>2012-10-04T12:45:13Z</time>
      </trkpt>
      <trkpt lat="42.7199" lon="0.16683">
        <ele>2729.3</ele>
        <time>2012-10-04T12:45:20Z</time>
      </trkpt>
      <trkpt lat="42.71994" lon="0.16668">
        <ele>2728.4</ele>
        <time>2012-10-04T12:45:23Z</time>
      </trkpt>
      <trkpt lat="42.72001" lon="0.16651">
        <ele>2726.9</ele>
        <time>2012-10-04T12:45:26Z</time>
      </trkpt>
      <trkpt lat="42.72014" lon="0.1663">
        <ele>2726</ele>
        <time>2012-10-04T12:45:32Z</time>
      </trkpt>
      <trkpt lat="42.72025" lon="0.16613">
        <ele>2724</ele>
        <time>2012-10-04T12:45:36Z</time>
      </trkpt>
      <trkpt lat="42.72029" lon="0.16585">
        <ele>2719.7</ele>
        <time>2012-10-04T12:45:41Z</time>
      </trkpt>
      <trkpt lat="42.72027" lon="0.16569">
        <ele>2717.3</ele>
        <time>2012-10-04T12:45:44Z</time>
      </trkpt>
      <trkpt lat="42.72031" lon="0.16557">
        <ele>2714.9</ele>
        <time>2012-10-04T12:45:46Z</time>
      </trkpt>
      <trkpt lat="42.72045" lon="0.16523">
        <ele>2709.6</ele>
        <time>2012-10-04T12:45:51Z</time>
      </trkpt>
      <trkpt lat="42.72053" lon="0.1651">
        <ele>2708.2</ele>
        <time>2012-10-04T12:45:53Z</time>
      </trkpt>
      <trkpt lat="42.72065" lon="0.1649">
        <ele>2704.3</ele>
        <time>2012-10-04T12:45:57Z</time>
      </trkpt>
      <trkpt lat="42.72066" lon="0.16485">
        <ele>2702.9</ele>
        <time>2012-10-04T12:45:58Z</time>
      </trkpt>
      <trkpt lat="42.72078" lon="0.16468">
        <ele>2698.6</ele>
        <time>2012-10-04T12:46:02Z</time>
      </trkpt>
      <trkpt lat="42.72082" lon="0.16462">
        <ele>2698.1</ele>
        <time>2012-10-04T12:46:03Z</time>
      </trkpt>
      <trkpt lat="42.72095" lon="0.16438">
        <ele>2692.3</ele>
        <time>2012-10-04T12:46:06Z</time>
      </trkpt>
      <trkpt lat="42.72105" lon="0.16422">
        <ele>2688</ele>
        <time>2012-10-04T12:46:08Z</time>
      </trkpt>
      <trkpt lat="42.72117" lon="0.16395">
        <ele>2686.5</ele>
        <time>2012-10-04T12:46:12Z</time>
      </trkpt>
      <trkpt lat="42.72127" lon="0.16378">
        <ele>2685.1</ele>
        <time>2012-10-04T12:46:15Z</time>
      </trkpt>
      <trkpt lat="42.7214" lon="0.16364">
        <ele>2683.2</ele>
        <time>2012-10-04T12:46:18Z</time>
      </trkpt>
      <trkpt lat="42.72153" lon="0.16344">
        <ele>2678.4</ele>
        <time>2012-10-04T12:46:21Z</time>
      </trkpt>
      <trkpt lat="42.72162" lon="0.16328">
        <ele>2676.4</ele>
        <time>2012-10-04T12:46:23Z</time>
      </trkpt>
      <trkpt lat="42.72171" lon="0.16313">
        <ele>2676.4</ele>
        <time>2012-10-04T12:46:25Z</time>
      </trkpt>
      <trkpt lat="42.72188" lon="0.16293">
        <ele>2677.4</ele>
        <time>2012-10-04T12:46:29Z</time>
      </trkpt>
      <trkpt lat="42.72208" lon="0.1628">
        <ele>2676</ele>
        <time>2012-10-04T12:46:33Z</time>
      </trkpt>
      <trkpt lat="42.72219" lon="0.16271">
        <ele>2675</ele>
        <time>2012-10-04T12:46:35Z</time>
      </trkpt>
      <trkpt lat="42.72225" lon="0.16267">
        <ele>2674.5</ele>
        <time>2012-10-04T12:46:36Z</time>
      </trkpt>
      <trkpt lat="42.72259" lon="0.16252">
        <ele>2673.6</ele>
        <time>2012-10-04T12:46:41Z</time>
      </trkpt>
      <trkpt lat="42.72281" lon="0.16248">
        <ele>2675</ele>
        <time>2012-10-04T12:46:44Z</time>
      </trkpt>
      <trkpt lat="42.72308" lon="0.16245">
        <ele>2675.5</ele>
        <time>2012-10-04T12:46:48Z</time>
      </trkpt>
      <trkpt lat="42.7233" lon="0.16244">
        <ele>2676.4</ele>
        <time>2012-10-04T12:46:52Z</time>
      </trkpt>
      <trkpt lat="42.72344" lon="0.16247">
        <ele>2676.9</ele>
        <time>2012-10-04T12:46:55Z</time>
      </trkpt>
      <trkpt lat="42.72366" lon="0.16255">
        <ele>2674</ele>
        <time>2012-10-04T12:47:00Z</time>
      </trkpt>
      <trkpt lat="42.72369" lon="0.16253">
        <ele>2674</ele>
        <time>2012-10-04T12:47:01Z</time>
      </trkpt>
      <trkpt lat="42.72372" lon="0.16252">
        <ele>2674</ele>
        <time>2012-10-04T12:47:05Z</time>
      </trkpt>
      <trkpt lat="42.72372" lon="0.16252">
        <ele>2674</ele>
        <time>2012-10-04T12:47:19Z</time>
      </trkpt>
      <trkpt lat="42.72373" lon="0.16251">
        <ele>2674</ele>
        <time>2012-10-04T12:47:20Z</time>
      </trkpt>
      <trkpt lat="42.72376" lon="0.1625">
        <ele>2673.6</ele>
        <time>2012-10-04T12:47:22Z</time>
      </trkpt>
      <trkpt lat="42.72378" lon="0.16245">
        <ele>2672.6</ele>
        <time>2012-10-04T12:47:29Z</time>
      </trkpt>
      <trkpt lat="42.72379" lon="0.16245">
        <ele>2672.1</ele>
        <time>2012-10-04T12:47:41Z</time>
      </trkpt>
      <trkpt lat="42.7237" lon="0.16234">
        <ele>2671.2</ele>
        <time>2012-10-04T12:47:47Z</time>
      </trkpt>
      <trkpt lat="42.72361" lon="0.1622">
        <ele>2671.6</ele>
        <time>2012-10-04T12:47:55Z</time>
      </trkpt>
      <trkpt lat="42.72359" lon="0.16218">
        <ele>2671.6</ele>
        <time>2012-10-04T12:48:02Z</time>
      </trkpt>
      <trkpt lat="42.72349" lon="0.16206">
        <ele>2669.7</ele>
        <time>2012-10-04T12:48:07Z</time>
      </trkpt>
      <trkpt lat="42.72341" lon="0.16199">
        <ele>2667.3</ele>
        <time>2012-10-04T12:48:09Z</time>
      </trkpt>
      <trkpt lat="42.72331" lon="0.16188">
        <ele>2665.4</ele>
        <time>2012-10-04T12:48:11Z</time>
      </trkpt>
      <trkpt lat="42.72318" lon="0.16147">
        <ele>2660.6</ele>
        <time>2012-10-04T12:48:15Z</time>
      </trkpt>
      <trkpt lat="42.72318" lon="0.16115">
        <ele>2657.7</ele>
        <time>2012-10-04T12:48:18Z</time>
      </trkpt>
      <trkpt lat="42.72323" lon="0.16089">
        <ele>2654.8</ele>
        <time>2012-10-04T12:48:21Z</time>
      </trkpt>
      <trkpt lat="42.72325" lon="0.1608">
        <ele>2652.9</ele>
        <time>2012-10-04T12:48:22Z</time>
      </trkpt>
      <trkpt lat="42.72328" lon="0.1604">
        <ele>2650</ele>
        <time>2012-10-04T12:48:26Z</time>
      </trkpt>
      <trkpt lat="42.7233" lon="0.16022">
        <ele>2651</ele>
        <time>2012-10-04T12:48:28Z</time>
      </trkpt>
      <trkpt lat="42.7234" lon="0.1599">
        <ele>2650</ele>
        <time>2012-10-04T12:48:32Z</time>
      </trkpt>
      <trkpt lat="42.72354" lon="0.15959">
        <ele>2650.5</ele>
        <time>2012-10-04T12:48:37Z</time>
      </trkpt>
      <trkpt lat="42.72353" lon="0.15955">
        <ele>2651.4</ele>
        <time>2012-10-04T12:48:39Z</time>
      </trkpt>
      <trkpt lat="42.72353" lon="0.15955">
        <ele>2650.5</ele>
        <time>2012-10-04T12:48:46Z</time>
      </trkpt>
      <trkpt lat="42.72352" lon="0.15954">
        <ele>2650.5</ele>
        <time>2012-10-04T12:49:08Z</time>
      </trkpt>
      <trkpt lat="42.72353" lon="0.15954">
        <ele>2651</ele>
        <time>2012-10-04T12:49:17Z</time>
      </trkpt>
      <trkpt lat="42.72356" lon="0.15949">
        <ele>2651</ele>
        <time>2012-10-04T12:49:25Z</time>
      </trkpt>
      <trkpt lat="42.72356" lon="0.1595">
        <ele>2651</ele>
        <time>2012-10-04T12:49:39Z</time>
      </trkpt>
      <trkpt lat="42.72357" lon="0.15949">
        <ele>2651.4</ele>
        <time>2012-10-04T12:49:55Z</time>
      </trkpt>
      <trkpt lat="42.7236" lon="0.1594">
        <ele>2651.9</ele>
        <time>2012-10-04T12:50:00Z</time>
      </trkpt>
      <trkpt lat="42.72365" lon="0.15921">
        <ele>2651.9</ele>
        <time>2012-10-04T12:50:05Z</time>
      </trkpt>
      <trkpt lat="42.72374" lon="0.15902">
        <ele>2652.9</ele>
        <time>2012-10-04T12:50:12Z</time>
      </trkpt>
      <trkpt lat="42.72385" lon="0.15876">
        <ele>2654.8</ele>
        <time>2012-10-04T12:50:20Z</time>
      </trkpt>
      <trkpt lat="42.72387" lon="0.15871">
        <ele>2656.3</ele>
        <time>2012-10-04T12:50:22Z</time>
      </trkpt>
      <trkpt lat="42.7239" lon="0.15864">
        <ele>2655.8</ele>
        <time>2012-10-04T12:50:26Z</time>
      </trkpt>
      <trkpt lat="42.72397" lon="0.15846">
        <ele>2655.3</ele>
        <time>2012-10-04T12:50:33Z</time>
      </trkpt>
      <trkpt lat="42.72398" lon="0.15846">
        <ele>2655.3</ele>
        <time>2012-10-04T12:50:41Z</time>
      </trkpt>
      <trkpt lat="42.72398" lon="0.15846">
        <ele>2654.8</ele>
        <time>2012-10-04T12:50:44Z</time>
      </trkpt>
      <trkpt lat="42.72399" lon="0.15836">
        <ele>2654.3</ele>
        <time>2012-10-04T12:50:48Z</time>
      </trkpt>
      <trkpt lat="42.72404" lon="0.15822">
        <ele>2652.4</ele>
        <time>2012-10-04T12:50:50Z</time>
      </trkpt>
      <trkpt lat="42.72418" lon="0.15779">
        <ele>2650</ele>
        <time>2012-10-04T12:50:55Z</time>
      </trkpt>
      <trkpt lat="42.7243" lon="0.15762">
        <ele>2646.6</ele>
        <time>2012-10-04T12:50:57Z</time>
      </trkpt>
      <trkpt lat="42.7245" lon="0.15736">
        <ele>2641.4</ele>
        <time>2012-10-04T12:51:00Z</time>
      </trkpt>
      <trkpt lat="42.72456" lon="0.15729">
        <ele>2641.4</ele>
        <time>2012-10-04T12:51:01Z</time>
      </trkpt>
      <trkpt lat="42.72467" lon="0.15717">
        <ele>2639.4</ele>
        <time>2012-10-04T12:51:03Z</time>
      </trkpt>
      <trkpt lat="42.72477" lon="0.15693">
        <ele>2634.6</ele>
        <time>2012-10-04T12:51:06Z</time>
      </trkpt>
      <trkpt lat="42.72482" lon="0.15663">
        <ele>2631.3</ele>
        <time>2012-10-04T12:51:09Z</time>
      </trkpt>
      <trkpt lat="42.72483" lon="0.15648">
        <ele>2629.8</ele>
        <time>2012-10-04T12:51:11Z</time>
      </trkpt>
      <trkpt lat="42.72483" lon="0.15641">
        <ele>2628.4</ele>
        <time>2012-10-04T12:51:15Z</time>
      </trkpt>
      <trkpt lat="42.72483" lon="0.15642">
        <ele>2628.4</ele>
        <time>2012-10-04T12:51:20Z</time>
      </trkpt>
      <trkpt lat="42.72483" lon="0.15644">
        <ele>2628.4</ele>
        <time>2012-10-04T12:51:41Z</time>
      </trkpt>
      <trkpt lat="42.72482" lon="0.15641">
        <ele>2628.9</ele>
        <time>2012-10-04T12:51:55Z</time>
      </trkpt>
      <trkpt lat="42.72481" lon="0.15639">
        <ele>2628.9</ele>
        <time>2012-10-04T12:52:04Z</time>
      </trkpt>
      <trkpt lat="42.7248" lon="0.15639">
        <ele>2628.9</ele>
        <time>2012-10-04T12:52:27Z</time>
      </trkpt>
      <trkpt lat="42.7248" lon="0.15639">
        <ele>2628.4</ele>
        <time>2012-10-04T12:52:53Z</time>
      </trkpt>
      <trkpt lat="42.72481" lon="0.15638">
        <ele>2628.9</ele>
        <time>2012-10-04T12:53:14Z</time>
      </trkpt>
      <trkpt lat="42.72486" lon="0.15619">
        <ele>2624.1</ele>
        <time>2012-10-04T12:53:19Z</time>
      </trkpt>
      <trkpt lat="42.72486" lon="0.15612">
        <ele>2623.1</ele>
        <time>2012-10-04T12:53:20Z</time>
      </trkpt>
      <trkpt lat="42.72482" lon="0.15583">
        <ele>2617.3</ele>
        <time>2012-10-04T12:53:25Z</time>
      </trkpt>
      <trkpt lat="42.72482" lon="0.15571">
        <ele>2614.4</ele>
        <time>2012-10-04T12:53:28Z</time>
      </trkpt>
      <trkpt lat="42.72476" lon="0.15552">
        <ele>2611.6</ele>
        <time>2012-10-04T12:53:31Z</time>
      </trkpt>
      <trkpt lat="42.72475" lon="0.1554">
        <ele>2609.6</ele>
        <time>2012-10-04T12:53:33Z</time>
      </trkpt>
      <trkpt lat="42.72473" lon="0.15506">
        <ele>2602.9</ele>
        <time>2012-10-04T12:53:37Z</time>
      </trkpt>
      <trkpt lat="42.7248" lon="0.15484">
        <ele>2599.1</ele>
        <time>2012-10-04T12:53:40Z</time>
      </trkpt>
      <trkpt lat="42.7248" lon="0.15441">
        <ele>2591.4</ele>
        <time>2012-10-04T12:53:46Z</time>
      </trkpt>
      <trkpt lat="42.72476" lon="0.15413">
        <ele>2583.7</ele>
        <time>2012-10-04T12:53:49Z</time>
      </trkpt>
      <trkpt lat="42.72474" lon="0.15392">
        <ele>2582.2</ele>
        <time>2012-10-04T12:53:51Z</time>
      </trkpt>
      <trkpt lat="42.72473" lon="0.1536">
        <ele>2574.6</ele>
        <time>2012-10-04T12:53:54Z</time>
      </trkpt>
      <trkpt lat="42.72473" lon="0.15349">
        <ele>2573.1</ele>
        <time>2012-10-04T12:53:55Z</time>
      </trkpt>
      <trkpt lat="42.7247" lon="0.15328">
        <ele>2568.3</ele>
        <time>2012-10-04T12:53:57Z</time>
      </trkpt>
      <trkpt lat="42.72471" lon="0.15306">
        <ele>2564.4</ele>
        <time>2012-10-04T12:53:59Z</time>
      </trkpt>
      <trkpt lat="42.72472" lon="0.1527">
        <ele>2558.7</ele>
        <time>2012-10-04T12:54:02Z</time>
      </trkpt>
      <trkpt lat="42.7247" lon="0.15246">
        <ele>2557.2</ele>
        <time>2012-10-04T12:54:04Z</time>
      </trkpt>
      <trkpt lat="42.7247" lon="0.15219">
        <ele>2552.9</ele>
        <time>2012-10-04T12:54:06Z</time>
      </trkpt>
      <trkpt lat="42.72467" lon="0.1519">
        <ele>2551</ele>
        <time>2012-10-04T12:54:08Z</time>
      </trkpt>
      <trkpt lat="42.72462" lon="0.15132">
        <ele>2545.2</ele>
        <time>2012-10-04T12:54:12Z</time>
      </trkpt>
      <trkpt lat="42.72462" lon="0.1512">
        <ele>2546.7</ele>
        <time>2012-10-04T12:54:14Z</time>
      </trkpt>
      <trkpt lat="42.72461" lon="0.1512">
        <ele>2547.1</ele>
        <time>2012-10-04T12:54:21Z</time>
      </trkpt>
      <trkpt lat="42.72462" lon="0.1512">
        <ele>2546.7</ele>
        <time>2012-10-04T12:54:39Z</time>
      </trkpt>
      <trkpt lat="42.72462" lon="0.1512">
        <ele>2547.1</ele>
        <time>2012-10-04T12:55:05Z</time>
      </trkpt>
      <trkpt lat="42.72461" lon="0.15119">
        <ele>2547.1</ele>
        <time>2012-10-04T12:55:28Z</time>
      </trkpt>
      <trkpt lat="42.7246" lon="0.15117">
        <ele>2546.7</ele>
        <time>2012-10-04T12:55:36Z</time>
      </trkpt>
      <trkpt lat="42.7246" lon="0.15117">
        <ele>2546.7</ele>
        <time>2012-10-04T12:55:36Z</time>
      </trkpt>
      <trkpt lat="42.7246" lon="0.15118">
        <ele>2546.7</ele>
        <time>2012-10-04T12:55:44Z</time>
      </trkpt>
      <trkpt lat="42.7246" lon="0.15119">
        <ele>2547.1</ele>
        <time>2012-10-04T12:55:52Z</time>
      </trkpt>
      <trkpt lat="42.72459" lon="0.15118">
        <ele>2545.7</ele>
        <time>2012-10-04T12:55:55Z</time>
      </trkpt>
      <trkpt lat="42.72458" lon="0.15115">
        <ele>2546.2</ele>
        <time>2012-10-04T12:55:58Z</time>
      </trkpt>
      <trkpt lat="42.72447" lon="0.15112">
        <ele>2544.8</ele>
        <time>2012-10-04T12:56:04Z</time>
      </trkpt>
      <trkpt lat="42.72445" lon="0.15112">
        <ele>2544.8</ele>
        <time>2012-10-04T12:56:05Z</time>
      </trkpt>
      <trkpt lat="42.72425" lon="0.15113">
        <ele>2544.8</ele>
        <time>2012-10-04T12:56:14Z</time>
      </trkpt>
      <trkpt lat="42.7241" lon="0.15123">
        <ele>2542.8</ele>
        <time>2012-10-04T12:56:21Z</time>
      </trkpt>
      <trkpt lat="42.72394" lon="0.15143">
        <ele>2540.9</ele>
        <time>2012-10-04T12:56:28Z</time>
      </trkpt>
      <trkpt lat="42.72379" lon="0.15154">
        <ele>2537.5</ele>
        <time>2012-10-04T12:56:33Z</time>
      </trkpt>
      <trkpt lat="42.72359" lon="0.15165">
        <ele>2535.1</ele>
        <time>2012-10-04T12:56:37Z</time>
      </trkpt>
      <trkpt lat="42.72343" lon="0.15174">
        <ele>2533.7</ele>
        <time>2012-10-04T12:56:40Z</time>
      </trkpt>
      <trkpt lat="42.72316" lon="0.15192">
        <ele>2530.3</ele>
        <time>2012-10-04T12:56:45Z</time>
      </trkpt>
      <trkpt lat="42.72311" lon="0.15196">
        <ele>2530.3</ele>
        <time>2012-10-04T12:56:46Z</time>
      </trkpt>
      <trkpt lat="42.72305" lon="0.15199">
        <ele>2529.4</ele>
        <time>2012-10-04T12:56:47Z</time>
      </trkpt>
      <trkpt lat="42.7228" lon="0.15212">
        <ele>2526.5</ele>
        <time>2012-10-04T12:56:51Z</time>
      </trkpt>
      <trkpt lat="42.72274" lon="0.15216">
        <ele>2525.5</ele>
        <time>2012-10-04T12:56:52Z</time>
      </trkpt>
      <trkpt lat="42.72268" lon="0.15219">
        <ele>2525.5</ele>
        <time>2012-10-04T12:56:53Z</time>
      </trkpt>
      <trkpt lat="42.72262" lon="0.1522">
        <ele>2525</ele>
        <time>2012-10-04T12:56:54Z</time>
      </trkpt>
      <trkpt lat="42.72257" lon="0.15219">
        <ele>2525.5</ele>
        <time>2012-10-04T12:56:55Z</time>
      </trkpt>
      <trkpt lat="42.72253" lon="0.15213">
        <ele>2524.6</ele>
        <time>2012-10-04T12:56:56Z</time>
      </trkpt>
      <trkpt lat="42.72258" lon="0.15194">
        <ele>2522.6</ele>
        <time>2012-10-04T12:56:59Z</time>
      </trkpt>
      <trkpt lat="42.72267" lon="0.15183">
        <ele>2520.7</ele>
        <time>2012-10-04T12:57:01Z</time>
      </trkpt>
      <trkpt lat="42.72272" lon="0.15168">
        <ele>2519.3</ele>
        <time>2012-10-04T12:57:03Z</time>
      </trkpt>
      <trkpt lat="42.72275" lon="0.15141">
        <ele>2515.9</ele>
        <time>2012-10-04T12:57:07Z</time>
      </trkpt>
      <trkpt lat="42.72276" lon="0.15112">
        <ele>2509.2</ele>
        <time>2012-10-04T12:57:11Z</time>
      </trkpt>
      <trkpt lat="42.72262" lon="0.1509">
        <ele>2504.4</ele>
        <time>2012-10-04T12:57:15Z</time>
      </trkpt>
      <trkpt lat="42.7225" lon="0.15069">
        <ele>2499.6</ele>
        <time>2012-10-04T12:57:18Z</time>
      </trkpt>
      <trkpt lat="42.72242" lon="0.15044">
        <ele>2496.2</ele>
        <time>2012-10-04T12:57:21Z</time>
      </trkpt>
      <trkpt lat="42.72238" lon="0.15031">
        <ele>2494.8</ele>
        <time>2012-10-04T12:57:23Z</time>
      </trkpt>
      <trkpt lat="42.72231" lon="0.15032">
        <ele>2490.9</ele>
        <time>2012-10-04T12:57:27Z</time>
      </trkpt>
      <trkpt lat="42.72227" lon="0.15043">
        <ele>2490.4</ele>
        <time>2012-10-04T12:57:29Z</time>
      </trkpt>
      <trkpt lat="42.72222" lon="0.15059">
        <ele>2489</ele>
        <time>2012-10-04T12:57:32Z</time>
      </trkpt>
      <trkpt lat="42.72222" lon="0.15065">
        <ele>2489</ele>
        <time>2012-10-04T12:57:33Z</time>
      </trkpt>
      <trkpt lat="42.72221" lon="0.15069">
        <ele>2488</ele>
        <time>2012-10-04T12:57:34Z</time>
      </trkpt>
      <trkpt lat="42.72218" lon="0.15069">
        <ele>2487.1</ele>
        <time>2012-10-04T12:57:35Z</time>
      </trkpt>
      <trkpt lat="42.72215" lon="0.15066">
        <ele>2485.6</ele>
        <time>2012-10-04T12:57:36Z</time>
      </trkpt>
      <trkpt lat="42.72212" lon="0.15062">
        <ele>2484.7</ele>
        <time>2012-10-04T12:57:37Z</time>
      </trkpt>
      <trkpt lat="42.72209" lon="0.15058">
        <ele>2484.2</ele>
        <time>2012-10-04T12:57:38Z</time>
      </trkpt>
      <trkpt lat="42.72203" lon="0.1504">
        <ele>2481.3</ele>
        <time>2012-10-04T12:57:41Z</time>
      </trkpt>
      <trkpt lat="42.722" lon="0.1502">
        <ele>2478.9</ele>
        <time>2012-10-04T12:57:44Z</time>
      </trkpt>
      <trkpt lat="42.72199" lon="0.14994">
        <ele>2473.6</ele>
        <time>2012-10-04T12:57:48Z</time>
      </trkpt>
      <trkpt lat="42.72198" lon="0.14989">
        <ele>2473.1</ele>
        <time>2012-10-04T12:57:49Z</time>
      </trkpt>
      <trkpt lat="42.72189" lon="0.14975">
        <ele>2468.8</ele>
        <time>2012-10-04T12:57:54Z</time>
      </trkpt>
      <trkpt lat="42.72184" lon="0.14982">
        <ele>2465.4</ele>
        <time>2012-10-04T12:57:57Z</time>
      </trkpt>
      <trkpt lat="42.72179" lon="0.14973">
        <ele>2463.5</ele>
        <time>2012-10-04T12:58:01Z</time>
      </trkpt>
      <trkpt lat="42.72171" lon="0.14968">
        <ele>2458.2</ele>
        <time>2012-10-04T12:58:06Z</time>
      </trkpt>
      <trkpt lat="42.72167" lon="0.14973">
        <ele>2455.8</ele>
        <time>2012-10-04T12:58:08Z</time>
      </trkpt>
      <trkpt lat="42.72161" lon="0.14994">
        <ele>2453.4</ele>
        <time>2012-10-04T12:58:13Z</time>
      </trkpt>
      <trkpt lat="42.7216" lon="0.14997">
        <ele>2452.9</ele>
        <time>2012-10-04T12:58:14Z</time>
      </trkpt>
      <trkpt lat="42.72159" lon="0.15003">
        <ele>2452</ele>
        <time>2012-10-04T12:58:20Z</time>
      </trkpt>
      <trkpt lat="42.72157" lon="0.15004">
        <ele>2451.5</ele>
        <time>2012-10-04T12:58:31Z</time>
      </trkpt>
      <trkpt lat="42.72156" lon="0.15004">
        <ele>2451.5</ele>
        <time>2012-10-04T12:58:32Z</time>
      </trkpt>
      <trkpt lat="42.72154" lon="0.15006">
        <ele>2450.5</ele>
        <time>2012-10-04T12:58:35Z</time>
      </trkpt>
      <trkpt lat="42.72151" lon="0.15009">
        <ele>2449.1</ele>
        <time>2012-10-04T12:58:38Z</time>
      </trkpt>
      <trkpt lat="42.72151" lon="0.15008">
        <ele>2448.6</ele>
        <time>2012-10-04T12:58:39Z</time>
      </trkpt>
      <trkpt lat="42.72148" lon="0.1499">
        <ele>2444.8</ele>
        <time>2012-10-04T12:58:45Z</time>
      </trkpt>
      <trkpt lat="42.72143" lon="0.14972">
        <ele>2440.4</ele>
        <time>2012-10-04T12:58:49Z</time>
      </trkpt>
      <trkpt lat="42.72141" lon="0.14967">
        <ele>2439.5</ele>
        <time>2012-10-04T12:58:51Z</time>
      </trkpt>
      <trkpt lat="42.72135" lon="0.14975">
        <ele>2435.6</ele>
        <time>2012-10-04T12:58:56Z</time>
      </trkpt>
      <trkpt lat="42.72132" lon="0.14984">
        <ele>2434.2</ele>
        <time>2012-10-04T12:58:59Z</time>
      </trkpt>
      <trkpt lat="42.72128" lon="0.14995">
        <ele>2431.8</ele>
        <time>2012-10-04T12:59:02Z</time>
      </trkpt>
      <trkpt lat="42.72123" lon="0.15009">
        <ele>2429.9</ele>
        <time>2012-10-04T12:59:07Z</time>
      </trkpt>
      <trkpt lat="42.72123" lon="0.15015">
        <ele>2428.9</ele>
        <time>2012-10-04T12:59:14Z</time>
      </trkpt>
      <trkpt lat="42.72123" lon="0.15016">
        <ele>2427.9</ele>
        <time>2012-10-04T12:59:15Z</time>
      </trkpt>
      <trkpt lat="42.72122" lon="0.15018">
        <ele>2427.5</ele>
        <time>2012-10-04T12:59:17Z</time>
      </trkpt>
      <trkpt lat="42.7212" lon="0.15024">
        <ele>2427</ele>
        <time>2012-10-04T12:59:23Z</time>
      </trkpt>
      <trkpt lat="42.7212" lon="0.15024">
        <ele>2427</ele>
        <time>2012-10-04T12:59:37Z</time>
      </trkpt>
      <trkpt lat="42.7212" lon="0.15024">
        <ele>2427</ele>
        <time>2012-10-04T12:59:52Z</time>
      </trkpt>
      <trkpt lat="42.72119" lon="0.15023">
        <ele>2427</ele>
        <time>2012-10-04T13:00:09Z</time>
      </trkpt>
      <trkpt lat="42.72118" lon="0.15023">
        <ele>2426.5</ele>
        <time>2012-10-04T13:00:14Z</time>
      </trkpt>
      <trkpt lat="42.72115" lon="0.15027">
        <ele>2424.6</ele>
        <time>2012-10-04T13:00:21Z</time>
      </trkpt>
      <trkpt lat="42.72114" lon="0.15033">
        <ele>2424.6</ele>
        <time>2012-10-04T13:00:27Z</time>
      </trkpt>
      <trkpt lat="42.72114" lon="0.15034">
        <ele>2424.1</ele>
        <time>2012-10-04T13:00:33Z</time>
      </trkpt>
      <trkpt lat="42.72112" lon="0.1504">
        <ele>2423.1</ele>
        <time>2012-10-04T13:00:41Z</time>
      </trkpt>
      <trkpt lat="42.7211" lon="0.15051">
        <ele>2422.7</ele>
        <time>2012-10-04T13:00:45Z</time>
      </trkpt>
      <trkpt lat="42.72113" lon="0.15063">
        <ele>2422.2</ele>
        <time>2012-10-04T13:00:49Z</time>
      </trkpt>
      <trkpt lat="42.72108" lon="0.15077">
        <ele>2420.3</ele>
        <time>2012-10-04T13:00:53Z</time>
      </trkpt>
      <trkpt lat="42.72099" lon="0.15093">
        <ele>2418.3</ele>
        <time>2012-10-04T13:00:58Z</time>
      </trkpt>
      <trkpt lat="42.72093" lon="0.15103">
        <ele>2415</ele>
        <time>2012-10-04T13:01:01Z</time>
      </trkpt>
      <trkpt lat="42.7209" lon="0.1511">
        <ele>2411.6</ele>
        <time>2012-10-04T13:01:06Z</time>
      </trkpt>
      <trkpt lat="42.7209" lon="0.15112">
        <ele>2411.1</ele>
        <time>2012-10-04T13:01:08Z</time>
      </trkpt>
      <trkpt lat="42.7209" lon="0.15114">
        <ele>2411.1</ele>
        <time>2012-10-04T13:01:09Z</time>
      </trkpt>
      <trkpt lat="42.7209" lon="0.15116">
        <ele>2411.1</ele>
        <time>2012-10-04T13:01:10Z</time>
      </trkpt>
      <trkpt lat="42.7209" lon="0.15119">
        <ele>2410.6</ele>
        <time>2012-10-04T13:01:11Z</time>
      </trkpt>
      <trkpt lat="42.72089" lon="0.15122">
        <ele>2410.6</ele>
        <time>2012-10-04T13:01:12Z</time>
      </trkpt>
      <trkpt lat="42.72088" lon="0.15125">
        <ele>2410.6</ele>
        <time>2012-10-04T13:01:13Z</time>
      </trkpt>
      <trkpt lat="42.72086" lon="0.15127">
        <ele>2409.7</ele>
        <time>2012-10-04T13:01:14Z</time>
      </trkpt>
      <trkpt lat="42.72085" lon="0.15131">
        <ele>2409.2</ele>
        <time>2012-10-04T13:01:15Z</time>
      </trkpt>
      <trkpt lat="42.72084" lon="0.15134">
        <ele>2408.7</ele>
        <time>2012-10-04T13:01:16Z</time>
      </trkpt>
      <trkpt lat="42.72082" lon="0.15138">
        <ele>2408.2</ele>
        <time>2012-10-04T13:01:17Z</time>
      </trkpt>
      <trkpt lat="42.72078" lon="0.15159">
        <ele>2404.4</ele>
        <time>2012-10-04T13:01:22Z</time>
      </trkpt>
      <trkpt lat="42.72076" lon="0.15163">
        <ele>2404.4</ele>
        <time>2012-10-04T13:01:23Z</time>
      </trkpt>
      <trkpt lat="42.72073" lon="0.15166">
        <ele>2403.4</ele>
        <time>2012-10-04T13:01:24Z</time>
      </trkpt>
      <trkpt lat="42.72071" lon="0.15168">
        <ele>2402</ele>
        <time>2012-10-04T13:01:25Z</time>
      </trkpt>
      <trkpt lat="42.72069" lon="0.1517">
        <ele>2401.5</ele>
        <time>2012-10-04T13:01:26Z</time>
      </trkpt>
      <trkpt lat="42.72067" lon="0.15173">
        <ele>2401</ele>
        <time>2012-10-04T13:01:27Z</time>
      </trkpt>
      <trkpt lat="42.72065" lon="0.15176">
        <ele>2400.1</ele>
        <time>2012-10-04T13:01:28Z</time>
      </trkpt>
      <trkpt lat="42.72064" lon="0.15179">
        <ele>2399.6</ele>
        <time>2012-10-04T13:01:29Z</time>
      </trkpt>
      <trkpt lat="42.72059" lon="0.15191">
        <ele>2397.2</ele>
        <time>2012-10-04T13:01:32Z</time>
      </trkpt>
      <trkpt lat="42.72056" lon="0.15194">
        <ele>2395.7</ele>
        <time>2012-10-04T13:01:33Z</time>
      </trkpt>
      <trkpt lat="42.72054" lon="0.15198">
        <ele>2395.3</ele>
        <time>2012-10-04T13:01:37Z</time>
      </trkpt>
      <trkpt lat="42.72053" lon="0.15199">
        <ele>2394.8</ele>
        <time>2012-10-04T13:01:43Z</time>
      </trkpt>
      <trkpt lat="42.72052" lon="0.15201">
        <ele>2393.8</ele>
        <time>2012-10-04T13:01:50Z</time>
      </trkpt>
      <trkpt lat="42.72051" lon="0.15202">
        <ele>2392.9</ele>
        <time>2012-10-04T13:01:57Z</time>
      </trkpt>
      <trkpt lat="42.7205" lon="0.15204">
        <ele>2392.4</ele>
        <time>2012-10-04T13:02:04Z</time>
      </trkpt>
      <trkpt lat="42.72049" lon="0.15206">
        <ele>2391.9</ele>
        <time>2012-10-04T13:02:05Z</time>
      </trkpt>
      <trkpt lat="42.72048" lon="0.15208">
        <ele>2391.4</ele>
        <time>2012-10-04T13:02:06Z</time>
      </trkpt>
      <trkpt lat="42.72047" lon="0.1521">
        <ele>2390.9</ele>
        <time>2012-10-04T13:02:07Z</time>
      </trkpt>
      <trkpt lat="42.72046" lon="0.15212">
        <ele>2390.9</ele>
        <time>2012-10-04T13:02:08Z</time>
      </trkpt>
      <trkpt lat="42.72045" lon="0.15214">
        <ele>2390</ele>
        <time>2012-10-04T13:02:09Z</time>
      </trkpt>
      <trkpt lat="42.72044" lon="0.15217">
        <ele>2389.5</ele>
        <time>2012-10-04T13:02:10Z</time>
      </trkpt>
      <trkpt lat="42.72044" lon="0.15218">
        <ele>2389</ele>
        <time>2012-10-04T13:02:11Z</time>
      </trkpt>
      <trkpt lat="42.72043" lon="0.15219">
        <ele>2388.5</ele>
        <time>2012-10-04T13:02:12Z</time>
      </trkpt>
      <trkpt lat="42.7204" lon="0.15212">
        <ele>2388.1</ele>
        <time>2012-10-04T13:02:16Z</time>
      </trkpt>
      <trkpt lat="42.72039" lon="0.15204">
        <ele>2386.6</ele>
        <time>2012-10-04T13:02:18Z</time>
      </trkpt>
      <trkpt lat="42.72042" lon="0.15181">
        <ele>2383.2</ele>
        <time>2012-10-04T13:02:25Z</time>
      </trkpt>
      <trkpt lat="42.72036" lon="0.15181">
        <ele>2379.9</ele>
        <time>2012-10-04T13:02:30Z</time>
      </trkpt>
      <trkpt lat="42.72033" lon="0.15184">
        <ele>2378.9</ele>
        <time>2012-10-04T13:02:31Z</time>
      </trkpt>
      <trkpt lat="42.72021" lon="0.15201">
        <ele>2376.5</ele>
        <time>2012-10-04T13:02:38Z</time>
      </trkpt>
      <trkpt lat="42.72021" lon="0.15199">
        <ele>2376</ele>
        <time>2012-10-04T13:02:57Z</time>
      </trkpt>
      <trkpt lat="42.72022" lon="0.15199">
        <ele>2376</ele>
        <time>2012-10-04T13:03:14Z</time>
      </trkpt>
      <trkpt lat="42.72023" lon="0.15201">
        <ele>2376</ele>
        <time>2012-10-04T13:03:25Z</time>
      </trkpt>
      <trkpt lat="42.72022" lon="0.15199">
        <ele>2376</ele>
        <time>2012-10-04T13:03:32Z</time>
      </trkpt>
      <trkpt lat="42.72021" lon="0.152">
        <ele>2376</ele>
        <time>2012-10-04T13:03:45Z</time>
      </trkpt>
      <trkpt lat="42.72014" lon="0.15224">
        <ele>2373.1</ele>
        <time>2012-10-04T13:03:52Z</time>
      </trkpt>
      <trkpt lat="42.72015" lon="0.15229">
        <ele>2371.7</ele>
        <time>2012-10-04T13:03:55Z</time>
      </trkpt>
      <trkpt lat="42.72007" lon="0.15247">
        <ele>2367.9</ele>
        <time>2012-10-04T13:04:01Z</time>
      </trkpt>
      <trkpt lat="42.72005" lon="0.15252">
        <ele>2366.9</ele>
        <time>2012-10-04T13:04:02Z</time>
      </trkpt>
      <trkpt lat="42.72004" lon="0.15258">
        <ele>2366.4</ele>
        <time>2012-10-04T13:04:04Z</time>
      </trkpt>
      <trkpt lat="42.72002" lon="0.15267">
        <ele>2365</ele>
        <time>2012-10-04T13:04:07Z</time>
      </trkpt>
      <trkpt lat="42.72" lon="0.15268">
        <ele>2364.5</ele>
        <time>2012-10-04T13:04:10Z</time>
      </trkpt>
      <trkpt lat="42.72" lon="0.15266">
        <ele>2363.5</ele>
        <time>2012-10-04T13:04:11Z</time>
      </trkpt>
      <trkpt lat="42.71999" lon="0.15262">
        <ele>2363.5</ele>
        <time>2012-10-04T13:04:12Z</time>
      </trkpt>
      <trkpt lat="42.71999" lon="0.15258">
        <ele>2363.1</ele>
        <time>2012-10-04T13:04:13Z</time>
      </trkpt>
      <trkpt lat="42.71998" lon="0.15255">
        <ele>2362.6</ele>
        <time>2012-10-04T13:04:14Z</time>
      </trkpt>
      <trkpt lat="42.71994" lon="0.15237">
        <ele>2359.2</ele>
        <time>2012-10-04T13:04:19Z</time>
      </trkpt>
      <trkpt lat="42.71994" lon="0.15232">
        <ele>2358.7</ele>
        <time>2012-10-04T13:04:20Z</time>
      </trkpt>
      <trkpt lat="42.71988" lon="0.15218">
        <ele>2356.3</ele>
        <time>2012-10-04T13:04:24Z</time>
      </trkpt>
      <trkpt lat="42.71986" lon="0.15212">
        <ele>2354.9</ele>
        <time>2012-10-04T13:04:27Z</time>
      </trkpt>
      <trkpt lat="42.7198" lon="0.15209">
        <ele>2351.5</ele>
        <time>2012-10-04T13:04:32Z</time>
      </trkpt>
      <trkpt lat="42.71977" lon="0.15225">
        <ele>2349.1</ele>
        <time>2012-10-04T13:04:37Z</time>
      </trkpt>
      <trkpt lat="42.71973" lon="0.15238">
        <ele>2344.8</ele>
        <time>2012-10-04T13:04:42Z</time>
      </trkpt>
      <trkpt lat="42.71972" lon="0.15241">
        <ele>2343.8</ele>
        <time>2012-10-04T13:04:44Z</time>
      </trkpt>
      <trkpt lat="42.71972" lon="0.15242">
        <ele>2343.4</ele>
        <time>2012-10-04T13:04:45Z</time>
      </trkpt>
      <trkpt lat="42.7197" lon="0.15245">
        <ele>2343.4</ele>
        <time>2012-10-04T13:04:52Z</time>
      </trkpt>
      <trkpt lat="42.7197" lon="0.15244">
        <ele>2342.9</ele>
        <time>2012-10-04T13:05:06Z</time>
      </trkpt>
      <trkpt lat="42.71969" lon="0.15245">
        <ele>2342.4</ele>
        <time>2012-10-04T13:05:20Z</time>
      </trkpt>
      <trkpt lat="42.71968" lon="0.15246">
        <ele>2342.4</ele>
        <time>2012-10-04T13:05:29Z</time>
      </trkpt>
      <trkpt lat="42.71966" lon="0.15254">
        <ele>2341.4</ele>
        <time>2012-10-04T13:05:35Z</time>
      </trkpt>
      <trkpt lat="42.71963" lon="0.15264">
        <ele>2339.5</ele>
        <time>2012-10-04T13:05:39Z</time>
      </trkpt>
      <trkpt lat="42.71962" lon="0.15267">
        <ele>2338.5</ele>
        <time>2012-10-04T13:05:40Z</time>
      </trkpt>
      <trkpt lat="42.7196" lon="0.15271">
        <ele>2338.1</ele>
        <time>2012-10-04T13:05:41Z</time>
      </trkpt>
      <trkpt lat="42.71958" lon="0.15273">
        <ele>2338.1</ele>
        <time>2012-10-04T13:05:42Z</time>
      </trkpt>
      <trkpt lat="42.71954" lon="0.15285">
        <ele>2335.7</ele>
        <time>2012-10-04T13:05:46Z</time>
      </trkpt>
      <trkpt lat="42.71954" lon="0.15287">
        <ele>2335.2</ele>
        <time>2012-10-04T13:05:47Z</time>
      </trkpt>
      <trkpt lat="42.71954" lon="0.15294">
        <ele>2334.2</ele>
        <time>2012-10-04T13:05:50Z</time>
      </trkpt>
      <trkpt lat="42.7195" lon="0.15297">
        <ele>2332.8</ele>
        <time>2012-10-04T13:05:53Z</time>
      </trkpt>
      <trkpt lat="42.71949" lon="0.153">
        <ele>2331.8</ele>
        <time>2012-10-04T13:05:54Z</time>
      </trkpt>
      <trkpt lat="42.71947" lon="0.15303">
        <ele>2331.3</ele>
        <time>2012-10-04T13:05:55Z</time>
      </trkpt>
      <trkpt lat="42.71944" lon="0.15319">
        <ele>2328.4</ele>
        <time>2012-10-04T13:05:59Z</time>
      </trkpt>
      <trkpt lat="42.71942" lon="0.15333">
        <ele>2325.6</ele>
        <time>2012-10-04T13:06:03Z</time>
      </trkpt>
      <trkpt lat="42.71943" lon="0.15342">
        <ele>2325.1</ele>
        <time>2012-10-04T13:06:08Z</time>
      </trkpt>
      <trkpt lat="42.71942" lon="0.15346">
        <ele>2325.1</ele>
        <time>2012-10-04T13:06:11Z</time>
      </trkpt>
      <trkpt lat="42.71941" lon="0.15347">
        <ele>2325.1</ele>
        <time>2012-10-04T13:06:12Z</time>
      </trkpt>
      <trkpt lat="42.7194" lon="0.15349">
        <ele>2325.1</ele>
        <time>2012-10-04T13:06:17Z</time>
      </trkpt>
      <trkpt lat="42.71937" lon="0.15353">
        <ele>2323.6</ele>
        <time>2012-10-04T13:06:21Z</time>
      </trkpt>
      <trkpt lat="42.71936" lon="0.15353">
        <ele>2323.6</ele>
        <time>2012-10-04T13:06:22Z</time>
      </trkpt>
      <trkpt lat="42.71935" lon="0.15353">
        <ele>2323.6</ele>
        <time>2012-10-04T13:06:23Z</time>
      </trkpt>
      <trkpt lat="42.71934" lon="0.15354">
        <ele>2323.2</ele>
        <time>2012-10-04T13:06:24Z</time>
      </trkpt>
      <trkpt lat="42.71933" lon="0.15354">
        <ele>2323.2</ele>
        <time>2012-10-04T13:06:25Z</time>
      </trkpt>
      <trkpt lat="42.71931" lon="0.15358">
        <ele>2323.2</ele>
        <time>2012-10-04T13:06:30Z</time>
      </trkpt>
      <trkpt lat="42.71925" lon="0.15366">
        <ele>2323.2</ele>
        <time>2012-10-04T13:06:34Z</time>
      </trkpt>
      <trkpt lat="42.71918" lon="0.15371">
        <ele>2321.7</ele>
        <time>2012-10-04T13:06:37Z</time>
      </trkpt>
      <trkpt lat="42.71915" lon="0.15373">
        <ele>2321.2</ele>
        <time>2012-10-04T13:06:38Z</time>
      </trkpt>
      <trkpt lat="42.71913" lon="0.15375">
        <ele>2320.8</ele>
        <time>2012-10-04T13:06:39Z</time>
      </trkpt>
      <trkpt lat="42.71907" lon="0.1538">
        <ele>2318.4</ele>
        <time>2012-10-04T13:06:42Z</time>
      </trkpt>
      <trkpt lat="42.71906" lon="0.15382">
        <ele>2317.9</ele>
        <time>2012-10-04T13:06:43Z</time>
      </trkpt>
      <trkpt lat="42.71904" lon="0.15385">
        <ele>2316.9</ele>
        <time>2012-10-04T13:06:44Z</time>
      </trkpt>
      <trkpt lat="42.71903" lon="0.15387">
        <ele>2316.4</ele>
        <time>2012-10-04T13:06:45Z</time>
      </trkpt>
      <trkpt lat="42.71901" lon="0.1539">
        <ele>2315.5</ele>
        <time>2012-10-04T13:06:46Z</time>
      </trkpt>
      <trkpt lat="42.71899" lon="0.15392">
        <ele>2315</ele>
        <time>2012-10-04T13:06:47Z</time>
      </trkpt>
      <trkpt lat="42.71898" lon="0.15394">
        <ele>2314.5</ele>
        <time>2012-10-04T13:06:48Z</time>
      </trkpt>
      <trkpt lat="42.71896" lon="0.15396">
        <ele>2314</ele>
        <time>2012-10-04T13:06:49Z</time>
      </trkpt>
      <trkpt lat="42.71894" lon="0.15399">
        <ele>2314</ele>
        <time>2012-10-04T13:06:50Z</time>
      </trkpt>
      <trkpt lat="42.71893" lon="0.15403">
        <ele>2314</ele>
        <time>2012-10-04T13:06:53Z</time>
      </trkpt>
      <trkpt lat="42.71885" lon="0.15412">
        <ele>2312.1</ele>
        <time>2012-10-04T13:06:58Z</time>
      </trkpt>
      <trkpt lat="42.71873" lon="0.15427">
        <ele>2308.7</ele>
        <time>2012-10-04T13:07:04Z</time>
      </trkpt>
      <trkpt lat="42.71864" lon="0.15441">
        <ele>2305.9</ele>
        <time>2012-10-04T13:07:09Z</time>
      </trkpt>
      <trkpt lat="42.71862" lon="0.15445">
        <ele>2305.9</ele>
        <time>2012-10-04T13:07:10Z</time>
      </trkpt>
      <trkpt lat="42.71861" lon="0.1545">
        <ele>2303.9</ele>
        <time>2012-10-04T13:07:12Z</time>
      </trkpt>
      <trkpt lat="42.71861" lon="0.15452">
        <ele>2303.9</ele>
        <time>2012-10-04T13:07:15Z</time>
      </trkpt>
      <trkpt lat="42.7186" lon="0.15454">
        <ele>2303.9</ele>
        <time>2012-10-04T13:07:16Z</time>
      </trkpt>
      <trkpt lat="42.71858" lon="0.15455">
        <ele>2303.9</ele>
        <time>2012-10-04T13:07:17Z</time>
      </trkpt>
      <trkpt lat="42.71851" lon="0.15463">
        <ele>2302</ele>
        <time>2012-10-04T13:07:22Z</time>
      </trkpt>
      <trkpt lat="42.71849" lon="0.15466">
        <ele>2301.5</ele>
        <time>2012-10-04T13:07:23Z</time>
      </trkpt>
      <trkpt lat="42.71837" lon="0.15479">
        <ele>2299.6</ele>
        <time>2012-10-04T13:07:29Z</time>
      </trkpt>
      <trkpt lat="42.71836" lon="0.1548">
        <ele>2299.1</ele>
        <time>2012-10-04T13:07:30Z</time>
      </trkpt>
      <trkpt lat="42.71834" lon="0.1548">
        <ele>2298.6</ele>
        <time>2012-10-04T13:07:31Z</time>
      </trkpt>
      <trkpt lat="42.71831" lon="0.15481">
        <ele>2297.7</ele>
        <time>2012-10-04T13:07:32Z</time>
      </trkpt>
      <trkpt lat="42.71828" lon="0.15483">
        <ele>2296.7</ele>
        <time>2012-10-04T13:07:33Z</time>
      </trkpt>
      <trkpt lat="42.71826" lon="0.15486">
        <ele>2296.2</ele>
        <time>2012-10-04T13:07:34Z</time>
      </trkpt>
      <trkpt lat="42.71824" lon="0.15489">
        <ele>2296.2</ele>
        <time>2012-10-04T13:07:38Z</time>
      </trkpt>
      <trkpt lat="42.71825" lon="0.15489">
        <ele>2296.2</ele>
        <time>2012-10-04T13:07:54Z</time>
      </trkpt>
      <trkpt lat="42.71825" lon="0.15489">
        <ele>2295.8</ele>
        <time>2012-10-04T13:08:08Z</time>
      </trkpt>
      <trkpt lat="42.71824" lon="0.15487">
        <ele>2295.3</ele>
        <time>2012-10-04T13:08:26Z</time>
      </trkpt>
      <trkpt lat="42.71824" lon="0.15489">
        <ele>2295.8</ele>
        <time>2012-10-04T13:08:47Z</time>
      </trkpt>
      <trkpt lat="42.71825" lon="0.15488">
        <ele>2295.8</ele>
        <time>2012-10-04T13:09:03Z</time>
      </trkpt>
      <trkpt lat="42.71824" lon="0.15488">
        <ele>2295.3</ele>
        <time>2012-10-04T13:09:35Z</time>
      </trkpt>
      <trkpt lat="42.71823" lon="0.1549">
        <ele>2295.3</ele>
        <time>2012-10-04T13:09:56Z</time>
      </trkpt>
      <trkpt lat="42.71824" lon="0.15489">
        <ele>2294.8</ele>
        <time>2012-10-04T13:10:08Z</time>
      </trkpt>
      <trkpt lat="42.71825" lon="0.15491">
        <ele>2294.8</ele>
        <time>2012-10-04T13:10:23Z</time>
      </trkpt>
      <trkpt lat="42.71824" lon="0.15489">
        <ele>2294.3</ele>
        <time>2012-10-04T13:10:42Z</time>
      </trkpt>
      <trkpt lat="42.71825" lon="0.15488">
        <ele>2294.3</ele>
        <time>2012-10-04T13:11:10Z</time>
      </trkpt>
      <trkpt lat="42.71824" lon="0.15489">
        <ele>2294.3</ele>
        <time>2012-10-04T13:11:41Z</time>
      </trkpt>
      <trkpt lat="42.71824" lon="0.15487">
        <ele>2294.3</ele>
        <time>2012-10-04T13:12:08Z</time>
      </trkpt>
      <trkpt lat="42.71823" lon="0.15487">
        <ele>2294.3</ele>
        <time>2012-10-04T13:12:24Z</time>
      </trkpt>
      <trkpt lat="42.71822" lon="0.1549">
        <ele>2293.4</ele>
        <time>2012-10-04T13:12:46Z</time>
      </trkpt>
      <trkpt lat="42.71814" lon="0.155">
        <ele>2291.9</ele>
        <time>2012-10-04T13:12:50Z</time>
      </trkpt>
      <trkpt lat="42.71812" lon="0.15503">
        <ele>2291</ele>
        <time>2012-10-04T13:12:51Z</time>
      </trkpt>
      <trkpt lat="42.71806" lon="0.1551">
        <ele>2289.5</ele>
        <time>2012-10-04T13:12:53Z</time>
      </trkpt>
      <trkpt lat="42.71803" lon="0.15514">
        <ele>2289</ele>
        <time>2012-10-04T13:12:54Z</time>
      </trkpt>
      <trkpt lat="42.718" lon="0.15518">
        <ele>2288.1</ele>
        <time>2012-10-04T13:12:55Z</time>
      </trkpt>
      <trkpt lat="42.71797" lon="0.15522">
        <ele>2287.6</ele>
        <time>2012-10-04T13:12:56Z</time>
      </trkpt>
      <trkpt lat="42.71795" lon="0.15526">
        <ele>2286.6</ele>
        <time>2012-10-04T13:12:57Z</time>
      </trkpt>
      <trkpt lat="42.71792" lon="0.15529">
        <ele>2286.1</ele>
        <time>2012-10-04T13:12:58Z</time>
      </trkpt>
      <trkpt lat="42.71783" lon="0.15538">
        <ele>2284.2</ele>
        <time>2012-10-04T13:13:01Z</time>
      </trkpt>
      <trkpt lat="42.7178" lon="0.15542">
        <ele>2283.8</ele>
        <time>2012-10-04T13:13:02Z</time>
      </trkpt>
      <trkpt lat="42.71772" lon="0.15549">
        <ele>2281.4</ele>
        <time>2012-10-04T13:13:04Z</time>
      </trkpt>
      <trkpt lat="42.71769" lon="0.15551">
        <ele>2280.9</ele>
        <time>2012-10-04T13:13:05Z</time>
      </trkpt>
      <trkpt lat="42.71768" lon="0.15554">
        <ele>2280.9</ele>
        <time>2012-10-04T13:13:06Z</time>
      </trkpt>
      <trkpt lat="42.71766" lon="0.15557">
        <ele>2279.9</ele>
        <time>2012-10-04T13:13:07Z</time>
      </trkpt>
      <trkpt lat="42.71765" lon="0.1556">
        <ele>2279.4</ele>
        <time>2012-10-04T13:13:08Z</time>
      </trkpt>
      <trkpt lat="42.71764" lon="0.15561">
        <ele>2278.9</ele>
        <time>2012-10-04T13:13:09Z</time>
      </trkpt>
      <trkpt lat="42.71763" lon="0.15562">
        <ele>2278</ele>
        <time>2012-10-04T13:13:10Z</time>
      </trkpt>
      <trkpt lat="42.71762" lon="0.15564">
        <ele>2277.5</ele>
        <time>2012-10-04T13:13:11Z</time>
      </trkpt>
      <trkpt lat="42.71759" lon="0.15565">
        <ele>2277</ele>
        <time>2012-10-04T13:13:12Z</time>
      </trkpt>
      <trkpt lat="42.71756" lon="0.15566">
        <ele>2276.1</ele>
        <time>2012-10-04T13:13:13Z</time>
      </trkpt>
      <trkpt lat="42.71752" lon="0.15567">
        <ele>2276.1</ele>
        <time>2012-10-04T13:13:14Z</time>
      </trkpt>
      <trkpt lat="42.71749" lon="0.15569">
        <ele>2275.1</ele>
        <time>2012-10-04T13:13:15Z</time>
      </trkpt>
      <trkpt lat="42.71746" lon="0.15572">
        <ele>2274.6</ele>
        <time>2012-10-04T13:13:16Z</time>
      </trkpt>
      <trkpt lat="42.71743" lon="0.15575">
        <ele>2274.1</ele>
        <time>2012-10-04T13:13:17Z</time>
      </trkpt>
      <trkpt lat="42.7174" lon="0.15579">
        <ele>2272.7</ele>
        <time>2012-10-04T13:13:18Z</time>
      </trkpt>
      <trkpt lat="42.71736" lon="0.15582">
        <ele>2272.2</ele>
        <time>2012-10-04T13:13:19Z</time>
      </trkpt>
      <trkpt lat="42.71733" lon="0.15585">
        <ele>2270.8</ele>
        <time>2012-10-04T13:13:20Z</time>
      </trkpt>
      <trkpt lat="42.7173" lon="0.15588">
        <ele>2270.3</ele>
        <time>2012-10-04T13:13:21Z</time>
      </trkpt>
      <trkpt lat="42.71719" lon="0.156">
        <ele>2266.9</ele>
        <time>2012-10-04T13:13:25Z</time>
      </trkpt>
      <trkpt lat="42.71707" lon="0.15611">
        <ele>2263.6</ele>
        <time>2012-10-04T13:13:29Z</time>
      </trkpt>
      <trkpt lat="42.71704" lon="0.15616">
        <ele>2263.1</ele>
        <time>2012-10-04T13:13:30Z</time>
      </trkpt>
      <trkpt lat="42.71698" lon="0.15633">
        <ele>2259.7</ele>
        <time>2012-10-04T13:13:33Z</time>
      </trkpt>
      <trkpt lat="42.7169" lon="0.15647">
        <ele>2256.4</ele>
        <time>2012-10-04T13:13:37Z</time>
      </trkpt>
      <trkpt lat="42.71681" lon="0.15667">
        <ele>2253.5</ele>
        <time>2012-10-04T13:13:43Z</time>
      </trkpt>
      <trkpt lat="42.71676" lon="0.15676">
        <ele>2251.1</ele>
        <time>2012-10-04T13:13:45Z</time>
      </trkpt>
      <trkpt lat="42.71674" lon="0.15682">
        <ele>2250.1</ele>
        <time>2012-10-04T13:13:46Z</time>
      </trkpt>
      <trkpt lat="42.71671" lon="0.15687">
        <ele>2249.1</ele>
        <time>2012-10-04T13:13:47Z</time>
      </trkpt>
      <trkpt lat="42.71669" lon="0.15691">
        <ele>2248.7</ele>
        <time>2012-10-04T13:13:48Z</time>
      </trkpt>
      <trkpt lat="42.71668" lon="0.15694">
        <ele>2248.2</ele>
        <time>2012-10-04T13:13:49Z</time>
      </trkpt>
      <trkpt lat="42.71665" lon="0.15697">
        <ele>2247.7</ele>
        <time>2012-10-04T13:13:50Z</time>
      </trkpt>
      <trkpt lat="42.71663" lon="0.15702">
        <ele>2246.7</ele>
        <time>2012-10-04T13:13:51Z</time>
      </trkpt>
      <trkpt lat="42.71661" lon="0.15706">
        <ele>2246.3</ele>
        <time>2012-10-04T13:13:52Z</time>
      </trkpt>
      <trkpt lat="42.71659" lon="0.15711">
        <ele>2244.8</ele>
        <time>2012-10-04T13:13:53Z</time>
      </trkpt>
      <trkpt lat="42.71656" lon="0.15714">
        <ele>2244.3</ele>
        <time>2012-10-04T13:13:54Z</time>
      </trkpt>
      <trkpt lat="42.71654" lon="0.15718">
        <ele>2243.4</ele>
        <time>2012-10-04T13:13:55Z</time>
      </trkpt>
      <trkpt lat="42.71652" lon="0.15721">
        <ele>2242.9</ele>
        <time>2012-10-04T13:13:56Z</time>
      </trkpt>
      <trkpt lat="42.71648" lon="0.15727">
        <ele>2241.4</ele>
        <time>2012-10-04T13:13:58Z</time>
      </trkpt>
      <trkpt lat="42.71646" lon="0.15728">
        <ele>2240</ele>
        <time>2012-10-04T13:13:59Z</time>
      </trkpt>
      <trkpt lat="42.71644" lon="0.1573">
        <ele>2239.5</ele>
        <time>2012-10-04T13:14:00Z</time>
      </trkpt>
      <trkpt lat="42.71643" lon="0.15731">
        <ele>2239.1</ele>
        <time>2012-10-04T13:14:01Z</time>
      </trkpt>
      <trkpt lat="42.71644" lon="0.15733">
        <ele>2238.6</ele>
        <time>2012-10-04T13:14:02Z</time>
      </trkpt>
      <trkpt lat="42.71644" lon="0.15737">
        <ele>2238.1</ele>
        <time>2012-10-04T13:14:08Z</time>
      </trkpt>
      <trkpt lat="42.71643" lon="0.15742">
        <ele>2238.6</ele>
        <time>2012-10-04T13:14:12Z</time>
      </trkpt>
      <trkpt lat="42.71642" lon="0.15743">
        <ele>2238.6</ele>
        <time>2012-10-04T13:14:13Z</time>
      </trkpt>
      <trkpt lat="42.71641" lon="0.15744">
        <ele>2238.1</ele>
        <time>2012-10-04T13:14:14Z</time>
      </trkpt>
      <trkpt lat="42.71638" lon="0.1575">
        <ele>2237.6</ele>
        <time>2012-10-04T13:14:21Z</time>
      </trkpt>
      <trkpt lat="42.71637" lon="0.1575">
        <ele>2237.1</ele>
        <time>2012-10-04T13:14:22Z</time>
      </trkpt>
      <trkpt lat="42.71635" lon="0.15751">
        <ele>2237.1</ele>
        <time>2012-10-04T13:14:23Z</time>
      </trkpt>
      <trkpt lat="42.7163" lon="0.15754">
        <ele>2236.2</ele>
        <time>2012-10-04T13:14:28Z</time>
      </trkpt>
      <trkpt lat="42.71621" lon="0.15766">
        <ele>2233.3</ele>
        <time>2012-10-04T13:14:33Z</time>
      </trkpt>
      <trkpt lat="42.71617" lon="0.1577">
        <ele>2232.3</ele>
        <time>2012-10-04T13:14:35Z</time>
      </trkpt>
      <trkpt lat="42.71616" lon="0.15772">
        <ele>2231.8</ele>
        <time>2012-10-04T13:14:36Z</time>
      </trkpt>
      <trkpt lat="42.71614" lon="0.15772">
        <ele>2231.8</ele>
        <time>2012-10-04T13:14:37Z</time>
      </trkpt>
      <trkpt lat="42.71613" lon="0.15773">
        <ele>2231.4</ele>
        <time>2012-10-04T13:14:38Z</time>
      </trkpt>
      <trkpt lat="42.7161" lon="0.15775">
        <ele>2230.4</ele>
        <time>2012-10-04T13:14:39Z</time>
      </trkpt>
      <trkpt lat="42.71608" lon="0.15778">
        <ele>2229.9</ele>
        <time>2012-10-04T13:14:40Z</time>
      </trkpt>
      <trkpt lat="42.71607" lon="0.15781">
        <ele>2229.4</ele>
        <time>2012-10-04T13:14:41Z</time>
      </trkpt>
      <trkpt lat="42.71592" lon="0.15796">
        <ele>2226.1</ele>
        <time>2012-10-04T13:14:46Z</time>
      </trkpt>
      <trkpt lat="42.71589" lon="0.15799">
        <ele>2225.1</ele>
        <time>2012-10-04T13:14:47Z</time>
      </trkpt>
      <trkpt lat="42.71585" lon="0.15802">
        <ele>2224.1</ele>
        <time>2012-10-04T13:14:48Z</time>
      </trkpt>
      <trkpt lat="42.71582" lon="0.15805">
        <ele>2223.2</ele>
        <time>2012-10-04T13:14:49Z</time>
      </trkpt>
      <trkpt lat="42.71575" lon="0.15811">
        <ele>2221.3</ele>
        <time>2012-10-04T13:14:51Z</time>
      </trkpt>
      <trkpt lat="42.71571" lon="0.15814">
        <ele>2220.8</ele>
        <time>2012-10-04T13:14:52Z</time>
      </trkpt>
      <trkpt lat="42.71568" lon="0.15818">
        <ele>2219.3</ele>
        <time>2012-10-04T13:14:53Z</time>
      </trkpt>
      <trkpt lat="42.71565" lon="0.15821">
        <ele>2219.3</ele>
        <time>2012-10-04T13:14:54Z</time>
      </trkpt>
      <trkpt lat="42.71562" lon="0.15824">
        <ele>2218.4</ele>
        <time>2012-10-04T13:14:55Z</time>
      </trkpt>
      <trkpt lat="42.7156" lon="0.15828">
        <ele>2217.4</ele>
        <time>2012-10-04T13:14:56Z</time>
      </trkpt>
      <trkpt lat="42.71559" lon="0.15832">
        <ele>2217.4</ele>
        <time>2012-10-04T13:14:57Z</time>
      </trkpt>
      <trkpt lat="42.71557" lon="0.15836">
        <ele>2217.4</ele>
        <time>2012-10-04T13:14:58Z</time>
      </trkpt>
      <trkpt lat="42.71555" lon="0.15839">
        <ele>2216.9</ele>
        <time>2012-10-04T13:14:59Z</time>
      </trkpt>
      <trkpt lat="42.71554" lon="0.15842">
        <ele>2216.5</ele>
        <time>2012-10-04T13:15:00Z</time>
      </trkpt>
      <trkpt lat="42.71552" lon="0.15845">
        <ele>2216</ele>
        <time>2012-10-04T13:15:01Z</time>
      </trkpt>
      <trkpt lat="42.71547" lon="0.15861">
        <ele>2215.5</ele>
        <time>2012-10-04T13:15:05Z</time>
      </trkpt>
      <trkpt lat="42.71547" lon="0.15866">
        <ele>2215</ele>
        <time>2012-10-04T13:15:06Z</time>
      </trkpt>
      <trkpt lat="42.71547" lon="0.15867">
        <ele>2215</ele>
        <time>2012-10-04T13:15:07Z</time>
      </trkpt>
      <trkpt lat="42.71547" lon="0.15867">
        <ele>2214.1</ele>
        <time>2012-10-04T13:15:11Z</time>
      </trkpt>
      <trkpt lat="42.71547" lon="0.15868">
        <ele>2214.1</ele>
        <time>2012-10-04T13:15:20Z</time>
      </trkpt>
      <trkpt lat="42.71547" lon="0.15868">
        <ele>2213.6</ele>
        <time>2012-10-04T13:15:26Z</time>
      </trkpt>
      <trkpt lat="42.71545" lon="0.1587">
        <ele>2213.6</ele>
        <time>2012-10-04T13:15:33Z</time>
      </trkpt>
      <trkpt lat="42.71543" lon="0.15871">
        <ele>2214.1</ele>
        <time>2012-10-04T13:15:41Z</time>
      </trkpt>
      <trkpt lat="42.71542" lon="0.15872">
        <ele>2213.6</ele>
        <time>2012-10-04T13:15:42Z</time>
      </trkpt>
      <trkpt lat="42.7154" lon="0.15876">
        <ele>2213.1</ele>
        <time>2012-10-04T13:15:48Z</time>
      </trkpt>
      <trkpt lat="42.7154" lon="0.15877">
        <ele>2213.1</ele>
        <time>2012-10-04T13:15:52Z</time>
      </trkpt>
      <trkpt lat="42.71539" lon="0.15879">
        <ele>2212.6</ele>
        <time>2012-10-04T13:15:54Z</time>
      </trkpt>
      <trkpt lat="42.71533" lon="0.15889">
        <ele>2210.7</ele>
        <time>2012-10-04T13:15:59Z</time>
      </trkpt>
      <trkpt lat="42.71532" lon="0.15892">
        <ele>2210.7</ele>
        <time>2012-10-04T13:16:05Z</time>
      </trkpt>
      <trkpt lat="42.71527" lon="0.159">
        <ele>2209.7</ele>
        <time>2012-10-04T13:16:14Z</time>
      </trkpt>
      <trkpt lat="42.71525" lon="0.15905">
        <ele>2208.8</ele>
        <time>2012-10-04T13:16:19Z</time>
      </trkpt>
      <trkpt lat="42.71524" lon="0.15906">
        <ele>2208.8</ele>
        <time>2012-10-04T13:16:20Z</time>
      </trkpt>
      <trkpt lat="42.71522" lon="0.15909">
        <ele>2210.2</ele>
        <time>2012-10-04T13:16:24Z</time>
      </trkpt>
      <trkpt lat="42.7152" lon="0.15913">
        <ele>2210.2</ele>
        <time>2012-10-04T13:16:30Z</time>
      </trkpt>
      <trkpt lat="42.71519" lon="0.15915">
        <ele>2210.2</ele>
        <time>2012-10-04T13:16:43Z</time>
      </trkpt>
      <trkpt lat="42.71521" lon="0.15916">
        <ele>2210.2</ele>
        <time>2012-10-04T13:16:53Z</time>
      </trkpt>
      <trkpt lat="42.7152" lon="0.15918">
        <ele>2209.7</ele>
        <time>2012-10-04T13:17:04Z</time>
      </trkpt>
      <trkpt lat="42.71512" lon="0.1593">
        <ele>2208.8</ele>
        <time>2012-10-04T13:17:09Z</time>
      </trkpt>
      <trkpt lat="42.71511" lon="0.15933">
        <ele>2208.3</ele>
        <time>2012-10-04T13:17:10Z</time>
      </trkpt>
      <trkpt lat="42.7151" lon="0.15936">
        <ele>2207.8</ele>
        <time>2012-10-04T13:17:11Z</time>
      </trkpt>
      <trkpt lat="42.71509" lon="0.15938">
        <ele>2207.8</ele>
        <time>2012-10-04T13:17:12Z</time>
      </trkpt>
      <trkpt lat="42.715" lon="0.15947">
        <ele>2206.4</ele>
        <time>2012-10-04T13:17:17Z</time>
      </trkpt>
      <trkpt lat="42.71496" lon="0.15954">
        <ele>2205.4</ele>
        <time>2012-10-04T13:17:19Z</time>
      </trkpt>
      <trkpt lat="42.71494" lon="0.1596">
        <ele>2204</ele>
        <time>2012-10-04T13:17:21Z</time>
      </trkpt>
      <trkpt lat="42.71492" lon="0.15963">
        <ele>2202.5</ele>
        <time>2012-10-04T13:17:22Z</time>
      </trkpt>
      <trkpt lat="42.7149" lon="0.15967">
        <ele>2202</ele>
        <time>2012-10-04T13:17:23Z</time>
      </trkpt>
      <trkpt lat="42.71489" lon="0.15972">
        <ele>2201.6</ele>
        <time>2012-10-04T13:17:24Z</time>
      </trkpt>
      <trkpt lat="42.71487" lon="0.15975">
        <ele>2200.6</ele>
        <time>2012-10-04T13:17:25Z</time>
      </trkpt>
      <trkpt lat="42.71486" lon="0.15978">
        <ele>2200.1</ele>
        <time>2012-10-04T13:17:26Z</time>
      </trkpt>
      <trkpt lat="42.71485" lon="0.1598">
        <ele>2199.6</ele>
        <time>2012-10-04T13:17:27Z</time>
      </trkpt>
      <trkpt lat="42.71483" lon="0.15986">
        <ele>2199.1</ele>
        <time>2012-10-04T13:17:30Z</time>
      </trkpt>
      <trkpt lat="42.71481" lon="0.15986">
        <ele>2198.7</ele>
        <time>2012-10-04T13:17:31Z</time>
      </trkpt>
      <trkpt lat="42.71479" lon="0.15987">
        <ele>2198.2</ele>
        <time>2012-10-04T13:17:32Z</time>
      </trkpt>
      <trkpt lat="42.71465" lon="0.15997">
        <ele>2195.3</ele>
        <time>2012-10-04T13:17:37Z</time>
      </trkpt>
      <trkpt lat="42.71446" lon="0.16007">
        <ele>2191.9</ele>
        <time>2012-10-04T13:17:42Z</time>
      </trkpt>
      <trkpt lat="42.71442" lon="0.16009">
        <ele>2191</ele>
        <time>2012-10-04T13:17:43Z</time>
      </trkpt>
      <trkpt lat="42.71439" lon="0.1601">
        <ele>2190</ele>
        <time>2012-10-04T13:17:44Z</time>
      </trkpt>
      <trkpt lat="42.71436" lon="0.16011">
        <ele>2190</ele>
        <time>2012-10-04T13:17:45Z</time>
      </trkpt>
      <trkpt lat="42.71434" lon="0.16012">
        <ele>2189.1</ele>
        <time>2012-10-04T13:17:46Z</time>
      </trkpt>
      <trkpt lat="42.71431" lon="0.16014">
        <ele>2188.1</ele>
        <time>2012-10-04T13:17:47Z</time>
      </trkpt>
      <trkpt lat="42.71425" lon="0.16015">
        <ele>2187.1</ele>
        <time>2012-10-04T13:17:49Z</time>
      </trkpt>
      <trkpt lat="42.71423" lon="0.16015">
        <ele>2186.7</ele>
        <time>2012-10-04T13:17:50Z</time>
      </trkpt>
      <trkpt lat="42.71411" lon="0.16016">
        <ele>2184.7</ele>
        <time>2012-10-04T13:17:54Z</time>
      </trkpt>
      <trkpt lat="42.71407" lon="0.16016">
        <ele>2183.8</ele>
        <time>2012-10-04T13:17:55Z</time>
      </trkpt>
      <trkpt lat="42.71402" lon="0.16015">
        <ele>2182.8</ele>
        <time>2012-10-04T13:17:56Z</time>
      </trkpt>
      <trkpt lat="42.71398" lon="0.16015">
        <ele>2182.3</ele>
        <time>2012-10-04T13:17:57Z</time>
      </trkpt>
      <trkpt lat="42.71383" lon="0.16017">
        <ele>2179</ele>
        <time>2012-10-04T13:18:01Z</time>
      </trkpt>
      <trkpt lat="42.71379" lon="0.16018">
        <ele>2178.5</ele>
        <time>2012-10-04T13:18:02Z</time>
      </trkpt>
      <trkpt lat="42.71376" lon="0.16019">
        <ele>2177.5</ele>
        <time>2012-10-04T13:18:03Z</time>
      </trkpt>
      <trkpt lat="42.71372" lon="0.1602">
        <ele>2176.6</ele>
        <time>2012-10-04T13:18:04Z</time>
      </trkpt>
      <trkpt lat="42.71369" lon="0.16019">
        <ele>2176.1</ele>
        <time>2012-10-04T13:18:05Z</time>
      </trkpt>
      <trkpt lat="42.71366" lon="0.16018">
        <ele>2175.1</ele>
        <time>2012-10-04T13:18:06Z</time>
      </trkpt>
      <trkpt lat="42.71367" lon="0.16015">
        <ele>2174.2</ele>
        <time>2012-10-04T13:18:10Z</time>
      </trkpt>
      <trkpt lat="42.71371" lon="0.1601">
        <ele>2173.7</ele>
        <time>2012-10-04T13:18:12Z</time>
      </trkpt>
      <trkpt lat="42.71374" lon="0.16007">
        <ele>2173.7</ele>
        <time>2012-10-04T13:18:13Z</time>
      </trkpt>
      <trkpt lat="42.71376" lon="0.16005">
        <ele>2173.7</ele>
        <time>2012-10-04T13:18:14Z</time>
      </trkpt>
      <trkpt lat="42.71393" lon="0.15987">
        <ele>2170.8</ele>
        <time>2012-10-04T13:18:20Z</time>
      </trkpt>
      <trkpt lat="42.71405" lon="0.15975">
        <ele>2168.4</ele>
        <time>2012-10-04T13:18:25Z</time>
      </trkpt>
      <trkpt lat="42.71408" lon="0.15972">
        <ele>2167.4</ele>
        <time>2012-10-04T13:18:27Z</time>
      </trkpt>
      <trkpt lat="42.71409" lon="0.1597">
        <ele>2166.9</ele>
        <time>2012-10-04T13:18:28Z</time>
      </trkpt>
      <trkpt lat="42.71409" lon="0.15968">
        <ele>2166.9</ele>
        <time>2012-10-04T13:18:29Z</time>
      </trkpt>
      <trkpt lat="42.7141" lon="0.15965">
        <ele>2166.9</ele>
        <time>2012-10-04T13:18:30Z</time>
      </trkpt>
      <trkpt lat="42.71412" lon="0.15963">
        <ele>2166.9</ele>
        <time>2012-10-04T13:18:31Z</time>
      </trkpt>
      <trkpt lat="42.71414" lon="0.1596">
        <ele>2166.5</ele>
        <time>2012-10-04T13:18:32Z</time>
      </trkpt>
      <trkpt lat="42.71417" lon="0.15957">
        <ele>2166</ele>
        <time>2012-10-04T13:18:33Z</time>
      </trkpt>
      <trkpt lat="42.71432" lon="0.1594">
        <ele>2163.6</ele>
        <time>2012-10-04T13:18:39Z</time>
      </trkpt>
      <trkpt lat="42.7144" lon="0.15936">
        <ele>2163.6</ele>
        <time>2012-10-04T13:18:43Z</time>
      </trkpt>
      <trkpt lat="42.71441" lon="0.15933">
        <ele>2163.1</ele>
        <time>2012-10-04T13:18:47Z</time>
      </trkpt>
      <trkpt lat="42.71442" lon="0.15925">
        <ele>2162.6</ele>
        <time>2012-10-04T13:18:54Z</time>
      </trkpt>
      <trkpt lat="42.71445" lon="0.15916">
        <ele>2162.1</ele>
        <time>2012-10-04T13:19:01Z</time>
      </trkpt>
      <trkpt lat="42.71445" lon="0.15917">
        <ele>2162.1</ele>
        <time>2012-10-04T13:19:11Z</time>
      </trkpt>
      <trkpt lat="42.71447" lon="0.15914">
        <ele>2162.1</ele>
        <time>2012-10-04T13:19:19Z</time>
      </trkpt>
      <trkpt lat="42.71451" lon="0.15902">
        <ele>2161.2</ele>
        <time>2012-10-04T13:19:25Z</time>
      </trkpt>
      <trkpt lat="42.71456" lon="0.15887">
        <ele>2159.7</ele>
        <time>2012-10-04T13:19:30Z</time>
      </trkpt>
      <trkpt lat="42.71458" lon="0.15883">
        <ele>2159.3</ele>
        <time>2012-10-04T13:19:31Z</time>
      </trkpt>
      <trkpt lat="42.7146" lon="0.15875">
        <ele>2158.8</ele>
        <time>2012-10-04T13:19:33Z</time>
      </trkpt>
      <trkpt lat="42.71464" lon="0.15859">
        <ele>2157.3</ele>
        <time>2012-10-04T13:19:37Z</time>
      </trkpt>
      <trkpt lat="42.71468" lon="0.15836">
        <ele>2155.9</ele>
        <time>2012-10-04T13:19:43Z</time>
      </trkpt>
      <trkpt lat="42.71464" lon="0.1584">
        <ele>2154.9</ele>
        <time>2012-10-04T13:19:45Z</time>
      </trkpt>
      <trkpt lat="42.71448" lon="0.15855">
        <ele>2151.6</ele>
        <time>2012-10-04T13:19:50Z</time>
      </trkpt>
      <trkpt lat="42.71445" lon="0.15858">
        <ele>2150.6</ele>
        <time>2012-10-04T13:19:51Z</time>
      </trkpt>
      <trkpt lat="42.71437" lon="0.15866">
        <ele>2146.8</ele>
        <time>2012-10-04T13:19:54Z</time>
      </trkpt>
      <trkpt lat="42.71427" lon="0.15874">
        <ele>2145.3</ele>
        <time>2012-10-04T13:19:58Z</time>
      </trkpt>
      <trkpt lat="42.71418" lon="0.15877">
        <ele>2143.4</ele>
        <time>2012-10-04T13:20:02Z</time>
      </trkpt>
      <trkpt lat="42.7142" lon="0.15861">
        <ele>2141</ele>
        <time>2012-10-04T13:20:06Z</time>
      </trkpt>
      <trkpt lat="42.71419" lon="0.15848">
        <ele>2139.1</ele>
        <time>2012-10-04T13:20:08Z</time>
      </trkpt>
      <trkpt lat="42.71414" lon="0.1581">
        <ele>2135.2</ele>
        <time>2012-10-04T13:20:15Z</time>
      </trkpt>
      <trkpt lat="42.71414" lon="0.15797">
        <ele>2133.3</ele>
        <time>2012-10-04T13:20:19Z</time>
      </trkpt>
      <trkpt lat="42.71409" lon="0.15779">
        <ele>2131.4</ele>
        <time>2012-10-04T13:20:23Z</time>
      </trkpt>
      <trkpt lat="42.71405" lon="0.15758">
        <ele>2128.5</ele>
        <time>2012-10-04T13:20:26Z</time>
      </trkpt>
      <trkpt lat="42.71399" lon="0.1574">
        <ele>2126.1</ele>
        <time>2012-10-04T13:20:29Z</time>
      </trkpt>
      <trkpt lat="42.71392" lon="0.15731">
        <ele>2124.6</ele>
        <time>2012-10-04T13:20:31Z</time>
      </trkpt>
      <trkpt lat="42.71376" lon="0.15719">
        <ele>2122.2</ele>
        <time>2012-10-04T13:20:34Z</time>
      </trkpt>
      <trkpt lat="42.71361" lon="0.1571">
        <ele>2120.8</ele>
        <time>2012-10-04T13:20:38Z</time>
      </trkpt>
      <trkpt lat="42.7136" lon="0.15706">
        <ele>2120.3</ele>
        <time>2012-10-04T13:20:43Z</time>
      </trkpt>
      <trkpt lat="42.7136" lon="0.1571">
        <ele>2120.3</ele>
        <time>2012-10-04T13:20:50Z</time>
      </trkpt>
      <trkpt lat="42.71359" lon="0.15706">
        <ele>2119.8</ele>
        <time>2012-10-04T13:20:58Z</time>
      </trkpt>
      <trkpt lat="42.7136" lon="0.15706">
        <ele>2119.4</ele>
        <time>2012-10-04T13:20:59Z</time>
      </trkpt>
      <trkpt lat="42.71355" lon="0.15707">
        <ele>2119.4</ele>
        <time>2012-10-04T13:21:05Z</time>
      </trkpt>
      <trkpt lat="42.71354" lon="0.15706">
        <ele>2119.4</ele>
        <time>2012-10-04T13:21:07Z</time>
      </trkpt>
      <trkpt lat="42.7135" lon="0.15705">
        <ele>2118.4</ele>
        <time>2012-10-04T13:21:14Z</time>
      </trkpt>
      <trkpt lat="42.71349" lon="0.15705">
        <ele>2118.4</ele>
        <time>2012-10-04T13:21:22Z</time>
      </trkpt>
      <trkpt lat="42.71349" lon="0.15705">
        <ele>2118.4</ele>
        <time>2012-10-04T13:21:39Z</time>
      </trkpt>
      <trkpt lat="42.71348" lon="0.15706">
        <ele>2117.9</ele>
        <time>2012-10-04T13:21:51Z</time>
      </trkpt>
      <trkpt lat="42.71343" lon="0.15704">
        <ele>2117.4</ele>
        <time>2012-10-04T13:21:54Z</time>
      </trkpt>
      <trkpt lat="42.7134" lon="0.15704">
        <ele>2117</ele>
        <time>2012-10-04T13:21:55Z</time>
      </trkpt>
      <trkpt lat="42.71337" lon="0.15704">
        <ele>2116.5</ele>
        <time>2012-10-04T13:21:56Z</time>
      </trkpt>
      <trkpt lat="42.71332" lon="0.15704">
        <ele>2116</ele>
        <time>2012-10-04T13:21:57Z</time>
      </trkpt>
      <trkpt lat="42.71328" lon="0.15704">
        <ele>2115</ele>
        <time>2012-10-04T13:21:58Z</time>
      </trkpt>
      <trkpt lat="42.71323" lon="0.15705">
        <ele>2115</ele>
        <time>2012-10-04T13:21:59Z</time>
      </trkpt>
      <trkpt lat="42.71317" lon="0.15705">
        <ele>2114.1</ele>
        <time>2012-10-04T13:22:00Z</time>
      </trkpt>
      <trkpt lat="42.71307" lon="0.15706">
        <ele>2111.7</ele>
        <time>2012-10-04T13:22:02Z</time>
      </trkpt>
      <trkpt lat="42.71301" lon="0.15706">
        <ele>2110.7</ele>
        <time>2012-10-04T13:22:03Z</time>
      </trkpt>
      <trkpt lat="42.71295" lon="0.15705">
        <ele>2109.8</ele>
        <time>2012-10-04T13:22:04Z</time>
      </trkpt>
      <trkpt lat="42.71277" lon="0.15699">
        <ele>2106.9</ele>
        <time>2012-10-04T13:22:08Z</time>
      </trkpt>
      <trkpt lat="42.7127" lon="0.15718">
        <ele>2105.4</ele>
        <time>2012-10-04T13:22:12Z</time>
      </trkpt>
      <trkpt lat="42.71277" lon="0.15743">
        <ele>2102.1</ele>
        <time>2012-10-04T13:22:16Z</time>
      </trkpt>
      <trkpt lat="42.71282" lon="0.15753">
        <ele>2099.7</ele>
        <time>2012-10-04T13:22:18Z</time>
      </trkpt>
      <trkpt lat="42.71281" lon="0.15756">
        <ele>2098.7</ele>
        <time>2012-10-04T13:22:19Z</time>
      </trkpt>
      <trkpt lat="42.71278" lon="0.15756">
        <ele>2098.2</ele>
        <time>2012-10-04T13:22:20Z</time>
      </trkpt>
      <trkpt lat="42.71272" lon="0.15756">
        <ele>2097.7</ele>
        <time>2012-10-04T13:22:21Z</time>
      </trkpt>
      <trkpt lat="42.71266" lon="0.15754">
        <ele>2096.3</ele>
        <time>2012-10-04T13:22:22Z</time>
      </trkpt>
      <trkpt lat="42.7126" lon="0.15753">
        <ele>2095.8</ele>
        <time>2012-10-04T13:22:23Z</time>
      </trkpt>
      <trkpt lat="42.71253" lon="0.15753">
        <ele>2093.4</ele>
        <time>2012-10-04T13:22:26Z</time>
      </trkpt>
      <trkpt lat="42.71253" lon="0.15755">
        <ele>2093.9</ele>
        <time>2012-10-04T13:22:27Z</time>
      </trkpt>
      <trkpt lat="42.71261" lon="0.15773">
        <ele>2090.5</ele>
        <time>2012-10-04T13:22:32Z</time>
      </trkpt>
      <trkpt lat="42.71265" lon="0.15787">
        <ele>2088.1</ele>
        <time>2012-10-04T13:22:36Z</time>
      </trkpt>
      <trkpt lat="42.71264" lon="0.15789">
        <ele>2087.6</ele>
        <time>2012-10-04T13:22:37Z</time>
      </trkpt>
      <trkpt lat="42.71262" lon="0.1579">
        <ele>2086.7</ele>
        <time>2012-10-04T13:22:38Z</time>
      </trkpt>
      <trkpt lat="42.71261" lon="0.15791">
        <ele>2086.2</ele>
        <time>2012-10-04T13:22:39Z</time>
      </trkpt>
      <trkpt lat="42.71261" lon="0.15793">
        <ele>2085.7</ele>
        <time>2012-10-04T13:22:40Z</time>
      </trkpt>
      <trkpt lat="42.71262" lon="0.15797">
        <ele>2084.8</ele>
        <time>2012-10-04T13:22:43Z</time>
      </trkpt>
      <trkpt lat="42.71261" lon="0.15807">
        <ele>2083.3</ele>
        <time>2012-10-04T13:22:49Z</time>
      </trkpt>
      <trkpt lat="42.7126" lon="0.15807">
        <ele>2083.3</ele>
        <time>2012-10-04T13:22:57Z</time>
      </trkpt>
      <trkpt lat="42.71259" lon="0.1581">
        <ele>2083.3</ele>
        <time>2012-10-04T13:23:05Z</time>
      </trkpt>
      <trkpt lat="42.71258" lon="0.15812">
        <ele>2084.3</ele>
        <time>2012-10-04T13:23:11Z</time>
      </trkpt>
      <trkpt lat="42.71258" lon="0.15812">
        <ele>2083.8</ele>
        <time>2012-10-04T13:23:12Z</time>
      </trkpt>
      <trkpt lat="42.71254" lon="0.15812">
        <ele>2082.8</ele>
        <time>2012-10-04T13:23:16Z</time>
      </trkpt>
      <trkpt lat="42.71247" lon="0.15813">
        <ele>2082.4</ele>
        <time>2012-10-04T13:23:23Z</time>
      </trkpt>
      <trkpt lat="42.71232" lon="0.15812">
        <ele>2079.9</ele>
        <time>2012-10-04T13:23:29Z</time>
      </trkpt>
      <trkpt lat="42.71219" lon="0.15812">
        <ele>2077.6</ele>
        <time>2012-10-04T13:23:34Z</time>
      </trkpt>
      <trkpt lat="42.71213" lon="0.15812">
        <ele>2075.6</ele>
        <time>2012-10-04T13:23:37Z</time>
      </trkpt>
      <trkpt lat="42.71212" lon="0.15813">
        <ele>2075.1</ele>
        <time>2012-10-04T13:23:38Z</time>
      </trkpt>
      <trkpt lat="42.71211" lon="0.15813">
        <ele>2074.7</ele>
        <time>2012-10-04T13:23:39Z</time>
      </trkpt>
      <trkpt lat="42.71204" lon="0.15812">
        <ele>2071.8</ele>
        <time>2012-10-04T13:23:44Z</time>
      </trkpt>
      <trkpt lat="42.71198" lon="0.15817">
        <ele>2069.9</ele>
        <time>2012-10-04T13:23:47Z</time>
      </trkpt>
      <trkpt lat="42.71194" lon="0.15821">
        <ele>2068.9</ele>
        <time>2012-10-04T13:23:49Z</time>
      </trkpt>
      <trkpt lat="42.71191" lon="0.15822">
        <ele>2067.9</ele>
        <time>2012-10-04T13:23:50Z</time>
      </trkpt>
      <trkpt lat="42.71188" lon="0.15823">
        <ele>2066.5</ele>
        <time>2012-10-04T13:23:51Z</time>
      </trkpt>
      <trkpt lat="42.71176" lon="0.15826">
        <ele>2063.1</ele>
        <time>2012-10-04T13:23:55Z</time>
      </trkpt>
      <trkpt lat="42.7117" lon="0.15829">
        <ele>2061.7</ele>
        <time>2012-10-04T13:23:58Z</time>
      </trkpt>
      <trkpt lat="42.71169" lon="0.15831">
        <ele>2060.7</ele>
        <time>2012-10-04T13:24:04Z</time>
      </trkpt>
      <trkpt lat="42.71166" lon="0.15835">
        <ele>2059.3</ele>
        <time>2012-10-04T13:24:10Z</time>
      </trkpt>
      <trkpt lat="42.71166" lon="0.15836">
        <ele>2059.3</ele>
        <time>2012-10-04T13:24:11Z</time>
      </trkpt>
      <trkpt lat="42.71161" lon="0.1584">
        <ele>2059.3</ele>
        <time>2012-10-04T13:24:18Z</time>
      </trkpt>
      <trkpt lat="42.7116" lon="0.1584">
        <ele>2058.8</ele>
        <time>2012-10-04T13:24:23Z</time>
      </trkpt>
      <trkpt lat="42.71159" lon="0.1584">
        <ele>2058.3</ele>
        <time>2012-10-04T13:24:24Z</time>
      </trkpt>
      <trkpt lat="42.71158" lon="0.15839">
        <ele>2058.3</ele>
        <time>2012-10-04T13:24:25Z</time>
      </trkpt>
      <trkpt lat="42.71156" lon="0.15838">
        <ele>2057.8</ele>
        <time>2012-10-04T13:24:26Z</time>
      </trkpt>
      <trkpt lat="42.71154" lon="0.15839">
        <ele>2057.4</ele>
        <time>2012-10-04T13:24:27Z</time>
      </trkpt>
      <trkpt lat="42.7115" lon="0.1584">
        <ele>2056.4</ele>
        <time>2012-10-04T13:24:28Z</time>
      </trkpt>
      <trkpt lat="42.71147" lon="0.15841">
        <ele>2055.9</ele>
        <time>2012-10-04T13:24:29Z</time>
      </trkpt>
      <trkpt lat="42.7114" lon="0.15847">
        <ele>2053.5</ele>
        <time>2012-10-04T13:24:32Z</time>
      </trkpt>
      <trkpt lat="42.71137" lon="0.15848">
        <ele>2052.6</ele>
        <time>2012-10-04T13:24:33Z</time>
      </trkpt>
      <trkpt lat="42.71134" lon="0.15848">
        <ele>2051.6</ele>
        <time>2012-10-04T13:24:34Z</time>
      </trkpt>
      <trkpt lat="42.71131" lon="0.1585">
        <ele>2051.1</ele>
        <time>2012-10-04T13:24:35Z</time>
      </trkpt>
      <trkpt lat="42.71129" lon="0.15851">
        <ele>2051.1</ele>
        <time>2012-10-04T13:24:36Z</time>
      </trkpt>
      <trkpt lat="42.71126" lon="0.15852">
        <ele>2050.1</ele>
        <time>2012-10-04T13:24:37Z</time>
      </trkpt>
      <trkpt lat="42.71123" lon="0.15853">
        <ele>2049.7</ele>
        <time>2012-10-04T13:24:38Z</time>
      </trkpt>
      <trkpt lat="42.71119" lon="0.15854">
        <ele>2049.2</ele>
        <time>2012-10-04T13:24:39Z</time>
      </trkpt>
      <trkpt lat="42.71115" lon="0.15855">
        <ele>2048.2</ele>
        <time>2012-10-04T13:24:40Z</time>
      </trkpt>
      <trkpt lat="42.7111" lon="0.15856">
        <ele>2046.8</ele>
        <time>2012-10-04T13:24:41Z</time>
      </trkpt>
      <trkpt lat="42.71106" lon="0.15856">
        <ele>2046.8</ele>
        <time>2012-10-04T13:24:42Z</time>
      </trkpt>
      <trkpt lat="42.71102" lon="0.15854">
        <ele>2045.8</ele>
        <time>2012-10-04T13:24:43Z</time>
      </trkpt>
      <trkpt lat="42.71099" lon="0.15852">
        <ele>2045.3</ele>
        <time>2012-10-04T13:24:44Z</time>
      </trkpt>
      <trkpt lat="42.71095" lon="0.15849">
        <ele>2044.4</ele>
        <time>2012-10-04T13:24:45Z</time>
      </trkpt>
      <trkpt lat="42.71092" lon="0.15846">
        <ele>2043.9</ele>
        <time>2012-10-04T13:24:46Z</time>
      </trkpt>
      <trkpt lat="42.71089" lon="0.15843">
        <ele>2043.4</ele>
        <time>2012-10-04T13:24:47Z</time>
      </trkpt>
      <trkpt lat="42.71083" lon="0.15836">
        <ele>2042.9</ele>
        <time>2012-10-04T13:24:49Z</time>
      </trkpt>
      <trkpt lat="42.71079" lon="0.15834">
        <ele>2042</ele>
        <time>2012-10-04T13:24:50Z</time>
      </trkpt>
      <trkpt lat="42.71071" lon="0.1583">
        <ele>2040.5</ele>
        <time>2012-10-04T13:24:52Z</time>
      </trkpt>
      <trkpt lat="42.71063" lon="0.15828">
        <ele>2039.1</ele>
        <time>2012-10-04T13:24:54Z</time>
      </trkpt>
      <trkpt lat="42.71059" lon="0.15828">
        <ele>2037.7</ele>
        <time>2012-10-04T13:24:55Z</time>
      </trkpt>
      <trkpt lat="42.71054" lon="0.15828">
        <ele>2036.7</ele>
        <time>2012-10-04T13:24:56Z</time>
      </trkpt>
      <trkpt lat="42.71041" lon="0.15827">
        <ele>2033.3</ele>
        <time>2012-10-04T13:24:58Z</time>
      </trkpt>
      <trkpt lat="42.71035" lon="0.15825">
        <ele>2032.8</ele>
        <time>2012-10-04T13:24:59Z</time>
      </trkpt>
      <trkpt lat="42.7103" lon="0.15824">
        <ele>2032.4</ele>
        <time>2012-10-04T13:25:00Z</time>
      </trkpt>
      <trkpt lat="42.71026" lon="0.15823">
        <ele>2032.4</ele>
        <time>2012-10-04T13:25:01Z</time>
      </trkpt>
      <trkpt lat="42.71022" lon="0.15822">
        <ele>2031.4</ele>
        <time>2012-10-04T13:25:02Z</time>
      </trkpt>
      <trkpt lat="42.71018" lon="0.15823">
        <ele>2030.4</ele>
        <time>2012-10-04T13:25:03Z</time>
      </trkpt>
      <trkpt lat="42.71014" lon="0.15824">
        <ele>2030</ele>
        <time>2012-10-04T13:25:04Z</time>
      </trkpt>
      <trkpt lat="42.71011" lon="0.15827">
        <ele>2028</ele>
        <time>2012-10-04T13:25:05Z</time>
      </trkpt>
      <trkpt lat="42.71007" lon="0.15829">
        <ele>2027.6</ele>
        <time>2012-10-04T13:25:06Z</time>
      </trkpt>
      <trkpt lat="42.71" lon="0.15836">
        <ele>2024.2</ele>
        <time>2012-10-04T13:25:08Z</time>
      </trkpt>
      <trkpt lat="42.70996" lon="0.1584">
        <ele>2023.7</ele>
        <time>2012-10-04T13:25:09Z</time>
      </trkpt>
      <trkpt lat="42.70992" lon="0.15842">
        <ele>2022.8</ele>
        <time>2012-10-04T13:25:10Z</time>
      </trkpt>
      <trkpt lat="42.70987" lon="0.15843">
        <ele>2021.3</ele>
        <time>2012-10-04T13:25:11Z</time>
      </trkpt>
      <trkpt lat="42.70978" lon="0.15842">
        <ele>2019.9</ele>
        <time>2012-10-04T13:25:13Z</time>
      </trkpt>
      <trkpt lat="42.70974" lon="0.15841">
        <ele>2019.9</ele>
        <time>2012-10-04T13:25:14Z</time>
      </trkpt>
      <trkpt lat="42.7097" lon="0.15842">
        <ele>2018.4</ele>
        <time>2012-10-04T13:25:15Z</time>
      </trkpt>
      <trkpt lat="42.70966" lon="0.15843">
        <ele>2017.9</ele>
        <time>2012-10-04T13:25:16Z</time>
      </trkpt>
      <trkpt lat="42.70963" lon="0.15842">
        <ele>2017.5</ele>
        <time>2012-10-04T13:25:17Z</time>
      </trkpt>
      <trkpt lat="42.70959" lon="0.15839">
        <ele>2017</ele>
        <time>2012-10-04T13:25:18Z</time>
      </trkpt>
      <trkpt lat="42.70952" lon="0.15834">
        <ele>2015.5</ele>
        <time>2012-10-04T13:25:20Z</time>
      </trkpt>
      <trkpt lat="42.70948" lon="0.15831">
        <ele>2015.1</ele>
        <time>2012-10-04T13:25:21Z</time>
      </trkpt>
      <trkpt lat="42.70942" lon="0.15825">
        <ele>2014.1</ele>
        <time>2012-10-04T13:25:23Z</time>
      </trkpt>
      <trkpt lat="42.70931" lon="0.15819">
        <ele>2012.2</ele>
        <time>2012-10-04T13:25:26Z</time>
      </trkpt>
      <trkpt lat="42.70926" lon="0.15816">
        <ele>2011.2</ele>
        <time>2012-10-04T13:25:30Z</time>
      </trkpt>
      <trkpt lat="42.70925" lon="0.15817">
        <ele>2011.2</ele>
        <time>2012-10-04T13:25:43Z</time>
      </trkpt>
      <trkpt lat="42.70924" lon="0.15817">
        <ele>2011.2</ele>
        <time>2012-10-04T13:25:44Z</time>
      </trkpt>
      <trkpt lat="42.70912" lon="0.15818">
        <ele>2008.8</ele>
        <time>2012-10-04T13:25:50Z</time>
      </trkpt>
      <trkpt lat="42.70902" lon="0.15819">
        <ele>2006.4</ele>
        <time>2012-10-04T13:25:54Z</time>
      </trkpt>
      <trkpt lat="42.70902" lon="0.15817">
        <ele>2006.9</ele>
        <time>2012-10-04T13:25:55Z</time>
      </trkpt>
      <trkpt lat="42.70905" lon="0.15813">
        <ele>2005.9</ele>
        <time>2012-10-04T13:25:57Z</time>
      </trkpt>
      <trkpt lat="42.70909" lon="0.1581">
        <ele>2005.4</ele>
        <time>2012-10-04T13:25:58Z</time>
      </trkpt>
      <trkpt lat="42.70912" lon="0.15807">
        <ele>2005.4</ele>
        <time>2012-10-04T13:25:59Z</time>
      </trkpt>
      <trkpt lat="42.70915" lon="0.15804">
        <ele>2004.5</ele>
        <time>2012-10-04T13:26:00Z</time>
      </trkpt>
      <trkpt lat="42.70919" lon="0.15802">
        <ele>2004</ele>
        <time>2012-10-04T13:26:01Z</time>
      </trkpt>
      <trkpt lat="42.70924" lon="0.15801">
        <ele>2003.5</ele>
        <time>2012-10-04T13:26:02Z</time>
      </trkpt>
      <trkpt lat="42.70933" lon="0.15796">
        <ele>2000.6</ele>
        <time>2012-10-04T13:26:06Z</time>
      </trkpt>
      <trkpt lat="42.70941" lon="0.15795">
        <ele>1999.2</ele>
        <time>2012-10-04T13:26:08Z</time>
      </trkpt>
      <trkpt lat="42.70946" lon="0.15795">
        <ele>1998.7</ele>
        <time>2012-10-04T13:26:09Z</time>
      </trkpt>
      <trkpt lat="42.70951" lon="0.15793">
        <ele>1997.8</ele>
        <time>2012-10-04T13:26:10Z</time>
      </trkpt>
      <trkpt lat="42.70955" lon="0.15788">
        <ele>1996.8</ele>
        <time>2012-10-04T13:26:11Z</time>
      </trkpt>
      <trkpt lat="42.70971" lon="0.15757">
        <ele>1992.5</ele>
        <time>2012-10-04T13:26:17Z</time>
      </trkpt>
      <trkpt lat="42.70974" lon="0.15746">
        <ele>1991.5</ele>
        <time>2012-10-04T13:26:22Z</time>
      </trkpt>
      <trkpt lat="42.70975" lon="0.15745">
        <ele>1990.6</ele>
        <time>2012-10-04T13:26:23Z</time>
      </trkpt>
      <trkpt lat="42.70975" lon="0.15743">
        <ele>1990.1</ele>
        <time>2012-10-04T13:26:25Z</time>
      </trkpt>
      <trkpt lat="42.7096" lon="0.15751">
        <ele>1986.2</ele>
        <time>2012-10-04T13:26:30Z</time>
      </trkpt>
      <trkpt lat="42.70936" lon="0.15754">
        <ele>1981.9</ele>
        <time>2012-10-04T13:26:36Z</time>
      </trkpt>
      <trkpt lat="42.70933" lon="0.15753">
        <ele>1981.4</ele>
        <time>2012-10-04T13:26:37Z</time>
      </trkpt>
      <trkpt lat="42.70923" lon="0.15749">
        <ele>1979.5</ele>
        <time>2012-10-04T13:26:40Z</time>
      </trkpt>
      <trkpt lat="42.7092" lon="0.15748">
        <ele>1979.5</ele>
        <time>2012-10-04T13:26:41Z</time>
      </trkpt>
      <trkpt lat="42.70898" lon="0.15747">
        <ele>1975.2</ele>
        <time>2012-10-04T13:26:47Z</time>
      </trkpt>
      <trkpt lat="42.70894" lon="0.15746">
        <ele>1973.7</ele>
        <time>2012-10-04T13:26:51Z</time>
      </trkpt>
      <trkpt lat="42.70908" lon="0.15733">
        <ele>1971.3</ele>
        <time>2012-10-04T13:26:56Z</time>
      </trkpt>
      <trkpt lat="42.70925" lon="0.15718">
        <ele>1967.5</ele>
        <time>2012-10-04T13:27:00Z</time>
      </trkpt>
      <trkpt lat="42.70932" lon="0.15709">
        <ele>1966</ele>
        <time>2012-10-04T13:27:03Z</time>
      </trkpt>
      <trkpt lat="42.70938" lon="0.15703">
        <ele>1965.1</ele>
        <time>2012-10-04T13:27:05Z</time>
      </trkpt>
      <trkpt lat="42.70953" lon="0.15687">
        <ele>1962.2</ele>
        <time>2012-10-04T13:27:10Z</time>
      </trkpt>
      <trkpt lat="42.70964" lon="0.15674">
        <ele>1959.3</ele>
        <time>2012-10-04T13:27:13Z</time>
      </trkpt>
      <trkpt lat="42.70975" lon="0.15658">
        <ele>1956.9</ele>
        <time>2012-10-04T13:27:16Z</time>
      </trkpt>
      <trkpt lat="42.70981" lon="0.15648">
        <ele>1955.5</ele>
        <time>2012-10-04T13:27:18Z</time>
      </trkpt>
      <trkpt lat="42.70981" lon="0.15637">
        <ele>1953.5</ele>
        <time>2012-10-04T13:27:22Z</time>
      </trkpt>
      <trkpt lat="42.70978" lon="0.15638">
        <ele>1953.5</ele>
        <time>2012-10-04T13:27:23Z</time>
      </trkpt>
      <trkpt lat="42.70955" lon="0.15638">
        <ele>1947.3</ele>
        <time>2012-10-04T13:27:27Z</time>
      </trkpt>
      <trkpt lat="42.70949" lon="0.15637">
        <ele>1945.8</ele>
        <time>2012-10-04T13:27:28Z</time>
      </trkpt>
      <trkpt lat="42.70926" lon="0.15629">
        <ele>1941</ele>
        <time>2012-10-04T13:27:32Z</time>
      </trkpt>
      <trkpt lat="42.70903" lon="0.15623">
        <ele>1936.2</ele>
        <time>2012-10-04T13:27:37Z</time>
      </trkpt>
      <trkpt lat="42.70877" lon="0.15619">
        <ele>1930.5</ele>
        <time>2012-10-04T13:27:42Z</time>
      </trkpt>
      <trkpt lat="42.70872" lon="0.15618">
        <ele>1929</ele>
        <time>2012-10-04T13:27:43Z</time>
      </trkpt>
      <trkpt lat="42.70846" lon="0.15624">
        <ele>1923.2</ele>
        <time>2012-10-04T13:27:49Z</time>
      </trkpt>
      <trkpt lat="42.70839" lon="0.15612">
        <ele>1919.4</ele>
        <time>2012-10-04T13:27:53Z</time>
      </trkpt>
      <trkpt lat="42.70839" lon="0.15593">
        <ele>1916</ele>
        <time>2012-10-04T13:27:56Z</time>
      </trkpt>
      <trkpt lat="42.70841" lon="0.15581">
        <ele>1914.1</ele>
        <time>2012-10-04T13:27:58Z</time>
      </trkpt>
      <trkpt lat="42.70831" lon="0.15582">
        <ele>1911.7</ele>
        <time>2012-10-04T13:28:02Z</time>
      </trkpt>
      <trkpt lat="42.70827" lon="0.15584">
        <ele>1911.2</ele>
        <time>2012-10-04T13:28:03Z</time>
      </trkpt>
      <trkpt lat="42.70805" lon="0.15593">
        <ele>1906.9</ele>
        <time>2012-10-04T13:28:08Z</time>
      </trkpt>
      <trkpt lat="42.7079" lon="0.15604">
        <ele>1903.1</ele>
        <time>2012-10-04T13:28:12Z</time>
      </trkpt>
      <trkpt lat="42.70785" lon="0.15607">
        <ele>1902.1</ele>
        <time>2012-10-04T13:28:14Z</time>
      </trkpt>
      <trkpt lat="42.70782" lon="0.15609">
        <ele>1901.1</ele>
        <time>2012-10-04T13:28:19Z</time>
      </trkpt>
      <trkpt lat="42.70782" lon="0.15609">
        <ele>1901.1</ele>
        <time>2012-10-04T13:28:30Z</time>
      </trkpt>
      <trkpt lat="42.70782" lon="0.1561">
        <ele>1901.1</ele>
        <time>2012-10-04T13:28:45Z</time>
      </trkpt>
      <trkpt lat="42.70782" lon="0.15609">
        <ele>1901.1</ele>
        <time>2012-10-04T13:29:04Z</time>
      </trkpt>
      <trkpt lat="42.70782" lon="0.15609">
        <ele>1900.7</ele>
        <time>2012-10-04T13:29:14Z</time>
      </trkpt>
      <trkpt lat="42.70782" lon="0.1561">
        <ele>1900.7</ele>
        <time>2012-10-04T13:29:33Z</time>
      </trkpt>
      <trkpt lat="42.70782" lon="0.15609">
        <ele>1900.7</ele>
        <time>2012-10-04T13:29:45Z</time>
      </trkpt>
      <trkpt lat="42.70782" lon="0.1561">
        <ele>1900.2</ele>
        <time>2012-10-04T13:29:57Z</time>
      </trkpt>
      <trkpt lat="42.70782" lon="0.15611">
        <ele>1900.2</ele>
        <time>2012-10-04T13:30:15Z</time>
      </trkpt>
      <trkpt lat="42.70783" lon="0.15611">
        <ele>1900.2</ele>
        <time>2012-10-04T13:30:35Z</time>
      </trkpt>
      <trkpt lat="42.70782" lon="0.15609">
        <ele>1899.7</ele>
        <time>2012-10-04T13:30:51Z</time>
      </trkpt>
      <trkpt lat="42.70781" lon="0.15609">
        <ele>1899.7</ele>
        <time>2012-10-04T13:31:05Z</time>
      </trkpt>
      <trkpt lat="42.70781" lon="0.1561">
        <ele>1899.7</ele>
        <time>2012-10-04T13:31:19Z</time>
      </trkpt>
      <trkpt lat="42.70781" lon="0.1561">
        <ele>1899.7</ele>
        <time>2012-10-04T13:31:35Z</time>
      </trkpt>
      <trkpt lat="42.70781" lon="0.1561">
        <ele>1899.2</ele>
        <time>2012-10-04T13:31:50Z</time>
      </trkpt>
      <trkpt lat="42.7078" lon="0.1561">
        <ele>1899.2</ele>
        <time>2012-10-04T13:32:03Z</time>
      </trkpt>
      <trkpt lat="42.70779" lon="0.1561">
        <ele>1899.2</ele>
        <time>2012-10-04T13:32:15Z</time>
      </trkpt>
      <trkpt lat="42.70775" lon="0.15597">
        <ele>1897.8</ele>
        <time>2012-10-04T13:32:19Z</time>
      </trkpt>
      <trkpt lat="42.70768" lon="0.15572">
        <ele>1894.4</ele>
        <time>2012-10-04T13:32:23Z</time>
      </trkpt>
      <trkpt lat="42.70762" lon="0.15566">
        <ele>1892</ele>
        <time>2012-10-04T13:32:26Z</time>
      </trkpt>
      <trkpt lat="42.70754" lon="0.15582">
        <ele>1889.1</ele>
        <time>2012-10-04T13:32:29Z</time>
      </trkpt>
      <trkpt lat="42.70746" lon="0.15593">
        <ele>1887.7</ele>
        <time>2012-10-04T13:32:31Z</time>
      </trkpt>
      <trkpt lat="42.70737" lon="0.15595">
        <ele>1886.2</ele>
        <time>2012-10-04T13:32:35Z</time>
      </trkpt>
      <trkpt lat="42.70737" lon="0.15575">
        <ele>1884.3</ele>
        <time>2012-10-04T13:32:38Z</time>
      </trkpt>
      <trkpt lat="42.70736" lon="0.15553">
        <ele>1881</ele>
        <time>2012-10-04T13:32:41Z</time>
      </trkpt>
      <trkpt lat="42.7073" lon="0.15553">
        <ele>1877.6</ele>
        <time>2012-10-04T13:32:45Z</time>
      </trkpt>
      <trkpt lat="42.70719" lon="0.15568">
        <ele>1874.7</ele>
        <time>2012-10-04T13:32:48Z</time>
      </trkpt>
      <trkpt lat="42.70708" lon="0.15594">
        <ele>1872.8</ele>
        <time>2012-10-04T13:32:52Z</time>
      </trkpt>
      <trkpt lat="42.70705" lon="0.15607">
        <ele>1871.3</ele>
        <time>2012-10-04T13:32:56Z</time>
      </trkpt>
      <trkpt lat="42.70703" lon="0.15623">
        <ele>1868</ele>
        <time>2012-10-04T13:33:00Z</time>
      </trkpt>
      <trkpt lat="42.70703" lon="0.15626">
        <ele>1868</ele>
        <time>2012-10-04T13:33:01Z</time>
      </trkpt>
      <trkpt lat="42.70692" lon="0.15653">
        <ele>1864.1</ele>
        <time>2012-10-04T13:33:08Z</time>
      </trkpt>
      <trkpt lat="42.7069" lon="0.15663">
        <ele>1862.2</ele>
        <time>2012-10-04T13:33:10Z</time>
      </trkpt>
      <trkpt lat="42.70687" lon="0.15677">
        <ele>1860.3</ele>
        <time>2012-10-04T13:33:13Z</time>
      </trkpt>
      <trkpt lat="42.70675" lon="0.15691">
        <ele>1857.9</ele>
        <time>2012-10-04T13:33:18Z</time>
      </trkpt>
      <trkpt lat="42.70673" lon="0.15694">
        <ele>1857.4</ele>
        <time>2012-10-04T13:33:19Z</time>
      </trkpt>
      <trkpt lat="42.70663" lon="0.15711">
        <ele>1853.1</ele>
        <time>2012-10-04T13:33:24Z</time>
      </trkpt>
      <trkpt lat="42.70661" lon="0.15715">
        <ele>1852.6</ele>
        <time>2012-10-04T13:33:25Z</time>
      </trkpt>
      <trkpt lat="42.70657" lon="0.15723">
        <ele>1850.7</ele>
        <time>2012-10-04T13:33:28Z</time>
      </trkpt>
      <trkpt lat="42.70648" lon="0.1574">
        <ele>1847.3</ele>
        <time>2012-10-04T13:33:33Z</time>
      </trkpt>
      <trkpt lat="42.70643" lon="0.15752">
        <ele>1845.4</ele>
        <time>2012-10-04T13:33:36Z</time>
      </trkpt>
      <trkpt lat="42.70637" lon="0.15767">
        <ele>1842.5</ele>
        <time>2012-10-04T13:33:39Z</time>
      </trkpt>
      <trkpt lat="42.70628" lon="0.15782">
        <ele>1840.6</ele>
        <time>2012-10-04T13:33:42Z</time>
      </trkpt>
      <trkpt lat="42.70625" lon="0.15787">
        <ele>1839.6</ele>
        <time>2012-10-04T13:33:43Z</time>
      </trkpt>
      <trkpt lat="42.7062" lon="0.15795">
        <ele>1838.7</ele>
        <time>2012-10-04T13:33:45Z</time>
      </trkpt>
      <trkpt lat="42.70617" lon="0.15797">
        <ele>1837.2</ele>
        <time>2012-10-04T13:33:48Z</time>
      </trkpt>
      <trkpt lat="42.70618" lon="0.15778">
        <ele>1834.8</ele>
        <time>2012-10-04T13:33:53Z</time>
      </trkpt>
      <trkpt lat="42.70619" lon="0.15768">
        <ele>1833.8</ele>
        <time>2012-10-04T13:33:55Z</time>
      </trkpt>
      <trkpt lat="42.70621" lon="0.1575">
        <ele>1832.4</ele>
        <time>2012-10-04T13:33:58Z</time>
      </trkpt>
      <trkpt lat="42.7062" lon="0.15729">
        <ele>1829.5</ele>
        <time>2012-10-04T13:34:02Z</time>
      </trkpt>
      <trkpt lat="42.70618" lon="0.15696">
        <ele>1825.7</ele>
        <time>2012-10-04T13:34:09Z</time>
      </trkpt>
      <trkpt lat="42.70615" lon="0.15683">
        <ele>1826.2</ele>
        <time>2012-10-04T13:34:13Z</time>
      </trkpt>
      <trkpt lat="42.70613" lon="0.15663">
        <ele>1826.2</ele>
        <time>2012-10-04T13:34:22Z</time>
      </trkpt>
      <trkpt lat="42.70613" lon="0.15646">
        <ele>1824.2</ele>
        <time>2012-10-04T13:34:26Z</time>
      </trkpt>
      <trkpt lat="42.70612" lon="0.15627">
        <ele>1823.8</ele>
        <time>2012-10-04T13:34:30Z</time>
      </trkpt>
      <trkpt lat="42.7061" lon="0.15609">
        <ele>1822.3</ele>
        <time>2012-10-04T13:34:34Z</time>
      </trkpt>
      <trkpt lat="42.70608" lon="0.1561">
        <ele>1820.9</ele>
        <time>2012-10-04T13:34:35Z</time>
      </trkpt>
      <trkpt lat="42.70606" lon="0.15615">
        <ele>1820.4</ele>
        <time>2012-10-04T13:34:36Z</time>
      </trkpt>
      <trkpt lat="42.70604" lon="0.15621">
        <ele>1819.9</ele>
        <time>2012-10-04T13:34:37Z</time>
      </trkpt>
      <trkpt lat="42.70602" lon="0.15627">
        <ele>1818.9</ele>
        <time>2012-10-04T13:34:38Z</time>
      </trkpt>
      <trkpt lat="42.70594" lon="0.15652">
        <ele>1816.1</ele>
        <time>2012-10-04T13:34:42Z</time>
      </trkpt>
      <trkpt lat="42.70587" lon="0.1568">
        <ele>1811.7</ele>
        <time>2012-10-04T13:34:46Z</time>
      </trkpt>
      <trkpt lat="42.70582" lon="0.15702">
        <ele>1807.9</ele>
        <time>2012-10-04T13:34:50Z</time>
      </trkpt>
      <trkpt lat="42.70582" lon="0.15703">
        <ele>1807.9</ele>
        <time>2012-10-04T13:34:56Z</time>
      </trkpt>
      <trkpt lat="42.70581" lon="0.15712">
        <ele>1806.9</ele>
        <time>2012-10-04T13:35:01Z</time>
      </trkpt>
      <trkpt lat="42.7058" lon="0.15716">
        <ele>1806.4</ele>
        <time>2012-10-04T13:35:02Z</time>
      </trkpt>
      <trkpt lat="42.70573" lon="0.15713">
        <ele>1805</ele>
        <time>2012-10-04T13:35:06Z</time>
      </trkpt>
      <trkpt lat="42.70568" lon="0.15696">
        <ele>1803.6</ele>
        <time>2012-10-04T13:35:09Z</time>
      </trkpt>
      <trkpt lat="42.70563" lon="0.15678">
        <ele>1803.1</ele>
        <time>2012-10-04T13:35:12Z</time>
      </trkpt>
      <trkpt lat="42.70554" lon="0.15652">
        <ele>1801.2</ele>
        <time>2012-10-04T13:35:16Z</time>
      </trkpt>
      <trkpt lat="42.70537" lon="0.15603">
        <ele>1797.3</ele>
        <time>2012-10-04T13:35:22Z</time>
      </trkpt>
      <trkpt lat="42.70537" lon="0.15569">
        <ele>1794.4</ele>
        <time>2012-10-04T13:35:26Z</time>
      </trkpt>
      <trkpt lat="42.70538" lon="0.15561">
        <ele>1794.4</ele>
        <time>2012-10-04T13:35:27Z</time>
      </trkpt>
      <trkpt lat="42.70531" lon="0.15552">
        <ele>1791.6</ele>
        <time>2012-10-04T13:35:30Z</time>
      </trkpt>
      <trkpt lat="42.70519" lon="0.15564">
        <ele>1789.6</ele>
        <time>2012-10-04T13:35:33Z</time>
      </trkpt>
      <trkpt lat="42.70499" lon="0.15596">
        <ele>1785.8</ele>
        <time>2012-10-04T13:35:39Z</time>
      </trkpt>
      <trkpt lat="42.70496" lon="0.15617">
        <ele>1784.3</ele>
        <time>2012-10-04T13:35:42Z</time>
      </trkpt>
      <trkpt lat="42.7049" lon="0.15648">
        <ele>1781.5</ele>
        <time>2012-10-04T13:35:46Z</time>
      </trkpt>
      <trkpt lat="42.70484" lon="0.15684">
        <ele>1776.2</ele>
        <time>2012-10-04T13:35:50Z</time>
      </trkpt>
      <trkpt lat="42.70482" lon="0.15695">
        <ele>1775.7</ele>
        <time>2012-10-04T13:35:51Z</time>
      </trkpt>
      <trkpt lat="42.7048" lon="0.15714">
        <ele>1772.8</ele>
        <time>2012-10-04T13:35:53Z</time>
      </trkpt>
      <trkpt lat="42.70477" lon="0.15727">
        <ele>1770.9</ele>
        <time>2012-10-04T13:35:55Z</time>
      </trkpt>
      <trkpt lat="42.70472" lon="0.15738">
        <ele>1769.9</ele>
        <time>2012-10-04T13:35:57Z</time>
      </trkpt>
      <trkpt lat="42.7046" lon="0.15764">
        <ele>1766.6</ele>
        <time>2012-10-04T13:36:01Z</time>
      </trkpt>
      <trkpt lat="42.70456" lon="0.15771">
        <ele>1765.6</ele>
        <time>2012-10-04T13:36:02Z</time>
      </trkpt>
      <trkpt lat="42.70451" lon="0.15784">
        <ele>1764.6</ele>
        <time>2012-10-04T13:36:04Z</time>
      </trkpt>
      <trkpt lat="42.70448" lon="0.15783">
        <ele>1764.2</ele>
        <time>2012-10-04T13:36:06Z</time>
      </trkpt>
      <trkpt lat="42.70433" lon="0.15742">
        <ele>1761.8</ele>
        <time>2012-10-04T13:36:15Z</time>
      </trkpt>
      <trkpt lat="42.70429" lon="0.15732">
        <ele>1760.8</ele>
        <time>2012-10-04T13:36:17Z</time>
      </trkpt>
      <trkpt lat="42.70415" lon="0.15702">
        <ele>1757.9</ele>
        <time>2012-10-04T13:36:24Z</time>
      </trkpt>
      <trkpt lat="42.70406" lon="0.15706">
        <ele>1755</ele>
        <time>2012-10-04T13:36:28Z</time>
      </trkpt>
      <trkpt lat="42.704" lon="0.15706">
        <ele>1753.6</ele>
        <time>2012-10-04T13:36:30Z</time>
      </trkpt>
      <trkpt lat="42.70396" lon="0.15718">
        <ele>1751.2</ele>
        <time>2012-10-04T13:36:33Z</time>
      </trkpt>
      <trkpt lat="42.70393" lon="0.15743">
        <ele>1746.8</ele>
        <time>2012-10-04T13:36:37Z</time>
      </trkpt>
      <trkpt lat="42.70393" lon="0.15772">
        <ele>1743</ele>
        <time>2012-10-04T13:36:41Z</time>
      </trkpt>
      <trkpt lat="42.70392" lon="0.15781">
        <ele>1742.1</ele>
        <time>2012-10-04T13:36:42Z</time>
      </trkpt>
      <trkpt lat="42.70388" lon="0.15814">
        <ele>1739.2</ele>
        <time>2012-10-04T13:36:46Z</time>
      </trkpt>
      <trkpt lat="42.70385" lon="0.15836">
        <ele>1736.3</ele>
        <time>2012-10-04T13:36:49Z</time>
      </trkpt>
      <trkpt lat="42.70385" lon="0.15842">
        <ele>1736.3</ele>
        <time>2012-10-04T13:36:50Z</time>
      </trkpt>
      <trkpt lat="42.70386" lon="0.1586">
        <ele>1732.9</ele>
        <time>2012-10-04T13:36:53Z</time>
      </trkpt>
      <trkpt lat="42.70388" lon="0.15878">
        <ele>1730.5</ele>
        <time>2012-10-04T13:36:57Z</time>
      </trkpt>
      <trkpt lat="42.70381" lon="0.15887">
        <ele>1728.6</ele>
        <time>2012-10-04T13:37:01Z</time>
      </trkpt>
      <trkpt lat="42.70377" lon="0.15893">
        <ele>1727.6</ele>
        <time>2012-10-04T13:37:05Z</time>
      </trkpt>
      <trkpt lat="42.70376" lon="0.15893">
        <ele>1728.1</ele>
        <time>2012-10-04T13:37:09Z</time>
      </trkpt>
      <trkpt lat="42.70374" lon="0.15894">
        <ele>1728.6</ele>
        <time>2012-10-04T13:37:12Z</time>
      </trkpt>
      <trkpt lat="42.70369" lon="0.15899">
        <ele>1727.6</ele>
        <time>2012-10-04T13:37:16Z</time>
      </trkpt>
      <trkpt lat="42.70365" lon="0.15915">
        <ele>1729.6</ele>
        <time>2012-10-04T13:37:24Z</time>
      </trkpt>
      <trkpt lat="42.70364" lon="0.15917">
        <ele>1729.1</ele>
        <time>2012-10-04T13:37:32Z</time>
      </trkpt>
      <trkpt lat="42.70356" lon="0.15927">
        <ele>1728.6</ele>
        <time>2012-10-04T13:37:39Z</time>
      </trkpt>
      <trkpt lat="42.70358" lon="0.15925">
        <ele>1728.6</ele>
        <time>2012-10-04T13:38:02Z</time>
      </trkpt>
      <trkpt lat="42.70353" lon="0.15932">
        <ele>1727.6</ele>
        <time>2012-10-04T13:38:06Z</time>
      </trkpt>
      <trkpt lat="42.70349" lon="0.15941">
        <ele>1726.7</ele>
        <time>2012-10-04T13:38:09Z</time>
      </trkpt>
      <trkpt lat="42.70346" lon="0.15956">
        <ele>1725.7</ele>
        <time>2012-10-04T13:38:12Z</time>
      </trkpt>
      <trkpt lat="42.70345" lon="0.15962">
        <ele>1725.7</ele>
        <time>2012-10-04T13:38:13Z</time>
      </trkpt>
      <trkpt lat="42.70345" lon="0.15967">
        <ele>1725.2</ele>
        <time>2012-10-04T13:38:14Z</time>
      </trkpt>
      <trkpt lat="42.70344" lon="0.15971">
        <ele>1725.2</ele>
        <time>2012-10-04T13:38:15Z</time>
      </trkpt>
      <trkpt lat="42.70343" lon="0.15975">
        <ele>1724.7</ele>
        <time>2012-10-04T13:38:16Z</time>
      </trkpt>
      <trkpt lat="42.70341" lon="0.15979">
        <ele>1724.3</ele>
        <time>2012-10-04T13:38:17Z</time>
      </trkpt>
      <trkpt lat="42.70334" lon="0.15998">
        <ele>1722.3</ele>
        <time>2012-10-04T13:38:21Z</time>
      </trkpt>
      <trkpt lat="42.70329" lon="0.16008">
        <ele>1722.8</ele>
        <time>2012-10-04T13:38:24Z</time>
      </trkpt>
      <trkpt lat="42.70329" lon="0.16012">
        <ele>1722.3</ele>
        <time>2012-10-04T13:38:25Z</time>
      </trkpt>
      <trkpt lat="42.70328" lon="0.1602">
        <ele>1722.3</ele>
        <time>2012-10-04T13:38:27Z</time>
      </trkpt>
      <trkpt lat="42.70328" lon="0.16024">
        <ele>1722.3</ele>
        <time>2012-10-04T13:38:28Z</time>
      </trkpt>
      <trkpt lat="42.70329" lon="0.16029">
        <ele>1721.9</ele>
        <time>2012-10-04T13:38:29Z</time>
      </trkpt>
      <trkpt lat="42.70329" lon="0.16033">
        <ele>1721.4</ele>
        <time>2012-10-04T13:38:30Z</time>
      </trkpt>
      <trkpt lat="42.70328" lon="0.16037">
        <ele>1720.9</ele>
        <time>2012-10-04T13:38:31Z</time>
      </trkpt>
      <trkpt lat="42.70328" lon="0.16043">
        <ele>1720.4</ele>
        <time>2012-10-04T13:38:32Z</time>
      </trkpt>
      <trkpt lat="42.70327" lon="0.16049">
        <ele>1719.9</ele>
        <time>2012-10-04T13:38:33Z</time>
      </trkpt>
      <trkpt lat="42.70326" lon="0.16054">
        <ele>1719.5</ele>
        <time>2012-10-04T13:38:34Z</time>
      </trkpt>
      <trkpt lat="42.70327" lon="0.16073">
        <ele>1719</ele>
        <time>2012-10-04T13:38:38Z</time>
      </trkpt>
      <trkpt lat="42.70326" lon="0.16078">
        <ele>1718</ele>
        <time>2012-10-04T13:38:39Z</time>
      </trkpt>
      <trkpt lat="42.70324" lon="0.16083">
        <ele>1717.5</ele>
        <time>2012-10-04T13:38:40Z</time>
      </trkpt>
      <trkpt lat="42.70321" lon="0.16088">
        <ele>1717.5</ele>
        <time>2012-10-04T13:38:41Z</time>
      </trkpt>
      <trkpt lat="42.70317" lon="0.16094">
        <ele>1717.1</ele>
        <time>2012-10-04T13:38:42Z</time>
      </trkpt>
      <trkpt lat="42.70305" lon="0.16111">
        <ele>1715.6</ele>
        <time>2012-10-04T13:38:45Z</time>
      </trkpt>
      <trkpt lat="42.7029" lon="0.16125">
        <ele>1714.7</ele>
        <time>2012-10-04T13:38:48Z</time>
      </trkpt>
      <trkpt lat="42.70286" lon="0.16129">
        <ele>1714.7</ele>
        <time>2012-10-04T13:38:49Z</time>
      </trkpt>
      <trkpt lat="42.70283" lon="0.16133">
        <ele>1714.7</ele>
        <time>2012-10-04T13:38:50Z</time>
      </trkpt>
      <trkpt lat="42.70275" lon="0.16146">
        <ele>1714.2</ele>
        <time>2012-10-04T13:38:53Z</time>
      </trkpt>
      <trkpt lat="42.70272" lon="0.16157">
        <ele>1713.2</ele>
        <time>2012-10-04T13:38:55Z</time>
      </trkpt>
      <trkpt lat="42.70263" lon="0.1618">
        <ele>1712.7</ele>
        <time>2012-10-04T13:39:00Z</time>
      </trkpt>
      <trkpt lat="42.70263" lon="0.16181">
        <ele>1713.2</ele>
        <time>2012-10-04T13:39:04Z</time>
      </trkpt>
      <trkpt lat="42.70261" lon="0.16186">
        <ele>1712.7</ele>
        <time>2012-10-04T13:39:10Z</time>
      </trkpt>
      <trkpt lat="42.70252" lon="0.16204">
        <ele>1712.2</ele>
        <time>2012-10-04T13:39:16Z</time>
      </trkpt>
      <trkpt lat="42.70246" lon="0.16218">
        <ele>1711.3</ele>
        <time>2012-10-04T13:39:20Z</time>
      </trkpt>
      <trkpt lat="42.70236" lon="0.16258">
        <ele>1708.4</ele>
        <time>2012-10-04T13:39:26Z</time>
      </trkpt>
      <trkpt lat="42.70235" lon="0.16271">
        <ele>1707.9</ele>
        <time>2012-10-04T13:39:28Z</time>
      </trkpt>
      <trkpt lat="42.70236" lon="0.16291">
        <ele>1707.9</ele>
        <time>2012-10-04T13:39:32Z</time>
      </trkpt>
      <trkpt lat="42.70239" lon="0.16306">
        <ele>1707</ele>
        <time>2012-10-04T13:39:35Z</time>
      </trkpt>
      <trkpt lat="42.70245" lon="0.16336">
        <ele>1706.5</ele>
        <time>2012-10-04T13:39:42Z</time>
      </trkpt>
      <trkpt lat="42.70248" lon="0.16343">
        <ele>1707.9</ele>
        <time>2012-10-04T13:39:46Z</time>
      </trkpt>
      <trkpt lat="42.70249" lon="0.16345">
        <ele>1707.9</ele>
        <time>2012-10-04T13:39:49Z</time>
      </trkpt>
      <trkpt lat="42.70247" lon="0.16362">
        <ele>1707.9</ele>
        <time>2012-10-04T13:39:56Z</time>
      </trkpt>
      <trkpt lat="42.70249" lon="0.16376">
        <ele>1707.4</ele>
        <time>2012-10-04T13:40:02Z</time>
      </trkpt>
      <trkpt lat="42.70248" lon="0.16381">
        <ele>1707.4</ele>
        <time>2012-10-04T13:40:04Z</time>
      </trkpt>
      <trkpt lat="42.70247" lon="0.16383">
        <ele>1707</ele>
        <time>2012-10-04T13:40:05Z</time>
      </trkpt>
      <trkpt lat="42.70247" lon="0.16386">
        <ele>1707</ele>
        <time>2012-10-04T13:40:06Z</time>
      </trkpt>
      <trkpt lat="42.70248" lon="0.1639">
        <ele>1706.5</ele>
        <time>2012-10-04T13:40:07Z</time>
      </trkpt>
      <trkpt lat="42.70249" lon="0.16393">
        <ele>1705.5</ele>
        <time>2012-10-04T13:40:08Z</time>
      </trkpt>
      <trkpt lat="42.70251" lon="0.16397">
        <ele>1705.5</ele>
        <time>2012-10-04T13:40:09Z</time>
      </trkpt>
      <trkpt lat="42.70256" lon="0.16399">
        <ele>1705</ele>
        <time>2012-10-04T13:40:12Z</time>
      </trkpt>
      <trkpt lat="42.70257" lon="0.16403">
        <ele>1704.6</ele>
        <time>2012-10-04T13:40:14Z</time>
      </trkpt>
      <trkpt lat="42.70257" lon="0.16422">
        <ele>1705</ele>
        <time>2012-10-04T13:40:20Z</time>
      </trkpt>
      <trkpt lat="42.70257" lon="0.16424">
        <ele>1705</ele>
        <time>2012-10-04T13:40:21Z</time>
      </trkpt>
      <trkpt lat="42.70257" lon="0.16426">
        <ele>1705</ele>
        <time>2012-10-04T13:40:22Z</time>
      </trkpt>
      <trkpt lat="42.70258" lon="0.16428">
        <ele>1705</ele>
        <time>2012-10-04T13:40:23Z</time>
      </trkpt>
      <trkpt lat="42.70257" lon="0.16432">
        <ele>1704.6</ele>
        <time>2012-10-04T13:40:25Z</time>
      </trkpt>
      <trkpt lat="42.70257" lon="0.16435">
        <ele>1704.6</ele>
        <time>2012-10-04T13:40:26Z</time>
      </trkpt>
      <trkpt lat="42.70256" lon="0.16438">
        <ele>1704.6</ele>
        <time>2012-10-04T13:40:27Z</time>
      </trkpt>
      <trkpt lat="42.70256" lon="0.16442">
        <ele>1704.1</ele>
        <time>2012-10-04T13:40:28Z</time>
      </trkpt>
      <trkpt lat="42.70257" lon="0.16445">
        <ele>1703.6</ele>
        <time>2012-10-04T13:40:29Z</time>
      </trkpt>
      <trkpt lat="42.70258" lon="0.16449">
        <ele>1703.6</ele>
        <time>2012-10-04T13:40:30Z</time>
      </trkpt>
      <trkpt lat="42.70258" lon="0.16453">
        <ele>1703.6</ele>
        <time>2012-10-04T13:40:31Z</time>
      </trkpt>
      <trkpt lat="42.70259" lon="0.16457">
        <ele>1703.6</ele>
        <time>2012-10-04T13:40:32Z</time>
      </trkpt>
      <trkpt lat="42.70257" lon="0.16465">
        <ele>1702.6</ele>
        <time>2012-10-04T13:40:34Z</time>
      </trkpt>
      <trkpt lat="42.70256" lon="0.16469">
        <ele>1702.6</ele>
        <time>2012-10-04T13:40:35Z</time>
      </trkpt>
      <trkpt lat="42.70256" lon="0.16473">
        <ele>1702.2</ele>
        <time>2012-10-04T13:40:36Z</time>
      </trkpt>
      <trkpt lat="42.70257" lon="0.16478">
        <ele>1702.2</ele>
        <time>2012-10-04T13:40:40Z</time>
      </trkpt>
      <trkpt lat="42.70257" lon="0.16481">
        <ele>1701.7</ele>
        <time>2012-10-04T13:40:46Z</time>
      </trkpt>
      <trkpt lat="42.70256" lon="0.16483">
        <ele>1701.7</ele>
        <time>2012-10-04T13:40:47Z</time>
      </trkpt>
      <trkpt lat="42.70255" lon="0.16508">
        <ele>1700.2</ele>
        <time>2012-10-04T13:40:54Z</time>
      </trkpt>
      <trkpt lat="42.70254" lon="0.16532">
        <ele>1699.3</ele>
        <time>2012-10-04T13:40:59Z</time>
      </trkpt>
      <trkpt lat="42.70253" lon="0.16547">
        <ele>1698.3</ele>
        <time>2012-10-04T13:41:03Z</time>
      </trkpt>
      <trkpt lat="42.70252" lon="0.16556">
        <ele>1697.3</ele>
        <time>2012-10-04T13:41:05Z</time>
      </trkpt>
      <trkpt lat="42.70251" lon="0.16568">
        <ele>1696.4</ele>
        <time>2012-10-04T13:41:07Z</time>
      </trkpt>
      <trkpt lat="42.70249" lon="0.16573">
        <ele>1696.4</ele>
        <time>2012-10-04T13:41:08Z</time>
      </trkpt>
      <trkpt lat="42.70247" lon="0.16578">
        <ele>1695.9</ele>
        <time>2012-10-04T13:41:09Z</time>
      </trkpt>
      <trkpt lat="42.70245" lon="0.16582">
        <ele>1696.4</ele>
        <time>2012-10-04T13:41:10Z</time>
      </trkpt>
      <trkpt lat="42.70242" lon="0.16587">
        <ele>1696.4</ele>
        <time>2012-10-04T13:41:11Z</time>
      </trkpt>
      <trkpt lat="42.70239" lon="0.1659">
        <ele>1696.4</ele>
        <time>2012-10-04T13:41:12Z</time>
      </trkpt>
      <trkpt lat="42.70237" lon="0.16593">
        <ele>1696.4</ele>
        <time>2012-10-04T13:41:13Z</time>
      </trkpt>
      <trkpt lat="42.70235" lon="0.16596">
        <ele>1696.4</ele>
        <time>2012-10-04T13:41:14Z</time>
      </trkpt>
      <trkpt lat="42.70231" lon="0.16606">
        <ele>1695.9</ele>
        <time>2012-10-04T13:41:17Z</time>
      </trkpt>
      <trkpt lat="42.70224" lon="0.16624">
        <ele>1694.5</ele>
        <time>2012-10-04T13:41:23Z</time>
      </trkpt>
      <trkpt lat="42.7022" lon="0.16641">
        <ele>1692.5</ele>
        <time>2012-10-04T13:41:27Z</time>
      </trkpt>
      <trkpt lat="42.7022" lon="0.16653">
        <ele>1691.1</ele>
        <time>2012-10-04T13:41:30Z</time>
      </trkpt>
      <trkpt lat="42.70222" lon="0.16659">
        <ele>1690.6</ele>
        <time>2012-10-04T13:41:32Z</time>
      </trkpt>
      <trkpt lat="42.70223" lon="0.1666">
        <ele>1690.1</ele>
        <time>2012-10-04T13:41:36Z</time>
      </trkpt>
      <trkpt lat="42.70222" lon="0.16662">
        <ele>1690.1</ele>
        <time>2012-10-04T13:41:39Z</time>
      </trkpt>
      <trkpt lat="42.70221" lon="0.16664">
        <ele>1690.1</ele>
        <time>2012-10-04T13:41:40Z</time>
      </trkpt>
      <trkpt lat="42.70219" lon="0.16665">
        <ele>1690.1</ele>
        <time>2012-10-04T13:41:41Z</time>
      </trkpt>
      <trkpt lat="42.70218" lon="0.16666">
        <ele>1690.1</ele>
        <time>2012-10-04T13:41:42Z</time>
      </trkpt>
      <trkpt lat="42.70215" lon="0.1667">
        <ele>1690.1</ele>
        <time>2012-10-04T13:41:50Z</time>
      </trkpt>
      <trkpt lat="42.70211" lon="0.16673">
        <ele>1689.7</ele>
        <time>2012-10-04T13:41:57Z</time>
      </trkpt>
      <trkpt lat="42.70211" lon="0.16675">
        <ele>1689.2</ele>
        <time>2012-10-04T13:41:58Z</time>
      </trkpt>
      <trkpt lat="42.70209" lon="0.16681">
        <ele>1688.7</ele>
        <time>2012-10-04T13:42:00Z</time>
      </trkpt>
      <trkpt lat="42.70208" lon="0.16684">
        <ele>1688.2</ele>
        <time>2012-10-04T13:42:01Z</time>
      </trkpt>
      <trkpt lat="42.70199" lon="0.16707">
        <ele>1686.8</ele>
        <time>2012-10-04T13:42:08Z</time>
      </trkpt>
      <trkpt lat="42.70192" lon="0.16722">
        <ele>1685.8</ele>
        <time>2012-10-04T13:42:12Z</time>
      </trkpt>
      <trkpt lat="42.70189" lon="0.16726">
        <ele>1685.3</ele>
        <time>2012-10-04T13:42:13Z</time>
      </trkpt>
      <trkpt lat="42.70182" lon="0.16735">
        <ele>1684.4</ele>
        <time>2012-10-04T13:42:15Z</time>
      </trkpt>
      <trkpt lat="42.70179" lon="0.1674">
        <ele>1684.4</ele>
        <time>2012-10-04T13:42:16Z</time>
      </trkpt>
      <trkpt lat="42.70176" lon="0.16745">
        <ele>1683.9</ele>
        <time>2012-10-04T13:42:17Z</time>
      </trkpt>
      <trkpt lat="42.70173" lon="0.16751">
        <ele>1683.4</ele>
        <time>2012-10-04T13:42:18Z</time>
      </trkpt>
      <trkpt lat="42.7017" lon="0.16756">
        <ele>1683.4</ele>
        <time>2012-10-04T13:42:19Z</time>
      </trkpt>
      <trkpt lat="42.70161" lon="0.1677">
        <ele>1682.9</ele>
        <time>2012-10-04T13:42:24Z</time>
      </trkpt>
      <trkpt lat="42.7016" lon="0.16772">
        <ele>1682.9</ele>
        <time>2012-10-04T13:42:25Z</time>
      </trkpt>
      <trkpt lat="42.7016" lon="0.16774">
        <ele>1683.4</ele>
        <time>2012-10-04T13:42:26Z</time>
      </trkpt>
      <trkpt lat="42.7016" lon="0.16777">
        <ele>1683.4</ele>
        <time>2012-10-04T13:42:27Z</time>
      </trkpt>
      <trkpt lat="42.7016" lon="0.16799">
        <ele>1682.9</ele>
        <time>2012-10-04T13:42:34Z</time>
      </trkpt>
      <trkpt lat="42.7016" lon="0.16802">
        <ele>1682.9</ele>
        <time>2012-10-04T13:42:35Z</time>
      </trkpt>
      <trkpt lat="42.70159" lon="0.16805">
        <ele>1683.4</ele>
        <time>2012-10-04T13:42:36Z</time>
      </trkpt>
      <trkpt lat="42.70158" lon="0.16809">
        <ele>1683.4</ele>
        <time>2012-10-04T13:42:37Z</time>
      </trkpt>
      <trkpt lat="42.70154" lon="0.16826">
        <ele>1682</ele>
        <time>2012-10-04T13:42:41Z</time>
      </trkpt>
      <trkpt lat="42.70153" lon="0.16831">
        <ele>1682</ele>
        <time>2012-10-04T13:42:42Z</time>
      </trkpt>
      <trkpt lat="42.70153" lon="0.16836">
        <ele>1682</ele>
        <time>2012-10-04T13:42:43Z</time>
      </trkpt>
      <trkpt lat="42.70152" lon="0.16841">
        <ele>1681.5</ele>
        <time>2012-10-04T13:42:44Z</time>
      </trkpt>
      <trkpt lat="42.70151" lon="0.16846">
        <ele>1681</ele>
        <time>2012-10-04T13:42:45Z</time>
      </trkpt>
      <trkpt lat="42.70152" lon="0.16852">
        <ele>1680</ele>
        <time>2012-10-04T13:42:46Z</time>
      </trkpt>
      <trkpt lat="42.70152" lon="0.16859">
        <ele>1680</ele>
        <time>2012-10-04T13:42:47Z</time>
      </trkpt>
      <trkpt lat="42.70153" lon="0.16866">
        <ele>1679.1</ele>
        <time>2012-10-04T13:42:48Z</time>
      </trkpt>
      <trkpt lat="42.70154" lon="0.16873">
        <ele>1678.6</ele>
        <time>2012-10-04T13:42:49Z</time>
      </trkpt>
      <trkpt lat="42.70155" lon="0.1688">
        <ele>1678.1</ele>
        <time>2012-10-04T13:42:50Z</time>
      </trkpt>
      <trkpt lat="42.70156" lon="0.16888">
        <ele>1678.1</ele>
        <time>2012-10-04T13:42:51Z</time>
      </trkpt>
      <trkpt lat="42.70156" lon="0.16897">
        <ele>1677.6</ele>
        <time>2012-10-04T13:42:52Z</time>
      </trkpt>
      <trkpt lat="42.70158" lon="0.16904">
        <ele>1677.6</ele>
        <time>2012-10-04T13:42:53Z</time>
      </trkpt>
      <trkpt lat="42.70159" lon="0.16911">
        <ele>1677.6</ele>
        <time>2012-10-04T13:42:54Z</time>
      </trkpt>
      <trkpt lat="42.70159" lon="0.16918">
        <ele>1677.2</ele>
        <time>2012-10-04T13:42:55Z</time>
      </trkpt>
      <trkpt lat="42.70158" lon="0.16925">
        <ele>1676.2</ele>
        <time>2012-10-04T13:42:56Z</time>
      </trkpt>
      <trkpt lat="42.70158" lon="0.16932">
        <ele>1675.2</ele>
        <time>2012-10-04T13:42:57Z</time>
      </trkpt>
      <trkpt lat="42.70155" lon="0.16949">
        <ele>1674.3</ele>
        <time>2012-10-04T13:42:59Z</time>
      </trkpt>
      <trkpt lat="42.7015" lon="0.16975">
        <ele>1671.9</ele>
        <time>2012-10-04T13:43:02Z</time>
      </trkpt>
      <trkpt lat="42.70149" lon="0.16983">
        <ele>1671.4</ele>
        <time>2012-10-04T13:43:03Z</time>
      </trkpt>
      <trkpt lat="42.70149" lon="0.16989">
        <ele>1670.9</ele>
        <time>2012-10-04T13:43:04Z</time>
      </trkpt>
      <trkpt lat="42.7015" lon="0.16995">
        <ele>1670.9</ele>
        <time>2012-10-04T13:43:05Z</time>
      </trkpt>
      <trkpt lat="42.7015" lon="0.17001">
        <ele>1670.4</ele>
        <time>2012-10-04T13:43:06Z</time>
      </trkpt>
      <trkpt lat="42.70149" lon="0.17006">
        <ele>1669.9</ele>
        <time>2012-10-04T13:43:07Z</time>
      </trkpt>
      <trkpt lat="42.70149" lon="0.1701">
        <ele>1670.4</ele>
        <time>2012-10-04T13:43:08Z</time>
      </trkpt>
      <trkpt lat="42.70149" lon="0.17015">
        <ele>1669.9</ele>
        <time>2012-10-04T13:43:09Z</time>
      </trkpt>
      <trkpt lat="42.70149" lon="0.17023">
        <ele>1669.5</ele>
        <time>2012-10-04T13:43:11Z</time>
      </trkpt>
      <trkpt lat="42.70149" lon="0.17027">
        <ele>1668.5</ele>
        <time>2012-10-04T13:43:12Z</time>
      </trkpt>
      <trkpt lat="42.70154" lon="0.17041">
        <ele>1668</ele>
        <time>2012-10-04T13:43:16Z</time>
      </trkpt>
      <trkpt lat="42.70153" lon="0.17044">
        <ele>1667.5</ele>
        <time>2012-10-04T13:43:17Z</time>
      </trkpt>
      <trkpt lat="42.70152" lon="0.17046">
        <ele>1667.5</ele>
        <time>2012-10-04T13:43:18Z</time>
      </trkpt>
      <trkpt lat="42.70151" lon="0.1705">
        <ele>1667.1</ele>
        <time>2012-10-04T13:43:21Z</time>
      </trkpt>
      <trkpt lat="42.70152" lon="0.17052">
        <ele>1667.1</ele>
        <time>2012-10-04T13:43:26Z</time>
      </trkpt>
      <trkpt lat="42.70152" lon="0.17054">
        <ele>1667.1</ele>
        <time>2012-10-04T13:43:36Z</time>
      </trkpt>
      <trkpt lat="42.70152" lon="0.17056">
        <ele>1667.1</ele>
        <time>2012-10-04T13:43:45Z</time>
      </trkpt>
      <trkpt lat="42.70152" lon="0.1706">
        <ele>1666.6</ele>
        <time>2012-10-04T13:43:52Z</time>
      </trkpt>
      <trkpt lat="42.70151" lon="0.17067">
        <ele>1666.1</ele>
        <time>2012-10-04T13:43:58Z</time>
      </trkpt>
      <trkpt lat="42.70149" lon="0.17075">
        <ele>1666.1</ele>
        <time>2012-10-04T13:44:06Z</time>
      </trkpt>
      <trkpt lat="42.70148" lon="0.17083">
        <ele>1666.1</ele>
        <time>2012-10-04T13:44:11Z</time>
      </trkpt>
      <trkpt lat="42.7015" lon="0.17097">
        <ele>1666.6</ele>
        <time>2012-10-04T13:44:18Z</time>
      </trkpt>
      <trkpt lat="42.7015" lon="0.17096">
        <ele>1666.6</ele>
        <time>2012-10-04T13:44:24Z</time>
      </trkpt>
      <trkpt lat="42.7015" lon="0.17099">
        <ele>1666.1</ele>
        <time>2012-10-04T13:44:43Z</time>
      </trkpt>
      <trkpt lat="42.70149" lon="0.17101">
        <ele>1666.1</ele>
        <time>2012-10-04T13:44:50Z</time>
      </trkpt>
      <trkpt lat="42.70149" lon="0.17101">
        <ele>1666.1</ele>
        <time>2012-10-04T13:45:01Z</time>
      </trkpt>
      <trkpt lat="42.7015" lon="0.171">
        <ele>1666.1</ele>
        <time>2012-10-04T13:45:16Z</time>
      </trkpt>
      <trkpt lat="42.7015" lon="0.17102">
        <ele>1665.6</ele>
        <time>2012-10-04T13:45:18Z</time>
      </trkpt>
      <trkpt lat="42.7015" lon="0.17104">
        <ele>1666.1</ele>
        <time>2012-10-04T13:45:19Z</time>
      </trkpt>
      <trkpt lat="42.7015" lon="0.17107">
        <ele>1665.6</ele>
        <time>2012-10-04T13:45:20Z</time>
      </trkpt>
      <trkpt lat="42.70151" lon="0.17109">
        <ele>1665.6</ele>
        <time>2012-10-04T13:45:21Z</time>
      </trkpt>
      <trkpt lat="42.70151" lon="0.17112">
        <ele>1665.6</ele>
        <time>2012-10-04T13:45:22Z</time>
      </trkpt>
      <trkpt lat="42.7015" lon="0.17116">
        <ele>1665.1</ele>
        <time>2012-10-04T13:45:23Z</time>
      </trkpt>
      <trkpt lat="42.70149" lon="0.17121">
        <ele>1664.7</ele>
        <time>2012-10-04T13:45:24Z</time>
      </trkpt>
      <trkpt lat="42.70149" lon="0.17126">
        <ele>1664.7</ele>
        <time>2012-10-04T13:45:25Z</time>
      </trkpt>
      <trkpt lat="42.70146" lon="0.17137">
        <ele>1664.2</ele>
        <time>2012-10-04T13:45:27Z</time>
      </trkpt>
      <trkpt lat="42.70145" lon="0.17143">
        <ele>1663.2</ele>
        <time>2012-10-04T13:45:28Z</time>
      </trkpt>
      <trkpt lat="42.70144" lon="0.17148">
        <ele>1663.2</ele>
        <time>2012-10-04T13:45:29Z</time>
      </trkpt>
      <trkpt lat="42.70144" lon="0.17151">
        <ele>1663.2</ele>
        <time>2012-10-04T13:45:30Z</time>
      </trkpt>
      <trkpt lat="42.70144" lon="0.17153">
        <ele>1662.7</ele>
        <time>2012-10-04T13:45:31Z</time>
      </trkpt>
      <trkpt lat="42.70145" lon="0.17153">
        <ele>1662.7</ele>
        <time>2012-10-04T13:45:36Z</time>
      </trkpt>
      <trkpt lat="42.70145" lon="0.17151">
        <ele>1662.3</ele>
        <time>2012-10-04T13:45:59Z</time>
      </trkpt>
      <trkpt lat="42.70144" lon="0.17152">
        <ele>1662.3</ele>
        <time>2012-10-04T13:46:03Z</time>
      </trkpt>
      <trkpt lat="42.70143" lon="0.17155">
        <ele>1661.8</ele>
        <time>2012-10-04T13:46:04Z</time>
      </trkpt>
      <trkpt lat="42.70142" lon="0.17158">
        <ele>1661.8</ele>
        <time>2012-10-04T13:46:05Z</time>
      </trkpt>
      <trkpt lat="42.70137" lon="0.17185">
        <ele>1659.8</ele>
        <time>2012-10-04T13:46:11Z</time>
      </trkpt>
      <trkpt lat="42.70136" lon="0.17191">
        <ele>1659.4</ele>
        <time>2012-10-04T13:46:12Z</time>
      </trkpt>
      <trkpt lat="42.70135" lon="0.17196">
        <ele>1659.4</ele>
        <time>2012-10-04T13:46:13Z</time>
      </trkpt>
      <trkpt lat="42.70132" lon="0.17208">
        <ele>1658.4</ele>
        <time>2012-10-04T13:46:15Z</time>
      </trkpt>
      <trkpt lat="42.70131" lon="0.17215">
        <ele>1657.4</ele>
        <time>2012-10-04T13:46:16Z</time>
      </trkpt>
      <trkpt lat="42.70129" lon="0.17221">
        <ele>1657</ele>
        <time>2012-10-04T13:46:17Z</time>
      </trkpt>
      <trkpt lat="42.70128" lon="0.17227">
        <ele>1656.5</ele>
        <time>2012-10-04T13:46:18Z</time>
      </trkpt>
      <trkpt lat="42.70127" lon="0.17233">
        <ele>1656</ele>
        <time>2012-10-04T13:46:19Z</time>
      </trkpt>
      <trkpt lat="42.70126" lon="0.17238">
        <ele>1656</ele>
        <time>2012-10-04T13:46:20Z</time>
      </trkpt>
      <trkpt lat="42.70125" lon="0.17244">
        <ele>1655.5</ele>
        <time>2012-10-04T13:46:21Z</time>
      </trkpt>
      <trkpt lat="42.70125" lon="0.17249">
        <ele>1655.1</ele>
        <time>2012-10-04T13:46:22Z</time>
      </trkpt>
      <trkpt lat="42.70125" lon="0.17254">
        <ele>1655.1</ele>
        <time>2012-10-04T13:46:23Z</time>
      </trkpt>
      <trkpt lat="42.70126" lon="0.1726">
        <ele>1654.6</ele>
        <time>2012-10-04T13:46:24Z</time>
      </trkpt>
      <trkpt lat="42.70126" lon="0.17267">
        <ele>1654.1</ele>
        <time>2012-10-04T13:46:25Z</time>
      </trkpt>
      <trkpt lat="42.70125" lon="0.17274">
        <ele>1654.1</ele>
        <time>2012-10-04T13:46:26Z</time>
      </trkpt>
      <trkpt lat="42.70125" lon="0.17296">
        <ele>1653.1</ele>
        <time>2012-10-04T13:46:29Z</time>
      </trkpt>
      <trkpt lat="42.70125" lon="0.17304">
        <ele>1652.6</ele>
        <time>2012-10-04T13:46:30Z</time>
      </trkpt>
      <trkpt lat="42.70124" lon="0.17327">
        <ele>1651.7</ele>
        <time>2012-10-04T13:46:33Z</time>
      </trkpt>
      <trkpt lat="42.70124" lon="0.17335">
        <ele>1651.7</ele>
        <time>2012-10-04T13:46:34Z</time>
      </trkpt>
      <trkpt lat="42.70124" lon="0.17343">
        <ele>1651.2</ele>
        <time>2012-10-04T13:46:35Z</time>
      </trkpt>
      <trkpt lat="42.70126" lon="0.17352">
        <ele>1651.7</ele>
        <time>2012-10-04T13:46:38Z</time>
      </trkpt>
      <trkpt lat="42.70127" lon="0.1736">
        <ele>1651.2</ele>
        <time>2012-10-04T13:46:41Z</time>
      </trkpt>
      <trkpt lat="42.70129" lon="0.17381">
        <ele>1648.8</ele>
        <time>2012-10-04T13:46:44Z</time>
      </trkpt>
      <trkpt lat="42.70131" lon="0.17388">
        <ele>1648.8</ele>
        <time>2012-10-04T13:46:45Z</time>
      </trkpt>
      <trkpt lat="42.70132" lon="0.17396">
        <ele>1648.3</ele>
        <time>2012-10-04T13:46:46Z</time>
      </trkpt>
      <trkpt lat="42.70133" lon="0.17404">
        <ele>1648.3</ele>
        <time>2012-10-04T13:46:47Z</time>
      </trkpt>
      <trkpt lat="42.70133" lon="0.17413">
        <ele>1646.9</ele>
        <time>2012-10-04T13:46:48Z</time>
      </trkpt>
      <trkpt lat="42.70133" lon="0.17422">
        <ele>1646.4</ele>
        <time>2012-10-04T13:46:49Z</time>
      </trkpt>
      <trkpt lat="42.70133" lon="0.17432">
        <ele>1645.4</ele>
        <time>2012-10-04T13:46:50Z</time>
      </trkpt>
      <trkpt lat="42.70132" lon="0.17442">
        <ele>1644.9</ele>
        <time>2012-10-04T13:46:51Z</time>
      </trkpt>
      <trkpt lat="42.7013" lon="0.17452">
        <ele>1644.5</ele>
        <time>2012-10-04T13:46:52Z</time>
      </trkpt>
      <trkpt lat="42.70128" lon="0.17462">
        <ele>1643</ele>
        <time>2012-10-04T13:46:53Z</time>
      </trkpt>
      <trkpt lat="42.70126" lon="0.17471">
        <ele>1643.5</ele>
        <time>2012-10-04T13:46:54Z</time>
      </trkpt>
      <trkpt lat="42.70123" lon="0.17479">
        <ele>1643</ele>
        <time>2012-10-04T13:46:55Z</time>
      </trkpt>
      <trkpt lat="42.7012" lon="0.17486">
        <ele>1642.1</ele>
        <time>2012-10-04T13:46:56Z</time>
      </trkpt>
      <trkpt lat="42.70118" lon="0.17495">
        <ele>1641.6</ele>
        <time>2012-10-04T13:46:57Z</time>
      </trkpt>
      <trkpt lat="42.70115" lon="0.17504">
        <ele>1640.2</ele>
        <time>2012-10-04T13:46:58Z</time>
      </trkpt>
      <trkpt lat="42.70114" lon="0.17514">
        <ele>1639.2</ele>
        <time>2012-10-04T13:46:59Z</time>
      </trkpt>
      <trkpt lat="42.70115" lon="0.17524">
        <ele>1638.7</ele>
        <time>2012-10-04T13:47:00Z</time>
      </trkpt>
      <trkpt lat="42.70115" lon="0.17534">
        <ele>1638.2</ele>
        <time>2012-10-04T13:47:01Z</time>
      </trkpt>
      <trkpt lat="42.70114" lon="0.17543">
        <ele>1637.7</ele>
        <time>2012-10-04T13:47:02Z</time>
      </trkpt>
      <trkpt lat="42.70112" lon="0.17552">
        <ele>1636.8</ele>
        <time>2012-10-04T13:47:03Z</time>
      </trkpt>
      <trkpt lat="42.70108" lon="0.17561">
        <ele>1635.8</ele>
        <time>2012-10-04T13:47:04Z</time>
      </trkpt>
      <trkpt lat="42.70104" lon="0.17569">
        <ele>1634.9</ele>
        <time>2012-10-04T13:47:05Z</time>
      </trkpt>
      <trkpt lat="42.701" lon="0.17575">
        <ele>1634.9</ele>
        <time>2012-10-04T13:47:06Z</time>
      </trkpt>
      <trkpt lat="42.70093" lon="0.17584">
        <ele>1633.4</ele>
        <time>2012-10-04T13:47:08Z</time>
      </trkpt>
      <trkpt lat="42.7009" lon="0.17588">
        <ele>1632.9</ele>
        <time>2012-10-04T13:47:09Z</time>
      </trkpt>
      <trkpt lat="42.70085" lon="0.17596">
        <ele>1632.5</ele>
        <time>2012-10-04T13:47:11Z</time>
      </trkpt>
      <trkpt lat="42.70085" lon="0.176">
        <ele>1632.5</ele>
        <time>2012-10-04T13:47:12Z</time>
      </trkpt>
      <trkpt lat="42.70093" lon="0.17608">
        <ele>1631.5</ele>
        <time>2012-10-04T13:47:15Z</time>
      </trkpt>
      <trkpt lat="42.70095" lon="0.17612">
        <ele>1631.5</ele>
        <time>2012-10-04T13:47:16Z</time>
      </trkpt>
      <trkpt lat="42.70096" lon="0.17618">
        <ele>1631</ele>
        <time>2012-10-04T13:47:17Z</time>
      </trkpt>
      <trkpt lat="42.70096" lon="0.17624">
        <ele>1630.1</ele>
        <time>2012-10-04T13:47:18Z</time>
      </trkpt>
      <trkpt lat="42.70095" lon="0.17631">
        <ele>1629.6</ele>
        <time>2012-10-04T13:47:19Z</time>
      </trkpt>
      <trkpt lat="42.70094" lon="0.17637">
        <ele>1629.6</ele>
        <time>2012-10-04T13:47:20Z</time>
      </trkpt>
      <trkpt lat="42.70093" lon="0.17644">
        <ele>1629.1</ele>
        <time>2012-10-04T13:47:21Z</time>
      </trkpt>
      <trkpt lat="42.70092" lon="0.17651">
        <ele>1628.1</ele>
        <time>2012-10-04T13:47:22Z</time>
      </trkpt>
      <trkpt lat="42.7009" lon="0.17662">
        <ele>1627.7</ele>
        <time>2012-10-04T13:47:24Z</time>
      </trkpt>
      <trkpt lat="42.70087" lon="0.17665">
        <ele>1627.2</ele>
        <time>2012-10-04T13:47:25Z</time>
      </trkpt>
      <trkpt lat="42.70085" lon="0.17668">
        <ele>1626.2</ele>
        <time>2012-10-04T13:47:26Z</time>
      </trkpt>
      <trkpt lat="42.70083" lon="0.17671">
        <ele>1626.7</ele>
        <time>2012-10-04T13:47:27Z</time>
      </trkpt>
      <trkpt lat="42.70082" lon="0.17674">
        <ele>1626.7</ele>
        <time>2012-10-04T13:47:28Z</time>
      </trkpt>
      <trkpt lat="42.70082" lon="0.17678">
        <ele>1626.2</ele>
        <time>2012-10-04T13:47:29Z</time>
      </trkpt>
      <trkpt lat="42.70082" lon="0.17681">
        <ele>1626.2</ele>
        <time>2012-10-04T13:47:30Z</time>
      </trkpt>
      <trkpt lat="42.70082" lon="0.17684">
        <ele>1626.7</ele>
        <time>2012-10-04T13:47:31Z</time>
      </trkpt>
      <trkpt lat="42.70083" lon="0.17687">
        <ele>1626.7</ele>
        <time>2012-10-04T13:47:32Z</time>
      </trkpt>
      <trkpt lat="42.70084" lon="0.1769">
        <ele>1626.7</ele>
        <time>2012-10-04T13:47:33Z</time>
      </trkpt>
      <trkpt lat="42.70086" lon="0.17694">
        <ele>1626.2</ele>
        <time>2012-10-04T13:47:34Z</time>
      </trkpt>
      <trkpt lat="42.70089" lon="0.17698">
        <ele>1625.7</ele>
        <time>2012-10-04T13:47:35Z</time>
      </trkpt>
      <trkpt lat="42.70091" lon="0.17701">
        <ele>1625.2</ele>
        <time>2012-10-04T13:47:36Z</time>
      </trkpt>
      <trkpt lat="42.70091" lon="0.17705">
        <ele>1624.8</ele>
        <time>2012-10-04T13:47:37Z</time>
      </trkpt>
      <trkpt lat="42.70091" lon="0.1771">
        <ele>1624.3</ele>
        <time>2012-10-04T13:47:38Z</time>
      </trkpt>
      <trkpt lat="42.7009" lon="0.17715">
        <ele>1623.3</ele>
        <time>2012-10-04T13:47:39Z</time>
      </trkpt>
      <trkpt lat="42.70089" lon="0.1772">
        <ele>1623.3</ele>
        <time>2012-10-04T13:47:40Z</time>
      </trkpt>
      <trkpt lat="42.70088" lon="0.17726">
        <ele>1622.8</ele>
        <time>2012-10-04T13:47:41Z</time>
      </trkpt>
      <trkpt lat="42.70087" lon="0.17733">
        <ele>1622.4</ele>
        <time>2012-10-04T13:47:42Z</time>
      </trkpt>
      <trkpt lat="42.70087" lon="0.17741">
        <ele>1621.4</ele>
        <time>2012-10-04T13:47:43Z</time>
      </trkpt>
      <trkpt lat="42.70088" lon="0.1775">
        <ele>1620.9</ele>
        <time>2012-10-04T13:47:44Z</time>
      </trkpt>
      <trkpt lat="42.70089" lon="0.17759">
        <ele>1620</ele>
        <time>2012-10-04T13:47:45Z</time>
      </trkpt>
      <trkpt lat="42.7009" lon="0.17769">
        <ele>1619</ele>
        <time>2012-10-04T13:47:46Z</time>
      </trkpt>
      <trkpt lat="42.70092" lon="0.17779">
        <ele>1618</ele>
        <time>2012-10-04T13:47:47Z</time>
      </trkpt>
      <trkpt lat="42.70095" lon="0.17788">
        <ele>1616.6</ele>
        <time>2012-10-04T13:47:48Z</time>
      </trkpt>
      <trkpt lat="42.70097" lon="0.17796">
        <ele>1616.1</ele>
        <time>2012-10-04T13:47:49Z</time>
      </trkpt>
      <trkpt lat="42.70099" lon="0.17805">
        <ele>1615.2</ele>
        <time>2012-10-04T13:47:50Z</time>
      </trkpt>
      <trkpt lat="42.70099" lon="0.17813">
        <ele>1614.2</ele>
        <time>2012-10-04T13:47:51Z</time>
      </trkpt>
      <trkpt lat="42.70097" lon="0.17821">
        <ele>1613.2</ele>
        <time>2012-10-04T13:47:52Z</time>
      </trkpt>
      <trkpt lat="42.70094" lon="0.1783">
        <ele>1612.3</ele>
        <time>2012-10-04T13:47:53Z</time>
      </trkpt>
      <trkpt lat="42.70091" lon="0.17839">
        <ele>1611.3</ele>
        <time>2012-10-04T13:47:54Z</time>
      </trkpt>
      <trkpt lat="42.70087" lon="0.17849">
        <ele>1609.9</ele>
        <time>2012-10-04T13:47:55Z</time>
      </trkpt>
      <trkpt lat="42.70082" lon="0.17857">
        <ele>1608.9</ele>
        <time>2012-10-04T13:47:56Z</time>
      </trkpt>
      <trkpt lat="42.70077" lon="0.17865">
        <ele>1608.4</ele>
        <time>2012-10-04T13:47:57Z</time>
      </trkpt>
      <trkpt lat="42.70073" lon="0.17875">
        <ele>1607.9</ele>
        <time>2012-10-04T13:47:58Z</time>
      </trkpt>
      <trkpt lat="42.70072" lon="0.17885">
        <ele>1607.5</ele>
        <time>2012-10-04T13:47:59Z</time>
      </trkpt>
      <trkpt lat="42.7007" lon="0.17904">
        <ele>1606.5</ele>
        <time>2012-10-04T13:48:01Z</time>
      </trkpt>
      <trkpt lat="42.70067" lon="0.17911">
        <ele>1605.5</ele>
        <time>2012-10-04T13:48:02Z</time>
      </trkpt>
      <trkpt lat="42.70063" lon="0.17917">
        <ele>1605.1</ele>
        <time>2012-10-04T13:48:03Z</time>
      </trkpt>
      <trkpt lat="42.70057" lon="0.17921">
        <ele>1604.1</ele>
        <time>2012-10-04T13:48:04Z</time>
      </trkpt>
      <trkpt lat="42.70052" lon="0.17926">
        <ele>1602.7</ele>
        <time>2012-10-04T13:48:05Z</time>
      </trkpt>
      <trkpt lat="42.70048" lon="0.17933">
        <ele>1602.2</ele>
        <time>2012-10-04T13:48:06Z</time>
      </trkpt>
      <trkpt lat="42.70048" lon="0.17942">
        <ele>1602.2</ele>
        <time>2012-10-04T13:48:07Z</time>
      </trkpt>
      <trkpt lat="42.70047" lon="0.17951">
        <ele>1601.7</ele>
        <time>2012-10-04T13:48:08Z</time>
      </trkpt>
      <trkpt lat="42.70045" lon="0.17959">
        <ele>1600.7</ele>
        <time>2012-10-04T13:48:09Z</time>
      </trkpt>
      <trkpt lat="42.70041" lon="0.17967">
        <ele>1600.7</ele>
        <time>2012-10-04T13:48:10Z</time>
      </trkpt>
      <trkpt lat="42.70037" lon="0.17974">
        <ele>1599.8</ele>
        <time>2012-10-04T13:48:11Z</time>
      </trkpt>
      <trkpt lat="42.70027" lon="0.17988">
        <ele>1598.3</ele>
        <time>2012-10-04T13:48:13Z</time>
      </trkpt>
      <trkpt lat="42.70022" lon="0.17996">
        <ele>1596.9</ele>
        <time>2012-10-04T13:48:14Z</time>
      </trkpt>
      <trkpt lat="42.70017" lon="0.18003">
        <ele>1595.9</ele>
        <time>2012-10-04T13:48:15Z</time>
      </trkpt>
      <trkpt lat="42.70015" lon="0.18013">
        <ele>1595</ele>
        <time>2012-10-04T13:48:16Z</time>
      </trkpt>
      <trkpt lat="42.70017" lon="0.18021">
        <ele>1595</ele>
        <time>2012-10-04T13:48:17Z</time>
      </trkpt>
      <trkpt lat="42.7002" lon="0.1803">
        <ele>1595</ele>
        <time>2012-10-04T13:48:18Z</time>
      </trkpt>
      <trkpt lat="42.70023" lon="0.18037">
        <ele>1595</ele>
        <time>2012-10-04T13:48:19Z</time>
      </trkpt>
      <trkpt lat="42.70026" lon="0.18044">
        <ele>1595.4</ele>
        <time>2012-10-04T13:48:20Z</time>
      </trkpt>
      <trkpt lat="42.70029" lon="0.18052">
        <ele>1595</ele>
        <time>2012-10-04T13:48:21Z</time>
      </trkpt>
      <trkpt lat="42.70032" lon="0.18061">
        <ele>1594</ele>
        <time>2012-10-04T13:48:22Z</time>
      </trkpt>
      <trkpt lat="42.70035" lon="0.18068">
        <ele>1594.5</ele>
        <time>2012-10-04T13:48:23Z</time>
      </trkpt>
      <trkpt lat="42.70038" lon="0.18076">
        <ele>1594</ele>
        <time>2012-10-04T13:48:24Z</time>
      </trkpt>
      <trkpt lat="42.70042" lon="0.18084">
        <ele>1593</ele>
        <time>2012-10-04T13:48:25Z</time>
      </trkpt>
      <trkpt lat="42.70045" lon="0.18093">
        <ele>1593.5</ele>
        <time>2012-10-04T13:48:26Z</time>
      </trkpt>
      <trkpt lat="42.70048" lon="0.18102">
        <ele>1592.6</ele>
        <time>2012-10-04T13:48:27Z</time>
      </trkpt>
      <trkpt lat="42.70053" lon="0.18119">
        <ele>1591.1</ele>
        <time>2012-10-04T13:48:29Z</time>
      </trkpt>
      <trkpt lat="42.70054" lon="0.18125">
        <ele>1590.2</ele>
        <time>2012-10-04T13:48:30Z</time>
      </trkpt>
      <trkpt lat="42.70054" lon="0.18131">
        <ele>1590.2</ele>
        <time>2012-10-04T13:48:31Z</time>
      </trkpt>
      <trkpt lat="42.70056" lon="0.18137">
        <ele>1589.7</ele>
        <time>2012-10-04T13:48:32Z</time>
      </trkpt>
      <trkpt lat="42.70058" lon="0.18141">
        <ele>1589.7</ele>
        <time>2012-10-04T13:48:33Z</time>
      </trkpt>
      <trkpt lat="42.70058" lon="0.18145">
        <ele>1589.7</ele>
        <time>2012-10-04T13:48:34Z</time>
      </trkpt>
      <trkpt lat="42.70058" lon="0.1815">
        <ele>1589.2</ele>
        <time>2012-10-04T13:48:35Z</time>
      </trkpt>
      <trkpt lat="42.70058" lon="0.18156">
        <ele>1588.2</ele>
        <time>2012-10-04T13:48:36Z</time>
      </trkpt>
      <trkpt lat="42.70057" lon="0.18163">
        <ele>1587.8</ele>
        <time>2012-10-04T13:48:37Z</time>
      </trkpt>
      <trkpt lat="42.70055" lon="0.18169">
        <ele>1587.3</ele>
        <time>2012-10-04T13:48:38Z</time>
      </trkpt>
      <trkpt lat="42.70055" lon="0.18175">
        <ele>1586.8</ele>
        <time>2012-10-04T13:48:39Z</time>
      </trkpt>
      <trkpt lat="42.70055" lon="0.18179">
        <ele>1586.3</ele>
        <time>2012-10-04T13:48:40Z</time>
      </trkpt>
      <trkpt lat="42.70057" lon="0.18182">
        <ele>1586.8</ele>
        <time>2012-10-04T13:48:41Z</time>
      </trkpt>
      <trkpt lat="42.70059" lon="0.18186">
        <ele>1586.8</ele>
        <time>2012-10-04T13:48:42Z</time>
      </trkpt>
      <trkpt lat="42.70061" lon="0.1819">
        <ele>1586.3</ele>
        <time>2012-10-04T13:48:43Z</time>
      </trkpt>
      <trkpt lat="42.70063" lon="0.18195">
        <ele>1585.8</ele>
        <time>2012-10-04T13:48:44Z</time>
      </trkpt>
      <trkpt lat="42.70064" lon="0.18201">
        <ele>1585.8</ele>
        <time>2012-10-04T13:48:45Z</time>
      </trkpt>
      <trkpt lat="42.70064" lon="0.18208">
        <ele>1584.9</ele>
        <time>2012-10-04T13:48:46Z</time>
      </trkpt>
      <trkpt lat="42.70064" lon="0.18215">
        <ele>1583.9</ele>
        <time>2012-10-04T13:48:47Z</time>
      </trkpt>
      <trkpt lat="42.70065" lon="0.18221">
        <ele>1583.4</ele>
        <time>2012-10-04T13:48:48Z</time>
      </trkpt>
      <trkpt lat="42.70064" lon="0.18228">
        <ele>1582.9</ele>
        <time>2012-10-04T13:48:49Z</time>
      </trkpt>
      <trkpt lat="42.70064" lon="0.18235">
        <ele>1582</ele>
        <time>2012-10-04T13:48:50Z</time>
      </trkpt>
      <trkpt lat="42.70065" lon="0.18243">
        <ele>1582</ele>
        <time>2012-10-04T13:48:51Z</time>
      </trkpt>
      <trkpt lat="42.70066" lon="0.1826">
        <ele>1580.1</ele>
        <time>2012-10-04T13:48:53Z</time>
      </trkpt>
      <trkpt lat="42.70066" lon="0.18269">
        <ele>1579.6</ele>
        <time>2012-10-04T13:48:54Z</time>
      </trkpt>
      <trkpt lat="42.70065" lon="0.1828">
        <ele>1578.6</ele>
        <time>2012-10-04T13:48:55Z</time>
      </trkpt>
      <trkpt lat="42.70064" lon="0.18291">
        <ele>1576.7</ele>
        <time>2012-10-04T13:48:56Z</time>
      </trkpt>
      <trkpt lat="42.70063" lon="0.18303">
        <ele>1575.7</ele>
        <time>2012-10-04T13:48:57Z</time>
      </trkpt>
      <trkpt lat="42.70058" lon="0.18349">
        <ele>1572.4</ele>
        <time>2012-10-04T13:49:01Z</time>
      </trkpt>
      <trkpt lat="42.7006" lon="0.18358">
        <ele>1572.4</ele>
        <time>2012-10-04T13:49:02Z</time>
      </trkpt>
      <trkpt lat="42.70069" lon="0.18382">
        <ele>1570.4</ele>
        <time>2012-10-04T13:49:05Z</time>
      </trkpt>
      <trkpt lat="42.70073" lon="0.18389">
        <ele>1570</ele>
        <time>2012-10-04T13:49:06Z</time>
      </trkpt>
      <trkpt lat="42.70078" lon="0.18401">
        <ele>1570</ele>
        <time>2012-10-04T13:49:08Z</time>
      </trkpt>
      <trkpt lat="42.70081" lon="0.18409">
        <ele>1569.5</ele>
        <time>2012-10-04T13:49:12Z</time>
      </trkpt>
      <trkpt lat="42.70081" lon="0.18409">
        <ele>1569.5</ele>
        <time>2012-10-04T13:49:21Z</time>
      </trkpt>
      <trkpt lat="42.70081" lon="0.1841">
        <ele>1569.5</ele>
        <time>2012-10-04T13:49:28Z</time>
      </trkpt>
      <trkpt lat="42.70081" lon="0.18411">
        <ele>1569</ele>
        <time>2012-10-04T13:49:43Z</time>
      </trkpt>
      <trkpt lat="42.70083" lon="0.1841">
        <ele>1568.5</ele>
        <time>2012-10-04T13:49:59Z</time>
      </trkpt>
      <trkpt lat="42.70083" lon="0.1841">
        <ele>1568.5</ele>
        <time>2012-10-04T13:50:19Z</time>
      </trkpt>
      <trkpt lat="42.70083" lon="0.18411">
        <ele>1568.1</ele>
        <time>2012-10-04T13:50:28Z</time>
      </trkpt>
      <trkpt lat="42.70083" lon="0.18411">
        <ele>1568.1</ele>
        <time>2012-10-04T13:50:41Z</time>
      </trkpt>
      <trkpt lat="42.70084" lon="0.18418">
        <ele>1568.1</ele>
        <time>2012-10-04T13:50:51Z</time>
      </trkpt>
      <trkpt lat="42.70087" lon="0.18432">
        <ele>1566.1</ele>
        <time>2012-10-04T13:50:54Z</time>
      </trkpt>
      <trkpt lat="42.70095" lon="0.18462">
        <ele>1564.2</ele>
        <time>2012-10-04T13:50:59Z</time>
      </trkpt>
      <trkpt lat="42.70096" lon="0.18477">
        <ele>1563.7</ele>
        <time>2012-10-04T13:51:01Z</time>
      </trkpt>
      <trkpt lat="42.70096" lon="0.18494">
        <ele>1562.8</ele>
        <time>2012-10-04T13:51:03Z</time>
      </trkpt>
      <trkpt lat="42.70097" lon="0.18502">
        <ele>1562.3</ele>
        <time>2012-10-04T13:51:04Z</time>
      </trkpt>
      <trkpt lat="42.70098" lon="0.18511">
        <ele>1561.3</ele>
        <time>2012-10-04T13:51:05Z</time>
      </trkpt>
      <trkpt lat="42.701" lon="0.1852">
        <ele>1561.3</ele>
        <time>2012-10-04T13:51:06Z</time>
      </trkpt>
      <trkpt lat="42.70101" lon="0.18529">
        <ele>1561.8</ele>
        <time>2012-10-04T13:51:07Z</time>
      </trkpt>
      <trkpt lat="42.70101" lon="0.18537">
        <ele>1561.3</ele>
        <time>2012-10-04T13:51:08Z</time>
      </trkpt>
      <trkpt lat="42.70101" lon="0.18544">
        <ele>1560.8</ele>
        <time>2012-10-04T13:51:09Z</time>
      </trkpt>
      <trkpt lat="42.70102" lon="0.1855">
        <ele>1560.4</ele>
        <time>2012-10-04T13:51:10Z</time>
      </trkpt>
      <trkpt lat="42.70103" lon="0.18554">
        <ele>1560.4</ele>
        <time>2012-10-04T13:51:11Z</time>
      </trkpt>
      <trkpt lat="42.70103" lon="0.18557">
        <ele>1560.4</ele>
        <time>2012-10-04T13:51:16Z</time>
      </trkpt>
      <trkpt lat="42.70101" lon="0.18554">
        <ele>1560.4</ele>
        <time>2012-10-04T13:51:35Z</time>
      </trkpt>
      <trkpt lat="42.70102" lon="0.18555">
        <ele>1560.4</ele>
        <time>2012-10-04T13:51:50Z</time>
      </trkpt>
      <trkpt lat="42.701" lon="0.18559">
        <ele>1559.9</ele>
        <time>2012-10-04T13:51:59Z</time>
      </trkpt>
      <trkpt lat="42.70096" lon="0.1858">
        <ele>1558.4</ele>
        <time>2012-10-04T13:52:05Z</time>
      </trkpt>
      <trkpt lat="42.70105" lon="0.1861">
        <ele>1558.9</ele>
        <time>2012-10-04T13:52:12Z</time>
      </trkpt>
      <trkpt lat="42.70108" lon="0.18633">
        <ele>1557.5</ele>
        <time>2012-10-04T13:52:17Z</time>
      </trkpt>
      <trkpt lat="42.70099" lon="0.18652">
        <ele>1556.5</ele>
        <time>2012-10-04T13:52:21Z</time>
      </trkpt>
      <trkpt lat="42.701" lon="0.18662">
        <ele>1557</ele>
        <time>2012-10-04T13:52:23Z</time>
      </trkpt>
      <trkpt lat="42.70115" lon="0.18693">
        <ele>1558.4</ele>
        <time>2012-10-04T13:52:30Z</time>
      </trkpt>
      <trkpt lat="42.70122" lon="0.18714">
        <ele>1558.4</ele>
        <time>2012-10-04T13:52:36Z</time>
      </trkpt>
      <trkpt lat="42.70127" lon="0.18737">
        <ele>1557.5</ele>
        <time>2012-10-04T13:52:41Z</time>
      </trkpt>
      <trkpt lat="42.70135" lon="0.18771">
        <ele>1557.9</ele>
        <time>2012-10-04T13:52:49Z</time>
      </trkpt>
      <trkpt lat="42.7014" lon="0.18801">
        <ele>1557.5</ele>
        <time>2012-10-04T13:52:56Z</time>
      </trkpt>
      <trkpt lat="42.70145" lon="0.18845">
        <ele>1557.9</ele>
        <time>2012-10-04T13:53:05Z</time>
      </trkpt>
      <trkpt lat="42.70149" lon="0.18882">
        <ele>1557.9</ele>
        <time>2012-10-04T13:53:13Z</time>
      </trkpt>
      <trkpt lat="42.70156" lon="0.18917">
        <ele>1557.9</ele>
        <time>2012-10-04T13:53:20Z</time>
      </trkpt>
      <trkpt lat="42.70163" lon="0.18951">
        <ele>1557.5</ele>
        <time>2012-10-04T13:53:27Z</time>
      </trkpt>
      <trkpt lat="42.70169" lon="0.18989">
        <ele>1557.5</ele>
        <time>2012-10-04T13:53:35Z</time>
      </trkpt>
      <trkpt lat="42.70173" lon="0.19026">
        <ele>1557.9</ele>
        <time>2012-10-04T13:53:43Z</time>
      </trkpt>
      <trkpt lat="42.70178" lon="0.19064">
        <ele>1557.5</ele>
        <time>2012-10-04T13:53:51Z</time>
      </trkpt>
      <trkpt lat="42.70183" lon="0.19093">
        <ele>1557.9</ele>
        <time>2012-10-04T13:53:58Z</time>
      </trkpt>
      <trkpt lat="42.70188" lon="0.19122">
        <ele>1557.5</ele>
        <time>2012-10-04T13:54:04Z</time>
      </trkpt>
      <trkpt lat="42.70197" lon="0.19161">
        <ele>1557.5</ele>
        <time>2012-10-04T13:54:12Z</time>
      </trkpt>
      <trkpt lat="42.70203" lon="0.19186">
        <ele>1557.5</ele>
        <time>2012-10-04T13:54:17Z</time>
      </trkpt>
      <trkpt lat="42.70206" lon="0.19222">
        <ele>1557.5</ele>
        <time>2012-10-04T13:54:24Z</time>
      </trkpt>
      <trkpt lat="42.70211" lon="0.19254">
        <ele>1557.5</ele>
        <time>2012-10-04T13:54:31Z</time>
      </trkpt>
      <trkpt lat="42.70214" lon="0.19284">
        <ele>1557</ele>
        <time>2012-10-04T13:54:37Z</time>
      </trkpt>
      <trkpt lat="42.7022" lon="0.19321">
        <ele>1557</ele>
        <time>2012-10-04T13:54:45Z</time>
      </trkpt>
      <trkpt lat="42.70224" lon="0.19352">
        <ele>1557</ele>
        <time>2012-10-04T13:54:52Z</time>
      </trkpt>
      <trkpt lat="42.70229" lon="0.19384">
        <ele>1557</ele>
        <time>2012-10-04T13:54:59Z</time>
      </trkpt>
      <trkpt lat="42.70233" lon="0.1941">
        <ele>1557</ele>
        <time>2012-10-04T13:55:05Z</time>
      </trkpt>
      <trkpt lat="42.70235" lon="0.19439">
        <ele>1556.5</ele>
        <time>2012-10-04T13:55:11Z</time>
      </trkpt>
      <trkpt lat="42.70236" lon="0.19465">
        <ele>1557</ele>
        <time>2012-10-04T13:55:17Z</time>
      </trkpt>
      <trkpt lat="42.70235" lon="0.19486">
        <ele>1556.5</ele>
        <time>2012-10-04T13:55:22Z</time>
      </trkpt>
      <trkpt lat="42.70236" lon="0.19509">
        <ele>1555.6</ele>
        <time>2012-10-04T13:55:26Z</time>
      </trkpt>
      <trkpt lat="42.70235" lon="0.19524">
        <ele>1555.1</ele>
        <time>2012-10-04T13:55:28Z</time>
      </trkpt>
      <trkpt lat="42.70233" lon="0.19552">
        <ele>1552.2</ele>
        <time>2012-10-04T13:55:33Z</time>
      </trkpt>
      <trkpt lat="42.70235" lon="0.19556">
        <ele>1550.7</ele>
        <time>2012-10-04T13:55:36Z</time>
      </trkpt>
      <trkpt lat="42.70246" lon="0.19531">
        <ele>1547.4</ele>
        <time>2012-10-04T13:55:41Z</time>
      </trkpt>
      <trkpt lat="42.70255" lon="0.19501">
        <ele>1543.5</ele>
        <time>2012-10-04T13:55:46Z</time>
      </trkpt>
      <trkpt lat="42.70259" lon="0.19486">
        <ele>1540.7</ele>
        <time>2012-10-04T13:55:48Z</time>
      </trkpt>
      <trkpt lat="42.70265" lon="0.19452">
        <ele>1535.8</ele>
        <time>2012-10-04T13:55:53Z</time>
      </trkpt>
      <trkpt lat="42.70267" lon="0.19447">
        <ele>1535.4</ele>
        <time>2012-10-04T13:55:54Z</time>
      </trkpt>
      <trkpt lat="42.70272" lon="0.19439">
        <ele>1534.9</ele>
        <time>2012-10-04T13:55:56Z</time>
      </trkpt>
      <trkpt lat="42.70275" lon="0.19449">
        <ele>1532</ele>
        <time>2012-10-04T13:56:00Z</time>
      </trkpt>
      <trkpt lat="42.70278" lon="0.19465">
        <ele>1529.1</ele>
        <time>2012-10-04T13:56:03Z</time>
      </trkpt>
      <trkpt lat="42.70282" lon="0.19468">
        <ele>1527.7</ele>
        <time>2012-10-04T13:56:05Z</time>
      </trkpt>
      <trkpt lat="42.7029" lon="0.19457">
        <ele>1524.3</ele>
        <time>2012-10-04T13:56:10Z</time>
      </trkpt>
      <trkpt lat="42.70292" lon="0.19473">
        <ele>1523.3</ele>
        <time>2012-10-04T13:56:15Z</time>
      </trkpt>
      <trkpt lat="42.70293" lon="0.19478">
        <ele>1521.9</ele>
        <time>2012-10-04T13:56:16Z</time>
      </trkpt>
      <trkpt lat="42.70296" lon="0.19487">
        <ele>1520.5</ele>
        <time>2012-10-04T13:56:19Z</time>
      </trkpt>
      <trkpt lat="42.70297" lon="0.19485">
        <ele>1520</ele>
        <time>2012-10-04T13:56:20Z</time>
      </trkpt>
      <trkpt lat="42.70301" lon="0.1948">
        <ele>1519</ele>
        <time>2012-10-04T13:56:22Z</time>
      </trkpt>
      <trkpt lat="42.70302" lon="0.19478">
        <ele>1518.5</ele>
        <time>2012-10-04T13:56:23Z</time>
      </trkpt>
      <trkpt lat="42.70305" lon="0.19471">
        <ele>1517.6</ele>
        <time>2012-10-04T13:56:25Z</time>
      </trkpt>
      <trkpt lat="42.70306" lon="0.19465">
        <ele>1517.1</ele>
        <time>2012-10-04T13:56:26Z</time>
      </trkpt>
      <trkpt lat="42.70309" lon="0.19459">
        <ele>1517.1</ele>
        <time>2012-10-04T13:56:27Z</time>
      </trkpt>
      <trkpt lat="42.70313" lon="0.19453">
        <ele>1516.1</ele>
        <time>2012-10-04T13:56:28Z</time>
      </trkpt>
      <trkpt lat="42.70316" lon="0.19449">
        <ele>1515.7</ele>
        <time>2012-10-04T13:56:29Z</time>
      </trkpt>
      <trkpt lat="42.70317" lon="0.19445">
        <ele>1516.1</ele>
        <time>2012-10-04T13:56:32Z</time>
      </trkpt>
      <trkpt lat="42.70318" lon="0.19446">
        <ele>1516.1</ele>
        <time>2012-10-04T13:56:40Z</time>
      </trkpt>
      <trkpt lat="42.70319" lon="0.19446">
        <ele>1515.7</ele>
        <time>2012-10-04T13:56:52Z</time>
      </trkpt>
      <trkpt lat="42.70322" lon="0.19446">
        <ele>1515.2</ele>
        <time>2012-10-04T13:57:10Z</time>
      </trkpt>
      <trkpt lat="42.70324" lon="0.19446">
        <ele>1515.2</ele>
        <time>2012-10-04T13:57:23Z</time>
      </trkpt>
      <trkpt lat="42.70325" lon="0.19444">
        <ele>1514.7</ele>
        <time>2012-10-04T13:57:33Z</time>
      </trkpt>
      <trkpt lat="42.70328" lon="0.19441">
        <ele>1513.7</ele>
        <time>2012-10-04T13:57:40Z</time>
      </trkpt>
      <trkpt lat="42.70328" lon="0.19442">
        <ele>1513.7</ele>
        <time>2012-10-04T13:57:41Z</time>
      </trkpt>
      <trkpt lat="42.70328" lon="0.19443">
        <ele>1513.7</ele>
        <time>2012-10-04T13:57:42Z</time>
      </trkpt>
      <trkpt lat="42.70328" lon="0.19446">
        <ele>1513.2</ele>
        <time>2012-10-04T13:57:43Z</time>
      </trkpt>
      <trkpt lat="42.70328" lon="0.1945">
        <ele>1512.8</ele>
        <time>2012-10-04T13:57:44Z</time>
      </trkpt>
      <trkpt lat="42.70328" lon="0.19456">
        <ele>1512.3</ele>
        <time>2012-10-04T13:57:45Z</time>
      </trkpt>
      <trkpt lat="42.70328" lon="0.19493">
        <ele>1508.9</ele>
        <time>2012-10-04T13:57:50Z</time>
      </trkpt>
      <trkpt lat="42.70327" lon="0.19502">
        <ele>1508.4</ele>
        <time>2012-10-04T13:57:51Z</time>
      </trkpt>
      <trkpt lat="42.70324" lon="0.19534">
        <ele>1505.1</ele>
        <time>2012-10-04T13:57:54Z</time>
      </trkpt>
      <trkpt lat="42.70323" lon="0.19554">
        <ele>1504.1</ele>
        <time>2012-10-04T13:57:56Z</time>
      </trkpt>
      <trkpt lat="42.70322" lon="0.19604">
        <ele>1502.7</ele>
        <time>2012-10-04T13:58:01Z</time>
      </trkpt>
      <trkpt lat="42.70318" lon="0.19631">
        <ele>1501.2</ele>
        <time>2012-10-04T13:58:04Z</time>
      </trkpt>
      <trkpt lat="42.70315" lon="0.1964">
        <ele>1500.3</ele>
        <time>2012-10-04T13:58:05Z</time>
      </trkpt>
      <trkpt lat="42.70311" lon="0.19647">
        <ele>1499.8</ele>
        <time>2012-10-04T13:58:06Z</time>
      </trkpt>
      <trkpt lat="42.70306" lon="0.19655">
        <ele>1497.9</ele>
        <time>2012-10-04T13:58:07Z</time>
      </trkpt>
      <trkpt lat="42.70302" lon="0.19665">
        <ele>1496.9</ele>
        <time>2012-10-04T13:58:08Z</time>
      </trkpt>
      <trkpt lat="42.703" lon="0.19676">
        <ele>1495.9</ele>
        <time>2012-10-04T13:58:09Z</time>
      </trkpt>
      <trkpt lat="42.70297" lon="0.19688">
        <ele>1494</ele>
        <time>2012-10-04T13:58:10Z</time>
      </trkpt>
      <trkpt lat="42.70295" lon="0.19699">
        <ele>1492.6</ele>
        <time>2012-10-04T13:58:11Z</time>
      </trkpt>
      <trkpt lat="42.70292" lon="0.19721">
        <ele>1488.7</ele>
        <time>2012-10-04T13:58:13Z</time>
      </trkpt>
      <trkpt lat="42.70287" lon="0.19745">
        <ele>1484.4</ele>
        <time>2012-10-04T13:58:15Z</time>
      </trkpt>
      <trkpt lat="42.70284" lon="0.19757">
        <ele>1482.5</ele>
        <time>2012-10-04T13:58:16Z</time>
      </trkpt>
      <trkpt lat="42.7028" lon="0.19769">
        <ele>1480.1</ele>
        <time>2012-10-04T13:58:17Z</time>
      </trkpt>
      <trkpt lat="42.70277" lon="0.1978">
        <ele>1478.2</ele>
        <time>2012-10-04T13:58:18Z</time>
      </trkpt>
      <trkpt lat="42.70275" lon="0.19789">
        <ele>1476.2</ele>
        <time>2012-10-04T13:58:19Z</time>
      </trkpt>
      <trkpt lat="42.70273" lon="0.19797">
        <ele>1475.3</ele>
        <time>2012-10-04T13:58:20Z</time>
      </trkpt>
      <trkpt lat="42.7027" lon="0.19806">
        <ele>1473.8</ele>
        <time>2012-10-04T13:58:21Z</time>
      </trkpt>
      <trkpt lat="42.70267" lon="0.19815">
        <ele>1471.9</ele>
        <time>2012-10-04T13:58:22Z</time>
      </trkpt>
      <trkpt lat="42.70263" lon="0.19823">
        <ele>1470.9</ele>
        <time>2012-10-04T13:58:23Z</time>
      </trkpt>
      <trkpt lat="42.70259" lon="0.19831">
        <ele>1469.5</ele>
        <time>2012-10-04T13:58:24Z</time>
      </trkpt>
      <trkpt lat="42.70255" lon="0.19839">
        <ele>1468.1</ele>
        <time>2012-10-04T13:58:25Z</time>
      </trkpt>
      <trkpt lat="42.70253" lon="0.19847">
        <ele>1467.1</ele>
        <time>2012-10-04T13:58:26Z</time>
      </trkpt>
      <trkpt lat="42.70248" lon="0.19861">
        <ele>1465.2</ele>
        <time>2012-10-04T13:58:28Z</time>
      </trkpt>
      <trkpt lat="42.70245" lon="0.19868">
        <ele>1464.2</ele>
        <time>2012-10-04T13:58:29Z</time>
      </trkpt>
      <trkpt lat="42.70241" lon="0.19874">
        <ele>1463.7</ele>
        <time>2012-10-04T13:58:30Z</time>
      </trkpt>
      <trkpt lat="42.70237" lon="0.1988">
        <ele>1463.3</ele>
        <time>2012-10-04T13:58:31Z</time>
      </trkpt>
      <trkpt lat="42.70233" lon="0.19885">
        <ele>1463.3</ele>
        <time>2012-10-04T13:58:32Z</time>
      </trkpt>
      <trkpt lat="42.70228" lon="0.19891">
        <ele>1462.8</ele>
        <time>2012-10-04T13:58:33Z</time>
      </trkpt>
      <trkpt lat="42.70191" lon="0.19926">
        <ele>1460.9</ele>
        <time>2012-10-04T13:58:40Z</time>
      </trkpt>
      <trkpt lat="42.70145" lon="0.1996">
        <ele>1460.4</ele>
        <time>2012-10-04T13:58:48Z</time>
      </trkpt>
      <trkpt lat="42.70119" lon="0.19981">
        <ele>1459.4</ele>
        <time>2012-10-04T13:58:54Z</time>
      </trkpt>
      <trkpt lat="42.70115" lon="0.19986">
        <ele>1459.4</ele>
        <time>2012-10-04T13:58:55Z</time>
      </trkpt>
      <trkpt lat="42.70111" lon="0.19992">
        <ele>1458.9</ele>
        <time>2012-10-04T13:58:56Z</time>
      </trkpt>
      <trkpt lat="42.70107" lon="0.19999">
        <ele>1458.5</ele>
        <time>2012-10-04T13:58:57Z</time>
      </trkpt>
      <trkpt lat="42.70103" lon="0.20005">
        <ele>1458</ele>
        <time>2012-10-04T13:58:58Z</time>
      </trkpt>
      <trkpt lat="42.70098" lon="0.2001">
        <ele>1456.5</ele>
        <time>2012-10-04T13:58:59Z</time>
      </trkpt>
      <trkpt lat="42.70092" lon="0.20015">
        <ele>1456.5</ele>
        <time>2012-10-04T13:59:00Z</time>
      </trkpt>
      <trkpt lat="42.70083" lon="0.20022">
        <ele>1455.1</ele>
        <time>2012-10-04T13:59:02Z</time>
      </trkpt>
      <trkpt lat="42.7008" lon="0.20023">
        <ele>1454.6</ele>
        <time>2012-10-04T13:59:03Z</time>
      </trkpt>
      <trkpt lat="42.70079" lon="0.20024">
        <ele>1454.1</ele>
        <time>2012-10-04T13:59:04Z</time>
      </trkpt>
      <trkpt lat="42.7008" lon="0.20023">
        <ele>1454.1</ele>
        <time>2012-10-04T13:59:09Z</time>
      </trkpt>
      <trkpt lat="42.70072" lon="0.20027">
        <ele>1452.7</ele>
        <time>2012-10-04T13:59:14Z</time>
      </trkpt>
      <trkpt lat="42.70069" lon="0.20029">
        <ele>1452.2</ele>
        <time>2012-10-04T13:59:15Z</time>
      </trkpt>
      <trkpt lat="42.70055" lon="0.20038">
        <ele>1449.3</ele>
        <time>2012-10-04T13:59:18Z</time>
      </trkpt>
      <trkpt lat="42.7005" lon="0.20043">
        <ele>1448.4</ele>
        <time>2012-10-04T13:59:19Z</time>
      </trkpt>
      <trkpt lat="42.70034" lon="0.20058">
        <ele>1445</ele>
        <time>2012-10-04T13:59:22Z</time>
      </trkpt>
      <trkpt lat="42.70027" lon="0.20063">
        <ele>1444</ele>
        <time>2012-10-04T13:59:23Z</time>
      </trkpt>
      <trkpt lat="42.70019" lon="0.20067">
        <ele>1443.1</ele>
        <time>2012-10-04T13:59:24Z</time>
      </trkpt>
      <trkpt lat="42.70011" lon="0.20072">
        <ele>1441.2</ele>
        <time>2012-10-04T13:59:25Z</time>
      </trkpt>
      <trkpt lat="42.69985" lon="0.20085">
        <ele>1437.3</ele>
        <time>2012-10-04T13:59:28Z</time>
      </trkpt>
      <trkpt lat="42.69966" lon="0.20092">
        <ele>1434.4</ele>
        <time>2012-10-04T13:59:30Z</time>
      </trkpt>
      <trkpt lat="42.69956" lon="0.20096">
        <ele>1432.5</ele>
        <time>2012-10-04T13:59:31Z</time>
      </trkpt>
      <trkpt lat="42.69935" lon="0.20104">
        <ele>1428.2</ele>
        <time>2012-10-04T13:59:33Z</time>
      </trkpt>
      <trkpt lat="42.69924" lon="0.20109">
        <ele>1426.2</ele>
        <time>2012-10-04T13:59:34Z</time>
      </trkpt>
      <trkpt lat="42.69903" lon="0.2012">
        <ele>1422.9</ele>
        <time>2012-10-04T13:59:36Z</time>
      </trkpt>
      <trkpt lat="42.69893" lon="0.20122">
        <ele>1421.9</ele>
        <time>2012-10-04T13:59:37Z</time>
      </trkpt>
      <trkpt lat="42.69885" lon="0.20122">
        <ele>1421</ele>
        <time>2012-10-04T13:59:38Z</time>
      </trkpt>
      <trkpt lat="42.69879" lon="0.20125">
        <ele>1420.5</ele>
        <time>2012-10-04T13:59:39Z</time>
      </trkpt>
      <trkpt lat="42.69875" lon="0.2013">
        <ele>1419.5</ele>
        <time>2012-10-04T13:59:40Z</time>
      </trkpt>
      <trkpt lat="42.69875" lon="0.20134">
        <ele>1419.5</ele>
        <time>2012-10-04T13:59:41Z</time>
      </trkpt>
      <trkpt lat="42.69877" lon="0.20137">
        <ele>1419</ele>
        <time>2012-10-04T13:59:42Z</time>
      </trkpt>
      <trkpt lat="42.6988" lon="0.20138">
        <ele>1418.6</ele>
        <time>2012-10-04T13:59:43Z</time>
      </trkpt>
      <trkpt lat="42.69885" lon="0.20138">
        <ele>1418.1</ele>
        <time>2012-10-04T13:59:44Z</time>
      </trkpt>
      <trkpt lat="42.69891" lon="0.20139">
        <ele>1417.1</ele>
        <time>2012-10-04T13:59:45Z</time>
      </trkpt>
      <trkpt lat="42.69897" lon="0.20141">
        <ele>1416.6</ele>
        <time>2012-10-04T13:59:46Z</time>
      </trkpt>
      <trkpt lat="42.69911" lon="0.20146">
        <ele>1414.7</ele>
        <time>2012-10-04T13:59:48Z</time>
      </trkpt>
      <trkpt lat="42.6994" lon="0.2015">
        <ele>1412.3</ele>
        <time>2012-10-04T13:59:52Z</time>
      </trkpt>
      <trkpt lat="42.69971" lon="0.20156">
        <ele>1408.9</ele>
        <time>2012-10-04T13:59:56Z</time>
      </trkpt>
      <trkpt lat="42.70008" lon="0.20154">
        <ele>1405.1</ele>
        <time>2012-10-04T14:00:00Z</time>
      </trkpt>
      <trkpt lat="42.70029" lon="0.20152">
        <ele>1406.1</ele>
        <time>2012-10-04T14:00:03Z</time>
      </trkpt>
      <trkpt lat="42.70029" lon="0.20152">
        <ele>1406.1</ele>
        <time>2012-10-04T14:00:04Z</time>
      </trkpt>
      <trkpt lat="42.7003" lon="0.2015">
        <ele>1405.1</ele>
        <time>2012-10-04T14:00:09Z</time>
      </trkpt>
      <trkpt lat="42.70031" lon="0.20148">
        <ele>1405.6</ele>
        <time>2012-10-04T14:00:12Z</time>
      </trkpt>
      <trkpt lat="42.7003" lon="0.20149">
        <ele>1405.1</ele>
        <time>2012-10-04T14:00:17Z</time>
      </trkpt>
      <trkpt lat="42.70031" lon="0.20152">
        <ele>1404.6</ele>
        <time>2012-10-04T14:00:35Z</time>
      </trkpt>
      <trkpt lat="42.70034" lon="0.20153">
        <ele>1403.2</ele>
        <time>2012-10-04T14:01:01Z</time>
      </trkpt>
    </trkseg>
  </trk>
</gpx>